<?xml version='1.0' encoding='UTF-8'?><gpx version="1.1" creator="JPX - https://github.com/jenetics/jpx" xmlns="http://www.topografix.com/GPX/1/1"><trk><trkseg><trkpt lat="44.4647283" lon="11.4005644"><ele>80.0</ele><time>2026-04-30T09:29:00.618Z</time></trkpt><trkpt lat="44.4646623" lon="11.400523"><ele>80.0</ele><time>2026-04-30T09:29:06.641Z</time></trkpt><trkpt lat="44.4646271" lon="11.4004365"><ele>80.0</ele><time>2026-04-30T09:29:12.6Z</time></trkpt><trkpt lat="44.4645637" lon="11.4004019"><ele>80.0</ele><time>2026-04-30T09:29:20.671Z</time></trkpt><trkpt lat="44.4645055" lon="11.4003663"><ele>80.0</ele><time>2026-04-30T09:29:45.683Z</time></trkpt><trkpt lat="44.4644673" lon="11.4002833"><ele>80.0</ele><time>2026-04-30T09:29:49.682Z</time></trkpt><trkpt lat="44.4644699" lon="11.4001917"><ele>80.0</ele><time>2026-04-30T09:29:51.681Z</time></trkpt><trkpt lat="44.46449" lon="11.4000776"><ele>80.0</ele><time>2026-04-30T09:29:53.675Z</time></trkpt><trkpt lat="44.4645239" lon="11.3999503"><ele>80.0</ele><time>2026-04-30T09:29:55.671Z</time></trkpt><trkpt lat="44.4646255" lon="11.3997062"><ele>80.0</ele><time>2026-04-30T09:29:56.677Z</time></trkpt><trkpt lat="44.4646762" lon="11.3995892"><ele>80.0</ele><time>2026-04-30T09:29:58.674Z</time></trkpt><trkpt lat="44.4647347" lon="11.3994674"><ele>79.4</ele><time>2026-04-30T09:30:00.68Z</time></trkpt><trkpt lat="44.4648037" lon="11.399341"><ele>78.8</ele><time>2026-04-30T09:30:02.684Z</time></trkpt><trkpt lat="44.4648775" lon="11.3992143"><ele>78.2</ele><time>2026-04-30T09:30:04.688Z</time></trkpt><trkpt lat="44.4649569" lon="11.3990835"><ele>77.6</ele><time>2026-04-30T09:30:06.673Z</time></trkpt><trkpt lat="44.4649995" lon="11.3990181"><ele>77.0</ele><time>2026-04-30T09:30:07.675Z</time></trkpt><trkpt lat="44.4650421" lon="11.3989515"><ele>77.0</ele><time>2026-04-30T09:30:08.685Z</time></trkpt><trkpt lat="44.4650847" lon="11.3988839"><ele>77.0</ele><time>2026-04-30T09:30:09.682Z</time></trkpt><trkpt lat="44.4651292" lon="11.3988148"><ele>77.0</ele><time>2026-04-30T09:30:10.688Z</time></trkpt><trkpt lat="44.465174" lon="11.3987438"><ele>77.0</ele><time>2026-04-30T09:30:11.693Z</time></trkpt><trkpt lat="44.465219" lon="11.3986718"><ele>77.0</ele><time>2026-04-30T09:30:12.68Z</time></trkpt><trkpt lat="44.4652657" lon="11.3985996"><ele>77.0</ele><time>2026-04-30T09:30:13.682Z</time></trkpt><trkpt lat="44.465313" lon="11.398527"><ele>77.0</ele><time>2026-04-30T09:30:14.68Z</time></trkpt><trkpt lat="44.4653593" lon="11.398454"><ele>77.0</ele><time>2026-04-30T09:30:15.682Z</time></trkpt><trkpt lat="44.4654058" lon="11.398379"><ele>77.0</ele><time>2026-04-30T09:30:16.671Z</time></trkpt><trkpt lat="44.4654543" lon="11.3983044"><ele>77.0</ele><time>2026-04-30T09:30:17.676Z</time></trkpt><trkpt lat="44.4655032" lon="11.3982311"><ele>77.0</ele><time>2026-04-30T09:30:18.688Z</time></trkpt><trkpt lat="44.4655528" lon="11.3981578"><ele>77.0</ele><time>2026-04-30T09:30:19.673Z</time></trkpt><trkpt lat="44.4656028" lon="11.3980833"><ele>77.0</ele><time>2026-04-30T09:30:20.675Z</time></trkpt><trkpt lat="44.4656526" lon="11.3980092"><ele>77.0</ele><time>2026-04-30T09:30:21.668Z</time></trkpt><trkpt lat="44.4657021" lon="11.3979344"><ele>77.0</ele><time>2026-04-30T09:30:22.681Z</time></trkpt><trkpt lat="44.4657516" lon="11.3978598"><ele>77.0</ele><time>2026-04-30T09:30:23.676Z</time></trkpt><trkpt lat="44.4658009" lon="11.3977845"><ele>77.0</ele><time>2026-04-30T09:30:24.675Z</time></trkpt><trkpt lat="44.4658506" lon="11.3977074"><ele>77.0</ele><time>2026-04-30T09:30:25.683Z</time></trkpt><trkpt lat="44.4658995" lon="11.3976298"><ele>77.0</ele><time>2026-04-30T09:30:26.682Z</time></trkpt><trkpt lat="44.4659483" lon="11.3975525"><ele>77.0</ele><time>2026-04-30T09:30:27.683Z</time></trkpt><trkpt lat="44.4659979" lon="11.397474"><ele>77.0</ele><time>2026-04-30T09:30:28.677Z</time></trkpt><trkpt lat="44.4660476" lon="11.3973943"><ele>77.0</ele><time>2026-04-30T09:30:29.676Z</time></trkpt><trkpt lat="44.466099" lon="11.3973152"><ele>77.0</ele><time>2026-04-30T09:30:30.692Z</time></trkpt><trkpt lat="44.4661511" lon="11.3972388"><ele>77.0</ele><time>2026-04-30T09:30:31.677Z</time></trkpt><trkpt lat="44.4662057" lon="11.397167"><ele>77.0</ele><time>2026-04-30T09:30:32.68Z</time></trkpt><trkpt lat="44.4662614" lon="11.3970984"><ele>77.0</ele><time>2026-04-30T09:30:33.67Z</time></trkpt><trkpt lat="44.4663182" lon="11.3970322"><ele>77.0</ele><time>2026-04-30T09:30:34.681Z</time></trkpt><trkpt lat="44.4663758" lon="11.3969693"><ele>77.0</ele><time>2026-04-30T09:30:35.683Z</time></trkpt><trkpt lat="44.4664339" lon="11.3969085"><ele>76.42857142857143</ele><time>2026-04-30T09:30:36.681Z</time></trkpt><trkpt lat="44.4664922" lon="11.3968485"><ele>75.85714285714286</ele><time>2026-04-30T09:30:37.685Z</time></trkpt><trkpt lat="44.4665527" lon="11.3967946"><ele>75.28571428571428</ele><time>2026-04-30T09:30:38.681Z</time></trkpt><trkpt lat="44.4666133" lon="11.3967443"><ele>74.71428571428572</ele><time>2026-04-30T09:30:39.683Z</time></trkpt><trkpt lat="44.4666745" lon="11.3966941"><ele>74.14285714285714</ele><time>2026-04-30T09:30:40.68Z</time></trkpt><trkpt lat="44.4667349" lon="11.3966446"><ele>73.57142857142857</ele><time>2026-04-30T09:30:41.68Z</time></trkpt><trkpt lat="44.4667929" lon="11.3965979"><ele>73.0</ele><time>2026-04-30T09:30:42.683Z</time></trkpt><trkpt lat="44.46685" lon="11.3965531"><ele>73.0</ele><time>2026-04-30T09:30:43.683Z</time></trkpt><trkpt lat="44.4669065" lon="11.3965092"><ele>73.0</ele><time>2026-04-30T09:30:44.675Z</time></trkpt><trkpt lat="44.4669653" lon="11.396469"><ele>73.0</ele><time>2026-04-30T09:30:45.68Z</time></trkpt><trkpt lat="44.467026" lon="11.3964322"><ele>73.0</ele><time>2026-04-30T09:30:46.678Z</time></trkpt><trkpt lat="44.4670864" lon="11.3963903"><ele>73.0</ele><time>2026-04-30T09:30:47.684Z</time></trkpt><trkpt lat="44.4671455" lon="11.3963416"><ele>73.0</ele><time>2026-04-30T09:30:48.679Z</time></trkpt><trkpt lat="44.4672061" lon="11.3962913"><ele>73.0</ele><time>2026-04-30T09:30:49.68Z</time></trkpt><trkpt lat="44.4672687" lon="11.3962421"><ele>73.0</ele><time>2026-04-30T09:30:50.676Z</time></trkpt><trkpt lat="44.467332" lon="11.3961908"><ele>73.0</ele><time>2026-04-30T09:30:51.678Z</time></trkpt><trkpt lat="44.4673973" lon="11.3961383"><ele>73.0</ele><time>2026-04-30T09:30:52.677Z</time></trkpt><trkpt lat="44.467463" lon="11.3960839"><ele>73.0</ele><time>2026-04-30T09:30:53.676Z</time></trkpt><trkpt lat="44.4675304" lon="11.3960289"><ele>73.0</ele><time>2026-04-30T09:30:54.675Z</time></trkpt><trkpt lat="44.4675969" lon="11.3959715"><ele>73.0</ele><time>2026-04-30T09:30:55.678Z</time></trkpt><trkpt lat="44.4676647" lon="11.3959155"><ele>73.0</ele><time>2026-04-30T09:30:56.677Z</time></trkpt><trkpt lat="44.4677335" lon="11.3958594"><ele>73.0</ele><time>2026-04-30T09:30:57.687Z</time></trkpt><trkpt lat="44.4678018" lon="11.3958043"><ele>73.0</ele><time>2026-04-30T09:30:58.686Z</time></trkpt><trkpt lat="44.4678689" lon="11.3957484"><ele>73.0</ele><time>2026-04-30T09:30:59.68Z</time></trkpt><trkpt lat="44.4679361" lon="11.3956948"><ele>73.0</ele><time>2026-04-30T09:31:00.689Z</time></trkpt><trkpt lat="44.4680028" lon="11.3956411"><ele>73.0</ele><time>2026-04-30T09:31:01.686Z</time></trkpt><trkpt lat="44.4680693" lon="11.3955876"><ele>72.42857142857143</ele><time>2026-04-30T09:31:02.688Z</time></trkpt><trkpt lat="44.4681344" lon="11.3955335"><ele>71.85714285714286</ele><time>2026-04-30T09:31:03.687Z</time></trkpt><trkpt lat="44.4681997" lon="11.3954825"><ele>71.28571428571429</ele><time>2026-04-30T09:31:04.683Z</time></trkpt><trkpt lat="44.4682639" lon="11.3954313"><ele>70.71428571428572</ele><time>2026-04-30T09:31:05.67Z</time></trkpt><trkpt lat="44.4683275" lon="11.3953785"><ele>70.14285714285715</ele><time>2026-04-30T09:31:06.676Z</time></trkpt><trkpt lat="44.46839" lon="11.395324"><ele>69.57142857142857</ele><time>2026-04-30T09:31:07.688Z</time></trkpt><trkpt lat="44.4684543" lon="11.3952712"><ele>69.0</ele><time>2026-04-30T09:31:08.686Z</time></trkpt><trkpt lat="44.4685197" lon="11.3952187"><ele>68.85714285714286</ele><time>2026-04-30T09:31:09.678Z</time></trkpt><trkpt lat="44.4685846" lon="11.3951675"><ele>68.71428571428572</ele><time>2026-04-30T09:31:10.68Z</time></trkpt><trkpt lat="44.4686492" lon="11.3951156"><ele>68.57142857142857</ele><time>2026-04-30T09:31:11.673Z</time></trkpt><trkpt lat="44.4687155" lon="11.395068"><ele>68.42857142857143</ele><time>2026-04-30T09:31:12.686Z</time></trkpt><trkpt lat="44.4687818" lon="11.3950234"><ele>68.28571428571428</ele><time>2026-04-30T09:31:13.69Z</time></trkpt><trkpt lat="44.4688499" lon="11.3949839"><ele>68.14285714285714</ele><time>2026-04-30T09:31:14.681Z</time></trkpt><trkpt lat="44.4689187" lon="11.39495"><ele>68.0</ele><time>2026-04-30T09:31:15.681Z</time></trkpt><trkpt lat="44.4689861" lon="11.394919"><ele>67.99999999999999</ele><time>2026-04-30T09:31:16.683Z</time></trkpt><trkpt lat="44.4690523" lon="11.3948954"><ele>68.0</ele><time>2026-04-30T09:31:17.68Z</time></trkpt><trkpt lat="44.4691177" lon="11.3948766"><ele>68.0</ele><time>2026-04-30T09:31:18.689Z</time></trkpt><trkpt lat="44.4691827" lon="11.3948558"><ele>68.0</ele><time>2026-04-30T09:31:19.693Z</time></trkpt><trkpt lat="44.4692493" lon="11.3948321"><ele>68.0</ele><time>2026-04-30T09:31:20.696Z</time></trkpt><trkpt lat="44.4693163" lon="11.3948021"><ele>67.99999999999999</ele><time>2026-04-30T09:31:21.681Z</time></trkpt><trkpt lat="44.4693834" lon="11.3947668"><ele>68.0</ele><time>2026-04-30T09:31:22.679Z</time></trkpt><trkpt lat="44.4694513" lon="11.394728"><ele>68.0</ele><time>2026-04-30T09:31:23.676Z</time></trkpt><trkpt lat="44.4695213" lon="11.3946896"><ele>68.0</ele><time>2026-04-30T09:31:24.677Z</time></trkpt><trkpt lat="44.4695947" lon="11.3946568"><ele>68.0</ele><time>2026-04-30T09:31:25.68Z</time></trkpt><trkpt lat="44.4696699" lon="11.3946218"><ele>68.0</ele><time>2026-04-30T09:31:26.682Z</time></trkpt><trkpt lat="44.469744" lon="11.3945753"><ele>68.0</ele><time>2026-04-30T09:31:27.692Z</time></trkpt><trkpt lat="44.4698128" lon="11.3945112"><ele>68.0</ele><time>2026-04-30T09:31:28.679Z</time></trkpt><trkpt lat="44.469873" lon="11.3944309"><ele>68.16666666666667</ele><time>2026-04-30T09:31:29.675Z</time></trkpt><trkpt lat="44.4699217" lon="11.3943374"><ele>68.33333333333334</ele><time>2026-04-30T09:31:30.68Z</time></trkpt><trkpt lat="44.4699542" lon="11.3942324"><ele>68.5</ele><time>2026-04-30T09:31:31.684Z</time></trkpt><trkpt lat="44.4699716" lon="11.3941211"><ele>68.66666666666667</ele><time>2026-04-30T09:31:32.682Z</time></trkpt><trkpt lat="44.4699771" lon="11.3940072"><ele>68.83333333333333</ele><time>2026-04-30T09:31:33.682Z</time></trkpt><trkpt lat="44.4699722" lon="11.39389"><ele>69.0</ele><time>2026-04-30T09:31:34.683Z</time></trkpt><trkpt lat="44.4699624" lon="11.3937692"><ele>69.33333333333333</ele><time>2026-04-30T09:31:35.68Z</time></trkpt><trkpt lat="44.4699551" lon="11.3936467"><ele>69.66666666666667</ele><time>2026-04-30T09:31:36.679Z</time></trkpt><trkpt lat="44.4699489" lon="11.3935257"><ele>70.0</ele><time>2026-04-30T09:31:37.69Z</time></trkpt><trkpt lat="44.4699431" lon="11.3934055"><ele>70.33333333333334</ele><time>2026-04-30T09:31:38.684Z</time></trkpt><trkpt lat="44.4699386" lon="11.3932868"><ele>70.66666666666667</ele><time>2026-04-30T09:31:39.682Z</time></trkpt><trkpt lat="44.469936" lon="11.3931692"><ele>71.0</ele><time>2026-04-30T09:31:40.679Z</time></trkpt><trkpt lat="44.4699365" lon="11.3930528"><ele>71.33333333333334</ele><time>2026-04-30T09:31:41.681Z</time></trkpt><trkpt lat="44.469943" lon="11.3929384"><ele>71.66666666666667</ele><time>2026-04-30T09:31:42.689Z</time></trkpt><trkpt lat="44.4699578" lon="11.3928293"><ele>72.0</ele><time>2026-04-30T09:31:43.686Z</time></trkpt><trkpt lat="44.469983" lon="11.3927274"><ele>72.33333333333333</ele><time>2026-04-30T09:31:44.685Z</time></trkpt><trkpt lat="44.4700147" lon="11.3926329"><ele>72.66666666666666</ele><time>2026-04-30T09:31:45.672Z</time></trkpt><trkpt lat="44.4700487" lon="11.3925417"><ele>73.0</ele><time>2026-04-30T09:31:46.682Z</time></trkpt><trkpt lat="44.4700828" lon="11.3924513"><ele>73.0</ele><time>2026-04-30T09:31:47.682Z</time></trkpt><trkpt lat="44.4701165" lon="11.3923614"><ele>73.0</ele><time>2026-04-30T09:31:48.681Z</time></trkpt><trkpt lat="44.4701496" lon="11.3922714"><ele>73.0</ele><time>2026-04-30T09:31:49.667Z</time></trkpt><trkpt lat="44.4701836" lon="11.3921823"><ele>73.0</ele><time>2026-04-30T09:31:50.679Z</time></trkpt><trkpt lat="44.4702174" lon="11.3920932"><ele>73.0</ele><time>2026-04-30T09:31:51.695Z</time></trkpt><trkpt lat="44.4702502" lon="11.3920072"><ele>73.0</ele><time>2026-04-30T09:31:52.674Z</time></trkpt><trkpt lat="44.470282" lon="11.3919221"><ele>73.0</ele><time>2026-04-30T09:31:53.673Z</time></trkpt><trkpt lat="44.4703126" lon="11.3918345"><ele>73.0</ele><time>2026-04-30T09:31:54.685Z</time></trkpt><trkpt lat="44.4703437" lon="11.3917458"><ele>73.0</ele><time>2026-04-30T09:31:55.683Z</time></trkpt><trkpt lat="44.4703757" lon="11.3916578"><ele>73.0</ele><time>2026-04-30T09:31:56.684Z</time></trkpt><trkpt lat="44.4704127" lon="11.3915721"><ele>73.0</ele><time>2026-04-30T09:31:57.692Z</time></trkpt><trkpt lat="44.4704543" lon="11.3914887"><ele>73.0</ele><time>2026-04-30T09:31:58.682Z</time></trkpt><trkpt lat="44.470493" lon="11.3914026"><ele>73.0</ele><time>2026-04-30T09:31:59.678Z</time></trkpt><trkpt lat="44.4705297" lon="11.3913137"><ele>73.0</ele><time>2026-04-30T09:32:00.685Z</time></trkpt><trkpt lat="44.4705643" lon="11.3912243"><ele>73.0</ele><time>2026-04-30T09:32:01.679Z</time></trkpt><trkpt lat="44.4705984" lon="11.3911342"><ele>73.0</ele><time>2026-04-30T09:32:02.689Z</time></trkpt><trkpt lat="44.4706328" lon="11.3910442"><ele>73.0</ele><time>2026-04-30T09:32:03.677Z</time></trkpt><trkpt lat="44.4706676" lon="11.3909543"><ele>73.0</ele><time>2026-04-30T09:32:04.688Z</time></trkpt><trkpt lat="44.470702" lon="11.3908628"><ele>73.0</ele><time>2026-04-30T09:32:05.687Z</time></trkpt><trkpt lat="44.4707351" lon="11.3907712"><ele>73.0</ele><time>2026-04-30T09:32:06.69Z</time></trkpt><trkpt lat="44.4707687" lon="11.3906812"><ele>73.0</ele><time>2026-04-30T09:32:07.676Z</time></trkpt><trkpt lat="44.4708029" lon="11.3905905"><ele>73.5</ele><time>2026-04-30T09:32:08.68Z</time></trkpt><trkpt lat="44.4708372" lon="11.3904988"><ele>74.0</ele><time>2026-04-30T09:32:09.692Z</time></trkpt><trkpt lat="44.4708721" lon="11.3904068"><ele>74.5</ele><time>2026-04-30T09:32:10.683Z</time></trkpt><trkpt lat="44.4709069" lon="11.3903136"><ele>75.0</ele><time>2026-04-30T09:32:11.681Z</time></trkpt><trkpt lat="44.4709417" lon="11.3902201"><ele>75.5</ele><time>2026-04-30T09:32:12.689Z</time></trkpt><trkpt lat="44.4709777" lon="11.3901254"><ele>76.0</ele><time>2026-04-30T09:32:13.684Z</time></trkpt><trkpt lat="44.4710143" lon="11.390029"><ele>76.0</ele><time>2026-04-30T09:32:14.678Z</time></trkpt><trkpt lat="44.4710501" lon="11.3899321"><ele>76.0</ele><time>2026-04-30T09:32:15.675Z</time></trkpt><trkpt lat="44.4710863" lon="11.3898346"><ele>76.0</ele><time>2026-04-30T09:32:16.68Z</time></trkpt><trkpt lat="44.4711238" lon="11.3897371"><ele>76.0</ele><time>2026-04-30T09:32:17.681Z</time></trkpt><trkpt lat="44.4711619" lon="11.3896394"><ele>76.0</ele><time>2026-04-30T09:32:18.674Z</time></trkpt><trkpt lat="44.4712" lon="11.3895401"><ele>76.0</ele><time>2026-04-30T09:32:19.685Z</time></trkpt><trkpt lat="44.4712387" lon="11.3894411"><ele>75.5</ele><time>2026-04-30T09:32:20.679Z</time></trkpt><trkpt lat="44.4712774" lon="11.3893414"><ele>75.0</ele><time>2026-04-30T09:32:21.676Z</time></trkpt><trkpt lat="44.4713142" lon="11.3892412"><ele>74.5</ele><time>2026-04-30T09:32:22.688Z</time></trkpt><trkpt lat="44.4713517" lon="11.3891398"><ele>74.0</ele><time>2026-04-30T09:32:23.681Z</time></trkpt><trkpt lat="44.4713882" lon="11.3890376"><ele>73.5</ele><time>2026-04-30T09:32:24.679Z</time></trkpt><trkpt lat="44.471423" lon="11.3889334"><ele>73.0</ele><time>2026-04-30T09:32:25.686Z</time></trkpt><trkpt lat="44.4714595" lon="11.3888285"><ele>72.83333333333333</ele><time>2026-04-30T09:32:26.678Z</time></trkpt><trkpt lat="44.4714977" lon="11.388723"><ele>72.66666666666666</ele><time>2026-04-30T09:32:27.676Z</time></trkpt><trkpt lat="44.471541" lon="11.3886217"><ele>72.5</ele><time>2026-04-30T09:32:28.667Z</time></trkpt><trkpt lat="44.471586" lon="11.3885239"><ele>72.33333333333333</ele><time>2026-04-30T09:32:29.684Z</time></trkpt><trkpt lat="44.4716268" lon="11.388423"><ele>72.16666666666667</ele><time>2026-04-30T09:32:30.673Z</time></trkpt><trkpt lat="44.4716653" lon="11.3883223"><ele>72.0</ele><time>2026-04-30T09:32:31.686Z</time></trkpt><trkpt lat="44.4717033" lon="11.3882221"><ele>72.0</ele><time>2026-04-30T09:32:32.678Z</time></trkpt><trkpt lat="44.4717412" lon="11.3881227"><ele>72.0</ele><time>2026-04-30T09:32:33.672Z</time></trkpt><trkpt lat="44.4717787" lon="11.3880244"><ele>72.0</ele><time>2026-04-30T09:32:34.688Z</time></trkpt><trkpt lat="44.4718164" lon="11.3879264"><ele>72.0</ele><time>2026-04-30T09:32:35.688Z</time></trkpt><trkpt lat="44.4718539" lon="11.3878291"><ele>72.0</ele><time>2026-04-30T09:32:36.676Z</time></trkpt><trkpt lat="44.4718887" lon="11.3877355"><ele>72.0</ele><time>2026-04-30T09:32:37.679Z</time></trkpt><trkpt lat="44.4719242" lon="11.3876444"><ele>71.83333333333333</ele><time>2026-04-30T09:32:38.68Z</time></trkpt><trkpt lat="44.4719602" lon="11.387555"><ele>71.66666666666667</ele><time>2026-04-30T09:32:39.669Z</time></trkpt><trkpt lat="44.4719969" lon="11.3874645"><ele>71.5</ele><time>2026-04-30T09:32:40.674Z</time></trkpt><trkpt lat="44.4720405" lon="11.3873762"><ele>71.33333333333334</ele><time>2026-04-30T09:32:41.673Z</time></trkpt><trkpt lat="44.4720956" lon="11.3872983"><ele>71.16666666666667</ele><time>2026-04-30T09:32:42.684Z</time></trkpt><trkpt lat="44.4721564" lon="11.3872261"><ele>71.0</ele><time>2026-04-30T09:32:43.676Z</time></trkpt><trkpt lat="44.4722174" lon="11.3871522"><ele>70.66666666666667</ele><time>2026-04-30T09:32:44.676Z</time></trkpt><trkpt lat="44.4722723" lon="11.3870692"><ele>70.33333333333334</ele><time>2026-04-30T09:32:45.668Z</time></trkpt><trkpt lat="44.4723138" lon="11.3869717"><ele>70.0</ele><time>2026-04-30T09:32:46.682Z</time></trkpt><trkpt lat="44.472338" lon="11.3868619"><ele>69.66666666666667</ele><time>2026-04-30T09:32:47.683Z</time></trkpt><trkpt lat="44.4723497" lon="11.386745"><ele>69.33333333333333</ele><time>2026-04-30T09:32:48.666Z</time></trkpt><trkpt lat="44.4723612" lon="11.3866273"><ele>69.0</ele><time>2026-04-30T09:32:49.676Z</time></trkpt><trkpt lat="44.4723777" lon="11.3865107"><ele>69.0</ele><time>2026-04-30T09:32:50.685Z</time></trkpt><trkpt lat="44.4724013" lon="11.3863958"><ele>69.0</ele><time>2026-04-30T09:32:51.678Z</time></trkpt><trkpt lat="44.472426" lon="11.3862794"><ele>69.0</ele><time>2026-04-30T09:32:52.682Z</time></trkpt><trkpt lat="44.4724651" lon="11.3861713"><ele>69.0</ele><time>2026-04-30T09:32:53.672Z</time></trkpt><trkpt lat="44.4725042" lon="11.3860647"><ele>69.0</ele><time>2026-04-30T09:32:54.677Z</time></trkpt><trkpt lat="44.4725444" lon="11.3859583"><ele>69.0</ele><time>2026-04-30T09:32:55.684Z</time></trkpt><trkpt lat="44.4725838" lon="11.3858538"><ele>69.0</ele><time>2026-04-30T09:32:56.689Z</time></trkpt><trkpt lat="44.4726238" lon="11.3857504"><ele>69.0</ele><time>2026-04-30T09:32:57.677Z</time></trkpt><trkpt lat="44.4726637" lon="11.3856477"><ele>69.0</ele><time>2026-04-30T09:32:58.677Z</time></trkpt><trkpt lat="44.4727029" lon="11.3855446"><ele>69.0</ele><time>2026-04-30T09:32:59.68Z</time></trkpt><trkpt lat="44.472742" lon="11.3854424"><ele>69.0</ele><time>2026-04-30T09:33:00.683Z</time></trkpt><trkpt lat="44.4727809" lon="11.3853422"><ele>69.0</ele><time>2026-04-30T09:33:01.675Z</time></trkpt><trkpt lat="44.4728192" lon="11.3852442"><ele>68.5</ele><time>2026-04-30T09:33:02.681Z</time></trkpt><trkpt lat="44.4728567" lon="11.3851456"><ele>68.0</ele><time>2026-04-30T09:33:03.675Z</time></trkpt><trkpt lat="44.4728951" lon="11.385048"><ele>67.5</ele><time>2026-04-30T09:33:04.686Z</time></trkpt><trkpt lat="44.4729336" lon="11.3849515"><ele>67.0</ele><time>2026-04-30T09:33:05.681Z</time></trkpt><trkpt lat="44.4729713" lon="11.3848568"><ele>66.5</ele><time>2026-04-30T09:33:06.681Z</time></trkpt><trkpt lat="44.4730069" lon="11.3847627"><ele>66.0</ele><time>2026-04-30T09:33:07.671Z</time></trkpt><trkpt lat="44.4730416" lon="11.3846668"><ele>65.85714285714286</ele><time>2026-04-30T09:33:08.684Z</time></trkpt><trkpt lat="44.4730775" lon="11.3845735"><ele>65.71428571428572</ele><time>2026-04-30T09:33:09.686Z</time></trkpt><trkpt lat="44.4731129" lon="11.3844802"><ele>65.57142857142858</ele><time>2026-04-30T09:33:10.674Z</time></trkpt><trkpt lat="44.4731465" lon="11.3843876"><ele>65.42857142857143</ele><time>2026-04-30T09:33:11.677Z</time></trkpt><trkpt lat="44.4731813" lon="11.3842934"><ele>65.28571428571429</ele><time>2026-04-30T09:33:12.675Z</time></trkpt><trkpt lat="44.4732145" lon="11.3842009"><ele>65.14285714285715</ele><time>2026-04-30T09:33:13.676Z</time></trkpt><trkpt lat="44.4732503" lon="11.3841105"><ele>65.0</ele><time>2026-04-30T09:33:14.682Z</time></trkpt><trkpt lat="44.4732874" lon="11.3840193"><ele>65.00000000000001</ele><time>2026-04-30T09:33:15.678Z</time></trkpt><trkpt lat="44.4733246" lon="11.3839292"><ele>65.0</ele><time>2026-04-30T09:33:16.675Z</time></trkpt><trkpt lat="44.4733606" lon="11.3838402"><ele>65.0</ele><time>2026-04-30T09:33:17.679Z</time></trkpt><trkpt lat="44.4733967" lon="11.3837499"><ele>65.0</ele><time>2026-04-30T09:33:18.678Z</time></trkpt><trkpt lat="44.4734326" lon="11.3836606"><ele>65.0</ele><time>2026-04-30T09:33:19.678Z</time></trkpt><trkpt lat="44.4734673" lon="11.3835716"><ele>65.00000000000001</ele><time>2026-04-30T09:33:20.674Z</time></trkpt><trkpt lat="44.4735006" lon="11.3834807"><ele>65.0</ele><time>2026-04-30T09:33:21.684Z</time></trkpt><trkpt lat="44.4735328" lon="11.3833899"><ele>65.00000000000001</ele><time>2026-04-30T09:33:22.673Z</time></trkpt><trkpt lat="44.4735658" lon="11.383301"><ele>65.0</ele><time>2026-04-30T09:33:23.676Z</time></trkpt><trkpt lat="44.4736001" lon="11.3832125"><ele>65.0</ele><time>2026-04-30T09:33:24.675Z</time></trkpt><trkpt lat="44.4736343" lon="11.3831257"><ele>65.0</ele><time>2026-04-30T09:33:25.679Z</time></trkpt><trkpt lat="44.4736685" lon="11.3830392"><ele>65.0</ele><time>2026-04-30T09:33:26.689Z</time></trkpt><trkpt lat="44.4737021" lon="11.3829535"><ele>65.00000000000001</ele><time>2026-04-30T09:33:27.668Z</time></trkpt><trkpt lat="44.4737354" lon="11.3828697"><ele>65.0</ele><time>2026-04-30T09:33:28.69Z</time></trkpt><trkpt lat="44.4737697" lon="11.3827896"><ele>65.5</ele><time>2026-04-30T09:33:29.676Z</time></trkpt><trkpt lat="44.4738029" lon="11.3827108"><ele>66.0</ele><time>2026-04-30T09:33:30.681Z</time></trkpt><trkpt lat="44.47386" lon="11.3825672"><ele>66.5</ele><time>2026-04-30T09:33:32.675Z</time></trkpt><trkpt lat="44.4739067" lon="11.3824568"><ele>67.0</ele><time>2026-04-30T09:33:34.684Z</time></trkpt><trkpt lat="44.4739492" lon="11.3823582"><ele>67.5</ele><time>2026-04-30T09:33:36.671Z</time></trkpt><trkpt lat="44.4739864" lon="11.3822681"><ele>68.0</ele><time>2026-04-30T09:33:38.683Z</time></trkpt><trkpt lat="44.4740225" lon="11.3821621"><ele>68.5</ele><time>2026-04-30T09:33:40.677Z</time></trkpt><trkpt lat="44.4740656" lon="11.3820294"><ele>69.0</ele><time>2026-04-30T09:33:42.669Z</time></trkpt><trkpt lat="44.4741138" lon="11.3818871"><ele>69.5</ele><time>2026-04-30T09:33:44.682Z</time></trkpt><trkpt lat="44.4741687" lon="11.3817414"><ele>70.0</ele><time>2026-04-30T09:33:46.665Z</time></trkpt><trkpt lat="44.4742261" lon="11.3815889"><ele>70.0</ele><time>2026-04-30T09:33:48.678Z</time></trkpt><trkpt lat="44.4742838" lon="11.3814348"><ele>70.0</ele><time>2026-04-30T09:33:50.688Z</time></trkpt><trkpt lat="44.4743141" lon="11.3813568"><ele>70.0</ele><time>2026-04-30T09:33:51.683Z</time></trkpt><trkpt lat="44.4743445" lon="11.3812783"><ele>70.0</ele><time>2026-04-30T09:33:52.684Z</time></trkpt><trkpt lat="44.4744053" lon="11.3811182"><ele>70.0</ele><time>2026-04-30T09:33:54.668Z</time></trkpt><trkpt lat="44.4744383" lon="11.3810325"><ele>69.85714285714286</ele><time>2026-04-30T09:33:55.681Z</time></trkpt><trkpt lat="44.4744692" lon="11.3809458"><ele>69.71428571428572</ele><time>2026-04-30T09:33:56.676Z</time></trkpt><trkpt lat="44.474503" lon="11.3808625"><ele>69.57142857142857</ele><time>2026-04-30T09:33:57.687Z</time></trkpt><trkpt lat="44.474538" lon="11.3807792"><ele>69.42857142857143</ele><time>2026-04-30T09:33:58.678Z</time></trkpt><trkpt lat="44.4745714" lon="11.380695"><ele>69.28571428571429</ele><time>2026-04-30T09:33:59.671Z</time></trkpt><trkpt lat="44.4746031" lon="11.3806116"><ele>69.14285714285714</ele><time>2026-04-30T09:34:00.671Z</time></trkpt><trkpt lat="44.4746358" lon="11.3805289"><ele>69.0</ele><time>2026-04-30T09:34:01.666Z</time></trkpt><trkpt lat="44.4746703" lon="11.3804458"><ele>68.57142857142857</ele><time>2026-04-30T09:34:02.672Z</time></trkpt><trkpt lat="44.4747053" lon="11.3803636"><ele>68.14285714285715</ele><time>2026-04-30T09:34:03.68Z</time></trkpt><trkpt lat="44.4747401" lon="11.3802811"><ele>67.71428571428572</ele><time>2026-04-30T09:34:04.681Z</time></trkpt><trkpt lat="44.4747745" lon="11.3801982"><ele>67.28571428571429</ele><time>2026-04-30T09:34:05.679Z</time></trkpt><trkpt lat="44.4748111" lon="11.3801166"><ele>66.85714285714286</ele><time>2026-04-30T09:34:06.68Z</time></trkpt><trkpt lat="44.4748481" lon="11.3800344"><ele>66.42857142857143</ele><time>2026-04-30T09:34:07.674Z</time></trkpt><trkpt lat="44.4748825" lon="11.3799482"><ele>66.0</ele><time>2026-04-30T09:34:08.684Z</time></trkpt><trkpt lat="44.4749159" lon="11.3798645"><ele>66.0</ele><time>2026-04-30T09:34:09.673Z</time></trkpt><trkpt lat="44.47495" lon="11.3797819"><ele>66.0</ele><time>2026-04-30T09:34:10.676Z</time></trkpt><trkpt lat="44.474985" lon="11.3796982"><ele>66.0</ele><time>2026-04-30T09:34:11.681Z</time></trkpt><trkpt lat="44.4750172" lon="11.3796115"><ele>66.0</ele><time>2026-04-30T09:34:12.68Z</time></trkpt><trkpt lat="44.4750496" lon="11.379524"><ele>66.0</ele><time>2026-04-30T09:34:13.686Z</time></trkpt><trkpt lat="44.4750807" lon="11.3794375"><ele>66.0</ele><time>2026-04-30T09:34:14.681Z</time></trkpt><trkpt lat="44.4751125" lon="11.3793506"><ele>66.0</ele><time>2026-04-30T09:34:15.679Z</time></trkpt><trkpt lat="44.4751454" lon="11.3792635"><ele>66.14285714285714</ele><time>2026-04-30T09:34:16.679Z</time></trkpt><trkpt lat="44.4751761" lon="11.379176"><ele>66.28571428571429</ele><time>2026-04-30T09:34:17.685Z</time></trkpt><trkpt lat="44.4752062" lon="11.3790893"><ele>66.42857142857143</ele><time>2026-04-30T09:34:18.677Z</time></trkpt><trkpt lat="44.4752383" lon="11.3790028"><ele>66.57142857142857</ele><time>2026-04-30T09:34:19.696Z</time></trkpt><trkpt lat="44.4752709" lon="11.3789206"><ele>66.71428571428571</ele><time>2026-04-30T09:34:20.684Z</time></trkpt><trkpt lat="44.4753034" lon="11.3788408"><ele>66.85714285714286</ele><time>2026-04-30T09:34:21.689Z</time></trkpt><trkpt lat="44.4753376" lon="11.3787614"><ele>67.0</ele><time>2026-04-30T09:34:22.686Z</time></trkpt><trkpt lat="44.4753736" lon="11.3786821"><ele>67.0</ele><time>2026-04-30T09:34:23.684Z</time></trkpt><trkpt lat="44.4754126" lon="11.3786055"><ele>67.0</ele><time>2026-04-30T09:34:24.687Z</time></trkpt><trkpt lat="44.4754572" lon="11.3785364"><ele>67.0</ele><time>2026-04-30T09:34:25.68Z</time></trkpt><trkpt lat="44.4755001" lon="11.3784685"><ele>67.0</ele><time>2026-04-30T09:34:26.676Z</time></trkpt><trkpt lat="44.4755083" lon="11.3783119"><ele>67.0</ele><time>2026-04-30T09:34:28.673Z</time></trkpt><trkpt lat="44.4754351" lon="11.3782249"><ele>67.0</ele><time>2026-04-30T09:34:30.679Z</time></trkpt><trkpt lat="44.4753362" lon="11.378176"><ele>67.0</ele><time>2026-04-30T09:34:32.682Z</time></trkpt><trkpt lat="44.4752536" lon="11.3781091"><ele>67.0</ele><time>2026-04-30T09:34:34.674Z</time></trkpt><trkpt lat="44.4751655" lon="11.3780518"><ele>67.0</ele><time>2026-04-30T09:34:36.683Z</time></trkpt><trkpt lat="44.4750833" lon="11.3780032"><ele>67.0</ele><time>2026-04-30T09:34:38.681Z</time></trkpt><trkpt lat="44.4750227" lon="11.3779557"><ele>67.0</ele><time>2026-04-30T09:34:40.69Z</time></trkpt><trkpt lat="44.4750089" lon="11.3778546"><ele>67.0</ele><time>2026-04-30T09:34:42.678Z</time></trkpt><trkpt lat="44.4750449" lon="11.377737"><ele>66.8</ele><time>2026-04-30T09:34:44.678Z</time></trkpt><trkpt lat="44.4750869" lon="11.3776119"><ele>66.6</ele><time>2026-04-30T09:34:46.663Z</time></trkpt><trkpt lat="44.4751327" lon="11.377481"><ele>66.39999999999999</ele><time>2026-04-30T09:34:48.678Z</time></trkpt><trkpt lat="44.4751841" lon="11.3773461"><ele>66.2</ele><time>2026-04-30T09:34:50.686Z</time></trkpt><trkpt lat="44.4752329" lon="11.37721"><ele>66.0</ele><time>2026-04-30T09:34:52.674Z</time></trkpt><trkpt lat="44.4752821" lon="11.3770758"><ele>67.0</ele><time>2026-04-30T09:34:54.686Z</time></trkpt><trkpt lat="44.4753516" lon="11.3769491"><ele>68.0</ele><time>2026-04-30T09:34:56.675Z</time></trkpt><trkpt lat="44.4754478" lon="11.376864"><ele>69.0</ele><time>2026-04-30T09:34:58.692Z</time></trkpt><trkpt lat="44.4755153" lon="11.3767366"><ele>70.0</ele><time>2026-04-30T09:35:00.685Z</time></trkpt><trkpt lat="44.4755368" lon="11.3765778"><ele>70.0</ele><time>2026-04-30T09:35:02.674Z</time></trkpt><trkpt lat="44.4755416" lon="11.3764121"><ele>70.0</ele><time>2026-04-30T09:35:04.668Z</time></trkpt><trkpt lat="44.4755364" lon="11.3763137"><ele>70.0</ele><time>2026-04-30T09:35:05.666Z</time></trkpt><trkpt lat="44.4755415" lon="11.3762172"><ele>70.0</ele><time>2026-04-30T09:35:06.68Z</time></trkpt><trkpt lat="44.4755742" lon="11.3761396"><ele>70.0</ele><time>2026-04-30T09:35:07.678Z</time></trkpt><trkpt lat="44.4756498" lon="11.3760017"><ele>70.0</ele><time>2026-04-30T09:35:09.672Z</time></trkpt><trkpt lat="44.4756916" lon="11.3759344"><ele>70.0</ele><time>2026-04-30T09:35:10.68Z</time></trkpt><trkpt lat="44.4757336" lon="11.3758676"><ele>70.0</ele><time>2026-04-30T09:35:11.679Z</time></trkpt><trkpt lat="44.4757748" lon="11.3757987"><ele>70.0</ele><time>2026-04-30T09:35:12.681Z</time></trkpt><trkpt lat="44.4758143" lon="11.3757286"><ele>70.0</ele><time>2026-04-30T09:35:13.68Z</time></trkpt><trkpt lat="44.4758753" lon="11.3755916"><ele>70.0</ele><time>2026-04-30T09:35:15.68Z</time></trkpt><trkpt lat="44.4759263" lon="11.3754559"><ele>70.0</ele><time>2026-04-30T09:35:17.674Z</time></trkpt><trkpt lat="44.4759688" lon="11.3753054"><ele>69.75</ele><time>2026-04-30T09:35:19.674Z</time></trkpt><trkpt lat="44.4760096" lon="11.375149"><ele>69.5</ele><time>2026-04-30T09:35:21.673Z</time></trkpt><trkpt lat="44.4760542" lon="11.3749901"><ele>69.25</ele><time>2026-04-30T09:35:23.683Z</time></trkpt><trkpt lat="44.4760778" lon="11.3748242"><ele>69.0</ele><time>2026-04-30T09:35:25.685Z</time></trkpt><trkpt lat="44.476064" lon="11.3746615"><ele>69.4</ele><time>2026-04-30T09:35:27.672Z</time></trkpt><trkpt lat="44.475979" lon="11.3745366"><ele>69.80000000000001</ele><time>2026-04-30T09:35:29.677Z</time></trkpt><trkpt lat="44.4758752" lon="11.3744418"><ele>70.19999999999999</ele><time>2026-04-30T09:35:31.671Z</time></trkpt><trkpt lat="44.475825" lon="11.3743881"><ele>70.6</ele><time>2026-04-30T09:35:32.672Z</time></trkpt><trkpt lat="44.4757232" lon="11.3742832"><ele>71.0</ele><time>2026-04-30T09:35:34.677Z</time></trkpt><trkpt lat="44.4756694" lon="11.3742332"><ele>71.0</ele><time>2026-04-30T09:35:35.682Z</time></trkpt><trkpt lat="44.4756144" lon="11.3741868"><ele>71.0</ele><time>2026-04-30T09:35:36.678Z</time></trkpt><trkpt lat="44.4755588" lon="11.3741393"><ele>71.0</ele><time>2026-04-30T09:35:37.675Z</time></trkpt><trkpt lat="44.4755045" lon="11.3740888"><ele>71.0</ele><time>2026-04-30T09:35:38.673Z</time></trkpt><trkpt lat="44.4754491" lon="11.374036"><ele>71.0</ele><time>2026-04-30T09:35:39.677Z</time></trkpt><trkpt lat="44.4753936" lon="11.3739848"><ele>71.0</ele><time>2026-04-30T09:35:40.683Z</time></trkpt><trkpt lat="44.4753381" lon="11.3739332"><ele>71.0</ele><time>2026-04-30T09:35:41.674Z</time></trkpt><trkpt lat="44.4752828" lon="11.3738819"><ele>71.0</ele><time>2026-04-30T09:35:42.675Z</time></trkpt><trkpt lat="44.4752274" lon="11.3738312"><ele>71.0</ele><time>2026-04-30T09:35:43.693Z</time></trkpt><trkpt lat="44.4751711" lon="11.3737801"><ele>71.0</ele><time>2026-04-30T09:35:44.679Z</time></trkpt><trkpt lat="44.4751157" lon="11.3737283"><ele>71.0</ele><time>2026-04-30T09:35:45.683Z</time></trkpt><trkpt lat="44.47506" lon="11.3736772"><ele>71.0</ele><time>2026-04-30T09:35:46.668Z</time></trkpt><trkpt lat="44.4750046" lon="11.3736261"><ele>71.0</ele><time>2026-04-30T09:35:47.68Z</time></trkpt><trkpt lat="44.4749486" lon="11.3735785"><ele>71.0</ele><time>2026-04-30T09:35:48.688Z</time></trkpt><trkpt lat="44.4748934" lon="11.3735315"><ele>71.0</ele><time>2026-04-30T09:35:49.679Z</time></trkpt><trkpt lat="44.4748405" lon="11.3734809"><ele>71.0</ele><time>2026-04-30T09:35:50.685Z</time></trkpt><trkpt lat="44.4747868" lon="11.3734321"><ele>71.0</ele><time>2026-04-30T09:35:51.675Z</time></trkpt><trkpt lat="44.4747305" lon="11.3733823"><ele>71.0</ele><time>2026-04-30T09:35:52.69Z</time></trkpt><trkpt lat="44.474677" lon="11.3733338"><ele>71.0</ele><time>2026-04-30T09:35:53.673Z</time></trkpt><trkpt lat="44.4746229" lon="11.3732828"><ele>71.0</ele><time>2026-04-30T09:35:54.68Z</time></trkpt><trkpt lat="44.4745702" lon="11.3732336"><ele>71.0</ele><time>2026-04-30T09:35:55.684Z</time></trkpt><trkpt lat="44.4745171" lon="11.3731857"><ele>71.14285714285714</ele><time>2026-04-30T09:35:56.68Z</time></trkpt><trkpt lat="44.4744618" lon="11.3731359"><ele>71.28571428571428</ele><time>2026-04-30T09:35:57.677Z</time></trkpt><trkpt lat="44.4744089" lon="11.3730797"><ele>71.42857142857143</ele><time>2026-04-30T09:35:58.682Z</time></trkpt><trkpt lat="44.4743575" lon="11.3730222"><ele>71.57142857142857</ele><time>2026-04-30T09:35:59.681Z</time></trkpt><trkpt lat="44.4743086" lon="11.3729618"><ele>71.71428571428572</ele><time>2026-04-30T09:36:00.682Z</time></trkpt><trkpt lat="44.4742638" lon="11.3728971"><ele>71.85714285714286</ele><time>2026-04-30T09:36:01.686Z</time></trkpt><trkpt lat="44.4742204" lon="11.3728307"><ele>72.0</ele><time>2026-04-30T09:36:02.688Z</time></trkpt><trkpt lat="44.4741783" lon="11.3727637"><ele>72.2</ele><time>2026-04-30T09:36:03.671Z</time></trkpt><trkpt lat="44.4741376" lon="11.3726962"><ele>72.4</ele><time>2026-04-30T09:36:04.676Z</time></trkpt><trkpt lat="44.4740657" lon="11.372562"><ele>72.6</ele><time>2026-04-30T09:36:06.678Z</time></trkpt><trkpt lat="44.4739992" lon="11.3724382"><ele>72.8</ele><time>2026-04-30T09:36:08.68Z</time></trkpt><trkpt lat="44.4739341" lon="11.3723157"><ele>73.0</ele><time>2026-04-30T09:36:10.682Z</time></trkpt><trkpt lat="44.4738692" lon="11.3721921"><ele>73.4</ele><time>2026-04-30T09:36:12.681Z</time></trkpt><trkpt lat="44.4738061" lon="11.3720689"><ele>73.8</ele><time>2026-04-30T09:36:14.684Z</time></trkpt><trkpt lat="44.4737495" lon="11.3719429"><ele>74.2</ele><time>2026-04-30T09:36:16.666Z</time></trkpt><trkpt lat="44.4736923" lon="11.3718194"><ele>74.6</ele><time>2026-04-30T09:36:18.67Z</time></trkpt><trkpt lat="44.4736355" lon="11.3716977"><ele>75.0</ele><time>2026-04-30T09:36:20.679Z</time></trkpt><trkpt lat="44.4735797" lon="11.3715773"><ele>75.2</ele><time>2026-04-30T09:36:22.678Z</time></trkpt><trkpt lat="44.4735187" lon="11.3714606"><ele>75.4</ele><time>2026-04-30T09:36:24.676Z</time></trkpt><trkpt lat="44.4734573" lon="11.3713455"><ele>75.6</ele><time>2026-04-30T09:36:26.679Z</time></trkpt><trkpt lat="44.4733946" lon="11.3712344"><ele>75.8</ele><time>2026-04-30T09:36:28.689Z</time></trkpt><trkpt lat="44.473338" lon="11.3711304"><ele>76.0</ele><time>2026-04-30T09:36:30.681Z</time></trkpt><trkpt lat="44.4732813" lon="11.3710322"><ele>76.39999999999999</ele><time>2026-04-30T09:36:32.675Z</time></trkpt><trkpt lat="44.4732125" lon="11.3709506"><ele>76.8</ele><time>2026-04-30T09:36:34.68Z</time></trkpt><trkpt lat="44.4731475" lon="11.3708619"><ele>77.19999999999999</ele><time>2026-04-30T09:36:36.699Z</time></trkpt><trkpt lat="44.4730889" lon="11.3707545"><ele>77.6</ele><time>2026-04-30T09:36:38.681Z</time></trkpt><trkpt lat="44.4730291" lon="11.3706465"><ele>78.0</ele><time>2026-04-30T09:36:40.683Z</time></trkpt><trkpt lat="44.4729688" lon="11.3705419"><ele>78.33333333333333</ele><time>2026-04-30T09:36:42.675Z</time></trkpt><trkpt lat="44.4729091" lon="11.3704387"><ele>78.66666666666667</ele><time>2026-04-30T09:36:44.68Z</time></trkpt><trkpt lat="44.4728491" lon="11.3703438"><ele>79.0</ele><time>2026-04-30T09:36:46.68Z</time></trkpt><trkpt lat="44.4727946" lon="11.3702492"><ele>79.33333333333334</ele><time>2026-04-30T09:36:48.669Z</time></trkpt><trkpt lat="44.4727408" lon="11.3701563"><ele>79.66666666666667</ele><time>2026-04-30T09:36:50.68Z</time></trkpt><trkpt lat="44.4726958" lon="11.3700625"><ele>80.0</ele><time>2026-04-30T09:36:52.692Z</time></trkpt><trkpt lat="44.4726604" lon="11.3699764"><ele>80.0</ele><time>2026-04-30T09:36:54.672Z</time></trkpt><trkpt lat="44.4726358" lon="11.3698708"><ele>80.0</ele><time>2026-04-30T09:36:58.689Z</time></trkpt><trkpt lat="44.4726304" lon="11.3697819"><ele>80.0</ele><time>2026-04-30T09:37:02.673Z</time></trkpt><trkpt lat="44.4726286" lon="11.3696508"><ele>80.0</ele><time>2026-04-30T09:37:05.679Z</time></trkpt><trkpt lat="44.4726158" lon="11.369536"><ele>80.0</ele><time>2026-04-30T09:37:07.681Z</time></trkpt><trkpt lat="44.4726053" lon="11.3694101"><ele>80.0</ele><time>2026-04-30T09:37:09.676Z</time></trkpt><trkpt lat="44.4725962" lon="11.3692917"><ele>80.66666666666667</ele><time>2026-04-30T09:37:11.673Z</time></trkpt><trkpt lat="44.4725933" lon="11.3691661"><ele>81.33333333333334</ele><time>2026-04-30T09:37:13.679Z</time></trkpt><trkpt lat="44.4725906" lon="11.3690443"><ele>82.0</ele><time>2026-04-30T09:37:15.678Z</time></trkpt><trkpt lat="44.4725923" lon="11.368925"><ele>82.66666666666667</ele><time>2026-04-30T09:37:17.679Z</time></trkpt><trkpt lat="44.4725999" lon="11.3688126"><ele>83.33333333333333</ele><time>2026-04-30T09:37:19.686Z</time></trkpt><trkpt lat="44.4725915" lon="11.3687009"><ele>84.0</ele><time>2026-04-30T09:37:21.681Z</time></trkpt><trkpt lat="44.4725535" lon="11.3686042"><ele>84.66666666666667</ele><time>2026-04-30T09:37:23.675Z</time></trkpt><trkpt lat="44.4724858" lon="11.3685425"><ele>85.33333333333333</ele><time>2026-04-30T09:37:25.678Z</time></trkpt><trkpt lat="44.4724134" lon="11.3684877"><ele>86.0</ele><time>2026-04-30T09:37:27.682Z</time></trkpt><trkpt lat="44.4723368" lon="11.3684341"><ele>86.66666666666666</ele><time>2026-04-30T09:37:29.673Z</time></trkpt><trkpt lat="44.4722671" lon="11.3683826"><ele>87.33333333333333</ele><time>2026-04-30T09:37:31.671Z</time></trkpt><trkpt lat="44.4721969" lon="11.3683263"><ele>88.0</ele><time>2026-04-30T09:37:33.682Z</time></trkpt><trkpt lat="44.4721302" lon="11.3682586"><ele>89.0</ele><time>2026-04-30T09:37:35.68Z</time></trkpt><trkpt lat="44.4720752" lon="11.368177"><ele>90.0</ele><time>2026-04-30T09:37:37.681Z</time></trkpt><trkpt lat="44.4720351" lon="11.3680827"><ele>91.0</ele><time>2026-04-30T09:37:39.683Z</time></trkpt><trkpt lat="44.4720085" lon="11.3679826"><ele>92.0</ele><time>2026-04-30T09:37:41.674Z</time></trkpt><trkpt lat="44.4720018" lon="11.3678793"><ele>93.0</ele><time>2026-04-30T09:37:43.675Z</time></trkpt><trkpt lat="44.4720076" lon="11.3677759"><ele>94.0</ele><time>2026-04-30T09:37:45.666Z</time></trkpt><trkpt lat="44.4720274" lon="11.3676744"><ele>94.42857142857143</ele><time>2026-04-30T09:37:47.679Z</time></trkpt><trkpt lat="44.4720575" lon="11.3675814"><ele>94.85714285714286</ele><time>2026-04-30T09:37:49.672Z</time></trkpt><trkpt lat="44.4720895" lon="11.367495"><ele>95.28571428571428</ele><time>2026-04-30T09:37:51.665Z</time></trkpt><trkpt lat="44.4721229" lon="11.3674034"><ele>95.71428571428572</ele><time>2026-04-30T09:37:53.679Z</time></trkpt><trkpt lat="44.472151" lon="11.3673201"><ele>96.14285714285715</ele><time>2026-04-30T09:37:55.673Z</time></trkpt><trkpt lat="44.4721819" lon="11.3672399"><ele>96.57142857142857</ele><time>2026-04-30T09:37:57.672Z</time></trkpt><trkpt lat="44.4722201" lon="11.3671265"><ele>97.0</ele><time>2026-04-30T09:38:00.685Z</time></trkpt><trkpt lat="44.4722615" lon="11.3670139"><ele>97.85714285714285</ele><time>2026-04-30T09:38:03.681Z</time></trkpt><trkpt lat="44.4722955" lon="11.3669269"><ele>98.71428571428572</ele><time>2026-04-30T09:38:05.688Z</time></trkpt><trkpt lat="44.4723305" lon="11.3668373"><ele>99.57142857142857</ele><time>2026-04-30T09:38:07.666Z</time></trkpt><trkpt lat="44.4723682" lon="11.366756"><ele>100.42857142857142</ele><time>2026-04-30T09:38:09.682Z</time></trkpt><trkpt lat="44.4723979" lon="11.3666717"><ele>101.28571428571428</ele><time>2026-04-30T09:38:11.69Z</time></trkpt><trkpt lat="44.4724309" lon="11.3665912"><ele>102.14285714285714</ele><time>2026-04-30T09:38:13.662Z</time></trkpt><trkpt lat="44.4724601" lon="11.3665114"><ele>103.0</ele><time>2026-04-30T09:38:15.687Z</time></trkpt><trkpt lat="44.4724928" lon="11.3664292"><ele>103.66666666666667</ele><time>2026-04-30T09:38:17.667Z</time></trkpt><trkpt lat="44.4725265" lon="11.3663416"><ele>104.33333333333334</ele><time>2026-04-30T09:38:19.674Z</time></trkpt><trkpt lat="44.4725621" lon="11.3662479"><ele>105.0</ele><time>2026-04-30T09:38:21.683Z</time></trkpt><trkpt lat="44.472598" lon="11.3661443"><ele>105.66666666666666</ele><time>2026-04-30T09:38:23.679Z</time></trkpt><trkpt lat="44.4726371" lon="11.3660435"><ele>106.33333333333333</ele><time>2026-04-30T09:38:25.672Z</time></trkpt><trkpt lat="44.4726763" lon="11.3659446"><ele>107.0</ele><time>2026-04-30T09:38:27.673Z</time></trkpt><trkpt lat="44.4727181" lon="11.3658465"><ele>106.99999999999999</ele><time>2026-04-30T09:38:29.68Z</time></trkpt><trkpt lat="44.4727612" lon="11.3657355"><ele>107.0</ele><time>2026-04-30T09:38:31.676Z</time></trkpt><trkpt lat="44.4728097" lon="11.3656077"><ele>107.0</ele><time>2026-04-30T09:38:33.679Z</time></trkpt><trkpt lat="44.4728658" lon="11.3654619"><ele>107.0</ele><time>2026-04-30T09:38:35.664Z</time></trkpt><trkpt lat="44.4728939" lon="11.3653823"><ele>106.99999999999999</ele><time>2026-04-30T09:38:36.676Z</time></trkpt><trkpt lat="44.4729239" lon="11.3652986"><ele>107.0</ele><time>2026-04-30T09:38:37.674Z</time></trkpt><trkpt lat="44.4729572" lon="11.365221"><ele>106.6</ele><time>2026-04-30T09:38:38.684Z</time></trkpt><trkpt lat="44.4729903" lon="11.3651451"><ele>106.19999999999999</ele><time>2026-04-30T09:38:39.674Z</time></trkpt><trkpt lat="44.4730499" lon="11.3649993"><ele>105.8</ele><time>2026-04-30T09:38:41.68Z</time></trkpt><trkpt lat="44.4731231" lon="11.3648741"><ele>105.4</ele><time>2026-04-30T09:38:43.681Z</time></trkpt><trkpt lat="44.4732061" lon="11.3647596"><ele>105.0</ele><time>2026-04-30T09:38:45.682Z</time></trkpt><trkpt lat="44.4733033" lon="11.364668"><ele>105.0</ele><time>2026-04-30T09:38:47.675Z</time></trkpt><trkpt lat="44.4734071" lon="11.3645777"><ele>105.0</ele><time>2026-04-30T09:38:49.678Z</time></trkpt><trkpt lat="44.4734638" lon="11.3645349"><ele>105.0</ele><time>2026-04-30T09:38:50.674Z</time></trkpt><trkpt lat="44.4735236" lon="11.3644895"><ele>105.0</ele><time>2026-04-30T09:38:51.684Z</time></trkpt><trkpt lat="44.4735889" lon="11.364437"><ele>105.0</ele><time>2026-04-30T09:38:52.68Z</time></trkpt><trkpt lat="44.4736592" lon="11.3643797"><ele>105.0</ele><time>2026-04-30T09:38:53.67Z</time></trkpt><trkpt lat="44.4737315" lon="11.3643234"><ele>103.16666666666667</ele><time>2026-04-30T09:38:54.673Z</time></trkpt><trkpt lat="44.4738058" lon="11.3642629"><ele>101.33333333333333</ele><time>2026-04-30T09:38:55.68Z</time></trkpt><trkpt lat="44.4738822" lon="11.3642034"><ele>99.5</ele><time>2026-04-30T09:38:56.666Z</time></trkpt><trkpt lat="44.4739601" lon="11.3641389"><ele>97.66666666666666</ele><time>2026-04-30T09:38:57.679Z</time></trkpt><trkpt lat="44.4740333" lon="11.3640672"><ele>95.83333333333333</ele><time>2026-04-30T09:38:58.683Z</time></trkpt><trkpt lat="44.4741084" lon="11.3640014"><ele>94.0</ele><time>2026-04-30T09:38:59.68Z</time></trkpt><trkpt lat="44.4741859" lon="11.3639283"><ele>94.6</ele><time>2026-04-30T09:39:00.676Z</time></trkpt><trkpt lat="44.4742661" lon="11.3638336"><ele>95.2</ele><time>2026-04-30T09:39:01.681Z</time></trkpt><trkpt lat="44.4743452" lon="11.3637317"><ele>95.8</ele><time>2026-04-30T09:39:02.662Z</time></trkpt><trkpt lat="44.4744235" lon="11.3636285"><ele>96.39999999999999</ele><time>2026-04-30T09:39:03.679Z</time></trkpt><trkpt lat="44.4745021" lon="11.363519"><ele>97.0</ele><time>2026-04-30T09:39:04.684Z</time></trkpt><trkpt lat="44.4745744" lon="11.3634099"><ele>96.8</ele><time>2026-04-30T09:39:05.675Z</time></trkpt><trkpt lat="44.4746412" lon="11.3632996"><ele>96.6</ele><time>2026-04-30T09:39:06.667Z</time></trkpt><trkpt lat="44.4747077" lon="11.3631925"><ele>96.39999999999999</ele><time>2026-04-30T09:39:07.668Z</time></trkpt><trkpt lat="44.4747685" lon="11.3630908"><ele>96.19999999999999</ele><time>2026-04-30T09:39:08.678Z</time></trkpt><trkpt lat="44.4748269" lon="11.3629842"><ele>96.0</ele><time>2026-04-30T09:39:09.679Z</time></trkpt><trkpt lat="44.4748801" lon="11.36288"><ele>96.0</ele><time>2026-04-30T09:39:10.672Z</time></trkpt><trkpt lat="44.4749326" lon="11.3627825"><ele>96.0</ele><time>2026-04-30T09:39:11.665Z</time></trkpt><trkpt lat="44.4749847" lon="11.3626861"><ele>96.0</ele><time>2026-04-30T09:39:12.678Z</time></trkpt><trkpt lat="44.4750363" lon="11.3625922"><ele>96.0</ele><time>2026-04-30T09:39:13.685Z</time></trkpt><trkpt lat="44.4750851" lon="11.3625022"><ele>96.0</ele><time>2026-04-30T09:39:14.684Z</time></trkpt><trkpt lat="44.4751335" lon="11.3624122"><ele>96.0</ele><time>2026-04-30T09:39:15.684Z</time></trkpt><trkpt lat="44.4751793" lon="11.3623263"><ele>96.0</ele><time>2026-04-30T09:39:16.688Z</time></trkpt><trkpt lat="44.4752263" lon="11.3622404"><ele>96.0</ele><time>2026-04-30T09:39:17.679Z</time></trkpt><trkpt lat="44.4752734" lon="11.3621525"><ele>96.0</ele><time>2026-04-30T09:39:18.68Z</time></trkpt><trkpt lat="44.4753204" lon="11.3620624"><ele>96.0</ele><time>2026-04-30T09:39:19.683Z</time></trkpt><trkpt lat="44.4753702" lon="11.3619696"><ele>96.0</ele><time>2026-04-30T09:39:20.681Z</time></trkpt><trkpt lat="44.4754218" lon="11.3618757"><ele>96.0</ele><time>2026-04-30T09:39:21.681Z</time></trkpt><trkpt lat="44.4754744" lon="11.3617786"><ele>95.33333333333333</ele><time>2026-04-30T09:39:22.685Z</time></trkpt><trkpt lat="44.4755271" lon="11.3616798"><ele>94.66666666666667</ele><time>2026-04-30T09:39:23.68Z</time></trkpt><trkpt lat="44.4755792" lon="11.3615797"><ele>94.0</ele><time>2026-04-30T09:39:24.675Z</time></trkpt><trkpt lat="44.4756315" lon="11.3614791"><ele>93.33333333333334</ele><time>2026-04-30T09:39:25.681Z</time></trkpt><trkpt lat="44.4756831" lon="11.3613779"><ele>92.66666666666667</ele><time>2026-04-30T09:39:26.68Z</time></trkpt><trkpt lat="44.4757361" lon="11.3612798"><ele>92.0</ele><time>2026-04-30T09:39:27.674Z</time></trkpt><trkpt lat="44.4757864" lon="11.3611838"><ele>92.0</ele><time>2026-04-30T09:39:28.682Z</time></trkpt><trkpt lat="44.4758347" lon="11.3610897"><ele>92.0</ele><time>2026-04-30T09:39:29.681Z</time></trkpt><trkpt lat="44.4758809" lon="11.3609962"><ele>92.0</ele><time>2026-04-30T09:39:30.674Z</time></trkpt><trkpt lat="44.475925" lon="11.3609069"><ele>92.0</ele><time>2026-04-30T09:39:31.673Z</time></trkpt><trkpt lat="44.4759707" lon="11.3608189"><ele>92.0</ele><time>2026-04-30T09:39:32.667Z</time></trkpt><trkpt lat="44.4760176" lon="11.3607289"><ele>92.0</ele><time>2026-04-30T09:39:33.676Z</time></trkpt><trkpt lat="44.476065" lon="11.3606374"><ele>92.0</ele><time>2026-04-30T09:39:34.677Z</time></trkpt><trkpt lat="44.476112" lon="11.3605485"><ele>92.0</ele><time>2026-04-30T09:39:35.676Z</time></trkpt><trkpt lat="44.4761572" lon="11.360459"><ele>92.0</ele><time>2026-04-30T09:39:36.676Z</time></trkpt><trkpt lat="44.4762031" lon="11.3603699"><ele>92.0</ele><time>2026-04-30T09:39:37.671Z</time></trkpt><trkpt lat="44.476249" lon="11.3602806"><ele>92.0</ele><time>2026-04-30T09:39:38.677Z</time></trkpt><trkpt lat="44.4762948" lon="11.3601913"><ele>92.0</ele><time>2026-04-30T09:39:39.682Z</time></trkpt><trkpt lat="44.4763403" lon="11.3601017"><ele>91.71428571428572</ele><time>2026-04-30T09:39:40.678Z</time></trkpt><trkpt lat="44.4763839" lon="11.3600078"><ele>91.42857142857142</ele><time>2026-04-30T09:39:41.678Z</time></trkpt><trkpt lat="44.4764212" lon="11.359914"><ele>91.14285714285714</ele><time>2026-04-30T09:39:42.675Z</time></trkpt><trkpt lat="44.4764537" lon="11.3598206"><ele>90.85714285714286</ele><time>2026-04-30T09:39:43.684Z</time></trkpt><trkpt lat="44.4764822" lon="11.3597291"><ele>90.57142857142858</ele><time>2026-04-30T09:39:44.678Z</time></trkpt><trkpt lat="44.4765071" lon="11.3596365"><ele>90.28571428571428</ele><time>2026-04-30T09:39:45.677Z</time></trkpt><trkpt lat="44.4765278" lon="11.3595434"><ele>90.0</ele><time>2026-04-30T09:39:46.68Z</time></trkpt><trkpt lat="44.4765483" lon="11.3594531"><ele>90.0</ele><time>2026-04-30T09:39:47.674Z</time></trkpt><trkpt lat="44.4765646" lon="11.3593622"><ele>90.0</ele><time>2026-04-30T09:39:48.673Z</time></trkpt><trkpt lat="44.476579" lon="11.3592747"><ele>90.0</ele><time>2026-04-30T09:39:49.691Z</time></trkpt><trkpt lat="44.47659" lon="11.3591866"><ele>90.0</ele><time>2026-04-30T09:39:50.679Z</time></trkpt><trkpt lat="44.4766034" lon="11.359032"><ele>90.0</ele><time>2026-04-30T09:39:52.688Z</time></trkpt><trkpt lat="44.4766097" lon="11.35891"><ele>90.0</ele><time>2026-04-30T09:39:54.678Z</time></trkpt><trkpt lat="44.4766163" lon="11.358793"><ele>90.33333333333333</ele><time>2026-04-30T09:39:57.655Z</time></trkpt><trkpt lat="44.4766246" lon="11.3586756"><ele>90.66666666666667</ele><time>2026-04-30T09:40:00.685Z</time></trkpt><trkpt lat="44.4766335" lon="11.3585696"><ele>91.0</ele><time>2026-04-30T09:40:02.674Z</time></trkpt><trkpt lat="44.4766472" lon="11.3584521"><ele>91.33333333333334</ele><time>2026-04-30T09:40:04.681Z</time></trkpt><trkpt lat="44.4766618" lon="11.358319"><ele>91.66666666666667</ele><time>2026-04-30T09:40:06.67Z</time></trkpt><trkpt lat="44.4766753" lon="11.3581802"><ele>92.0</ele><time>2026-04-30T09:40:08.682Z</time></trkpt><trkpt lat="44.4766873" lon="11.3580401"><ele>91.5</ele><time>2026-04-30T09:40:10.687Z</time></trkpt><trkpt lat="44.4767007" lon="11.3578976"><ele>91.0</ele><time>2026-04-30T09:40:12.674Z</time></trkpt><trkpt lat="44.4767153" lon="11.3577485"><ele>90.5</ele><time>2026-04-30T09:40:14.681Z</time></trkpt><trkpt lat="44.4767302" lon="11.3575836"><ele>90.0</ele><time>2026-04-30T09:40:16.67Z</time></trkpt><trkpt lat="44.4767525" lon="11.3574121"><ele>90.0</ele><time>2026-04-30T09:40:18.673Z</time></trkpt><trkpt lat="44.4767638" lon="11.3573235"><ele>90.0</ele><time>2026-04-30T09:40:19.681Z</time></trkpt><trkpt lat="44.4767769" lon="11.3572349"><ele>90.0</ele><time>2026-04-30T09:40:20.674Z</time></trkpt><trkpt lat="44.4767894" lon="11.3571412"><ele>90.0</ele><time>2026-04-30T09:40:21.682Z</time></trkpt><trkpt lat="44.4768064" lon="11.3570508"><ele>90.0</ele><time>2026-04-30T09:40:22.687Z</time></trkpt><trkpt lat="44.4768222" lon="11.3569596"><ele>90.0</ele><time>2026-04-30T09:40:23.681Z</time></trkpt><trkpt lat="44.476837" lon="11.3568671"><ele>90.0</ele><time>2026-04-30T09:40:24.678Z</time></trkpt><trkpt lat="44.4768588" lon="11.3567733"><ele>90.0</ele><time>2026-04-30T09:40:25.667Z</time></trkpt><trkpt lat="44.4768831" lon="11.3566781"><ele>90.0</ele><time>2026-04-30T09:40:26.689Z</time></trkpt><trkpt lat="44.4769053" lon="11.3565855"><ele>90.0</ele><time>2026-04-30T09:40:27.672Z</time></trkpt><trkpt lat="44.4769318" lon="11.3564885"><ele>90.0</ele><time>2026-04-30T09:40:28.691Z</time></trkpt><trkpt lat="44.4769586" lon="11.3563924"><ele>90.0</ele><time>2026-04-30T09:40:29.678Z</time></trkpt><trkpt lat="44.4769868" lon="11.3562975"><ele>90.0</ele><time>2026-04-30T09:40:30.668Z</time></trkpt><trkpt lat="44.477015" lon="11.356202"><ele>90.0</ele><time>2026-04-30T09:40:31.677Z</time></trkpt><trkpt lat="44.4770426" lon="11.3561106"><ele>90.0</ele><time>2026-04-30T09:40:32.681Z</time></trkpt><trkpt lat="44.4770689" lon="11.3560217"><ele>90.0</ele><time>2026-04-30T09:40:33.678Z</time></trkpt><trkpt lat="44.4770937" lon="11.3559396"><ele>90.0</ele><time>2026-04-30T09:40:34.686Z</time></trkpt><trkpt lat="44.4771384" lon="11.3557799"><ele>90.0</ele><time>2026-04-30T09:40:36.671Z</time></trkpt><trkpt lat="44.4771726" lon="11.3556288"><ele>90.0</ele><time>2026-04-30T09:40:38.68Z</time></trkpt><trkpt lat="44.4771865" lon="11.355476"><ele>90.83333333333333</ele><time>2026-04-30T09:40:40.675Z</time></trkpt><trkpt lat="44.4771994" lon="11.3553334"><ele>91.66666666666667</ele><time>2026-04-30T09:40:42.675Z</time></trkpt><trkpt lat="44.4772122" lon="11.3552091"><ele>92.5</ele><time>2026-04-30T09:40:44.686Z</time></trkpt><trkpt lat="44.4772322" lon="11.355104"><ele>93.33333333333334</ele><time>2026-04-30T09:40:46.682Z</time></trkpt><trkpt lat="44.4772677" lon="11.3549988"><ele>94.16666666666667</ele><time>2026-04-30T09:40:48.67Z</time></trkpt><trkpt lat="44.4773116" lon="11.3548897"><ele>95.0</ele><time>2026-04-30T09:40:50.685Z</time></trkpt><trkpt lat="44.4773621" lon="11.3547763"><ele>95.33333333333334</ele><time>2026-04-30T09:40:52.677Z</time></trkpt><trkpt lat="44.477402" lon="11.3546718"><ele>95.66666666666667</ele><time>2026-04-30T09:40:54.668Z</time></trkpt><trkpt lat="44.4774378" lon="11.3545646"><ele>96.0</ele><time>2026-04-30T09:40:56.676Z</time></trkpt><trkpt lat="44.477467" lon="11.3544554"><ele>96.33333333333334</ele><time>2026-04-30T09:40:58.686Z</time></trkpt><trkpt lat="44.4774857" lon="11.3543462"><ele>96.66666666666667</ele><time>2026-04-30T09:41:00.674Z</time></trkpt><trkpt lat="44.4774992" lon="11.3542416"><ele>97.0</ele><time>2026-04-30T09:41:02.663Z</time></trkpt><trkpt lat="44.4775099" lon="11.3541193"><ele>97.0</ele><time>2026-04-30T09:41:04.675Z</time></trkpt><trkpt lat="44.4775233" lon="11.3539928"><ele>97.0</ele><time>2026-04-30T09:41:06.691Z</time></trkpt><trkpt lat="44.4775524" lon="11.3538599"><ele>97.0</ele><time>2026-04-30T09:41:08.677Z</time></trkpt><trkpt lat="44.4775933" lon="11.3537184"><ele>97.0</ele><time>2026-04-30T09:41:10.67Z</time></trkpt><trkpt lat="44.4776484" lon="11.3535878"><ele>97.0</ele><time>2026-04-30T09:41:12.657Z</time></trkpt><trkpt lat="44.4776953" lon="11.3535086"><ele>96.85714285714285</ele><time>2026-04-30T09:41:13.677Z</time></trkpt><trkpt lat="44.4777406" lon="11.3534265"><ele>96.71428571428572</ele><time>2026-04-30T09:41:14.672Z</time></trkpt><trkpt lat="44.4777814" lon="11.3533445"><ele>96.57142857142857</ele><time>2026-04-30T09:41:15.671Z</time></trkpt><trkpt lat="44.4778211" lon="11.3532688"><ele>96.42857142857142</ele><time>2026-04-30T09:41:16.684Z</time></trkpt><trkpt lat="44.4778615" lon="11.3531915"><ele>96.28571428571428</ele><time>2026-04-30T09:41:17.679Z</time></trkpt><trkpt lat="44.4779034" lon="11.3531123"><ele>96.14285714285714</ele><time>2026-04-30T09:41:18.667Z</time></trkpt><trkpt lat="44.4779609" lon="11.353042"><ele>96.0</ele><time>2026-04-30T09:41:19.677Z</time></trkpt><trkpt lat="44.4780229" lon="11.3529904"><ele>96.0</ele><time>2026-04-30T09:41:20.686Z</time></trkpt><trkpt lat="44.4780912" lon="11.3529366"><ele>96.0</ele><time>2026-04-30T09:41:21.674Z</time></trkpt><trkpt lat="44.4781708" lon="11.3529104"><ele>96.0</ele><time>2026-04-30T09:41:22.687Z</time></trkpt><trkpt lat="44.4782524" lon="11.3529056"><ele>96.0</ele><time>2026-04-30T09:41:23.672Z</time></trkpt><trkpt lat="44.478333" lon="11.3529201"><ele>96.0</ele><time>2026-04-30T09:41:24.68Z</time></trkpt><trkpt lat="44.4784099" lon="11.3529443"><ele>96.0</ele><time>2026-04-30T09:41:25.686Z</time></trkpt><trkpt lat="44.4784897" lon="11.3529674"><ele>96.0</ele><time>2026-04-30T09:41:26.677Z</time></trkpt><trkpt lat="44.4785649" lon="11.3530016"><ele>96.0</ele><time>2026-04-30T09:41:27.674Z</time></trkpt><trkpt lat="44.4786377" lon="11.3530332"><ele>96.0</ele><time>2026-04-30T09:41:28.665Z</time></trkpt><trkpt lat="44.4787157" lon="11.3530518"><ele>96.0</ele><time>2026-04-30T09:41:29.67Z</time></trkpt><trkpt lat="44.478792" lon="11.3530692"><ele>96.0</ele><time>2026-04-30T09:41:30.677Z</time></trkpt><trkpt lat="44.4788705" lon="11.3530475"><ele>96.0</ele><time>2026-04-30T09:41:31.68Z</time></trkpt><trkpt lat="44.4789441" lon="11.3530075"><ele>95.33333333333333</ele><time>2026-04-30T09:41:32.682Z</time></trkpt><trkpt lat="44.4790163" lon="11.3529518"><ele>94.66666666666667</ele><time>2026-04-30T09:41:33.678Z</time></trkpt><trkpt lat="44.4790873" lon="11.3528912"><ele>94.0</ele><time>2026-04-30T09:41:34.676Z</time></trkpt><trkpt lat="44.4791555" lon="11.3528322"><ele>93.33333333333334</ele><time>2026-04-30T09:41:35.682Z</time></trkpt><trkpt lat="44.479223" lon="11.3527687"><ele>92.66666666666667</ele><time>2026-04-30T09:41:36.674Z</time></trkpt><trkpt lat="44.4792898" lon="11.3527049"><ele>92.0</ele><time>2026-04-30T09:41:37.682Z</time></trkpt><trkpt lat="44.4793584" lon="11.3526433"><ele>92.0</ele><time>2026-04-30T09:41:38.683Z</time></trkpt><trkpt lat="44.4794217" lon="11.3525811"><ele>92.0</ele><time>2026-04-30T09:41:39.675Z</time></trkpt><trkpt lat="44.4794838" lon="11.3525248"><ele>92.0</ele><time>2026-04-30T09:41:40.674Z</time></trkpt><trkpt lat="44.4795472" lon="11.3524728"><ele>92.0</ele><time>2026-04-30T09:41:41.67Z</time></trkpt><trkpt lat="44.4796135" lon="11.3524221"><ele>92.0</ele><time>2026-04-30T09:41:42.675Z</time></trkpt><trkpt lat="44.4796799" lon="11.3523761"><ele>92.0</ele><time>2026-04-30T09:41:43.681Z</time></trkpt><trkpt lat="44.4797477" lon="11.352332"><ele>92.0</ele><time>2026-04-30T09:41:44.683Z</time></trkpt><trkpt lat="44.4798126" lon="11.3522785"><ele>92.14285714285715</ele><time>2026-04-30T09:41:45.682Z</time></trkpt><trkpt lat="44.4798792" lon="11.3522257"><ele>92.28571428571428</ele><time>2026-04-30T09:41:46.684Z</time></trkpt><trkpt lat="44.4799454" lon="11.3521769"><ele>92.42857142857143</ele><time>2026-04-30T09:41:47.683Z</time></trkpt><trkpt lat="44.4800112" lon="11.3521295"><ele>92.57142857142858</ele><time>2026-04-30T09:41:48.68Z</time></trkpt><trkpt lat="44.4800756" lon="11.3520802"><ele>92.71428571428572</ele><time>2026-04-30T09:41:49.679Z</time></trkpt><trkpt lat="44.4801418" lon="11.3520316"><ele>92.85714285714286</ele><time>2026-04-30T09:41:50.684Z</time></trkpt><trkpt lat="44.4802085" lon="11.3519848"><ele>93.0</ele><time>2026-04-30T09:41:51.678Z</time></trkpt><trkpt lat="44.4802731" lon="11.3519393"><ele>93.00000000000001</ele><time>2026-04-30T09:41:52.682Z</time></trkpt><trkpt lat="44.4803366" lon="11.3518882"><ele>93.0</ele><time>2026-04-30T09:41:53.677Z</time></trkpt><trkpt lat="44.4803995" lon="11.3518393"><ele>93.0</ele><time>2026-04-30T09:41:54.684Z</time></trkpt><trkpt lat="44.4804612" lon="11.3517889"><ele>93.0</ele><time>2026-04-30T09:41:55.68Z</time></trkpt><trkpt lat="44.4805259" lon="11.351739"><ele>93.0</ele><time>2026-04-30T09:41:56.682Z</time></trkpt><trkpt lat="44.4805916" lon="11.3516909"><ele>93.00000000000001</ele><time>2026-04-30T09:41:57.673Z</time></trkpt><trkpt lat="44.4806565" lon="11.3516419"><ele>93.0</ele><time>2026-04-30T09:41:58.691Z</time></trkpt><trkpt lat="44.4807209" lon="11.3515918"><ele>92.85714285714286</ele><time>2026-04-30T09:41:59.683Z</time></trkpt><trkpt lat="44.4807839" lon="11.351539"><ele>92.71428571428572</ele><time>2026-04-30T09:42:00.678Z</time></trkpt><trkpt lat="44.4808446" lon="11.3514793"><ele>92.57142857142858</ele><time>2026-04-30T09:42:01.676Z</time></trkpt><trkpt lat="44.4809023" lon="11.3514163"><ele>92.42857142857143</ele><time>2026-04-30T09:42:02.686Z</time></trkpt><trkpt lat="44.4809581" lon="11.3513461"><ele>92.28571428571428</ele><time>2026-04-30T09:42:03.681Z</time></trkpt><trkpt lat="44.4810121" lon="11.3512723"><ele>92.14285714285715</ele><time>2026-04-30T09:42:04.683Z</time></trkpt><trkpt lat="44.4810659" lon="11.3511955"><ele>92.0</ele><time>2026-04-30T09:42:05.683Z</time></trkpt><trkpt lat="44.4811167" lon="11.3511132"><ele>92.0</ele><time>2026-04-30T09:42:06.689Z</time></trkpt><trkpt lat="44.4811652" lon="11.3510262"><ele>92.0</ele><time>2026-04-30T09:42:07.664Z</time></trkpt><trkpt lat="44.4812123" lon="11.3509384"><ele>92.0</ele><time>2026-04-30T09:42:08.682Z</time></trkpt><trkpt lat="44.4812583" lon="11.3508487"><ele>92.0</ele><time>2026-04-30T09:42:09.68Z</time></trkpt><trkpt lat="44.4813041" lon="11.3507578"><ele>92.0</ele><time>2026-04-30T09:42:10.674Z</time></trkpt><trkpt lat="44.4813494" lon="11.3506655"><ele>92.0</ele><time>2026-04-30T09:42:11.672Z</time></trkpt><trkpt lat="44.4813952" lon="11.3505752"><ele>91.66666666666667</ele><time>2026-04-30T09:42:12.684Z</time></trkpt><trkpt lat="44.4814419" lon="11.3504856"><ele>91.33333333333334</ele><time>2026-04-30T09:42:13.673Z</time></trkpt><trkpt lat="44.4814885" lon="11.3503968"><ele>91.0</ele><time>2026-04-30T09:42:14.68Z</time></trkpt><trkpt lat="44.4815336" lon="11.3503061"><ele>90.66666666666667</ele><time>2026-04-30T09:42:15.683Z</time></trkpt><trkpt lat="44.4815811" lon="11.3502133"><ele>90.33333333333333</ele><time>2026-04-30T09:42:16.677Z</time></trkpt><trkpt lat="44.4816276" lon="11.3501191"><ele>90.0</ele><time>2026-04-30T09:42:17.685Z</time></trkpt><trkpt lat="44.4816739" lon="11.3500256"><ele>90.0</ele><time>2026-04-30T09:42:18.681Z</time></trkpt><trkpt lat="44.4817204" lon="11.3499316"><ele>90.0</ele><time>2026-04-30T09:42:19.678Z</time></trkpt><trkpt lat="44.481767" lon="11.3498404"><ele>90.0</ele><time>2026-04-30T09:42:20.675Z</time></trkpt><trkpt lat="44.4818106" lon="11.3497529"><ele>90.0</ele><time>2026-04-30T09:42:21.677Z</time></trkpt><trkpt lat="44.4818564" lon="11.3496705"><ele>90.0</ele><time>2026-04-30T09:42:22.683Z</time></trkpt><trkpt lat="44.4818996" lon="11.3495853"><ele>90.0</ele><time>2026-04-30T09:42:23.686Z</time></trkpt><trkpt lat="44.4819386" lon="11.3495063"><ele>90.16666666666667</ele><time>2026-04-30T09:42:24.669Z</time></trkpt><trkpt lat="44.4819984" lon="11.3493759"><ele>90.33333333333333</ele><time>2026-04-30T09:42:26.691Z</time></trkpt><trkpt lat="44.4820342" lon="11.3492731"><ele>90.5</ele><time>2026-04-30T09:42:28.674Z</time></trkpt><trkpt lat="44.4820282" lon="11.3491825"><ele>90.66666666666666</ele><time>2026-04-30T09:42:31.681Z</time></trkpt><trkpt lat="44.4819635" lon="11.3491295"><ele>90.83333333333333</ele><time>2026-04-30T09:42:37.672Z</time></trkpt><trkpt lat="44.4818735" lon="11.3491729"><ele>91.0</ele><time>2026-04-30T09:42:40.678Z</time></trkpt><trkpt lat="44.4818127" lon="11.3491999"><ele>91.0</ele><time>2026-04-30T09:42:42.677Z</time></trkpt><trkpt lat="44.4817521" lon="11.3492277"><ele>91.0</ele><time>2026-04-30T09:42:44.681Z</time></trkpt><trkpt lat="44.4816683" lon="11.3492624"><ele>91.0</ele><time>2026-04-30T09:42:47.672Z</time></trkpt><trkpt lat="44.4816016" lon="11.3492937"><ele>91.0</ele><time>2026-04-30T09:42:49.671Z</time></trkpt><trkpt lat="44.4815289" lon="11.3493368"><ele>91.0</ele><time>2026-04-30T09:42:51.684Z</time></trkpt><trkpt lat="44.4814463" lon="11.3493784"><ele>91.0</ele><time>2026-04-30T09:42:53.676Z</time></trkpt><trkpt lat="44.4813705" lon="11.3494142"><ele>91.0</ele><time>2026-04-30T09:42:55.663Z</time></trkpt><trkpt lat="44.4812943" lon="11.3494403"><ele>91.0</ele><time>2026-04-30T09:42:57.68Z</time></trkpt><trkpt lat="44.4812187" lon="11.3494691"><ele>91.0</ele><time>2026-04-30T09:42:59.671Z</time></trkpt><trkpt lat="44.4811379" lon="11.3494868"><ele>91.0</ele><time>2026-04-30T09:43:01.67Z</time></trkpt><trkpt lat="44.4810528" lon="11.3494874"><ele>91.0</ele><time>2026-04-30T09:43:03.675Z</time></trkpt><trkpt lat="44.4809646" lon="11.3494784"><ele>91.0</ele><time>2026-04-30T09:43:05.676Z</time></trkpt><trkpt lat="44.480881" lon="11.3494678"><ele>91.83333333333333</ele><time>2026-04-30T09:43:07.676Z</time></trkpt><trkpt lat="44.480798" lon="11.3494591"><ele>92.66666666666666</ele><time>2026-04-30T09:43:09.677Z</time></trkpt><trkpt lat="44.4807134" lon="11.3494302"><ele>93.5</ele><time>2026-04-30T09:43:11.668Z</time></trkpt><trkpt lat="44.4806308" lon="11.3494002"><ele>94.33333333333333</ele><time>2026-04-30T09:43:13.686Z</time></trkpt><trkpt lat="44.4805513" lon="11.3493713"><ele>95.16666666666667</ele><time>2026-04-30T09:43:15.679Z</time></trkpt><trkpt lat="44.4804748" lon="11.3493413"><ele>96.0</ele><time>2026-04-30T09:43:17.678Z</time></trkpt><trkpt lat="44.4803951" lon="11.3493116"><ele>96.83333333333333</ele><time>2026-04-30T09:43:19.671Z</time></trkpt><trkpt lat="44.4803186" lon="11.3492833"><ele>97.66666666666666</ele><time>2026-04-30T09:43:21.682Z</time></trkpt><trkpt lat="44.4802426" lon="11.3492506"><ele>98.5</ele><time>2026-04-30T09:43:23.682Z</time></trkpt><trkpt lat="44.4801675" lon="11.3492148"><ele>99.33333333333333</ele><time>2026-04-30T09:43:25.68Z</time></trkpt><trkpt lat="44.4801037" lon="11.3491616"><ele>100.16666666666666</ele><time>2026-04-30T09:43:27.678Z</time></trkpt><trkpt lat="44.4800422" lon="11.3491161"><ele>101.0</ele><time>2026-04-30T09:43:29.677Z</time></trkpt><trkpt lat="44.4799703" lon="11.3491007"><ele>101.0</ele><time>2026-04-30T09:43:31.69Z</time></trkpt><trkpt lat="44.4798923" lon="11.3490897"><ele>101.0</ele><time>2026-04-30T09:43:33.668Z</time></trkpt><trkpt lat="44.4798176" lon="11.3490648"><ele>101.0</ele><time>2026-04-30T09:43:35.678Z</time></trkpt><trkpt lat="44.4797488" lon="11.3490382"><ele>101.0</ele><time>2026-04-30T09:43:37.679Z</time></trkpt><trkpt lat="44.4796804" lon="11.3490069"><ele>101.0</ele><time>2026-04-30T09:43:39.675Z</time></trkpt><trkpt lat="44.4796129" lon="11.3489767"><ele>101.0</ele><time>2026-04-30T09:43:41.685Z</time></trkpt><trkpt lat="44.4795474" lon="11.3489461"><ele>101.0</ele><time>2026-04-30T09:43:43.677Z</time></trkpt><trkpt lat="44.4794836" lon="11.3489161"><ele>101.66666666666666</ele><time>2026-04-30T09:43:45.688Z</time></trkpt><trkpt lat="44.4794233" lon="11.3488902"><ele>102.33333333333333</ele><time>2026-04-30T09:43:47.677Z</time></trkpt><trkpt lat="44.4793388" lon="11.3488534"><ele>103.0</ele><time>2026-04-30T09:43:50.671Z</time></trkpt><trkpt lat="44.4792554" lon="11.3488194"><ele>103.66666666666666</ele><time>2026-04-30T09:43:53.663Z</time></trkpt><trkpt lat="44.4791714" lon="11.3487774"><ele>104.33333333333333</ele><time>2026-04-30T09:43:56.672Z</time></trkpt><trkpt lat="44.4790891" lon="11.3487359"><ele>105.0</ele><time>2026-04-30T09:43:59.679Z</time></trkpt><trkpt lat="44.479014" lon="11.3486928"><ele>106.0</ele><time>2026-04-30T09:44:02.682Z</time></trkpt><trkpt lat="44.4789414" lon="11.3486566"><ele>107.0</ele><time>2026-04-30T09:44:05.678Z</time></trkpt><trkpt lat="44.4788662" lon="11.3486237"><ele>108.0</ele><time>2026-04-30T09:44:08.684Z</time></trkpt><trkpt lat="44.4787917" lon="11.3485984"><ele>109.0</ele><time>2026-04-30T09:44:11.673Z</time></trkpt><trkpt lat="44.4787119" lon="11.3485554"><ele>110.0</ele><time>2026-04-30T09:44:14.667Z</time></trkpt><trkpt lat="44.4786386" lon="11.3484993"><ele>111.0</ele><time>2026-04-30T09:44:17.674Z</time></trkpt><trkpt lat="44.478567" lon="11.3484539"><ele>111.0</ele><time>2026-04-30T09:44:20.684Z</time></trkpt><trkpt lat="44.4784952" lon="11.348409"><ele>111.0</ele><time>2026-04-30T09:44:23.689Z</time></trkpt><trkpt lat="44.4784277" lon="11.348313"><ele>111.0</ele><time>2026-04-30T09:44:26.679Z</time></trkpt><trkpt lat="44.4783879" lon="11.3482348"><ele>111.0</ele><time>2026-04-30T09:44:28.682Z</time></trkpt><trkpt lat="44.4783511" lon="11.3481494"><ele>111.0</ele><time>2026-04-30T09:44:30.677Z</time></trkpt><trkpt lat="44.4783102" lon="11.348061"><ele>111.0</ele><time>2026-04-30T09:44:32.667Z</time></trkpt><trkpt lat="44.478258" lon="11.3479863"><ele>111.19999999999999</ele><time>2026-04-30T09:44:34.674Z</time></trkpt><trkpt lat="44.4781896" lon="11.3479502"><ele>111.39999999999999</ele><time>2026-04-30T09:44:36.68Z</time></trkpt><trkpt lat="44.478106" lon="11.3479602"><ele>111.6</ele><time>2026-04-30T09:44:38.674Z</time></trkpt><trkpt lat="44.4780127" lon="11.3479884"><ele>111.8</ele><time>2026-04-30T09:44:40.681Z</time></trkpt><trkpt lat="44.4779115" lon="11.3480163"><ele>112.0</ele><time>2026-04-30T09:44:42.689Z</time></trkpt><trkpt lat="44.4778109" lon="11.3480456"><ele>112.00000000000001</ele><time>2026-04-30T09:44:44.681Z</time></trkpt><trkpt lat="44.4777142" lon="11.3480821"><ele>112.0</ele><time>2026-04-30T09:44:46.672Z</time></trkpt><trkpt lat="44.4776271" lon="11.3481265"><ele>112.0</ele><time>2026-04-30T09:44:48.677Z</time></trkpt><trkpt lat="44.4775506" lon="11.3481789"><ele>112.0</ele><time>2026-04-30T09:44:50.677Z</time></trkpt><trkpt lat="44.4774773" lon="11.3482348"><ele>112.00000000000001</ele><time>2026-04-30T09:44:52.661Z</time></trkpt><trkpt lat="44.4774135" lon="11.3482827"><ele>112.0</ele><time>2026-04-30T09:44:54.685Z</time></trkpt><trkpt lat="44.4773626" lon="11.3483425"><ele>112.0</ele><time>2026-04-30T09:44:56.68Z</time></trkpt><trkpt lat="44.4772989" lon="11.3484067"><ele>112.0</ele><time>2026-04-30T09:44:59.662Z</time></trkpt><trkpt lat="44.4773561" lon="11.3484697"><ele>112.0</ele><time>2026-04-30T09:46:23.682Z</time></trkpt><trkpt lat="44.4773061" lon="11.3485259"><ele>112.0</ele><time>2026-04-30T09:46:29.673Z</time></trkpt><trkpt lat="44.4772359" lon="11.3485808"><ele>112.0</ele><time>2026-04-30T09:46:34.675Z</time></trkpt><trkpt lat="44.4771726" lon="11.3486119"><ele>112.0</ele><time>2026-04-30T09:46:37.677Z</time></trkpt><trkpt lat="44.4771023" lon="11.3486428"><ele>112.0</ele><time>2026-04-30T09:46:41.679Z</time></trkpt><trkpt lat="44.4770396" lon="11.3486821"><ele>115.16666666666667</ele><time>2026-04-30T09:46:44.681Z</time></trkpt><trkpt lat="44.4769746" lon="11.3487042"><ele>118.33333333333334</ele><time>2026-04-30T09:46:47.67Z</time></trkpt><trkpt lat="44.4768842" lon="11.3487267"><ele>121.5</ele><time>2026-04-30T09:46:51.662Z</time></trkpt><trkpt lat="44.4768088" lon="11.3487401"><ele>124.66666666666666</ele><time>2026-04-30T09:46:55.674Z</time></trkpt><trkpt lat="44.4767232" lon="11.3487471"><ele>127.83333333333333</ele><time>2026-04-30T09:46:59.677Z</time></trkpt><trkpt lat="44.4766588" lon="11.3487543"><ele>131.0</ele><time>2026-04-30T09:47:01.668Z</time></trkpt><trkpt lat="44.476583" lon="11.3487608"><ele>131.0</ele><time>2026-04-30T09:47:04.681Z</time></trkpt><trkpt lat="44.4765135" lon="11.3487636"><ele>131.0</ele><time>2026-04-30T09:47:07.673Z</time></trkpt><trkpt lat="44.4764407" lon="11.3487777"><ele>131.0</ele><time>2026-04-30T09:47:11.68Z</time></trkpt><trkpt lat="44.476377" lon="11.3487887"><ele>131.0</ele><time>2026-04-30T09:47:14.678Z</time></trkpt><trkpt lat="44.476297" lon="11.348812"><ele>131.0</ele><time>2026-04-30T09:47:18.688Z</time></trkpt><trkpt lat="44.4762323" lon="11.3488145"><ele>131.0</ele><time>2026-04-30T09:47:20.667Z</time></trkpt><trkpt lat="44.4761439" lon="11.3488297"><ele>131.0</ele><time>2026-04-30T09:47:24.66Z</time></trkpt><trkpt lat="44.47606" lon="11.3488458"><ele>132.71428571428572</ele><time>2026-04-30T09:47:27.681Z</time></trkpt><trkpt lat="44.4759941" lon="11.34887"><ele>134.42857142857144</ele><time>2026-04-30T09:47:30.679Z</time></trkpt><trkpt lat="44.4759191" lon="11.3488958"><ele>136.14285714285714</ele><time>2026-04-30T09:47:34.677Z</time></trkpt><trkpt lat="44.4758509" lon="11.3489159"><ele>137.85714285714286</ele><time>2026-04-30T09:47:38.68Z</time></trkpt><trkpt lat="44.4757876" lon="11.3489571"><ele>139.57142857142856</ele><time>2026-04-30T09:47:44.67Z</time></trkpt><trkpt lat="44.4757281" lon="11.3490134"><ele>141.28571428571428</ele><time>2026-04-30T09:47:50.681Z</time></trkpt><trkpt lat="44.4756674" lon="11.3490708"><ele>143.0</ele><time>2026-04-30T09:47:55.683Z</time></trkpt><trkpt lat="44.4755908" lon="11.3491119"><ele>142.99999999999997</ele><time>2026-04-30T09:47:58.68Z</time></trkpt><trkpt lat="44.4755231" lon="11.3491377"><ele>143.0</ele><time>2026-04-30T09:48:01.694Z</time></trkpt><trkpt lat="44.4754518" lon="11.3491704"><ele>143.0</ele><time>2026-04-30T09:48:05.678Z</time></trkpt><trkpt lat="44.475376" lon="11.3492025"><ele>143.0</ele><time>2026-04-30T09:48:09.674Z</time></trkpt><trkpt lat="44.4753058" lon="11.3492435"><ele>143.0</ele><time>2026-04-30T09:48:14.667Z</time></trkpt><trkpt lat="44.4752356" lon="11.3492838"><ele>142.99999999999997</ele><time>2026-04-30T09:48:18.673Z</time></trkpt><trkpt lat="44.4751778" lon="11.3493256"><ele>143.0</ele><time>2026-04-30T09:48:22.677Z</time></trkpt><trkpt lat="44.4751267" lon="11.349395"><ele>143.14285714285714</ele><time>2026-04-30T09:48:26.676Z</time></trkpt><trkpt lat="44.4750825" lon="11.3494803"><ele>143.28571428571428</ele><time>2026-04-30T09:48:31.675Z</time></trkpt><trkpt lat="44.4750471" lon="11.3495549"><ele>143.42857142857144</ele><time>2026-04-30T09:48:35.686Z</time></trkpt><trkpt lat="44.4750058" lon="11.3496493"><ele>143.57142857142856</ele><time>2026-04-30T09:48:40.666Z</time></trkpt><trkpt lat="44.4749698" lon="11.3497253"><ele>143.71428571428572</ele><time>2026-04-30T09:48:44.686Z</time></trkpt><trkpt lat="44.4749189" lon="11.3498019"><ele>143.85714285714286</ele><time>2026-04-30T09:48:48.679Z</time></trkpt><trkpt lat="44.4748595" lon="11.349864"><ele>144.0</ele><time>2026-04-30T09:48:52.681Z</time></trkpt><trkpt lat="44.4747883" lon="11.3499217"><ele>144.0</ele><time>2026-04-30T09:48:56.675Z</time></trkpt><trkpt lat="44.4747132" lon="11.3499686"><ele>144.0</ele><time>2026-04-30T09:49:00.67Z</time></trkpt><trkpt lat="44.4746367" lon="11.3500012"><ele>144.0</ele><time>2026-04-30T09:49:04.688Z</time></trkpt><trkpt lat="44.4745616" lon="11.3500013"><ele>144.0</ele><time>2026-04-30T09:49:08.683Z</time></trkpt><trkpt lat="44.4744867" lon="11.3499706"><ele>144.0</ele><time>2026-04-30T09:49:12.675Z</time></trkpt><trkpt lat="44.4744169" lon="11.349929"><ele>144.0</ele><time>2026-04-30T09:49:16.676Z</time></trkpt><trkpt lat="44.4743549" lon="11.3498736"><ele>145.00000000000003</ele><time>2026-04-30T09:49:20.674Z</time></trkpt><trkpt lat="44.4742956" lon="11.3498124"><ele>146.0</ele><time>2026-04-30T09:49:24.673Z</time></trkpt><trkpt lat="44.4742367" lon="11.3497471"><ele>147.0</ele><time>2026-04-30T09:49:28.683Z</time></trkpt><trkpt lat="44.4741737" lon="11.3496839"><ele>148.0</ele><time>2026-04-30T09:49:32.672Z</time></trkpt><trkpt lat="44.4741077" lon="11.3496385"><ele>149.0</ele><time>2026-04-30T09:49:36.675Z</time></trkpt><trkpt lat="44.474037" lon="11.3496063"><ele>150.00000000000003</ele><time>2026-04-30T09:49:40.679Z</time></trkpt><trkpt lat="44.473973" lon="11.3495659"><ele>151.0</ele><time>2026-04-30T09:49:44.659Z</time></trkpt><trkpt lat="44.4739073" lon="11.3495279"><ele>153.42857142857144</ele><time>2026-04-30T09:49:48.677Z</time></trkpt><trkpt lat="44.473844" lon="11.3494895"><ele>155.85714285714286</ele><time>2026-04-30T09:49:52.677Z</time></trkpt><trkpt lat="44.4737779" lon="11.3494568"><ele>158.28571428571428</ele><time>2026-04-30T09:49:56.677Z</time></trkpt><trkpt lat="44.4737176" lon="11.3494183"><ele>160.71428571428572</ele><time>2026-04-30T09:50:00.67Z</time></trkpt><trkpt lat="44.4736543" lon="11.3493846"><ele>163.14285714285714</ele><time>2026-04-30T09:50:04.675Z</time></trkpt><trkpt lat="44.4735914" lon="11.3493449"><ele>165.57142857142858</ele><time>2026-04-30T09:50:08.684Z</time></trkpt><trkpt lat="44.4735219" lon="11.3493129"><ele>168.0</ele><time>2026-04-30T09:50:12.679Z</time></trkpt><trkpt lat="44.4734547" lon="11.3492763"><ele>168.0</ele><time>2026-04-30T09:50:16.676Z</time></trkpt><trkpt lat="44.473395" lon="11.349239"><ele>168.0</ele><time>2026-04-30T09:50:20.684Z</time></trkpt><trkpt lat="44.4733469" lon="11.3491808"><ele>168.0</ele><time>2026-04-30T09:50:24.685Z</time></trkpt><trkpt lat="44.4733938" lon="11.3491105"><ele>168.0</ele><time>2026-04-30T09:50:29.675Z</time></trkpt><trkpt lat="44.4734568" lon="11.3491164"><ele>168.0</ele><time>2026-04-30T09:50:32.681Z</time></trkpt><trkpt lat="44.473527" lon="11.3491316"><ele>168.0</ele><time>2026-04-30T09:50:35.679Z</time></trkpt><trkpt lat="44.4735972" lon="11.3491383"><ele>168.0</ele><time>2026-04-30T09:50:38.679Z</time></trkpt><trkpt lat="44.4736736" lon="11.3491509"><ele>168.0</ele><time>2026-04-30T09:50:41.688Z</time></trkpt><trkpt lat="44.4737504" lon="11.34916"><ele>168.0</ele><time>2026-04-30T09:50:44.681Z</time></trkpt><trkpt lat="44.4738212" lon="11.3491716"><ele>168.0</ele><time>2026-04-30T09:50:47.673Z</time></trkpt><trkpt lat="44.4738934" lon="11.3491861"><ele>168.0</ele><time>2026-04-30T09:50:50.667Z</time></trkpt><trkpt lat="44.4739682" lon="11.3491951"><ele>168.0</ele><time>2026-04-30T09:50:53.674Z</time></trkpt><trkpt lat="44.4740457" lon="11.3491999"><ele>168.0</ele><time>2026-04-30T09:50:57.677Z</time></trkpt><trkpt lat="44.4741168" lon="11.34919"><ele>168.0</ele><time>2026-04-30T09:51:00.679Z</time></trkpt><trkpt lat="44.474181" lon="11.3491602"><ele>168.28571428571428</ele><time>2026-04-30T09:51:03.674Z</time></trkpt><trkpt lat="44.4742386" lon="11.3491009"><ele>168.57142857142856</ele><time>2026-04-30T09:51:06.67Z</time></trkpt><trkpt lat="44.4742891" lon="11.3490349"><ele>168.85714285714286</ele><time>2026-04-30T09:51:09.674Z</time></trkpt><trkpt lat="44.4743325" lon="11.3489627"><ele>169.14285714285714</ele><time>2026-04-30T09:51:12.677Z</time></trkpt><trkpt lat="44.4743728" lon="11.348889"><ele>169.42857142857142</ele><time>2026-04-30T09:51:15.671Z</time></trkpt><trkpt lat="44.4744107" lon="11.3488113"><ele>169.71428571428572</ele><time>2026-04-30T09:51:18.679Z</time></trkpt><trkpt lat="44.4744495" lon="11.3487409"><ele>170.0</ele><time>2026-04-30T09:51:21.679Z</time></trkpt><trkpt lat="44.4744885" lon="11.3486674"><ele>171.0</ele><time>2026-04-30T09:51:24.675Z</time></trkpt><trkpt lat="44.4745255" lon="11.3485884"><ele>172.0</ele><time>2026-04-30T09:51:27.674Z</time></trkpt><trkpt lat="44.4745713" lon="11.3484936"><ele>173.0</ele><time>2026-04-30T09:51:31.679Z</time></trkpt><trkpt lat="44.4746168" lon="11.3484015"><ele>174.0</ele><time>2026-04-30T09:51:35.675Z</time></trkpt><trkpt lat="44.4746493" lon="11.3483249"><ele>175.0</ele><time>2026-04-30T09:51:38.679Z</time></trkpt><trkpt lat="44.4746888" lon="11.34825"><ele>176.0</ele><time>2026-04-30T09:51:41.676Z</time></trkpt><trkpt lat="44.4747222" lon="11.348144"><ele>177.0</ele><time>2026-04-30T09:51:45.68Z</time></trkpt><trkpt lat="44.4747233" lon="11.3480474"><ele>178.16666666666666</ele><time>2026-04-30T09:51:49.671Z</time></trkpt><trkpt lat="44.4746582" lon="11.3480048"><ele>179.33333333333334</ele><time>2026-04-30T09:51:54.673Z</time></trkpt><trkpt lat="44.4745905" lon="11.348068"><ele>180.5</ele><time>2026-04-30T09:51:58.685Z</time></trkpt><trkpt lat="44.4745259" lon="11.3481377"><ele>181.66666666666669</ele><time>2026-04-30T09:52:02.679Z</time></trkpt><trkpt lat="44.4744722" lon="11.3482192"><ele>182.83333333333334</ele><time>2026-04-30T09:52:06.683Z</time></trkpt><trkpt lat="44.4744205" lon="11.3482939"><ele>184.0</ele><time>2026-04-30T09:52:10.685Z</time></trkpt><trkpt lat="44.4743733" lon="11.3483727"><ele>185.2857142857143</ele><time>2026-04-30T09:52:14.674Z</time></trkpt><trkpt lat="44.4743258" lon="11.3484479"><ele>186.57142857142856</ele><time>2026-04-30T09:52:18.676Z</time></trkpt><trkpt lat="44.4742737" lon="11.3485174"><ele>187.85714285714286</ele><time>2026-04-30T09:52:22.689Z</time></trkpt><trkpt lat="44.4742185" lon="11.3485814"><ele>189.14285714285717</ele><time>2026-04-30T09:52:26.681Z</time></trkpt><trkpt lat="44.4741497" lon="11.3486234"><ele>190.42857142857144</ele><time>2026-04-30T09:52:30.676Z</time></trkpt><trkpt lat="44.4741041" lon="11.3485582"><ele>191.71428571428572</ele><time>2026-04-30T09:52:34.675Z</time></trkpt><trkpt lat="44.4741314" lon="11.3484772"><ele>193.0</ele><time>2026-04-30T09:52:38.677Z</time></trkpt><trkpt lat="44.4741682" lon="11.3484033"><ele>193.00000000000003</ele><time>2026-04-30T09:52:42.676Z</time></trkpt><trkpt lat="44.4742072" lon="11.3483142"><ele>193.0</ele><time>2026-04-30T09:52:47.666Z</time></trkpt><trkpt lat="44.4742429" lon="11.3482342"><ele>193.0</ele><time>2026-04-30T09:52:51.686Z</time></trkpt><trkpt lat="44.4742821" lon="11.3481512"><ele>193.0</ele><time>2026-04-30T09:52:55.68Z</time></trkpt><trkpt lat="44.4743105" lon="11.3480651"><ele>193.0</ele><time>2026-04-30T09:52:59.679Z</time></trkpt><trkpt lat="44.4743417" lon="11.3479601"><ele>193.00000000000003</ele><time>2026-04-30T09:53:04.67Z</time></trkpt><trkpt lat="44.4743655" lon="11.3478712"><ele>193.0</ele><time>2026-04-30T09:53:07.68Z</time></trkpt><trkpt lat="44.4743847" lon="11.3477865"><ele>194.42857142857144</ele><time>2026-04-30T09:53:10.688Z</time></trkpt><trkpt lat="44.4744051" lon="11.3476873"><ele>195.85714285714286</ele><time>2026-04-30T09:53:14.677Z</time></trkpt><trkpt lat="44.4743949" lon="11.3475889"><ele>197.28571428571428</ele><time>2026-04-30T09:53:18.671Z</time></trkpt><trkpt lat="44.4743781" lon="11.3474873"><ele>198.71428571428572</ele><time>2026-04-30T09:53:22.667Z</time></trkpt><trkpt lat="44.474347" lon="11.3474003"><ele>200.14285714285714</ele><time>2026-04-30T09:53:26.681Z</time></trkpt><trkpt lat="44.4742903" lon="11.3473358"><ele>201.57142857142858</ele><time>2026-04-30T09:53:30.673Z</time></trkpt><trkpt lat="44.4742312" lon="11.3472822"><ele>203.0</ele><time>2026-04-30T09:53:34.672Z</time></trkpt><trkpt lat="44.474169" lon="11.3472396"><ele>202.28571428571428</ele><time>2026-04-30T09:53:38.678Z</time></trkpt><trkpt lat="44.4741076" lon="11.347204"><ele>201.57142857142856</ele><time>2026-04-30T09:53:42.683Z</time></trkpt><trkpt lat="44.474049" lon="11.347165"><ele>200.85714285714286</ele><time>2026-04-30T09:53:46.682Z</time></trkpt><trkpt lat="44.473986" lon="11.3471239"><ele>200.14285714285714</ele><time>2026-04-30T09:53:50.687Z</time></trkpt><trkpt lat="44.4739289" lon="11.3470702"><ele>199.42857142857142</ele><time>2026-04-30T09:53:54.672Z</time></trkpt><trkpt lat="44.4738722" lon="11.3470146"><ele>198.71428571428572</ele><time>2026-04-30T09:53:58.674Z</time></trkpt><trkpt lat="44.4738193" lon="11.346951"><ele>198.0</ele><time>2026-04-30T09:54:02.674Z</time></trkpt><trkpt lat="44.4737646" lon="11.3468862"><ele>200.16666666666666</ele><time>2026-04-30T09:54:06.678Z</time></trkpt><trkpt lat="44.4737049" lon="11.3468244"><ele>202.33333333333331</ele><time>2026-04-30T09:54:10.684Z</time></trkpt><trkpt lat="44.4736482" lon="11.3467508"><ele>204.5</ele><time>2026-04-30T09:54:14.674Z</time></trkpt><trkpt lat="44.4735873" lon="11.3466902"><ele>206.66666666666666</ele><time>2026-04-30T09:54:18.679Z</time></trkpt><trkpt lat="44.4735297" lon="11.3466259"><ele>208.83333333333331</ele><time>2026-04-30T09:54:22.667Z</time></trkpt><trkpt lat="44.4734664" lon="11.34655"><ele>211.0</ele><time>2026-04-30T09:54:26.671Z</time></trkpt><trkpt lat="44.4734011" lon="11.3464815"><ele>211.0</ele><time>2026-04-30T09:54:30.67Z</time></trkpt><trkpt lat="44.4733473" lon="11.3464299"><ele>211.0</ele><time>2026-04-30T09:54:33.675Z</time></trkpt><trkpt lat="44.4732994" lon="11.3463648"><ele>211.0</ele><time>2026-04-30T09:54:36.68Z</time></trkpt><trkpt lat="44.473249" lon="11.3463027"><ele>211.0</ele><time>2026-04-30T09:54:39.673Z</time></trkpt><trkpt lat="44.4732002" lon="11.3462376"><ele>211.0</ele><time>2026-04-30T09:54:42.67Z</time></trkpt><trkpt lat="44.4731451" lon="11.3461833"><ele>211.0</ele><time>2026-04-30T09:54:45.676Z</time></trkpt><trkpt lat="44.4730848" lon="11.3461524"><ele>211.0</ele><time>2026-04-30T09:54:48.669Z</time></trkpt><trkpt lat="44.4730053" lon="11.3461437"><ele>212.49999999999997</ele><time>2026-04-30T09:54:52.676Z</time></trkpt><trkpt lat="44.4729297" lon="11.3461445"><ele>214.0</ele><time>2026-04-30T09:54:56.671Z</time></trkpt><trkpt lat="44.4728557" lon="11.3461589"><ele>215.5</ele><time>2026-04-30T09:55:00.68Z</time></trkpt><trkpt lat="44.4727777" lon="11.3461744"><ele>217.0</ele><time>2026-04-30T09:55:04.674Z</time></trkpt><trkpt lat="44.4727023" lon="11.3461935"><ele>218.49999999999997</ele><time>2026-04-30T09:55:08.683Z</time></trkpt><trkpt lat="44.4726275" lon="11.3462188"><ele>220.0</ele><time>2026-04-30T09:55:12.678Z</time></trkpt><trkpt lat="44.4725503" lon="11.346238"><ele>219.99999999999997</ele><time>2026-04-30T09:55:16.676Z</time></trkpt><trkpt lat="44.4724791" lon="11.3462636"><ele>220.0</ele><time>2026-04-30T09:55:20.679Z</time></trkpt><trkpt lat="44.4724076" lon="11.3462943"><ele>220.0</ele><time>2026-04-30T09:55:24.677Z</time></trkpt><trkpt lat="44.4723348" lon="11.3463182"><ele>220.0</ele><time>2026-04-30T09:55:28.68Z</time></trkpt><trkpt lat="44.4722616" lon="11.3463496"><ele>219.99999999999997</ele><time>2026-04-30T09:55:32.68Z</time></trkpt><trkpt lat="44.4721905" lon="11.3463887"><ele>220.0</ele><time>2026-04-30T09:55:36.67Z</time></trkpt><trkpt lat="44.4721181" lon="11.3464297"><ele>221.66666666666666</ele><time>2026-04-30T09:55:40.678Z</time></trkpt><trkpt lat="44.4720512" lon="11.3464615"><ele>223.33333333333331</ele><time>2026-04-30T09:55:44.682Z</time></trkpt><trkpt lat="44.4719802" lon="11.3465015"><ele>225.0</ele><time>2026-04-30T09:55:48.684Z</time></trkpt><trkpt lat="44.4719063" lon="11.3465354"><ele>226.66666666666669</ele><time>2026-04-30T09:55:52.674Z</time></trkpt><trkpt lat="44.4718308" lon="11.3465659"><ele>228.33333333333334</ele><time>2026-04-30T09:55:56.663Z</time></trkpt><trkpt lat="44.4717526" lon="11.3465999"><ele>230.0</ele><time>2026-04-30T09:56:00.683Z</time></trkpt><trkpt lat="44.471674" lon="11.3466306"><ele>229.99999999999997</ele><time>2026-04-30T09:56:04.684Z</time></trkpt><trkpt lat="44.4716121" lon="11.3466473"><ele>230.0</ele><time>2026-04-30T09:56:07.682Z</time></trkpt><trkpt lat="44.4715508" lon="11.3466678"><ele>229.99999999999997</ele><time>2026-04-30T09:56:10.682Z</time></trkpt><trkpt lat="44.4714853" lon="11.3466827"><ele>229.99999999999997</ele><time>2026-04-30T09:56:13.675Z</time></trkpt><trkpt lat="44.471424" lon="11.3467036"><ele>230.0</ele><time>2026-04-30T09:56:16.683Z</time></trkpt><trkpt lat="44.4713617" lon="11.3467253"><ele>229.99999999999997</ele><time>2026-04-30T09:56:19.681Z</time></trkpt><trkpt lat="44.4712812" lon="11.3467508"><ele>229.99999999999997</ele><time>2026-04-30T09:56:23.663Z</time></trkpt><trkpt lat="44.4712202" lon="11.3467779"><ele>230.85714285714283</ele><time>2026-04-30T09:56:26.673Z</time></trkpt><trkpt lat="44.4711579" lon="11.3468108"><ele>231.71428571428572</ele><time>2026-04-30T09:56:29.676Z</time></trkpt><trkpt lat="44.4710982" lon="11.3468526"><ele>232.57142857142856</ele><time>2026-04-30T09:56:32.668Z</time></trkpt><trkpt lat="44.4710351" lon="11.3468969"><ele>233.42857142857142</ele><time>2026-04-30T09:56:35.668Z</time></trkpt><trkpt lat="44.470969" lon="11.3469354"><ele>234.28571428571428</ele><time>2026-04-30T09:56:38.659Z</time></trkpt><trkpt lat="44.4709044" lon="11.3469793"><ele>235.14285714285714</ele><time>2026-04-30T09:56:41.67Z</time></trkpt><trkpt lat="44.4708399" lon="11.3470246"><ele>236.0</ele><time>2026-04-30T09:56:44.655Z</time></trkpt><trkpt lat="44.4707773" lon="11.3470691"><ele>236.0</ele><time>2026-04-30T09:56:47.676Z</time></trkpt><trkpt lat="44.4707138" lon="11.3471128"><ele>236.0</ele><time>2026-04-30T09:56:50.671Z</time></trkpt><trkpt lat="44.470649" lon="11.3471578"><ele>236.0</ele><time>2026-04-30T09:56:53.659Z</time></trkpt><trkpt lat="44.4705916" lon="11.3472028"><ele>236.0</ele><time>2026-04-30T09:56:56.666Z</time></trkpt><trkpt lat="44.470517" lon="11.3472347"><ele>236.0</ele><time>2026-04-30T09:56:59.668Z</time></trkpt><trkpt lat="44.470445" lon="11.3472575"><ele>236.0</ele><time>2026-04-30T09:57:02.673Z</time></trkpt><trkpt lat="44.4703702" lon="11.3472518"><ele>236.0</ele><time>2026-04-30T09:57:05.675Z</time></trkpt><trkpt lat="44.4702993" lon="11.3472345"><ele>235.85714285714283</ele><time>2026-04-30T09:57:08.674Z</time></trkpt><trkpt lat="44.4702292" lon="11.3472084"><ele>235.71428571428572</ele><time>2026-04-30T09:57:11.676Z</time></trkpt><trkpt lat="44.4701649" lon="11.347186"><ele>235.57142857142856</ele><time>2026-04-30T09:57:14.675Z</time></trkpt><trkpt lat="44.4700962" lon="11.3471618"><ele>235.42857142857142</ele><time>2026-04-30T09:57:18.678Z</time></trkpt><trkpt lat="44.4700231" lon="11.3471447"><ele>235.28571428571428</ele><time>2026-04-30T09:57:22.687Z</time></trkpt><trkpt lat="44.4699523" lon="11.3471305"><ele>235.14285714285714</ele><time>2026-04-30T09:57:25.67Z</time></trkpt><trkpt lat="44.4698775" lon="11.3471135"><ele>235.0</ele><time>2026-04-30T09:57:28.675Z</time></trkpt><trkpt lat="44.4697976" lon="11.3471015"><ele>234.99999999999997</ele><time>2026-04-30T09:57:31.677Z</time></trkpt><trkpt lat="44.469717" lon="11.3471013"><ele>235.0</ele><time>2026-04-30T09:57:34.675Z</time></trkpt><trkpt lat="44.4696391" lon="11.3471052"><ele>235.0</ele><time>2026-04-30T09:57:37.685Z</time></trkpt><trkpt lat="44.4695665" lon="11.3471144"><ele>235.0</ele><time>2026-04-30T09:57:40.678Z</time></trkpt><trkpt lat="44.4694937" lon="11.3471234"><ele>234.99999999999997</ele><time>2026-04-30T09:57:43.673Z</time></trkpt><trkpt lat="44.4694186" lon="11.3471264"><ele>235.0</ele><time>2026-04-30T09:57:46.682Z</time></trkpt><trkpt lat="44.4693425" lon="11.3471418"><ele>235.99999999999997</ele><time>2026-04-30T09:57:49.675Z</time></trkpt><trkpt lat="44.469263" lon="11.3471557"><ele>237.0</ele><time>2026-04-30T09:57:52.68Z</time></trkpt><trkpt lat="44.4691916" lon="11.3471791"><ele>238.0</ele><time>2026-04-30T09:57:55.685Z</time></trkpt><trkpt lat="44.4691133" lon="11.3472124"><ele>239.0</ele><time>2026-04-30T09:57:58.683Z</time></trkpt><trkpt lat="44.4690365" lon="11.3472403"><ele>239.99999999999997</ele><time>2026-04-30T09:58:01.675Z</time></trkpt><trkpt lat="44.4689616" lon="11.3472718"><ele>241.0</ele><time>2026-04-30T09:58:04.673Z</time></trkpt><trkpt lat="44.4688866" lon="11.3472946"><ele>244.16666666666666</ele><time>2026-04-30T09:58:07.667Z</time></trkpt><trkpt lat="44.4687934" lon="11.3473011"><ele>247.33333333333331</ele><time>2026-04-30T09:58:10.68Z</time></trkpt><trkpt lat="44.4687176" lon="11.3473086"><ele>250.5</ele><time>2026-04-30T09:58:13.674Z</time></trkpt><trkpt lat="44.4686382" lon="11.3473095"><ele>253.66666666666669</ele><time>2026-04-30T09:58:16.683Z</time></trkpt><trkpt lat="44.4685542" lon="11.3473084"><ele>256.83333333333337</ele><time>2026-04-30T09:58:19.682Z</time></trkpt><trkpt lat="44.4684714" lon="11.3473038"><ele>260.0</ele><time>2026-04-30T09:58:22.684Z</time></trkpt><trkpt lat="44.4684006" lon="11.347296"><ele>260.0</ele><time>2026-04-30T09:58:25.682Z</time></trkpt><trkpt lat="44.4683371" lon="11.3472899"><ele>260.0</ele><time>2026-04-30T09:58:27.684Z</time></trkpt><trkpt lat="44.4682494" lon="11.3472611"><ele>260.0</ele><time>2026-04-30T09:58:30.684Z</time></trkpt><trkpt lat="44.4681677" lon="11.3472286"><ele>260.0</ele><time>2026-04-30T09:58:33.686Z</time></trkpt><trkpt lat="44.468083" lon="11.3471961"><ele>260.0</ele><time>2026-04-30T09:58:36.677Z</time></trkpt><trkpt lat="44.468002" lon="11.3471642"><ele>260.0</ele><time>2026-04-30T09:58:39.667Z</time></trkpt><trkpt lat="44.4679202" lon="11.3471323"><ele>260.1666666666667</ele><time>2026-04-30T09:58:42.682Z</time></trkpt><trkpt lat="44.4678472" lon="11.347081"><ele>260.33333333333337</ele><time>2026-04-30T09:58:45.677Z</time></trkpt><trkpt lat="44.4677796" lon="11.3470151"><ele>260.5</ele><time>2026-04-30T09:58:48.684Z</time></trkpt><trkpt lat="44.467712" lon="11.3469677"><ele>260.6666666666667</ele><time>2026-04-30T09:58:51.676Z</time></trkpt><trkpt lat="44.467644" lon="11.3468927"><ele>260.8333333333333</ele><time>2026-04-30T09:58:54.678Z</time></trkpt><trkpt lat="44.4675923" lon="11.3468176"><ele>261.0</ele><time>2026-04-30T09:58:57.678Z</time></trkpt><trkpt lat="44.4675628" lon="11.3467391"><ele>261.0</ele><time>2026-04-30T09:58:59.688Z</time></trkpt><trkpt lat="44.4675299" lon="11.3466207"><ele>261.0</ele><time>2026-04-30T09:59:02.68Z</time></trkpt><trkpt lat="44.4675114" lon="11.3465322"><ele>261.0</ele><time>2026-04-30T09:59:04.677Z</time></trkpt><trkpt lat="44.4674945" lon="11.346444"><ele>261.0</ele><time>2026-04-30T09:59:06.661Z</time></trkpt><trkpt lat="44.4674787" lon="11.3463561"><ele>261.0</ele><time>2026-04-30T09:59:08.679Z</time></trkpt><trkpt lat="44.4674508" lon="11.3462319"><ele>261.0</ele><time>2026-04-30T09:59:11.676Z</time></trkpt><trkpt lat="44.4674257" lon="11.3461497"><ele>261.0</ele><time>2026-04-30T09:59:13.674Z</time></trkpt><trkpt lat="44.4673804" lon="11.3460362"><ele>259.6666666666667</ele><time>2026-04-30T09:59:16.665Z</time></trkpt><trkpt lat="44.4673327" lon="11.3459671"><ele>258.3333333333333</ele><time>2026-04-30T09:59:18.676Z</time></trkpt><trkpt lat="44.4672715" lon="11.3458933"><ele>257.0</ele><time>2026-04-30T09:59:20.677Z</time></trkpt><trkpt lat="44.4672024" lon="11.3458189"><ele>255.66666666666666</ele><time>2026-04-30T09:59:22.673Z</time></trkpt><trkpt lat="44.4671285" lon="11.3457437"><ele>254.33333333333331</ele><time>2026-04-30T09:59:24.68Z</time></trkpt><trkpt lat="44.4670487" lon="11.3456618"><ele>253.0</ele><time>2026-04-30T09:59:26.679Z</time></trkpt><trkpt lat="44.4669668" lon="11.3455693"><ele>253.25</ele><time>2026-04-30T09:59:28.681Z</time></trkpt><trkpt lat="44.4668837" lon="11.3454577"><ele>253.5</ele><time>2026-04-30T09:59:30.686Z</time></trkpt><trkpt lat="44.4668022" lon="11.3453395"><ele>253.75</ele><time>2026-04-30T09:59:32.692Z</time></trkpt><trkpt lat="44.466703" lon="11.3452539"><ele>254.0</ele><time>2026-04-30T09:59:34.68Z</time></trkpt><trkpt lat="44.4665886" lon="11.3451942"><ele>254.0</ele><time>2026-04-30T09:59:36.686Z</time></trkpt><trkpt lat="44.4664754" lon="11.3451387"><ele>253.99999999999997</ele><time>2026-04-30T09:59:38.692Z</time></trkpt><trkpt lat="44.4663695" lon="11.3450915"><ele>253.99999999999997</ele><time>2026-04-30T09:59:40.676Z</time></trkpt><trkpt lat="44.4662728" lon="11.3450452"><ele>254.0</ele><time>2026-04-30T09:59:42.678Z</time></trkpt><trkpt lat="44.4661856" lon="11.3450023"><ele>254.0</ele><time>2026-04-30T09:59:44.676Z</time></trkpt><trkpt lat="44.4661014" lon="11.3449473"><ele>253.39999999999998</ele><time>2026-04-30T09:59:46.674Z</time></trkpt><trkpt lat="44.466022" lon="11.3448906"><ele>252.79999999999998</ele><time>2026-04-30T09:59:48.674Z</time></trkpt><trkpt lat="44.4659505" lon="11.344809"><ele>252.20000000000002</ele><time>2026-04-30T09:59:50.688Z</time></trkpt><trkpt lat="44.4658886" lon="11.3447216"><ele>251.60000000000002</ele><time>2026-04-30T09:59:52.662Z</time></trkpt><trkpt lat="44.4658088" lon="11.3446422"><ele>251.0</ele><time>2026-04-30T09:59:54.68Z</time></trkpt><trkpt lat="44.4657203" lon="11.3445841"><ele>251.0</ele><time>2026-04-30T09:59:56.677Z</time></trkpt><trkpt lat="44.4656312" lon="11.3445401"><ele>251.00000000000003</ele><time>2026-04-30T09:59:58.673Z</time></trkpt><trkpt lat="44.46552" lon="11.3444988"><ele>251.00000000000003</ele><time>2026-04-30T10:00:00.684Z</time></trkpt><trkpt lat="44.465414" lon="11.3444732"><ele>251.0</ele><time>2026-04-30T10:00:02.677Z</time></trkpt><trkpt lat="44.4653005" lon="11.3444499"><ele>251.0</ele><time>2026-04-30T10:00:04.677Z</time></trkpt><trkpt lat="44.4651824" lon="11.3444218"><ele>252.50000000000003</ele><time>2026-04-30T10:00:06.681Z</time></trkpt><trkpt lat="44.4650789" lon="11.3443484"><ele>254.0</ele><time>2026-04-30T10:00:08.68Z</time></trkpt><trkpt lat="44.4650286" lon="11.3442734"><ele>255.5</ele><time>2026-04-30T10:00:09.68Z</time></trkpt><trkpt lat="44.4649797" lon="11.3442061"><ele>257.0</ele><time>2026-04-30T10:00:10.677Z</time></trkpt><trkpt lat="44.4649314" lon="11.3441444"><ele>258.5</ele><time>2026-04-30T10:00:11.681Z</time></trkpt><trkpt lat="44.4648759" lon="11.3440828"><ele>260.0</ele><time>2026-04-30T10:00:12.675Z</time></trkpt><trkpt lat="44.4648186" lon="11.3440278"><ele>260.00000000000006</ele><time>2026-04-30T10:00:13.675Z</time></trkpt><trkpt lat="44.4647618" lon="11.3439754"><ele>260.0</ele><time>2026-04-30T10:00:14.684Z</time></trkpt><trkpt lat="44.4646943" lon="11.3439374"><ele>260.0</ele><time>2026-04-30T10:00:15.679Z</time></trkpt><trkpt lat="44.4646279" lon="11.3439016"><ele>260.0</ele><time>2026-04-30T10:00:16.673Z</time></trkpt><trkpt lat="44.4645543" lon="11.3438808"><ele>260.0</ele><time>2026-04-30T10:00:17.681Z</time></trkpt><trkpt lat="44.4644794" lon="11.3438751"><ele>260.00000000000006</ele><time>2026-04-30T10:00:18.682Z</time></trkpt><trkpt lat="44.4644067" lon="11.3438704"><ele>260.0</ele><time>2026-04-30T10:00:19.679Z</time></trkpt><trkpt lat="44.4643329" lon="11.3438769"><ele>259.1666666666667</ele><time>2026-04-30T10:00:20.683Z</time></trkpt><trkpt lat="44.4642599" lon="11.3438812"><ele>258.33333333333337</ele><time>2026-04-30T10:00:21.686Z</time></trkpt><trkpt lat="44.4641932" lon="11.3438844"><ele>257.5</ele><time>2026-04-30T10:00:22.669Z</time></trkpt><trkpt lat="44.4640801" lon="11.3438676"><ele>256.6666666666667</ele><time>2026-04-30T10:00:24.672Z</time></trkpt><trkpt lat="44.4639753" lon="11.3438441"><ele>255.83333333333334</ele><time>2026-04-30T10:00:26.677Z</time></trkpt><trkpt lat="44.4638873" lon="11.3438261"><ele>255.0</ele><time>2026-04-30T10:00:28.68Z</time></trkpt><trkpt lat="44.4638067" lon="11.343805"><ele>256.14285714285717</ele><time>2026-04-30T10:00:30.705Z</time></trkpt><trkpt lat="44.4637296" lon="11.3437844"><ele>257.28571428571433</ele><time>2026-04-30T10:00:32.674Z</time></trkpt><trkpt lat="44.463654" lon="11.3437643"><ele>258.42857142857144</ele><time>2026-04-30T10:00:34.674Z</time></trkpt><trkpt lat="44.4635774" lon="11.3437494"><ele>259.57142857142856</ele><time>2026-04-30T10:00:36.686Z</time></trkpt><trkpt lat="44.4635071" lon="11.3437284"><ele>260.71428571428567</ele><time>2026-04-30T10:00:38.689Z</time></trkpt><trkpt lat="44.4634387" lon="11.3437046"><ele>261.85714285714283</ele><time>2026-04-30T10:00:40.685Z</time></trkpt><trkpt lat="44.463372" lon="11.3436768"><ele>263.0</ele><time>2026-04-30T10:00:42.671Z</time></trkpt><trkpt lat="44.4633085" lon="11.3436524"><ele>263.0</ele><time>2026-04-30T10:00:44.674Z</time></trkpt><trkpt lat="44.463242" lon="11.3436374"><ele>263.0</ele><time>2026-04-30T10:00:46.67Z</time></trkpt><trkpt lat="44.4631729" lon="11.3436196"><ele>263.0</ele><time>2026-04-30T10:00:48.675Z</time></trkpt><trkpt lat="44.4631074" lon="11.3436018"><ele>263.0</ele><time>2026-04-30T10:00:50.693Z</time></trkpt><trkpt lat="44.4630404" lon="11.3435838"><ele>263.0</ele><time>2026-04-30T10:00:52.684Z</time></trkpt><trkpt lat="44.4629732" lon="11.3435704"><ele>263.0</ele><time>2026-04-30T10:00:54.675Z</time></trkpt><trkpt lat="44.4629019" lon="11.3435645"><ele>263.0</ele><time>2026-04-30T10:00:56.677Z</time></trkpt><trkpt lat="44.4628156" lon="11.3435447"><ele>263.0</ele><time>2026-04-30T10:00:58.681Z</time></trkpt><trkpt lat="44.4627207" lon="11.3435352"><ele>263.0</ele><time>2026-04-30T10:01:00.673Z</time></trkpt><trkpt lat="44.4626192" lon="11.34353"><ele>263.0</ele><time>2026-04-30T10:01:02.679Z</time></trkpt><trkpt lat="44.4625006" lon="11.3435439"><ele>263.0</ele><time>2026-04-30T10:01:04.669Z</time></trkpt><trkpt lat="44.4624375" lon="11.3435509"><ele>263.0</ele><time>2026-04-30T10:01:05.672Z</time></trkpt><trkpt lat="44.4623719" lon="11.3435553"><ele>263.0</ele><time>2026-04-30T10:01:06.68Z</time></trkpt><trkpt lat="44.4623009" lon="11.3435646"><ele>263.0</ele><time>2026-04-30T10:01:07.671Z</time></trkpt><trkpt lat="44.4622275" lon="11.3435764"><ele>263.0</ele><time>2026-04-30T10:01:08.688Z</time></trkpt><trkpt lat="44.462158" lon="11.3435847"><ele>263.0</ele><time>2026-04-30T10:01:09.678Z</time></trkpt><trkpt lat="44.4620875" lon="11.3435902"><ele>263.0</ele><time>2026-04-30T10:01:10.679Z</time></trkpt><trkpt lat="44.4620173" lon="11.343595"><ele>263.0</ele><time>2026-04-30T10:01:11.681Z</time></trkpt><trkpt lat="44.4619489" lon="11.3436021"><ele>263.0</ele><time>2026-04-30T10:01:12.69Z</time></trkpt><trkpt lat="44.4618805" lon="11.3436091"><ele>263.0</ele><time>2026-04-30T10:01:13.681Z</time></trkpt><trkpt lat="44.4618138" lon="11.3436144"><ele>262.0</ele><time>2026-04-30T10:01:14.685Z</time></trkpt><trkpt lat="44.4616937" lon="11.3436274"><ele>261.0</ele><time>2026-04-30T10:01:16.677Z</time></trkpt><trkpt lat="44.4615776" lon="11.343636"><ele>260.0</ele><time>2026-04-30T10:01:18.683Z</time></trkpt><trkpt lat="44.4614677" lon="11.3436328"><ele>259.0</ele><time>2026-04-30T10:01:20.683Z</time></trkpt><trkpt lat="44.4613545" lon="11.3436103"><ele>258.16666666666663</ele><time>2026-04-30T10:01:22.675Z</time></trkpt><trkpt lat="44.4612286" lon="11.3435745"><ele>257.3333333333333</ele><time>2026-04-30T10:01:24.689Z</time></trkpt><trkpt lat="44.4611596" lon="11.3435623"><ele>256.5</ele><time>2026-04-30T10:01:25.676Z</time></trkpt><trkpt lat="44.4610874" lon="11.3435645"><ele>255.66666666666669</ele><time>2026-04-30T10:01:26.687Z</time></trkpt><trkpt lat="44.4610143" lon="11.3435809"><ele>254.83333333333334</ele><time>2026-04-30T10:01:27.686Z</time></trkpt><trkpt lat="44.4609434" lon="11.3436114"><ele>254.0</ele><time>2026-04-30T10:01:28.675Z</time></trkpt><trkpt lat="44.4608795" lon="11.3436564"><ele>254.00000000000003</ele><time>2026-04-30T10:01:29.671Z</time></trkpt><trkpt lat="44.4608177" lon="11.3437014"><ele>254.0</ele><time>2026-04-30T10:01:30.683Z</time></trkpt><trkpt lat="44.460772" lon="11.3437631"><ele>254.0</ele><time>2026-04-30T10:01:31.678Z</time></trkpt><trkpt lat="44.4606937" lon="11.3438891"><ele>254.0</ele><time>2026-04-30T10:01:33.686Z</time></trkpt><trkpt lat="44.460637" lon="11.3440051"><ele>254.00000000000003</ele><time>2026-04-30T10:01:35.68Z</time></trkpt><trkpt lat="44.4605938" lon="11.3441167"><ele>254.0</ele><time>2026-04-30T10:01:37.671Z</time></trkpt><trkpt lat="44.4605569" lon="11.3442254"><ele>256.33333333333337</ele><time>2026-04-30T10:01:39.677Z</time></trkpt><trkpt lat="44.4605242" lon="11.3443492"><ele>258.6666666666667</ele><time>2026-04-30T10:01:41.682Z</time></trkpt><trkpt lat="44.4605053" lon="11.3445031"><ele>261.0</ele><time>2026-04-30T10:01:43.682Z</time></trkpt><trkpt lat="44.4605008" lon="11.344592"><ele>263.3333333333333</ele><time>2026-04-30T10:01:44.679Z</time></trkpt><trkpt lat="44.4605015" lon="11.3446871"><ele>265.66666666666663</ele><time>2026-04-30T10:01:45.681Z</time></trkpt><trkpt lat="44.4605077" lon="11.3447897"><ele>268.0</ele><time>2026-04-30T10:01:46.683Z</time></trkpt><trkpt lat="44.4605137" lon="11.3448905"><ele>268.0</ele><time>2026-04-30T10:01:47.674Z</time></trkpt><trkpt lat="44.4605239" lon="11.3450008"><ele>268.0</ele><time>2026-04-30T10:01:48.677Z</time></trkpt><trkpt lat="44.4605199" lon="11.3451187"><ele>268.0</ele><time>2026-04-30T10:01:49.684Z</time></trkpt><trkpt lat="44.4605134" lon="11.3452361"><ele>268.0</ele><time>2026-04-30T10:01:50.674Z</time></trkpt><trkpt lat="44.4605218" lon="11.3453519"><ele>268.0</ele><time>2026-04-30T10:01:51.69Z</time></trkpt><trkpt lat="44.4605355" lon="11.3454649"><ele>268.0</ele><time>2026-04-30T10:01:52.682Z</time></trkpt><trkpt lat="44.4605887" lon="11.345552"><ele>267.0</ele><time>2026-04-30T10:01:53.686Z</time></trkpt><trkpt lat="44.4606518" lon="11.3456286"><ele>266.0</ele><time>2026-04-30T10:01:54.676Z</time></trkpt><trkpt lat="44.4607039" lon="11.3457124"><ele>265.0</ele><time>2026-04-30T10:01:55.676Z</time></trkpt><trkpt lat="44.4607339" lon="11.3458137"><ele>264.0</ele><time>2026-04-30T10:01:56.683Z</time></trkpt><trkpt lat="44.4607343" lon="11.3459251"><ele>263.0</ele><time>2026-04-30T10:01:57.679Z</time></trkpt><trkpt lat="44.4607154" lon="11.3460339"><ele>262.0</ele><time>2026-04-30T10:01:58.683Z</time></trkpt><trkpt lat="44.4606897" lon="11.34614"><ele>262.0</ele><time>2026-04-30T10:01:59.679Z</time></trkpt><trkpt lat="44.4606655" lon="11.3462494"><ele>262.0</ele><time>2026-04-30T10:02:00.682Z</time></trkpt><trkpt lat="44.4606393" lon="11.3463604"><ele>262.0</ele><time>2026-04-30T10:02:01.672Z</time></trkpt><trkpt lat="44.4606135" lon="11.3464729"><ele>262.0</ele><time>2026-04-30T10:02:02.68Z</time></trkpt><trkpt lat="44.4605882" lon="11.3465857"><ele>262.0</ele><time>2026-04-30T10:02:03.679Z</time></trkpt><trkpt lat="44.4605638" lon="11.346697"><ele>262.0</ele><time>2026-04-30T10:02:04.676Z</time></trkpt><trkpt lat="44.4605413" lon="11.346802"><ele>261.5</ele><time>2026-04-30T10:02:05.672Z</time></trkpt><trkpt lat="44.4605129" lon="11.3468998"><ele>261.0</ele><time>2026-04-30T10:02:06.676Z</time></trkpt><trkpt lat="44.4604575" lon="11.3469726"><ele>260.5</ele><time>2026-04-30T10:02:07.674Z</time></trkpt><trkpt lat="44.4603868" lon="11.3470134"><ele>260.0</ele><time>2026-04-30T10:02:08.677Z</time></trkpt><trkpt lat="44.4603165" lon="11.3470506"><ele>259.5</ele><time>2026-04-30T10:02:09.678Z</time></trkpt><trkpt lat="44.4602469" lon="11.3470883"><ele>259.0</ele><time>2026-04-30T10:02:10.68Z</time></trkpt><trkpt lat="44.4601746" lon="11.3471262"><ele>257.3333333333333</ele><time>2026-04-30T10:02:11.678Z</time></trkpt><trkpt lat="44.4601008" lon="11.3471596"><ele>255.66666666666666</ele><time>2026-04-30T10:02:12.679Z</time></trkpt><trkpt lat="44.4600261" lon="11.3471914"><ele>254.0</ele><time>2026-04-30T10:02:13.669Z</time></trkpt><trkpt lat="44.4599503" lon="11.3472205"><ele>252.33333333333331</ele><time>2026-04-30T10:02:14.681Z</time></trkpt><trkpt lat="44.4598726" lon="11.3472453"><ele>250.66666666666666</ele><time>2026-04-30T10:02:15.686Z</time></trkpt><trkpt lat="44.4597931" lon="11.3472678"><ele>249.0</ele><time>2026-04-30T10:02:16.683Z</time></trkpt><trkpt lat="44.4597118" lon="11.3472884"><ele>249.0</ele><time>2026-04-30T10:02:17.676Z</time></trkpt><trkpt lat="44.4596328" lon="11.3472993"><ele>248.99999999999997</ele><time>2026-04-30T10:02:18.674Z</time></trkpt><trkpt lat="44.4595546" lon="11.3473139"><ele>249.0</ele><time>2026-04-30T10:02:19.687Z</time></trkpt><trkpt lat="44.4594802" lon="11.3473313"><ele>249.0</ele><time>2026-04-30T10:02:20.676Z</time></trkpt><trkpt lat="44.4594088" lon="11.3473513"><ele>248.99999999999997</ele><time>2026-04-30T10:02:21.685Z</time></trkpt><trkpt lat="44.459341" lon="11.3473691"><ele>249.0</ele><time>2026-04-30T10:02:22.674Z</time></trkpt><trkpt lat="44.4592769" lon="11.347388"><ele>249.0</ele><time>2026-04-30T10:02:23.678Z</time></trkpt><trkpt lat="44.4592145" lon="11.3474083"><ele>249.0</ele><time>2026-04-30T10:02:24.683Z</time></trkpt><trkpt lat="44.4590961" lon="11.3474508"><ele>249.0</ele><time>2026-04-30T10:02:26.668Z</time></trkpt><trkpt lat="44.4589835" lon="11.3474962"><ele>249.0</ele><time>2026-04-30T10:02:28.676Z</time></trkpt><trkpt lat="44.4588783" lon="11.3475564"><ele>249.0</ele><time>2026-04-30T10:02:30.68Z</time></trkpt><trkpt lat="44.4587826" lon="11.3476316"><ele>248.39999999999998</ele><time>2026-04-30T10:02:32.673Z</time></trkpt><trkpt lat="44.4587022" lon="11.3477259"><ele>247.79999999999998</ele><time>2026-04-30T10:02:34.679Z</time></trkpt><trkpt lat="44.4586325" lon="11.3478261"><ele>247.20000000000002</ele><time>2026-04-30T10:02:36.675Z</time></trkpt><trkpt lat="44.4585668" lon="11.3479179"><ele>246.60000000000002</ele><time>2026-04-30T10:02:38.669Z</time></trkpt><trkpt lat="44.4585046" lon="11.3480125"><ele>246.0</ele><time>2026-04-30T10:02:40.676Z</time></trkpt><trkpt lat="44.4584449" lon="11.3481019"><ele>247.83333333333334</ele><time>2026-04-30T10:02:42.679Z</time></trkpt><trkpt lat="44.4583716" lon="11.3481708"><ele>249.66666666666669</ele><time>2026-04-30T10:02:44.689Z</time></trkpt><trkpt lat="44.4582848" lon="11.3481909"><ele>251.5</ele><time>2026-04-30T10:02:46.678Z</time></trkpt><trkpt lat="44.458199" lon="11.348194"><ele>253.33333333333334</ele><time>2026-04-30T10:02:48.682Z</time></trkpt><trkpt lat="44.458112" lon="11.3481964"><ele>255.16666666666669</ele><time>2026-04-30T10:02:50.687Z</time></trkpt><trkpt lat="44.4580231" lon="11.3481986"><ele>257.0</ele><time>2026-04-30T10:02:52.688Z</time></trkpt><trkpt lat="44.4579293" lon="11.3482012"><ele>257.8</ele><time>2026-04-30T10:02:54.688Z</time></trkpt><trkpt lat="44.4578346" lon="11.3482048"><ele>258.6</ele><time>2026-04-30T10:02:56.681Z</time></trkpt><trkpt lat="44.457738" lon="11.3482085"><ele>259.40000000000003</ele><time>2026-04-30T10:02:58.666Z</time></trkpt><trkpt lat="44.4576351" lon="11.3482069"><ele>260.2</ele><time>2026-04-30T10:03:00.66Z</time></trkpt><trkpt lat="44.457528" lon="11.3482031"><ele>261.0</ele><time>2026-04-30T10:03:02.678Z</time></trkpt><trkpt lat="44.4574202" lon="11.3481966"><ele>261.0</ele><time>2026-04-30T10:03:04.677Z</time></trkpt><trkpt lat="44.4573123" lon="11.3481846"><ele>261.0</ele><time>2026-04-30T10:03:06.682Z</time></trkpt><trkpt lat="44.457204" lon="11.3481712"><ele>261.0</ele><time>2026-04-30T10:03:08.684Z</time></trkpt><trkpt lat="44.4570947" lon="11.348154"><ele>261.0</ele><time>2026-04-30T10:03:10.674Z</time></trkpt><trkpt lat="44.4569857" lon="11.3481371"><ele>261.0</ele><time>2026-04-30T10:03:12.679Z</time></trkpt><trkpt lat="44.4568802" lon="11.348122"><ele>261.2</ele><time>2026-04-30T10:03:14.692Z</time></trkpt><trkpt lat="44.4567737" lon="11.348117"><ele>261.40000000000003</ele><time>2026-04-30T10:03:16.668Z</time></trkpt><trkpt lat="44.4566667" lon="11.3481246"><ele>261.6</ele><time>2026-04-30T10:03:18.679Z</time></trkpt><trkpt lat="44.4565583" lon="11.3481504"><ele>261.8</ele><time>2026-04-30T10:03:20.684Z</time></trkpt><trkpt lat="44.4564497" lon="11.3481991"><ele>262.0</ele><time>2026-04-30T10:03:22.666Z</time></trkpt><trkpt lat="44.4563524" lon="11.3482597"><ele>261.4</ele><time>2026-04-30T10:03:24.685Z</time></trkpt><trkpt lat="44.4562532" lon="11.3483264"><ele>260.79999999999995</ele><time>2026-04-30T10:03:26.691Z</time></trkpt><trkpt lat="44.4561515" lon="11.3483922"><ele>260.2</ele><time>2026-04-30T10:03:28.669Z</time></trkpt><trkpt lat="44.4560494" lon="11.3484529"><ele>259.59999999999997</ele><time>2026-04-30T10:03:30.69Z</time></trkpt><trkpt lat="44.4559442" lon="11.3484917"><ele>259.0</ele><time>2026-04-30T10:03:32.683Z</time></trkpt><trkpt lat="44.4558307" lon="11.3484878"><ele>259.0</ele><time>2026-04-30T10:03:34.674Z</time></trkpt><trkpt lat="44.4557142" lon="11.3484447"><ele>259.0</ele><time>2026-04-30T10:03:36.676Z</time></trkpt><trkpt lat="44.455613" lon="11.3483507"><ele>259.0</ele><time>2026-04-30T10:03:38.682Z</time></trkpt><trkpt lat="44.4555236" lon="11.348238"><ele>259.0</ele><time>2026-04-30T10:03:40.673Z</time></trkpt><trkpt lat="44.4554355" lon="11.3481288"><ele>258.2857142857143</ele><time>2026-04-30T10:03:42.683Z</time></trkpt><trkpt lat="44.455381" lon="11.3480843"><ele>257.57142857142856</ele><time>2026-04-30T10:03:43.672Z</time></trkpt><trkpt lat="44.4553204" lon="11.3480422"><ele>256.8571428571429</ele><time>2026-04-30T10:03:44.68Z</time></trkpt><trkpt lat="44.4552565" lon="11.3480175"><ele>256.1428571428571</ele><time>2026-04-30T10:03:45.684Z</time></trkpt><trkpt lat="44.4551928" lon="11.3480051"><ele>255.42857142857142</ele><time>2026-04-30T10:03:46.68Z</time></trkpt><trkpt lat="44.4551263" lon="11.3479969"><ele>254.71428571428572</ele><time>2026-04-30T10:03:47.683Z</time></trkpt><trkpt lat="44.4550624" lon="11.3479926"><ele>254.0</ele><time>2026-04-30T10:03:48.69Z</time></trkpt><trkpt lat="44.4549431" lon="11.3479876"><ele>254.00000000000003</ele><time>2026-04-30T10:03:50.679Z</time></trkpt><trkpt lat="44.4548273" lon="11.3479469"><ele>254.0</ele><time>2026-04-30T10:03:52.679Z</time></trkpt><trkpt lat="44.4547804" lon="11.3478856"><ele>254.0</ele><time>2026-04-30T10:03:53.685Z</time></trkpt><trkpt lat="44.4547512" lon="11.3478053"><ele>254.0</ele><time>2026-04-30T10:03:54.684Z</time></trkpt><trkpt lat="44.454721" lon="11.3477171"><ele>254.00000000000003</ele><time>2026-04-30T10:03:55.673Z</time></trkpt><trkpt lat="44.4546948" lon="11.3476195"><ele>254.0</ele><time>2026-04-30T10:03:56.678Z</time></trkpt><trkpt lat="44.4546637" lon="11.3475142"><ele>255.00000000000003</ele><time>2026-04-30T10:03:57.674Z</time></trkpt><trkpt lat="44.4546102" lon="11.3474222"><ele>256.0</ele><time>2026-04-30T10:03:58.676Z</time></trkpt><trkpt lat="44.4545604" lon="11.3473331"><ele>257.0</ele><time>2026-04-30T10:03:59.678Z</time></trkpt><trkpt lat="44.4544771" lon="11.3472829"><ele>258.0</ele><time>2026-04-30T10:04:00.677Z</time></trkpt><trkpt lat="44.4543871" lon="11.3472534"><ele>259.0</ele><time>2026-04-30T10:04:01.667Z</time></trkpt><trkpt lat="44.4543048" lon="11.3472282"><ele>260.0</ele><time>2026-04-30T10:04:02.688Z</time></trkpt><trkpt lat="44.454219" lon="11.3472273"><ele>260.0</ele><time>2026-04-30T10:04:03.675Z</time></trkpt><trkpt lat="44.4541287" lon="11.347237"><ele>260.0</ele><time>2026-04-30T10:04:04.676Z</time></trkpt><trkpt lat="44.4540365" lon="11.3472567"><ele>260.0</ele><time>2026-04-30T10:04:05.674Z</time></trkpt><trkpt lat="44.4539376" lon="11.3472934"><ele>260.0</ele><time>2026-04-30T10:04:06.687Z</time></trkpt><trkpt lat="44.4538297" lon="11.3473395"><ele>260.0</ele><time>2026-04-30T10:04:07.682Z</time></trkpt><trkpt lat="44.4537277" lon="11.347394"><ele>258.0</ele><time>2026-04-30T10:04:08.681Z</time></trkpt><trkpt lat="44.453629" lon="11.3474485"><ele>256.0</ele><time>2026-04-30T10:04:09.674Z</time></trkpt><trkpt lat="44.4535317" lon="11.3475018"><ele>254.0</ele><time>2026-04-30T10:04:10.664Z</time></trkpt><trkpt lat="44.4534292" lon="11.3475562"><ele>252.0</ele><time>2026-04-30T10:04:11.677Z</time></trkpt><trkpt lat="44.4533144" lon="11.3475968"><ele>250.0</ele><time>2026-04-30T10:04:12.684Z</time></trkpt><trkpt lat="44.4532045" lon="11.347627"><ele>250.0</ele><time>2026-04-30T10:04:13.667Z</time></trkpt><trkpt lat="44.4530936" lon="11.3476537"><ele>250.0</ele><time>2026-04-30T10:04:14.677Z</time></trkpt><trkpt lat="44.4529799" lon="11.3476738"><ele>250.0</ele><time>2026-04-30T10:04:15.67Z</time></trkpt><trkpt lat="44.4528659" lon="11.3476755"><ele>250.0</ele><time>2026-04-30T10:04:16.673Z</time></trkpt><trkpt lat="44.4527587" lon="11.3476731"><ele>250.0</ele><time>2026-04-30T10:04:17.68Z</time></trkpt><trkpt lat="44.452666" lon="11.3476189"><ele>250.6</ele><time>2026-04-30T10:04:18.676Z</time></trkpt><trkpt lat="44.4525992" lon="11.3475056"><ele>251.2</ele><time>2026-04-30T10:04:19.681Z</time></trkpt><trkpt lat="44.4525512" lon="11.347373"><ele>251.8</ele><time>2026-04-30T10:04:20.68Z</time></trkpt><trkpt lat="44.4525043" lon="11.3472381"><ele>252.4</ele><time>2026-04-30T10:04:21.679Z</time></trkpt><trkpt lat="44.4524563" lon="11.3471032"><ele>253.0</ele><time>2026-04-30T10:04:22.677Z</time></trkpt><trkpt lat="44.4524131" lon="11.3469691"><ele>249.0</ele><time>2026-04-30T10:04:23.68Z</time></trkpt><trkpt lat="44.4524047" lon="11.3468181"><ele>245.0</ele><time>2026-04-30T10:04:24.688Z</time></trkpt><trkpt lat="44.4523957" lon="11.3466743"><ele>241.0</ele><time>2026-04-30T10:04:25.679Z</time></trkpt><trkpt lat="44.4523492" lon="11.3465516"><ele>237.0</ele><time>2026-04-30T10:04:26.677Z</time></trkpt><trkpt lat="44.4522768" lon="11.3464488"><ele>233.0</ele><time>2026-04-30T10:04:27.678Z</time></trkpt><trkpt lat="44.4522062" lon="11.3463478"><ele>230.8</ele><time>2026-04-30T10:04:28.68Z</time></trkpt><trkpt lat="44.4521065" lon="11.3462945"><ele>228.60000000000002</ele><time>2026-04-30T10:04:29.684Z</time></trkpt><trkpt lat="44.452005" lon="11.3462601"><ele>226.39999999999998</ele><time>2026-04-30T10:04:30.676Z</time></trkpt><trkpt lat="44.4519055" lon="11.3462609"><ele>224.2</ele><time>2026-04-30T10:04:31.677Z</time></trkpt><trkpt lat="44.4518095" lon="11.3462666"><ele>222.0</ele><time>2026-04-30T10:04:32.685Z</time></trkpt><trkpt lat="44.4517187" lon="11.3463309"><ele>222.0</ele><time>2026-04-30T10:04:33.673Z</time></trkpt><trkpt lat="44.4516231" lon="11.3463362"><ele>222.0</ele><time>2026-04-30T10:04:34.674Z</time></trkpt><trkpt lat="44.4515256" lon="11.3463342"><ele>222.0</ele><time>2026-04-30T10:04:35.676Z</time></trkpt><trkpt lat="44.4514412" lon="11.3462554"><ele>222.0</ele><time>2026-04-30T10:04:36.677Z</time></trkpt><trkpt lat="44.451361" lon="11.3461791"><ele>222.0</ele><time>2026-04-30T10:04:37.678Z</time></trkpt><trkpt lat="44.4512779" lon="11.346116"><ele>223.66666666666666</ele><time>2026-04-30T10:04:38.677Z</time></trkpt><trkpt lat="44.4511917" lon="11.3460646"><ele>225.33333333333331</ele><time>2026-04-30T10:04:39.681Z</time></trkpt><trkpt lat="44.4511067" lon="11.3460246"><ele>227.0</ele><time>2026-04-30T10:04:40.67Z</time></trkpt><trkpt lat="44.4510232" lon="11.3459981"><ele>228.66666666666666</ele><time>2026-04-30T10:04:41.683Z</time></trkpt><trkpt lat="44.4509415" lon="11.345982"><ele>230.33333333333331</ele><time>2026-04-30T10:04:42.682Z</time></trkpt><trkpt lat="44.4508618" lon="11.3459682"><ele>232.0</ele><time>2026-04-30T10:04:43.67Z</time></trkpt><trkpt lat="44.4507884" lon="11.3459391"><ele>232.0</ele><time>2026-04-30T10:04:44.681Z</time></trkpt><trkpt lat="44.4507219" lon="11.3458907"><ele>232.0</ele><time>2026-04-30T10:04:45.679Z</time></trkpt><trkpt lat="44.4506659" lon="11.3458337"><ele>232.0</ele><time>2026-04-30T10:04:46.678Z</time></trkpt><trkpt lat="44.4506142" lon="11.3457794"><ele>232.0</ele><time>2026-04-30T10:04:47.679Z</time></trkpt><trkpt lat="44.4505236" lon="11.3456627"><ele>232.0</ele><time>2026-04-30T10:04:49.673Z</time></trkpt><trkpt lat="44.4504277" lon="11.3455608"><ele>233.0</ele><time>2026-04-30T10:04:51.692Z</time></trkpt><trkpt lat="44.4503335" lon="11.3454777"><ele>234.0</ele><time>2026-04-30T10:04:53.704Z</time></trkpt><trkpt lat="44.4502304" lon="11.3454197"><ele>235.0</ele><time>2026-04-30T10:04:55.669Z</time></trkpt><trkpt lat="44.4501212" lon="11.3453623"><ele>236.0</ele><time>2026-04-30T10:04:57.681Z</time></trkpt><trkpt lat="44.4500194" lon="11.3453022"><ele>236.00000000000003</ele><time>2026-04-30T10:04:59.679Z</time></trkpt><trkpt lat="44.449936" lon="11.3452269"><ele>236.0</ele><time>2026-04-30T10:05:01.672Z</time></trkpt><trkpt lat="44.4498722" lon="11.3451403"><ele>236.0</ele><time>2026-04-30T10:05:03.671Z</time></trkpt><trkpt lat="44.4498249" lon="11.3450539"><ele>236.0</ele><time>2026-04-30T10:05:05.685Z</time></trkpt><trkpt lat="44.4497835" lon="11.3449753"><ele>236.00000000000003</ele><time>2026-04-30T10:05:07.691Z</time></trkpt><trkpt lat="44.4497406" lon="11.344905"><ele>236.0</ele><time>2026-04-30T10:05:09.672Z</time></trkpt><trkpt lat="44.4497045" lon="11.3448297"><ele>236.00000000000003</ele><time>2026-04-30T10:05:11.678Z</time></trkpt><trkpt lat="44.4496686" lon="11.3447551"><ele>236.0</ele><time>2026-04-30T10:05:13.682Z</time></trkpt><trkpt lat="44.4496163" lon="11.3446476"><ele>236.0</ele><time>2026-04-30T10:05:16.671Z</time></trkpt><trkpt lat="44.4495794" lon="11.3445732"><ele>236.0</ele><time>2026-04-30T10:05:18.671Z</time></trkpt><trkpt lat="44.4495357" lon="11.3444593"><ele>236.00000000000003</ele><time>2026-04-30T10:05:21.671Z</time></trkpt><trkpt lat="44.449495" lon="11.344348"><ele>236.0</ele><time>2026-04-30T10:05:24.678Z</time></trkpt><trkpt lat="44.4494609" lon="11.3442268"><ele>236.20000000000002</ele><time>2026-04-30T10:05:27.676Z</time></trkpt><trkpt lat="44.4494375" lon="11.3441069"><ele>236.40000000000003</ele><time>2026-04-30T10:05:30.665Z</time></trkpt><trkpt lat="44.4494243" lon="11.3439815"><ele>236.6</ele><time>2026-04-30T10:05:33.678Z</time></trkpt><trkpt lat="44.4494246" lon="11.3438525"><ele>236.8</ele><time>2026-04-30T10:05:36.678Z</time></trkpt><trkpt lat="44.4494252" lon="11.3437285"><ele>237.0</ele><time>2026-04-30T10:05:39.673Z</time></trkpt><trkpt lat="44.4494249" lon="11.3435992"><ele>236.99999999999997</ele><time>2026-04-30T10:05:42.675Z</time></trkpt><trkpt lat="44.4494196" lon="11.3435086"><ele>237.0</ele><time>2026-04-30T10:05:44.68Z</time></trkpt><trkpt lat="44.449414" lon="11.3434175"><ele>236.99999999999997</ele><time>2026-04-30T10:05:46.673Z</time></trkpt><trkpt lat="44.4494077" lon="11.3433263"><ele>236.99999999999997</ele><time>2026-04-30T10:05:48.678Z</time></trkpt><trkpt lat="44.4493993" lon="11.3432337"><ele>237.0</ele><time>2026-04-30T10:05:50.672Z</time></trkpt><trkpt lat="44.4493932" lon="11.3431441"><ele>236.99999999999997</ele><time>2026-04-30T10:05:52.685Z</time></trkpt><trkpt lat="44.449387" lon="11.3430562"><ele>236.99999999999997</ele><time>2026-04-30T10:05:54.675Z</time></trkpt><trkpt lat="44.4493787" lon="11.3429282"><ele>237.57142857142856</ele><time>2026-04-30T10:05:57.677Z</time></trkpt><trkpt lat="44.4493723" lon="11.3427961"><ele>238.14285714285714</ele><time>2026-04-30T10:06:00.673Z</time></trkpt><trkpt lat="44.4493668" lon="11.3427067"><ele>238.71428571428572</ele><time>2026-04-30T10:06:02.677Z</time></trkpt><trkpt lat="44.4493606" lon="11.3426184"><ele>239.28571428571428</ele><time>2026-04-30T10:06:04.669Z</time></trkpt><trkpt lat="44.4493524" lon="11.3425285"><ele>239.8571428571429</ele><time>2026-04-30T10:06:06.682Z</time></trkpt><trkpt lat="44.4493504" lon="11.3424401"><ele>240.42857142857144</ele><time>2026-04-30T10:06:08.67Z</time></trkpt><trkpt lat="44.4493452" lon="11.34235"><ele>241.0</ele><time>2026-04-30T10:06:10.672Z</time></trkpt><trkpt lat="44.4493362" lon="11.3422613"><ele>241.83333333333331</ele><time>2026-04-30T10:06:12.679Z</time></trkpt><trkpt lat="44.4493272" lon="11.3421341"><ele>242.66666666666666</ele><time>2026-04-30T10:06:15.683Z</time></trkpt><trkpt lat="44.4493198" lon="11.3420406"><ele>243.5</ele><time>2026-04-30T10:06:17.674Z</time></trkpt><trkpt lat="44.4493119" lon="11.341941"><ele>244.33333333333331</ele><time>2026-04-30T10:06:19.676Z</time></trkpt><trkpt lat="44.4493023" lon="11.3418372"><ele>245.16666666666666</ele><time>2026-04-30T10:06:21.666Z</time></trkpt><trkpt lat="44.4492947" lon="11.3417302"><ele>246.0</ele><time>2026-04-30T10:06:23.679Z</time></trkpt><trkpt lat="44.4492986" lon="11.3416181"><ele>246.00000000000003</ele><time>2026-04-30T10:06:25.693Z</time></trkpt><trkpt lat="44.4493033" lon="11.341508"><ele>246.0</ele><time>2026-04-30T10:06:27.681Z</time></trkpt><trkpt lat="44.449318" lon="11.3414067"><ele>246.00000000000003</ele><time>2026-04-30T10:06:29.694Z</time></trkpt><trkpt lat="44.4493264" lon="11.3413061"><ele>246.00000000000003</ele><time>2026-04-30T10:06:31.684Z</time></trkpt><trkpt lat="44.4493286" lon="11.3412112"><ele>246.0</ele><time>2026-04-30T10:06:33.671Z</time></trkpt><trkpt lat="44.4493319" lon="11.3411143"><ele>246.00000000000003</ele><time>2026-04-30T10:06:35.688Z</time></trkpt><trkpt lat="44.4493283" lon="11.3410251"><ele>246.00000000000003</ele><time>2026-04-30T10:06:37.686Z</time></trkpt><trkpt lat="44.4493058" lon="11.3409038"><ele>246.83333333333334</ele><time>2026-04-30T10:06:40.678Z</time></trkpt><trkpt lat="44.4492645" lon="11.3407942"><ele>247.66666666666669</ele><time>2026-04-30T10:06:43.677Z</time></trkpt><trkpt lat="44.449206" lon="11.340697"><ele>248.5</ele><time>2026-04-30T10:06:46.681Z</time></trkpt><trkpt lat="44.4491414" lon="11.3406137"><ele>249.33333333333334</ele><time>2026-04-30T10:06:49.675Z</time></trkpt><trkpt lat="44.4490721" lon="11.3405342"><ele>250.16666666666669</ele><time>2026-04-30T10:06:52.686Z</time></trkpt><trkpt lat="44.4490048" lon="11.3404519"><ele>251.0</ele><time>2026-04-30T10:06:55.677Z</time></trkpt><trkpt lat="44.4489506" lon="11.3403539"><ele>251.66666666666669</ele><time>2026-04-30T10:06:58.669Z</time></trkpt><trkpt lat="44.4489117" lon="11.3402383"><ele>252.33333333333334</ele><time>2026-04-30T10:07:01.677Z</time></trkpt><trkpt lat="44.4488996" lon="11.3401212"><ele>253.0</ele><time>2026-04-30T10:07:04.679Z</time></trkpt><trkpt lat="44.4488982" lon="11.340009"><ele>253.66666666666669</ele><time>2026-04-30T10:07:07.663Z</time></trkpt><trkpt lat="44.4488963" lon="11.3398951"><ele>254.33333333333334</ele><time>2026-04-30T10:07:10.674Z</time></trkpt><trkpt lat="44.4488892" lon="11.3397829"><ele>255.0</ele><time>2026-04-30T10:07:13.683Z</time></trkpt><trkpt lat="44.4488856" lon="11.3396694"><ele>255.5</ele><time>2026-04-30T10:07:16.679Z</time></trkpt><trkpt lat="44.4488754" lon="11.3395614"><ele>256.0</ele><time>2026-04-30T10:07:19.668Z</time></trkpt><trkpt lat="44.4488732" lon="11.3394446"><ele>256.5</ele><time>2026-04-30T10:07:22.662Z</time></trkpt><trkpt lat="44.4488668" lon="11.3393387"><ele>257.0</ele><time>2026-04-30T10:07:25.68Z</time></trkpt><trkpt lat="44.4488597" lon="11.339233"><ele>257.5</ele><time>2026-04-30T10:07:28.678Z</time></trkpt><trkpt lat="44.4488528" lon="11.3391314"><ele>258.0</ele><time>2026-04-30T10:07:31.67Z</time></trkpt><trkpt lat="44.4488501" lon="11.3390249"><ele>258.0</ele><time>2026-04-30T10:07:34.673Z</time></trkpt><trkpt lat="44.4488487" lon="11.338918"><ele>258.0</ele><time>2026-04-30T10:07:37.679Z</time></trkpt><trkpt lat="44.4488517" lon="11.3388132"><ele>258.0</ele><time>2026-04-30T10:07:40.669Z</time></trkpt><trkpt lat="44.4488462" lon="11.3387068"><ele>258.0</ele><time>2026-04-30T10:07:43.677Z</time></trkpt><trkpt lat="44.4488056" lon="11.3386378"><ele>258.0</ele><time>2026-04-30T10:07:46.679Z</time></trkpt><trkpt lat="44.4487411" lon="11.3386883"><ele>258.0</ele><time>2026-04-30T10:07:50.685Z</time></trkpt><trkpt lat="44.4487146" lon="11.3388011"><ele>259.85714285714283</ele><time>2026-04-30T10:07:54.668Z</time></trkpt><trkpt lat="44.4487012" lon="11.3388952"><ele>261.7142857142857</ele><time>2026-04-30T10:07:57.679Z</time></trkpt><trkpt lat="44.4486846" lon="11.3389866"><ele>263.57142857142856</ele><time>2026-04-30T10:08:00.693Z</time></trkpt><trkpt lat="44.4486673" lon="11.3390773"><ele>265.42857142857144</ele><time>2026-04-30T10:08:03.677Z</time></trkpt><trkpt lat="44.4486472" lon="11.3391696"><ele>267.2857142857143</ele><time>2026-04-30T10:08:06.672Z</time></trkpt><trkpt lat="44.4485809" lon="11.3391999"><ele>269.1428571428571</ele><time>2026-04-30T10:08:10.677Z</time></trkpt><trkpt lat="44.4485648" lon="11.3391061"><ele>271.0</ele><time>2026-04-30T10:08:14.672Z</time></trkpt><trkpt lat="44.4485696" lon="11.3390078"><ele>271.0</ele><time>2026-04-30T10:08:17.691Z</time></trkpt><trkpt lat="44.4485727" lon="11.33891"><ele>271.0</ele><time>2026-04-30T10:08:20.672Z</time></trkpt><trkpt lat="44.4485747" lon="11.3388211"><ele>271.0</ele><time>2026-04-30T10:08:23.684Z</time></trkpt><trkpt lat="44.4485652" lon="11.3387305"><ele>271.0</ele><time>2026-04-30T10:08:26.687Z</time></trkpt><trkpt lat="44.4485565" lon="11.3386402"><ele>271.0</ele><time>2026-04-30T10:08:29.672Z</time></trkpt><trkpt lat="44.4485493" lon="11.3385446"><ele>271.0</ele><time>2026-04-30T10:08:32.686Z</time></trkpt><trkpt lat="44.448546" lon="11.3384546"><ele>271.0</ele><time>2026-04-30T10:08:35.675Z</time></trkpt><trkpt lat="44.4485393" lon="11.3383505"><ele>271.85714285714283</ele><time>2026-04-30T10:08:39.686Z</time></trkpt><trkpt lat="44.4485454" lon="11.3382391"><ele>272.7142857142857</ele><time>2026-04-30T10:08:42.676Z</time></trkpt><trkpt lat="44.4485655" lon="11.3381315"><ele>273.57142857142856</ele><time>2026-04-30T10:08:45.689Z</time></trkpt><trkpt lat="44.4485798" lon="11.3380302"><ele>274.42857142857144</ele><time>2026-04-30T10:08:48.682Z</time></trkpt><trkpt lat="44.4485969" lon="11.3379357"><ele>275.2857142857143</ele><time>2026-04-30T10:08:51.677Z</time></trkpt><trkpt lat="44.4486104" lon="11.3378435"><ele>276.1428571428571</ele><time>2026-04-30T10:08:54.676Z</time></trkpt><trkpt lat="44.4486266" lon="11.3377564"><ele>277.0</ele><time>2026-04-30T10:08:57.69Z</time></trkpt><trkpt lat="44.4486259" lon="11.3376502"><ele>277.57142857142856</ele><time>2026-04-30T10:09:01.67Z</time></trkpt><trkpt lat="44.4486072" lon="11.3375604"><ele>278.1428571428571</ele><time>2026-04-30T10:09:04.678Z</time></trkpt><trkpt lat="44.4485761" lon="11.3374716"><ele>278.7142857142857</ele><time>2026-04-30T10:09:07.687Z</time></trkpt><trkpt lat="44.4485364" lon="11.3373775"><ele>279.2857142857143</ele><time>2026-04-30T10:09:10.684Z</time></trkpt><trkpt lat="44.4484929" lon="11.3372998"><ele>279.8571428571429</ele><time>2026-04-30T10:09:13.686Z</time></trkpt><trkpt lat="44.4484313" lon="11.3372114"><ele>280.42857142857144</ele><time>2026-04-30T10:09:17.686Z</time></trkpt><trkpt lat="44.4483769" lon="11.3371447"><ele>281.0</ele><time>2026-04-30T10:09:20.677Z</time></trkpt><trkpt lat="44.4483164" lon="11.3370827"><ele>281.83333333333337</ele><time>2026-04-30T10:09:23.688Z</time></trkpt><trkpt lat="44.4482648" lon="11.3370101"><ele>282.6666666666667</ele><time>2026-04-30T10:09:26.669Z</time></trkpt><trkpt lat="44.4482301" lon="11.3369094"><ele>283.5</ele><time>2026-04-30T10:09:29.679Z</time></trkpt><trkpt lat="44.4482249" lon="11.3367906"><ele>284.3333333333333</ele><time>2026-04-30T10:09:32.687Z</time></trkpt><trkpt lat="44.4482322" lon="11.3366692"><ele>285.16666666666663</ele><time>2026-04-30T10:09:35.685Z</time></trkpt><trkpt lat="44.4482436" lon="11.3365524"><ele>286.0</ele><time>2026-04-30T10:09:38.68Z</time></trkpt><trkpt lat="44.448251" lon="11.3364392"><ele>286.66666666666663</ele><time>2026-04-30T10:09:41.687Z</time></trkpt><trkpt lat="44.4482502" lon="11.3363241"><ele>287.3333333333333</ele><time>2026-04-30T10:09:44.688Z</time></trkpt><trkpt lat="44.4482422" lon="11.3362324"><ele>288.0</ele><time>2026-04-30T10:09:47.679Z</time></trkpt><trkpt lat="44.4482107" lon="11.336125"><ele>288.6666666666667</ele><time>2026-04-30T10:09:51.668Z</time></trkpt><trkpt lat="44.4481957" lon="11.3359966"><ele>289.33333333333337</ele><time>2026-04-30T10:09:54.682Z</time></trkpt><trkpt lat="44.4481895" lon="11.3358969"><ele>290.0</ele><time>2026-04-30T10:09:56.679Z</time></trkpt><trkpt lat="44.4481752" lon="11.3357581"><ele>290.0</ele><time>2026-04-30T10:09:59.683Z</time></trkpt><trkpt lat="44.4481719" lon="11.3356298"><ele>290.0</ele><time>2026-04-30T10:10:01.681Z</time></trkpt><trkpt lat="44.4481724" lon="11.3355215"><ele>290.0</ele><time>2026-04-30T10:10:03.669Z</time></trkpt><trkpt lat="44.448178" lon="11.3354275"><ele>290.0</ele><time>2026-04-30T10:10:05.679Z</time></trkpt><trkpt lat="44.4481995" lon="11.3353039"><ele>290.0</ele><time>2026-04-30T10:10:08.671Z</time></trkpt><trkpt lat="44.4482149" lon="11.3352044"><ele>290.0</ele><time>2026-04-30T10:10:10.676Z</time></trkpt><trkpt lat="44.4482325" lon="11.3351113"><ele>290.57142857142856</ele><time>2026-04-30T10:10:12.695Z</time></trkpt><trkpt lat="44.4482597" lon="11.3350174"><ele>291.14285714285717</ele><time>2026-04-30T10:10:14.679Z</time></trkpt><trkpt lat="44.4482862" lon="11.3349373"><ele>291.7142857142857</ele><time>2026-04-30T10:10:16.677Z</time></trkpt><trkpt lat="44.4483184" lon="11.3348559"><ele>292.2857142857143</ele><time>2026-04-30T10:10:18.677Z</time></trkpt><trkpt lat="44.4483543" lon="11.3347732"><ele>292.8571428571429</ele><time>2026-04-30T10:10:20.677Z</time></trkpt><trkpt lat="44.4483968" lon="11.3346667"><ele>293.42857142857144</ele><time>2026-04-30T10:10:23.672Z</time></trkpt><trkpt lat="44.4484284" lon="11.3345859"><ele>294.0</ele><time>2026-04-30T10:10:26.676Z</time></trkpt><trkpt lat="44.4484555" lon="11.3345036"><ele>295.0</ele><time>2026-04-30T10:10:28.675Z</time></trkpt><trkpt lat="44.448496" lon="11.3344006"><ele>296.0</ele><time>2026-04-30T10:10:30.67Z</time></trkpt><trkpt lat="44.4485326" lon="11.3343016"><ele>297.0</ele><time>2026-04-30T10:10:32.689Z</time></trkpt><trkpt lat="44.4485644" lon="11.334216"><ele>298.0</ele><time>2026-04-30T10:10:34.664Z</time></trkpt><trkpt lat="44.4485987" lon="11.3341268"><ele>299.0</ele><time>2026-04-30T10:10:36.674Z</time></trkpt><trkpt lat="44.448636" lon="11.3340474"><ele>300.0</ele><time>2026-04-30T10:10:38.668Z</time></trkpt><trkpt lat="44.4486842" lon="11.3339402"><ele>299.8333333333333</ele><time>2026-04-30T10:10:41.682Z</time></trkpt><trkpt lat="44.4487344" lon="11.3338625"><ele>299.6666666666667</ele><time>2026-04-30T10:10:43.677Z</time></trkpt><trkpt lat="44.4487829" lon="11.3337758"><ele>299.5</ele><time>2026-04-30T10:10:45.686Z</time></trkpt><trkpt lat="44.4488338" lon="11.3336963"><ele>299.33333333333337</ele><time>2026-04-30T10:10:47.677Z</time></trkpt><trkpt lat="44.4488793" lon="11.3336233"><ele>299.1666666666667</ele><time>2026-04-30T10:10:49.674Z</time></trkpt><trkpt lat="44.4489343" lon="11.3335325"><ele>299.0</ele><time>2026-04-30T10:10:51.681Z</time></trkpt><trkpt lat="44.4489782" lon="11.3334631"><ele>299.33333333333337</ele><time>2026-04-30T10:10:53.679Z</time></trkpt><trkpt lat="44.4490226" lon="11.3333848"><ele>299.6666666666667</ele><time>2026-04-30T10:10:55.669Z</time></trkpt><trkpt lat="44.4490629" lon="11.3333091"><ele>300.0</ele><time>2026-04-30T10:10:57.672Z</time></trkpt><trkpt lat="44.4491049" lon="11.3332107"><ele>300.3333333333333</ele><time>2026-04-30T10:10:59.674Z</time></trkpt><trkpt lat="44.44915" lon="11.3331057"><ele>300.66666666666663</ele><time>2026-04-30T10:11:01.687Z</time></trkpt><trkpt lat="44.4491827" lon="11.3329941"><ele>301.0</ele><time>2026-04-30T10:11:03.687Z</time></trkpt><trkpt lat="44.4491951" lon="11.3328762"><ele>299.40000000000003</ele><time>2026-04-30T10:11:05.679Z</time></trkpt><trkpt lat="44.4491683" lon="11.3327618"><ele>297.8</ele><time>2026-04-30T10:11:07.691Z</time></trkpt><trkpt lat="44.4491107" lon="11.3326649"><ele>296.20000000000005</ele><time>2026-04-30T10:11:09.667Z</time></trkpt><trkpt lat="44.4490427" lon="11.3325789"><ele>294.6</ele><time>2026-04-30T10:11:11.678Z</time></trkpt><trkpt lat="44.4489697" lon="11.3324985"><ele>293.0</ele><time>2026-04-30T10:11:13.684Z</time></trkpt><trkpt lat="44.4488981" lon="11.3324121"><ele>293.0</ele><time>2026-04-30T10:11:15.68Z</time></trkpt><trkpt lat="44.4488311" lon="11.3323312"><ele>293.0</ele><time>2026-04-30T10:11:17.681Z</time></trkpt><trkpt lat="44.4487706" lon="11.3322462"><ele>293.0</ele><time>2026-04-30T10:11:19.681Z</time></trkpt><trkpt lat="44.4487082" lon="11.3321527"><ele>293.0</ele><time>2026-04-30T10:11:21.676Z</time></trkpt><trkpt lat="44.4486601" lon="11.332044"><ele>293.0</ele><time>2026-04-30T10:11:23.666Z</time></trkpt><trkpt lat="44.448618" lon="11.3319318"><ele>293.0</ele><time>2026-04-30T10:11:25.681Z</time></trkpt><trkpt lat="44.4485833" lon="11.3318229"><ele>294.0</ele><time>2026-04-30T10:11:27.684Z</time></trkpt><trkpt lat="44.448557" lon="11.3317064"><ele>295.0</ele><time>2026-04-30T10:11:29.685Z</time></trkpt><trkpt lat="44.4485317" lon="11.3316034"><ele>296.0</ele><time>2026-04-30T10:11:31.684Z</time></trkpt><trkpt lat="44.4485075" lon="11.3314812"><ele>297.0</ele><time>2026-04-30T10:11:33.685Z</time></trkpt><trkpt lat="44.4484752" lon="11.3313648"><ele>298.0</ele><time>2026-04-30T10:11:35.66Z</time></trkpt><trkpt lat="44.4484437" lon="11.3312566"><ele>299.0</ele><time>2026-04-30T10:11:37.679Z</time></trkpt><trkpt lat="44.4484105" lon="11.3311478"><ele>299.33333333333337</ele><time>2026-04-30T10:11:39.682Z</time></trkpt><trkpt lat="44.4483776" lon="11.3310433"><ele>299.6666666666667</ele><time>2026-04-30T10:11:41.669Z</time></trkpt><trkpt lat="44.4483425" lon="11.3309373"><ele>300.0</ele><time>2026-04-30T10:11:43.675Z</time></trkpt><trkpt lat="44.4483145" lon="11.3308384"><ele>300.3333333333333</ele><time>2026-04-30T10:11:45.672Z</time></trkpt><trkpt lat="44.4482947" lon="11.3307092"><ele>300.66666666666663</ele><time>2026-04-30T10:11:47.674Z</time></trkpt><trkpt lat="44.4482933" lon="11.3305876"><ele>301.0</ele><time>2026-04-30T10:11:49.687Z</time></trkpt><trkpt lat="44.4483022" lon="11.3304558"><ele>302.16666666666663</ele><time>2026-04-30T10:11:51.679Z</time></trkpt><trkpt lat="44.4483157" lon="11.3303252"><ele>303.3333333333333</ele><time>2026-04-30T10:11:53.676Z</time></trkpt><trkpt lat="44.4483353" lon="11.3302044"><ele>304.5</ele><time>2026-04-30T10:11:55.672Z</time></trkpt><trkpt lat="44.4483568" lon="11.3300905"><ele>305.6666666666667</ele><time>2026-04-30T10:11:57.682Z</time></trkpt><trkpt lat="44.4483782" lon="11.3299835"><ele>306.83333333333337</ele><time>2026-04-30T10:11:59.686Z</time></trkpt><trkpt lat="44.4484027" lon="11.3298726"><ele>308.0</ele><time>2026-04-30T10:12:01.683Z</time></trkpt><trkpt lat="44.4484286" lon="11.3297654"><ele>309.0</ele><time>2026-04-30T10:12:03.669Z</time></trkpt><trkpt lat="44.4484587" lon="11.3296649"><ele>310.0</ele><time>2026-04-30T10:12:05.684Z</time></trkpt><trkpt lat="44.4484945" lon="11.3295684"><ele>311.0</ele><time>2026-04-30T10:12:07.683Z</time></trkpt><trkpt lat="44.4485283" lon="11.329477"><ele>312.0</ele><time>2026-04-30T10:12:09.676Z</time></trkpt><trkpt lat="44.4485633" lon="11.3293845"><ele>313.0</ele><time>2026-04-30T10:12:11.669Z</time></trkpt><trkpt lat="44.448599" lon="11.329295"><ele>314.0</ele><time>2026-04-30T10:12:13.694Z</time></trkpt><trkpt lat="44.448631" lon="11.3292043"><ele>315.0</ele><time>2026-04-30T10:12:15.661Z</time></trkpt><trkpt lat="44.4486614" lon="11.3291153"><ele>315.0</ele><time>2026-04-30T10:12:17.68Z</time></trkpt><trkpt lat="44.4486865" lon="11.3290326"><ele>315.0</ele><time>2026-04-30T10:12:19.675Z</time></trkpt><trkpt lat="44.4487098" lon="11.3289378"><ele>315.0</ele><time>2026-04-30T10:12:21.683Z</time></trkpt><trkpt lat="44.4487234" lon="11.3288386"><ele>315.0</ele><time>2026-04-30T10:12:23.68Z</time></trkpt><trkpt lat="44.4487268" lon="11.3287417"><ele>315.0</ele><time>2026-04-30T10:12:25.685Z</time></trkpt><trkpt lat="44.4487251" lon="11.3286456"><ele>315.0</ele><time>2026-04-30T10:12:27.667Z</time></trkpt><trkpt lat="44.448718" lon="11.3285517"><ele>315.0</ele><time>2026-04-30T10:12:29.681Z</time></trkpt><trkpt lat="44.4487051" lon="11.3284589"><ele>314.5</ele><time>2026-04-30T10:12:31.682Z</time></trkpt><trkpt lat="44.448689" lon="11.3283633"><ele>314.0</ele><time>2026-04-30T10:12:33.681Z</time></trkpt><trkpt lat="44.4486707" lon="11.328261"><ele>313.5</ele><time>2026-04-30T10:12:35.688Z</time></trkpt><trkpt lat="44.4486576" lon="11.3281521"><ele>313.0</ele><time>2026-04-30T10:12:37.674Z</time></trkpt><trkpt lat="44.4486603" lon="11.3280365"><ele>312.5</ele><time>2026-04-30T10:12:39.676Z</time></trkpt><trkpt lat="44.4486633" lon="11.3279175"><ele>312.0</ele><time>2026-04-30T10:12:41.685Z</time></trkpt><trkpt lat="44.4486689" lon="11.327799"><ele>311.6</ele><time>2026-04-30T10:12:43.672Z</time></trkpt><trkpt lat="44.4486753" lon="11.3276769"><ele>311.2</ele><time>2026-04-30T10:12:45.673Z</time></trkpt><trkpt lat="44.4486774" lon="11.3275452"><ele>310.8</ele><time>2026-04-30T10:12:47.682Z</time></trkpt><trkpt lat="44.4486791" lon="11.3274188"><ele>310.4</ele><time>2026-04-30T10:12:49.675Z</time></trkpt><trkpt lat="44.4486844" lon="11.3272727"><ele>310.0</ele><time>2026-04-30T10:12:51.676Z</time></trkpt><trkpt lat="44.44869" lon="11.3271189"><ele>310.0</ele><time>2026-04-30T10:12:53.676Z</time></trkpt><trkpt lat="44.448693" lon="11.3269513"><ele>310.0</ele><time>2026-04-30T10:12:55.673Z</time></trkpt><trkpt lat="44.4486972" lon="11.3268593"><ele>310.0</ele><time>2026-04-30T10:12:56.673Z</time></trkpt><trkpt lat="44.4487066" lon="11.3267626"><ele>310.0</ele><time>2026-04-30T10:12:57.68Z</time></trkpt><trkpt lat="44.4487118" lon="11.3266596"><ele>310.0</ele><time>2026-04-30T10:12:58.676Z</time></trkpt><trkpt lat="44.4487168" lon="11.3265498"><ele>310.0</ele><time>2026-04-30T10:12:59.667Z</time></trkpt><trkpt lat="44.4487235" lon="11.326434"><ele>309.0</ele><time>2026-04-30T10:13:00.681Z</time></trkpt><trkpt lat="44.4487293" lon="11.3263104"><ele>308.0</ele><time>2026-04-30T10:13:01.686Z</time></trkpt><trkpt lat="44.4487369" lon="11.3261797"><ele>307.0</ele><time>2026-04-30T10:13:02.682Z</time></trkpt><trkpt lat="44.4487467" lon="11.3260419"><ele>306.0</ele><time>2026-04-30T10:13:03.685Z</time></trkpt><trkpt lat="44.4487606" lon="11.3258967"><ele>305.0</ele><time>2026-04-30T10:13:04.676Z</time></trkpt><trkpt lat="44.4487795" lon="11.325746"><ele>305.75</ele><time>2026-04-30T10:13:05.675Z</time></trkpt><trkpt lat="44.4488004" lon="11.3255893"><ele>306.5</ele><time>2026-04-30T10:13:06.674Z</time></trkpt><trkpt lat="44.4488219" lon="11.3254265"><ele>307.25</ele><time>2026-04-30T10:13:07.681Z</time></trkpt><trkpt lat="44.4488294" lon="11.3252521"><ele>308.0</ele><time>2026-04-30T10:13:08.677Z</time></trkpt><trkpt lat="44.4488244" lon="11.3250699"><ele>305.75</ele><time>2026-04-30T10:13:09.678Z</time></trkpt><trkpt lat="44.4488115" lon="11.3248851"><ele>303.5</ele><time>2026-04-30T10:13:10.673Z</time></trkpt><trkpt lat="44.4488039" lon="11.3246943"><ele>301.25</ele><time>2026-04-30T10:13:11.68Z</time></trkpt><trkpt lat="44.4487977" lon="11.3245076"><ele>299.0</ele><time>2026-04-30T10:13:12.693Z</time></trkpt><trkpt lat="44.4488185" lon="11.3243213"><ele>298.0</ele><time>2026-04-30T10:13:13.682Z</time></trkpt><trkpt lat="44.4488418" lon="11.3241454"><ele>297.0</ele><time>2026-04-30T10:13:14.688Z</time></trkpt><trkpt lat="44.4488757" lon="11.3239803"><ele>296.0</ele><time>2026-04-30T10:13:15.681Z</time></trkpt><trkpt lat="44.4489105" lon="11.3238208"><ele>295.0</ele><time>2026-04-30T10:13:16.685Z</time></trkpt><trkpt lat="44.4489423" lon="11.3236687"><ele>295.0</ele><time>2026-04-30T10:13:17.674Z</time></trkpt><trkpt lat="44.4489618" lon="11.3235219"><ele>295.0</ele><time>2026-04-30T10:13:18.679Z</time></trkpt><trkpt lat="44.4489652" lon="11.3233801"><ele>295.0</ele><time>2026-04-30T10:13:19.687Z</time></trkpt><trkpt lat="44.4489621" lon="11.3232463"><ele>295.0</ele><time>2026-04-30T10:13:20.679Z</time></trkpt><trkpt lat="44.4489561" lon="11.3231204"><ele>295.0</ele><time>2026-04-30T10:13:21.685Z</time></trkpt><trkpt lat="44.448953" lon="11.3229984"><ele>296.0</ele><time>2026-04-30T10:13:22.677Z</time></trkpt><trkpt lat="44.4489536" lon="11.3228763"><ele>297.0</ele><time>2026-04-30T10:13:23.686Z</time></trkpt><trkpt lat="44.4489553" lon="11.3227514"><ele>298.0</ele><time>2026-04-30T10:13:24.684Z</time></trkpt><trkpt lat="44.4489584" lon="11.3226243"><ele>299.0</ele><time>2026-04-30T10:13:25.676Z</time></trkpt><trkpt lat="44.4489662" lon="11.3224897"><ele>300.0</ele><time>2026-04-30T10:13:26.676Z</time></trkpt><trkpt lat="44.4489726" lon="11.3223488"><ele>299.2</ele><time>2026-04-30T10:13:27.694Z</time></trkpt><trkpt lat="44.4489801" lon="11.3222024"><ele>298.4</ele><time>2026-04-30T10:13:28.675Z</time></trkpt><trkpt lat="44.4489951" lon="11.3220574"><ele>297.6</ele><time>2026-04-30T10:13:29.679Z</time></trkpt><trkpt lat="44.4490287" lon="11.3219099"><ele>296.8</ele><time>2026-04-30T10:13:30.677Z</time></trkpt><trkpt lat="44.4490815" lon="11.3217695"><ele>296.0</ele><time>2026-04-30T10:13:31.679Z</time></trkpt><trkpt lat="44.4491415" lon="11.3216376"><ele>296.0</ele><time>2026-04-30T10:13:32.682Z</time></trkpt><trkpt lat="44.4491834" lon="11.3215003"><ele>296.0</ele><time>2026-04-30T10:13:33.67Z</time></trkpt><trkpt lat="44.4492051" lon="11.3213615"><ele>296.0</ele><time>2026-04-30T10:13:34.674Z</time></trkpt><trkpt lat="44.4492053" lon="11.3212291"><ele>296.0</ele><time>2026-04-30T10:13:35.668Z</time></trkpt><trkpt lat="44.4491936" lon="11.3211114"><ele>296.0</ele><time>2026-04-30T10:13:36.677Z</time></trkpt><trkpt lat="44.4491768" lon="11.321009"><ele>295.8</ele><time>2026-04-30T10:13:37.68Z</time></trkpt><trkpt lat="44.4491567" lon="11.320919"><ele>295.6</ele><time>2026-04-30T10:13:38.671Z</time></trkpt><trkpt lat="44.4491402" lon="11.3208331"><ele>295.4</ele><time>2026-04-30T10:13:39.671Z</time></trkpt><trkpt lat="44.4491281" lon="11.3206679"><ele>295.2</ele><time>2026-04-30T10:13:41.676Z</time></trkpt><trkpt lat="44.4491347" lon="11.3205088"><ele>295.0</ele><time>2026-04-30T10:13:43.685Z</time></trkpt><trkpt lat="44.4491451" lon="11.3203587"><ele>295.8</ele><time>2026-04-30T10:13:45.674Z</time></trkpt><trkpt lat="44.4491499" lon="11.3202037"><ele>296.6</ele><time>2026-04-30T10:13:47.676Z</time></trkpt><trkpt lat="44.4491458" lon="11.3200299"><ele>297.4</ele><time>2026-04-30T10:13:49.678Z</time></trkpt><trkpt lat="44.449143" lon="11.3199322"><ele>298.2</ele><time>2026-04-30T10:13:50.682Z</time></trkpt><trkpt lat="44.449141" lon="11.3198253"><ele>299.0</ele><time>2026-04-30T10:13:51.681Z</time></trkpt><trkpt lat="44.4491401" lon="11.31971"><ele>299.0</ele><time>2026-04-30T10:13:52.675Z</time></trkpt><trkpt lat="44.449138" lon="11.3195797"><ele>299.0</ele><time>2026-04-30T10:13:53.684Z</time></trkpt><trkpt lat="44.4491367" lon="11.319439"><ele>299.0</ele><time>2026-04-30T10:13:54.683Z</time></trkpt><trkpt lat="44.4491324" lon="11.3192962"><ele>299.0</ele><time>2026-04-30T10:13:55.678Z</time></trkpt><trkpt lat="44.4491171" lon="11.3191493"><ele>299.0</ele><time>2026-04-30T10:13:56.684Z</time></trkpt><trkpt lat="44.449097" lon="11.3190029"><ele>298.59999999999997</ele><time>2026-04-30T10:13:57.682Z</time></trkpt><trkpt lat="44.4490729" lon="11.3188545"><ele>298.2</ele><time>2026-04-30T10:13:58.688Z</time></trkpt><trkpt lat="44.4490479" lon="11.3187072"><ele>297.79999999999995</ele><time>2026-04-30T10:13:59.681Z</time></trkpt><trkpt lat="44.4490284" lon="11.3185608"><ele>297.4</ele><time>2026-04-30T10:14:00.682Z</time></trkpt><trkpt lat="44.4490144" lon="11.3184083"><ele>297.0</ele><time>2026-04-30T10:14:01.682Z</time></trkpt><trkpt lat="44.4490064" lon="11.3182486"><ele>297.0</ele><time>2026-04-30T10:14:02.674Z</time></trkpt><trkpt lat="44.4490016" lon="11.31808"><ele>297.0</ele><time>2026-04-30T10:14:03.684Z</time></trkpt><trkpt lat="44.4489937" lon="11.3179035"><ele>297.0</ele><time>2026-04-30T10:14:04.683Z</time></trkpt><trkpt lat="44.448981" lon="11.3177212"><ele>297.0</ele><time>2026-04-30T10:14:05.69Z</time></trkpt><trkpt lat="44.4489683" lon="11.3175386"><ele>294.5</ele><time>2026-04-30T10:14:06.678Z</time></trkpt><trkpt lat="44.4489552" lon="11.317353"><ele>292.0</ele><time>2026-04-30T10:14:07.681Z</time></trkpt><trkpt lat="44.4489396" lon="11.3171735"><ele>289.5</ele><time>2026-04-30T10:14:08.674Z</time></trkpt><trkpt lat="44.4489255" lon="11.3170009"><ele>287.0</ele><time>2026-04-30T10:14:09.683Z</time></trkpt><trkpt lat="44.448911" lon="11.3168371"><ele>285.4</ele><time>2026-04-30T10:14:10.681Z</time></trkpt><trkpt lat="44.4488872" lon="11.3166799"><ele>283.79999999999995</ele><time>2026-04-30T10:14:11.677Z</time></trkpt><trkpt lat="44.448851" lon="11.3165363"><ele>282.2</ele><time>2026-04-30T10:14:12.69Z</time></trkpt><trkpt lat="44.4488091" lon="11.3163971"><ele>280.59999999999997</ele><time>2026-04-30T10:14:13.679Z</time></trkpt><trkpt lat="44.4487679" lon="11.3162604"><ele>279.0</ele><time>2026-04-30T10:14:14.68Z</time></trkpt><trkpt lat="44.4487142" lon="11.3161355"><ele>276.8333333333333</ele><time>2026-04-30T10:14:15.674Z</time></trkpt><trkpt lat="44.4486596" lon="11.3160263"><ele>274.6666666666667</ele><time>2026-04-30T10:14:16.681Z</time></trkpt><trkpt lat="44.4486109" lon="11.3159318"><ele>272.5</ele><time>2026-04-30T10:14:17.676Z</time></trkpt><trkpt lat="44.4485632" lon="11.3158434"><ele>270.33333333333337</ele><time>2026-04-30T10:14:18.675Z</time></trkpt><trkpt lat="44.4485229" lon="11.3157684"><ele>268.1666666666667</ele><time>2026-04-30T10:14:19.684Z</time></trkpt><trkpt lat="44.4484738" lon="11.3156671"><ele>266.0</ele><time>2026-04-30T10:14:21.678Z</time></trkpt><trkpt lat="44.4484412" lon="11.3155908"><ele>265.0</ele><time>2026-04-30T10:14:23.695Z</time></trkpt><trkpt lat="44.44838" lon="11.3155381"><ele>264.0</ele><time>2026-04-30T10:14:25.675Z</time></trkpt><trkpt lat="44.4482923" lon="11.3155385"><ele>263.0</ele><time>2026-04-30T10:14:27.677Z</time></trkpt><trkpt lat="44.4481918" lon="11.3155298"><ele>262.0</ele><time>2026-04-30T10:14:29.673Z</time></trkpt><trkpt lat="44.4480871" lon="11.3154877"><ele>261.0</ele><time>2026-04-30T10:14:31.692Z</time></trkpt><trkpt lat="44.4479806" lon="11.3154204"><ele>261.40000000000003</ele><time>2026-04-30T10:14:33.681Z</time></trkpt><trkpt lat="44.4478835" lon="11.3153256"><ele>261.8</ele><time>2026-04-30T10:14:35.68Z</time></trkpt><trkpt lat="44.4477887" lon="11.3152246"><ele>262.20000000000005</ele><time>2026-04-30T10:14:37.684Z</time></trkpt><trkpt lat="44.4476996" lon="11.315102"><ele>262.6</ele><time>2026-04-30T10:14:39.674Z</time></trkpt><trkpt lat="44.4476652" lon="11.3150265"><ele>263.0</ele><time>2026-04-30T10:14:40.681Z</time></trkpt><trkpt lat="44.4476419" lon="11.3149413"><ele>263.0</ele><time>2026-04-30T10:14:41.676Z</time></trkpt><trkpt lat="44.44763" lon="11.3148494"><ele>263.0</ele><time>2026-04-30T10:14:42.683Z</time></trkpt><trkpt lat="44.4476281" lon="11.3147584"><ele>263.0</ele><time>2026-04-30T10:14:43.684Z</time></trkpt><trkpt lat="44.4476298" lon="11.314668"><ele>263.0</ele><time>2026-04-30T10:14:44.673Z</time></trkpt><trkpt lat="44.4476378" lon="11.3145771"><ele>263.0</ele><time>2026-04-30T10:14:45.684Z</time></trkpt><trkpt lat="44.4476481" lon="11.3144857"><ele>263.0</ele><time>2026-04-30T10:14:46.679Z</time></trkpt><trkpt lat="44.4476627" lon="11.3143939"><ele>263.0</ele><time>2026-04-30T10:14:47.676Z</time></trkpt><trkpt lat="44.4476738" lon="11.314302"><ele>262.6666666666667</ele><time>2026-04-30T10:14:48.68Z</time></trkpt><trkpt lat="44.4476801" lon="11.3142115"><ele>262.33333333333337</ele><time>2026-04-30T10:14:49.682Z</time></trkpt><trkpt lat="44.4476863" lon="11.3141225"><ele>262.0</ele><time>2026-04-30T10:14:50.668Z</time></trkpt><trkpt lat="44.4476877" lon="11.3140335"><ele>261.6666666666667</ele><time>2026-04-30T10:14:51.687Z</time></trkpt><trkpt lat="44.4476653" lon="11.3138603"><ele>261.3333333333333</ele><time>2026-04-30T10:14:53.675Z</time></trkpt><trkpt lat="44.4476352" lon="11.3137774"><ele>261.0</ele><time>2026-04-30T10:14:54.67Z</time></trkpt><trkpt lat="44.4475985" lon="11.3136989"><ele>261.0</ele><time>2026-04-30T10:14:55.681Z</time></trkpt><trkpt lat="44.4475506" lon="11.3136325"><ele>261.0</ele><time>2026-04-30T10:14:56.67Z</time></trkpt><trkpt lat="44.4474961" lon="11.3135729"><ele>261.0</ele><time>2026-04-30T10:14:57.677Z</time></trkpt><trkpt lat="44.4474362" lon="11.3135177"><ele>261.0</ele><time>2026-04-30T10:14:58.672Z</time></trkpt><trkpt lat="44.4473702" lon="11.3134665"><ele>261.0</ele><time>2026-04-30T10:14:59.694Z</time></trkpt><trkpt lat="44.4472992" lon="11.313421"><ele>261.0</ele><time>2026-04-30T10:15:00.677Z</time></trkpt><trkpt lat="44.4472249" lon="11.3133758"><ele>261.0</ele><time>2026-04-30T10:15:01.679Z</time></trkpt><trkpt lat="44.4471465" lon="11.3133335"><ele>259.40000000000003</ele><time>2026-04-30T10:15:02.682Z</time></trkpt><trkpt lat="44.4470645" lon="11.3132914"><ele>257.8</ele><time>2026-04-30T10:15:03.68Z</time></trkpt><trkpt lat="44.4469782" lon="11.3132529"><ele>256.20000000000005</ele><time>2026-04-30T10:15:04.67Z</time></trkpt><trkpt lat="44.4468865" lon="11.3132244"><ele>254.60000000000002</ele><time>2026-04-30T10:15:05.673Z</time></trkpt><trkpt lat="44.4467901" lon="11.3132071"><ele>253.0</ele><time>2026-04-30T10:15:06.692Z</time></trkpt><trkpt lat="44.4466921" lon="11.3131974"><ele>253.0</ele><time>2026-04-30T10:15:07.672Z</time></trkpt><trkpt lat="44.4465917" lon="11.3131955"><ele>253.0</ele><time>2026-04-30T10:15:08.684Z</time></trkpt><trkpt lat="44.4464903" lon="11.3131989"><ele>253.0</ele><time>2026-04-30T10:15:09.673Z</time></trkpt><trkpt lat="44.4463885" lon="11.3132009"><ele>253.0</ele><time>2026-04-30T10:15:10.676Z</time></trkpt><trkpt lat="44.4462861" lon="11.3131977"><ele>253.0</ele><time>2026-04-30T10:15:11.689Z</time></trkpt><trkpt lat="44.4461823" lon="11.3131848"><ele>252.60000000000002</ele><time>2026-04-30T10:15:12.68Z</time></trkpt><trkpt lat="44.4460771" lon="11.3131591"><ele>252.20000000000002</ele><time>2026-04-30T10:15:13.672Z</time></trkpt><trkpt lat="44.445973" lon="11.3131196"><ele>251.8</ele><time>2026-04-30T10:15:14.67Z</time></trkpt><trkpt lat="44.4458729" lon="11.3130658"><ele>251.4</ele><time>2026-04-30T10:15:15.677Z</time></trkpt><trkpt lat="44.4457741" lon="11.3130084"><ele>251.0</ele><time>2026-04-30T10:15:16.68Z</time></trkpt><trkpt lat="44.4456775" lon="11.312947"><ele>250.60000000000002</ele><time>2026-04-30T10:15:17.676Z</time></trkpt><trkpt lat="44.4455839" lon="11.3128824"><ele>250.20000000000002</ele><time>2026-04-30T10:15:18.685Z</time></trkpt><trkpt lat="44.4454934" lon="11.3128186"><ele>249.79999999999998</ele><time>2026-04-30T10:15:19.669Z</time></trkpt><trkpt lat="44.4454054" lon="11.3127556"><ele>249.39999999999998</ele><time>2026-04-30T10:15:20.674Z</time></trkpt><trkpt lat="44.4453237" lon="11.312688"><ele>249.0</ele><time>2026-04-30T10:15:21.671Z</time></trkpt><trkpt lat="44.4452451" lon="11.3126197"><ele>249.0</ele><time>2026-04-30T10:15:22.675Z</time></trkpt><trkpt lat="44.4451702" lon="11.3125491"><ele>249.0</ele><time>2026-04-30T10:15:23.666Z</time></trkpt><trkpt lat="44.4451001" lon="11.3124747"><ele>249.0</ele><time>2026-04-30T10:15:24.681Z</time></trkpt><trkpt lat="44.4450356" lon="11.312394"><ele>249.0</ele><time>2026-04-30T10:15:25.68Z</time></trkpt><trkpt lat="44.4449759" lon="11.3123087"><ele>249.0</ele><time>2026-04-30T10:15:26.668Z</time></trkpt><trkpt lat="44.4449185" lon="11.3122219"><ele>249.0</ele><time>2026-04-30T10:15:27.684Z</time></trkpt><trkpt lat="44.4448657" lon="11.3121316"><ele>249.42857142857142</ele><time>2026-04-30T10:15:28.679Z</time></trkpt><trkpt lat="44.4448152" lon="11.3120428"><ele>249.85714285714283</ele><time>2026-04-30T10:15:29.683Z</time></trkpt><trkpt lat="44.4447669" lon="11.3119565"><ele>250.28571428571428</ele><time>2026-04-30T10:15:30.677Z</time></trkpt><trkpt lat="44.4447198" lon="11.3118741"><ele>250.71428571428572</ele><time>2026-04-30T10:15:31.68Z</time></trkpt><trkpt lat="44.4446756" lon="11.3117936"><ele>251.14285714285714</ele><time>2026-04-30T10:15:32.679Z</time></trkpt><trkpt lat="44.4446339" lon="11.3117154"><ele>251.57142857142856</ele><time>2026-04-30T10:15:33.688Z</time></trkpt><trkpt lat="44.4445939" lon="11.3116373"><ele>252.0</ele><time>2026-04-30T10:15:34.676Z</time></trkpt><trkpt lat="44.4445535" lon="11.3115586"><ele>251.66666666666666</ele><time>2026-04-30T10:15:35.672Z</time></trkpt><trkpt lat="44.4445145" lon="11.311476"><ele>251.33333333333331</ele><time>2026-04-30T10:15:36.675Z</time></trkpt><trkpt lat="44.444477" lon="11.3113894"><ele>251.0</ele><time>2026-04-30T10:15:37.673Z</time></trkpt><trkpt lat="44.4444391" lon="11.3112991"><ele>250.66666666666666</ele><time>2026-04-30T10:15:38.679Z</time></trkpt><trkpt lat="44.4444003" lon="11.3112051"><ele>250.33333333333331</ele><time>2026-04-30T10:15:39.679Z</time></trkpt><trkpt lat="44.444363" lon="11.3111104"><ele>250.0</ele><time>2026-04-30T10:15:40.683Z</time></trkpt><trkpt lat="44.4443262" lon="11.3110125"><ele>249.99999999999997</ele><time>2026-04-30T10:15:41.684Z</time></trkpt><trkpt lat="44.4442896" lon="11.3109117"><ele>250.0</ele><time>2026-04-30T10:15:42.675Z</time></trkpt><trkpt lat="44.4442534" lon="11.3108107"><ele>250.0</ele><time>2026-04-30T10:15:43.685Z</time></trkpt><trkpt lat="44.4442203" lon="11.3107102"><ele>250.0</ele><time>2026-04-30T10:15:44.667Z</time></trkpt><trkpt lat="44.4441881" lon="11.3106145"><ele>249.99999999999997</ele><time>2026-04-30T10:15:45.671Z</time></trkpt><trkpt lat="44.4441591" lon="11.3105185"><ele>250.0</ele><time>2026-04-30T10:15:46.673Z</time></trkpt><trkpt lat="44.4441324" lon="11.3104231"><ele>250.66666666666666</ele><time>2026-04-30T10:15:47.676Z</time></trkpt><trkpt lat="44.4441053" lon="11.3103328"><ele>251.33333333333331</ele><time>2026-04-30T10:15:48.681Z</time></trkpt><trkpt lat="44.4440777" lon="11.3102444"><ele>252.0</ele><time>2026-04-30T10:15:49.671Z</time></trkpt><trkpt lat="44.4440531" lon="11.3101583"><ele>252.66666666666669</ele><time>2026-04-30T10:15:50.678Z</time></trkpt><trkpt lat="44.4440299" lon="11.3100754"><ele>253.33333333333334</ele><time>2026-04-30T10:15:51.679Z</time></trkpt><trkpt lat="44.4439848" lon="11.3099244"><ele>254.0</ele><time>2026-04-30T10:15:53.678Z</time></trkpt><trkpt lat="44.4439409" lon="11.3097876"><ele>253.75</ele><time>2026-04-30T10:15:55.679Z</time></trkpt><trkpt lat="44.4438926" lon="11.3096577"><ele>253.5</ele><time>2026-04-30T10:15:57.685Z</time></trkpt><trkpt lat="44.4438392" lon="11.3095257"><ele>253.25</ele><time>2026-04-30T10:15:59.684Z</time></trkpt><trkpt lat="44.443771" lon="11.3093914"><ele>253.0</ele><time>2026-04-30T10:16:01.681Z</time></trkpt><trkpt lat="44.4436864" lon="11.3092583"><ele>252.71428571428575</ele><time>2026-04-30T10:16:03.668Z</time></trkpt><trkpt lat="44.4436407" lon="11.3091902"><ele>252.42857142857144</ele><time>2026-04-30T10:16:04.674Z</time></trkpt><trkpt lat="44.4435931" lon="11.3091198"><ele>252.14285714285714</ele><time>2026-04-30T10:16:05.678Z</time></trkpt><trkpt lat="44.4435423" lon="11.3090492"><ele>251.85714285714286</ele><time>2026-04-30T10:16:06.68Z</time></trkpt><trkpt lat="44.4434895" lon="11.3089763"><ele>251.57142857142856</ele><time>2026-04-30T10:16:07.693Z</time></trkpt><trkpt lat="44.4434348" lon="11.3089026"><ele>251.28571428571425</ele><time>2026-04-30T10:16:08.682Z</time></trkpt><trkpt lat="44.4433786" lon="11.3088318"><ele>250.99999999999997</ele><time>2026-04-30T10:16:09.672Z</time></trkpt><trkpt lat="44.4433218" lon="11.3087605"><ele>250.71428571428567</ele><time>2026-04-30T10:16:10.678Z</time></trkpt><trkpt lat="44.4432662" lon="11.3086867"><ele>250.42857142857142</ele><time>2026-04-30T10:16:11.675Z</time></trkpt><trkpt lat="44.4432093" lon="11.3086172"><ele>250.1428571428571</ele><time>2026-04-30T10:16:12.682Z</time></trkpt><trkpt lat="44.4431486" lon="11.3085528"><ele>249.85714285714283</ele><time>2026-04-30T10:16:13.682Z</time></trkpt><trkpt lat="44.4430847" lon="11.3084966"><ele>249.57142857142856</ele><time>2026-04-30T10:16:14.676Z</time></trkpt><trkpt lat="44.4430191" lon="11.3084504"><ele>249.28571428571428</ele><time>2026-04-30T10:16:15.677Z</time></trkpt><trkpt lat="44.4429523" lon="11.3084157"><ele>249.0</ele><time>2026-04-30T10:16:16.681Z</time></trkpt><trkpt lat="44.4428858" lon="11.3083882"><ele>249.0</ele><time>2026-04-30T10:16:17.68Z</time></trkpt><trkpt lat="44.4428185" lon="11.3083665"><ele>248.99999999999997</ele><time>2026-04-30T10:16:18.68Z</time></trkpt><trkpt lat="44.4427507" lon="11.3083444"><ele>249.0</ele><time>2026-04-30T10:16:19.66Z</time></trkpt><trkpt lat="44.4426824" lon="11.3083239"><ele>249.0</ele><time>2026-04-30T10:16:20.66Z</time></trkpt><trkpt lat="44.4426124" lon="11.3083101"><ele>248.99999999999997</ele><time>2026-04-30T10:16:21.671Z</time></trkpt><trkpt lat="44.4425432" lon="11.3082975"><ele>249.0</ele><time>2026-04-30T10:16:22.672Z</time></trkpt><trkpt lat="44.4424763" lon="11.3082835"><ele>249.0</ele><time>2026-04-30T10:16:23.673Z</time></trkpt><trkpt lat="44.4424137" lon="11.3082709"><ele>249.0</ele><time>2026-04-30T10:16:24.674Z</time></trkpt><trkpt lat="44.4422989" lon="11.3082372"><ele>248.99999999999997</ele><time>2026-04-30T10:16:26.683Z</time></trkpt><trkpt lat="44.4422002" lon="11.308187"><ele>248.99999999999997</ele><time>2026-04-30T10:16:28.684Z</time></trkpt><trkpt lat="44.4421208" lon="11.3081234"><ele>249.0</ele><time>2026-04-30T10:16:30.681Z</time></trkpt><trkpt lat="44.4420599" lon="11.308034"><ele>249.0</ele><time>2026-04-30T10:16:32.676Z</time></trkpt><trkpt lat="44.4420093" lon="11.3079217"><ele>250.79999999999998</ele><time>2026-04-30T10:16:34.686Z</time></trkpt><trkpt lat="44.4419602" lon="11.3077946"><ele>252.59999999999997</ele><time>2026-04-30T10:16:36.682Z</time></trkpt><trkpt lat="44.441923" lon="11.3076518"><ele>254.4</ele><time>2026-04-30T10:16:38.681Z</time></trkpt><trkpt lat="44.4419091" lon="11.3074964"><ele>256.2</ele><time>2026-04-30T10:16:40.675Z</time></trkpt><trkpt lat="44.4419114" lon="11.3073401"><ele>258.0</ele><time>2026-04-30T10:16:42.676Z</time></trkpt><trkpt lat="44.4419151" lon="11.3071903"><ele>258.6</ele><time>2026-04-30T10:16:44.684Z</time></trkpt><trkpt lat="44.4419133" lon="11.3070508"><ele>259.20000000000005</ele><time>2026-04-30T10:16:46.673Z</time></trkpt><trkpt lat="44.4419175" lon="11.3069112"><ele>259.8</ele><time>2026-04-30T10:16:48.676Z</time></trkpt><trkpt lat="44.4419186" lon="11.3067736"><ele>260.40000000000003</ele><time>2026-04-30T10:16:50.672Z</time></trkpt><trkpt lat="44.4419167" lon="11.3066336"><ele>261.0</ele><time>2026-04-30T10:16:52.674Z</time></trkpt><trkpt lat="44.4419211" lon="11.3064837"><ele>261.2</ele><time>2026-04-30T10:16:54.675Z</time></trkpt><trkpt lat="44.4419249" lon="11.3063358"><ele>261.40000000000003</ele><time>2026-04-30T10:16:56.678Z</time></trkpt><trkpt lat="44.4419304" lon="11.3061907"><ele>261.6</ele><time>2026-04-30T10:16:58.671Z</time></trkpt><trkpt lat="44.4419392" lon="11.3060458"><ele>261.8</ele><time>2026-04-30T10:17:00.673Z</time></trkpt><trkpt lat="44.4419477" lon="11.3058983"><ele>262.0</ele><time>2026-04-30T10:17:02.685Z</time></trkpt><trkpt lat="44.4419594" lon="11.3057494"><ele>262.0</ele><time>2026-04-30T10:17:04.683Z</time></trkpt><trkpt lat="44.4419697" lon="11.3056025"><ele>262.0</ele><time>2026-04-30T10:17:06.684Z</time></trkpt><trkpt lat="44.4419832" lon="11.3054532"><ele>262.0</ele><time>2026-04-30T10:17:08.677Z</time></trkpt><trkpt lat="44.4419998" lon="11.3053067"><ele>262.0</ele><time>2026-04-30T10:17:10.682Z</time></trkpt><trkpt lat="44.4420207" lon="11.3051596"><ele>262.0</ele><time>2026-04-30T10:17:12.677Z</time></trkpt><trkpt lat="44.4420491" lon="11.3050124"><ele>262.2</ele><time>2026-04-30T10:17:14.679Z</time></trkpt><trkpt lat="44.4420842" lon="11.3048724"><ele>262.4</ele><time>2026-04-30T10:17:16.683Z</time></trkpt><trkpt lat="44.4421195" lon="11.3047332"><ele>262.6</ele><time>2026-04-30T10:17:18.694Z</time></trkpt><trkpt lat="44.4421596" lon="11.3046009"><ele>262.8</ele><time>2026-04-30T10:17:20.676Z</time></trkpt><trkpt lat="44.4422" lon="11.3044728"><ele>263.0</ele><time>2026-04-30T10:17:22.674Z</time></trkpt><trkpt lat="44.4422377" lon="11.3043437"><ele>262.4</ele><time>2026-04-30T10:17:24.676Z</time></trkpt><trkpt lat="44.4422521" lon="11.3042079"><ele>261.8</ele><time>2026-04-30T10:17:26.675Z</time></trkpt><trkpt lat="44.442245" lon="11.3040738"><ele>261.2</ele><time>2026-04-30T10:17:28.681Z</time></trkpt><trkpt lat="44.442233" lon="11.3039361"><ele>260.6</ele><time>2026-04-30T10:17:30.674Z</time></trkpt><trkpt lat="44.4422174" lon="11.3037846"><ele>260.0</ele><time>2026-04-30T10:17:32.676Z</time></trkpt><trkpt lat="44.4422071" lon="11.3036114"><ele>259.1666666666667</ele><time>2026-04-30T10:17:34.696Z</time></trkpt><trkpt lat="44.4422047" lon="11.3035146"><ele>258.33333333333337</ele><time>2026-04-30T10:17:35.677Z</time></trkpt><trkpt lat="44.4422163" lon="11.3034102"><ele>257.5</ele><time>2026-04-30T10:17:36.673Z</time></trkpt><trkpt lat="44.4422418" lon="11.3033017"><ele>256.6666666666667</ele><time>2026-04-30T10:17:37.68Z</time></trkpt><trkpt lat="44.4422817" lon="11.3031985"><ele>255.83333333333334</ele><time>2026-04-30T10:17:38.687Z</time></trkpt><trkpt lat="44.4423442" lon="11.3031163"><ele>255.0</ele><time>2026-04-30T10:17:39.677Z</time></trkpt><trkpt lat="44.4424272" lon="11.3030641"><ele>253.8</ele><time>2026-04-30T10:17:40.676Z</time></trkpt><trkpt lat="44.4425204" lon="11.3030295"><ele>252.6</ele><time>2026-04-30T10:17:41.669Z</time></trkpt><trkpt lat="44.442619" lon="11.3030014"><ele>251.39999999999998</ele><time>2026-04-30T10:17:42.685Z</time></trkpt><trkpt lat="44.4427194" lon="11.3029632"><ele>250.2</ele><time>2026-04-30T10:17:43.672Z</time></trkpt><trkpt lat="44.4428189" lon="11.3029103"><ele>249.0</ele><time>2026-04-30T10:17:44.678Z</time></trkpt><trkpt lat="44.4429164" lon="11.3028452"><ele>249.2</ele><time>2026-04-30T10:17:45.671Z</time></trkpt><trkpt lat="44.4430081" lon="11.3027604"><ele>249.39999999999998</ele><time>2026-04-30T10:17:46.676Z</time></trkpt><trkpt lat="44.4430976" lon="11.3026684"><ele>249.6</ele><time>2026-04-30T10:17:47.684Z</time></trkpt><trkpt lat="44.4431843" lon="11.3025699"><ele>249.8</ele><time>2026-04-30T10:17:48.671Z</time></trkpt><trkpt lat="44.4432621" lon="11.302461"><ele>250.0</ele><time>2026-04-30T10:17:49.684Z</time></trkpt><trkpt lat="44.4433229" lon="11.3023375"><ele>248.8</ele><time>2026-04-30T10:17:50.677Z</time></trkpt><trkpt lat="44.4433764" lon="11.3022104"><ele>247.6</ele><time>2026-04-30T10:17:51.678Z</time></trkpt><trkpt lat="44.4434287" lon="11.302085"><ele>246.39999999999998</ele><time>2026-04-30T10:17:52.678Z</time></trkpt><trkpt lat="44.4434732" lon="11.3019588"><ele>245.2</ele><time>2026-04-30T10:17:53.675Z</time></trkpt><trkpt lat="44.443515" lon="11.3018306"><ele>244.0</ele><time>2026-04-30T10:17:54.679Z</time></trkpt><trkpt lat="44.4435701" lon="11.3017145"><ele>244.0</ele><time>2026-04-30T10:17:55.679Z</time></trkpt><trkpt lat="44.4436395" lon="11.3016209"><ele>243.99999999999997</ele><time>2026-04-30T10:17:56.676Z</time></trkpt><trkpt lat="44.4437143" lon="11.30154"><ele>243.99999999999997</ele><time>2026-04-30T10:17:57.677Z</time></trkpt><trkpt lat="44.4437953" lon="11.3014683"><ele>244.0</ele><time>2026-04-30T10:17:58.679Z</time></trkpt><trkpt lat="44.4438815" lon="11.3014007"><ele>244.0</ele><time>2026-04-30T10:17:59.668Z</time></trkpt><trkpt lat="44.4439724" lon="11.3013317"><ele>241.5</ele><time>2026-04-30T10:18:00.676Z</time></trkpt><trkpt lat="44.4440624" lon="11.3012472"><ele>239.0</ele><time>2026-04-30T10:18:01.681Z</time></trkpt><trkpt lat="44.4441439" lon="11.3011406"><ele>236.5</ele><time>2026-04-30T10:18:02.683Z</time></trkpt><trkpt lat="44.4442131" lon="11.3010109"><ele>234.0</ele><time>2026-04-30T10:18:03.687Z</time></trkpt><trkpt lat="44.4442722" lon="11.3008633"><ele>234.0</ele><time>2026-04-30T10:18:04.677Z</time></trkpt><trkpt lat="44.4443292" lon="11.3007045"><ele>234.0</ele><time>2026-04-30T10:18:05.676Z</time></trkpt><trkpt lat="44.4443882" lon="11.3005554"><ele>234.0</ele><time>2026-04-30T10:18:06.687Z</time></trkpt><trkpt lat="44.4444491" lon="11.300422"><ele>234.0</ele><time>2026-04-30T10:18:07.677Z</time></trkpt><trkpt lat="44.444507" lon="11.3003012"><ele>231.83333333333334</ele><time>2026-04-30T10:18:08.678Z</time></trkpt><trkpt lat="44.4445599" lon="11.3001924"><ele>229.66666666666669</ele><time>2026-04-30T10:18:09.682Z</time></trkpt><trkpt lat="44.4446067" lon="11.3000944"><ele>227.5</ele><time>2026-04-30T10:18:10.68Z</time></trkpt><trkpt lat="44.4446393" lon="11.2999981"><ele>225.33333333333334</ele><time>2026-04-30T10:18:11.681Z</time></trkpt><trkpt lat="44.444644" lon="11.2998934"><ele>223.16666666666669</ele><time>2026-04-30T10:18:12.67Z</time></trkpt><trkpt lat="44.4446141" lon="11.2997918"><ele>221.0</ele><time>2026-04-30T10:18:13.681Z</time></trkpt><trkpt lat="44.444561" lon="11.299714"><ele>219.00000000000003</ele><time>2026-04-30T10:18:14.683Z</time></trkpt><trkpt lat="44.4445089" lon="11.29964"><ele>217.0</ele><time>2026-04-30T10:18:15.684Z</time></trkpt><trkpt lat="44.4444726" lon="11.2995493"><ele>215.0</ele><time>2026-04-30T10:18:16.678Z</time></trkpt><trkpt lat="44.4444627" lon="11.2994379"><ele>213.0</ele><time>2026-04-30T10:18:17.674Z</time></trkpt><trkpt lat="44.444486" lon="11.2993157"><ele>211.00000000000003</ele><time>2026-04-30T10:18:18.677Z</time></trkpt><trkpt lat="44.4445257" lon="11.2991904"><ele>209.0</ele><time>2026-04-30T10:18:19.686Z</time></trkpt><trkpt lat="44.4445582" lon="11.299052"><ele>206.5</ele><time>2026-04-30T10:18:20.676Z</time></trkpt><trkpt lat="44.4445748" lon="11.2988946"><ele>204.0</ele><time>2026-04-30T10:18:21.681Z</time></trkpt><trkpt lat="44.4445883" lon="11.2987237"><ele>201.5</ele><time>2026-04-30T10:18:22.681Z</time></trkpt><trkpt lat="44.4446046" lon="11.2985409"><ele>199.0</ele><time>2026-04-30T10:18:23.684Z</time></trkpt><trkpt lat="44.4446237" lon="11.2983557"><ele>198.25</ele><time>2026-04-30T10:18:24.673Z</time></trkpt><trkpt lat="44.4446539" lon="11.2981862"><ele>197.5</ele><time>2026-04-30T10:18:25.668Z</time></trkpt><trkpt lat="44.4446987" lon="11.2980404"><ele>196.75</ele><time>2026-04-30T10:18:26.678Z</time></trkpt><trkpt lat="44.4447633" lon="11.2979084"><ele>196.0</ele><time>2026-04-30T10:18:27.683Z</time></trkpt><trkpt lat="44.4448367" lon="11.2977797"><ele>196.0</ele><time>2026-04-30T10:18:28.69Z</time></trkpt><trkpt lat="44.444909" lon="11.297663"><ele>196.0</ele><time>2026-04-30T10:18:29.672Z</time></trkpt><trkpt lat="44.4449917" lon="11.297562"><ele>196.0</ele><time>2026-04-30T10:18:30.682Z</time></trkpt><trkpt lat="44.4450761" lon="11.297462"><ele>196.0</ele><time>2026-04-30T10:18:31.674Z</time></trkpt><trkpt lat="44.4451896" lon="11.2974064"><ele>196.0</ele><time>2026-04-30T10:18:32.685Z</time></trkpt><trkpt lat="44.4453036" lon="11.2973461"><ele>196.0</ele><time>2026-04-30T10:18:33.676Z</time></trkpt><trkpt lat="44.4454003" lon="11.2972416"><ele>196.0</ele><time>2026-04-30T10:18:34.669Z</time></trkpt><trkpt lat="44.4454769" lon="11.297101"><ele>196.0</ele><time>2026-04-30T10:18:35.675Z</time></trkpt><trkpt lat="44.4455448" lon="11.2969508"><ele>194.5</ele><time>2026-04-30T10:18:36.676Z</time></trkpt><trkpt lat="44.4456154" lon="11.2968046"><ele>193.0</ele><time>2026-04-30T10:18:37.687Z</time></trkpt><trkpt lat="44.4456834" lon="11.2966632"><ele>191.5</ele><time>2026-04-30T10:18:38.678Z</time></trkpt><trkpt lat="44.4457771" lon="11.2965605"><ele>190.0</ele><time>2026-04-30T10:18:39.673Z</time></trkpt><trkpt lat="44.4458821" lon="11.2965082"><ele>190.0</ele><time>2026-04-30T10:18:40.673Z</time></trkpt><trkpt lat="44.445984" lon="11.2964986"><ele>190.0</ele><time>2026-04-30T10:18:41.678Z</time></trkpt><trkpt lat="44.4460741" lon="11.2965218"><ele>190.0</ele><time>2026-04-30T10:18:42.682Z</time></trkpt><trkpt lat="44.446153" lon="11.2965517"><ele>190.0</ele><time>2026-04-30T10:18:43.676Z</time></trkpt><trkpt lat="44.4462231" lon="11.2965779"><ele>190.0</ele><time>2026-04-30T10:18:44.681Z</time></trkpt><trkpt lat="44.4462883" lon="11.2966032"><ele>190.0</ele><time>2026-04-30T10:18:45.668Z</time></trkpt><trkpt lat="44.4464053" lon="11.2966495"><ele>191.0</ele><time>2026-04-30T10:18:47.681Z</time></trkpt><trkpt lat="44.4465052" lon="11.2966824"><ele>192.0</ele><time>2026-04-30T10:18:49.686Z</time></trkpt><trkpt lat="44.4465906" lon="11.2966973"><ele>193.0</ele><time>2026-04-30T10:18:51.667Z</time></trkpt><trkpt lat="44.4466608" lon="11.2967027"><ele>194.0</ele><time>2026-04-30T10:18:53.685Z</time></trkpt><trkpt lat="44.4467269" lon="11.2967058"><ele>194.99999999999997</ele><time>2026-04-30T10:18:55.677Z</time></trkpt><trkpt lat="44.4468216" lon="11.2967153"><ele>196.0</ele><time>2026-04-30T10:18:58.674Z</time></trkpt><trkpt lat="44.4468889" lon="11.2967247"><ele>196.0</ele><time>2026-04-30T10:19:00.692Z</time></trkpt><trkpt lat="44.4469559" lon="11.2967306"><ele>196.0</ele><time>2026-04-30T10:19:02.676Z</time></trkpt><trkpt lat="44.4470236" lon="11.2967355"><ele>196.0</ele><time>2026-04-30T10:19:04.681Z</time></trkpt><trkpt lat="44.4470932" lon="11.2967393"><ele>196.0</ele><time>2026-04-30T10:19:06.676Z</time></trkpt><trkpt lat="44.447161" lon="11.2967513"><ele>196.0</ele><time>2026-04-30T10:19:08.676Z</time></trkpt><trkpt lat="44.4472251" lon="11.2967615"><ele>196.0</ele><time>2026-04-30T10:19:10.671Z</time></trkpt><trkpt lat="44.4473118" lon="11.2967671"><ele>196.0</ele><time>2026-04-30T10:19:13.669Z</time></trkpt><trkpt lat="44.4473965" lon="11.2967728"><ele>197.83333333333331</ele><time>2026-04-30T10:19:16.679Z</time></trkpt><trkpt lat="44.4474796" lon="11.2967781"><ele>199.66666666666666</ele><time>2026-04-30T10:19:19.686Z</time></trkpt><trkpt lat="44.4475517" lon="11.2967778"><ele>201.5</ele><time>2026-04-30T10:19:22.685Z</time></trkpt><trkpt lat="44.4476225" lon="11.2967723"><ele>203.33333333333331</ele><time>2026-04-30T10:19:25.683Z</time></trkpt><trkpt lat="44.4476969" lon="11.2967664"><ele>205.16666666666666</ele><time>2026-04-30T10:19:29.675Z</time></trkpt><trkpt lat="44.4477758" lon="11.2967686"><ele>207.0</ele><time>2026-04-30T10:19:33.681Z</time></trkpt><trkpt lat="44.4478581" lon="11.2967534"><ele>207.00000000000003</ele><time>2026-04-30T10:19:37.667Z</time></trkpt><trkpt lat="44.4479336" lon="11.2967386"><ele>207.0</ele><time>2026-04-30T10:19:41.681Z</time></trkpt><trkpt lat="44.447998" lon="11.2967236"><ele>207.0</ele><time>2026-04-30T10:19:45.679Z</time></trkpt><trkpt lat="44.4480656" lon="11.2967077"><ele>207.0</ele><time>2026-04-30T10:19:49.669Z</time></trkpt><trkpt lat="44.4481309" lon="11.2966917"><ele>207.0</ele><time>2026-04-30T10:19:53.686Z</time></trkpt><trkpt lat="44.4482044" lon="11.2966767"><ele>207.00000000000003</ele><time>2026-04-30T10:19:58.651Z</time></trkpt><trkpt lat="44.4482686" lon="11.2966525"><ele>207.0</ele><time>2026-04-30T10:20:03.68Z</time></trkpt><trkpt lat="44.4483418" lon="11.296643"><ele>208.57142857142858</ele><time>2026-04-30T10:20:08.675Z</time></trkpt><trkpt lat="44.4484177" lon="11.2966222"><ele>210.14285714285714</ele><time>2026-04-30T10:20:13.678Z</time></trkpt><trkpt lat="44.4484946" lon="11.2966049"><ele>211.71428571428572</ele><time>2026-04-30T10:20:18.684Z</time></trkpt><trkpt lat="44.448558" lon="11.2965926"><ele>213.28571428571428</ele><time>2026-04-30T10:20:22.677Z</time></trkpt><trkpt lat="44.4486204" lon="11.2965743"><ele>214.85714285714286</ele><time>2026-04-30T10:20:26.665Z</time></trkpt><trkpt lat="44.4486909" lon="11.2965577"><ele>216.42857142857144</ele><time>2026-04-30T10:20:31.677Z</time></trkpt><trkpt lat="44.4487611" lon="11.2965444"><ele>218.0</ele><time>2026-04-30T10:20:36.677Z</time></trkpt><trkpt lat="44.4488349" lon="11.2965236"><ele>219.0</ele><time>2026-04-30T10:20:41.681Z</time></trkpt><trkpt lat="44.4488969" lon="11.2965071"><ele>220.0</ele><time>2026-04-30T10:20:45.678Z</time></trkpt><trkpt lat="44.4489552" lon="11.2964709"><ele>221.0</ele><time>2026-04-30T10:20:49.673Z</time></trkpt><trkpt lat="44.4490127" lon="11.2964211"><ele>222.0</ele><time>2026-04-30T10:20:53.68Z</time></trkpt><trkpt lat="44.4490782" lon="11.2963677"><ele>223.0</ele><time>2026-04-30T10:20:57.685Z</time></trkpt><trkpt lat="44.4491466" lon="11.2963044"><ele>224.00000000000003</ele><time>2026-04-30T10:21:01.685Z</time></trkpt><trkpt lat="44.4491997" lon="11.296253"><ele>225.00000000000003</ele><time>2026-04-30T10:21:04.675Z</time></trkpt><trkpt lat="44.4492616" lon="11.2962051"><ele>225.33333333333334</ele><time>2026-04-30T10:21:07.678Z</time></trkpt><trkpt lat="44.4493287" lon="11.2961656"><ele>225.66666666666669</ele><time>2026-04-30T10:21:10.682Z</time></trkpt><trkpt lat="44.4494075" lon="11.2961448"><ele>226.0</ele><time>2026-04-30T10:21:13.68Z</time></trkpt><trkpt lat="44.4494929" lon="11.2961297"><ele>226.33333333333334</ele><time>2026-04-30T10:21:16.677Z</time></trkpt><trkpt lat="44.4495817" lon="11.2961208"><ele>226.66666666666669</ele><time>2026-04-30T10:21:19.673Z</time></trkpt><trkpt lat="44.4496762" lon="11.2961162"><ele>227.0</ele><time>2026-04-30T10:21:22.686Z</time></trkpt><trkpt lat="44.4497402" lon="11.2961102"><ele>227.16666666666669</ele><time>2026-04-30T10:21:24.682Z</time></trkpt><trkpt lat="44.4498069" lon="11.2961039"><ele>227.33333333333334</ele><time>2026-04-30T10:21:26.672Z</time></trkpt><trkpt lat="44.4498716" lon="11.2961107"><ele>227.5</ele><time>2026-04-30T10:21:28.673Z</time></trkpt><trkpt lat="44.449962" lon="11.2961192"><ele>227.66666666666669</ele><time>2026-04-30T10:21:31.678Z</time></trkpt><trkpt lat="44.4500504" lon="11.2961175"><ele>227.83333333333334</ele><time>2026-04-30T10:21:34.677Z</time></trkpt><trkpt lat="44.4501404" lon="11.2961202"><ele>228.0</ele><time>2026-04-30T10:21:37.673Z</time></trkpt><trkpt lat="44.4502305" lon="11.2961208"><ele>228.0</ele><time>2026-04-30T10:21:40.677Z</time></trkpt><trkpt lat="44.4503254" lon="11.2961265"><ele>227.99999999999997</ele><time>2026-04-30T10:21:43.682Z</time></trkpt><trkpt lat="44.4503897" lon="11.296128"><ele>228.0</ele><time>2026-04-30T10:21:45.682Z</time></trkpt><trkpt lat="44.4504542" lon="11.2961323"><ele>228.0</ele><time>2026-04-30T10:21:47.666Z</time></trkpt><trkpt lat="44.4505201" lon="11.2961417"><ele>227.99999999999997</ele><time>2026-04-30T10:21:49.68Z</time></trkpt><trkpt lat="44.4505868" lon="11.296151"><ele>228.0</ele><time>2026-04-30T10:21:51.676Z</time></trkpt><trkpt lat="44.4506557" lon="11.2961617"><ele>228.0</ele><time>2026-04-30T10:21:53.684Z</time></trkpt><trkpt lat="44.4507257" lon="11.2961783"><ele>228.8</ele><time>2026-04-30T10:21:55.676Z</time></trkpt><trkpt lat="44.4508068" lon="11.2961948"><ele>229.60000000000002</ele><time>2026-04-30T10:21:57.673Z</time></trkpt><trkpt lat="44.4508949" lon="11.2962157"><ele>230.39999999999998</ele><time>2026-04-30T10:21:59.673Z</time></trkpt><trkpt lat="44.4509857" lon="11.2962379"><ele>231.2</ele><time>2026-04-30T10:22:01.681Z</time></trkpt><trkpt lat="44.4510778" lon="11.2962612"><ele>232.0</ele><time>2026-04-30T10:22:03.684Z</time></trkpt><trkpt lat="44.4511714" lon="11.2962882"><ele>232.0</ele><time>2026-04-30T10:22:05.677Z</time></trkpt><trkpt lat="44.451264" lon="11.2963254"><ele>232.0</ele><time>2026-04-30T10:22:07.678Z</time></trkpt><trkpt lat="44.4513495" lon="11.2963877"><ele>232.0</ele><time>2026-04-30T10:22:09.666Z</time></trkpt><trkpt lat="44.4514258" lon="11.2964689"><ele>232.0</ele><time>2026-04-30T10:22:11.666Z</time></trkpt><trkpt lat="44.4514904" lon="11.2965613"><ele>232.0</ele><time>2026-04-30T10:22:13.674Z</time></trkpt><trkpt lat="44.4515499" lon="11.2966635"><ele>233.0</ele><time>2026-04-30T10:22:15.679Z</time></trkpt><trkpt lat="44.4516098" lon="11.2967629"><ele>234.0</ele><time>2026-04-30T10:22:17.682Z</time></trkpt><trkpt lat="44.4516711" lon="11.2968593"><ele>235.0</ele><time>2026-04-30T10:22:19.676Z</time></trkpt><trkpt lat="44.4517485" lon="11.2969405"><ele>236.0</ele><time>2026-04-30T10:22:21.679Z</time></trkpt><trkpt lat="44.4518388" lon="11.2970094"><ele>237.0</ele><time>2026-04-30T10:22:23.673Z</time></trkpt><trkpt lat="44.4519342" lon="11.2970692"><ele>237.0</ele><time>2026-04-30T10:22:25.662Z</time></trkpt><trkpt lat="44.4520365" lon="11.2971309"><ele>237.0</ele><time>2026-04-30T10:22:27.676Z</time></trkpt><trkpt lat="44.4521434" lon="11.2971967"><ele>237.0</ele><time>2026-04-30T10:22:29.678Z</time></trkpt><trkpt lat="44.452253" lon="11.2972698"><ele>237.0</ele><time>2026-04-30T10:22:31.673Z</time></trkpt><trkpt lat="44.4523679" lon="11.2973432"><ele>236.57142857142856</ele><time>2026-04-30T10:22:33.679Z</time></trkpt><trkpt lat="44.4524268" lon="11.2973808"><ele>236.14285714285714</ele><time>2026-04-30T10:22:34.674Z</time></trkpt><trkpt lat="44.4524854" lon="11.2974185"><ele>235.71428571428572</ele><time>2026-04-30T10:22:35.673Z</time></trkpt><trkpt lat="44.4525438" lon="11.2974545"><ele>235.28571428571428</ele><time>2026-04-30T10:22:36.685Z</time></trkpt><trkpt lat="44.4526019" lon="11.2974912"><ele>234.8571428571429</ele><time>2026-04-30T10:22:37.678Z</time></trkpt><trkpt lat="44.4526615" lon="11.2975295"><ele>234.42857142857144</ele><time>2026-04-30T10:22:38.685Z</time></trkpt><trkpt lat="44.4527216" lon="11.2975662"><ele>234.0</ele><time>2026-04-30T10:22:39.677Z</time></trkpt><trkpt lat="44.452781" lon="11.2976016"><ele>234.0</ele><time>2026-04-30T10:22:40.694Z</time></trkpt><trkpt lat="44.4528405" lon="11.2976378"><ele>234.0</ele><time>2026-04-30T10:22:41.673Z</time></trkpt><trkpt lat="44.4528993" lon="11.2976773"><ele>234.0</ele><time>2026-04-30T10:22:42.673Z</time></trkpt><trkpt lat="44.4529562" lon="11.2977181"><ele>234.0</ele><time>2026-04-30T10:22:43.679Z</time></trkpt><trkpt lat="44.4530124" lon="11.2977581"><ele>234.0</ele><time>2026-04-30T10:22:44.677Z</time></trkpt><trkpt lat="44.453121" lon="11.2978405"><ele>234.0</ele><time>2026-04-30T10:22:46.677Z</time></trkpt><trkpt lat="44.4532267" lon="11.2979194"><ele>234.5</ele><time>2026-04-30T10:22:48.686Z</time></trkpt><trkpt lat="44.4533405" lon="11.2979724"><ele>235.0</ele><time>2026-04-30T10:22:50.67Z</time></trkpt><trkpt lat="44.4534051" lon="11.2979775"><ele>235.5</ele><time>2026-04-30T10:22:51.68Z</time></trkpt><trkpt lat="44.4534728" lon="11.2979798"><ele>236.0</ele><time>2026-04-30T10:22:52.68Z</time></trkpt><trkpt lat="44.4535429" lon="11.2979494"><ele>236.5</ele><time>2026-04-30T10:22:53.676Z</time></trkpt><trkpt lat="44.4536175" lon="11.2979116"><ele>237.0</ele><time>2026-04-30T10:22:54.685Z</time></trkpt><trkpt lat="44.4536923" lon="11.2978641"><ele>237.0</ele><time>2026-04-30T10:22:55.677Z</time></trkpt><trkpt lat="44.4537717" lon="11.2978149"><ele>237.0</ele><time>2026-04-30T10:22:56.672Z</time></trkpt><trkpt lat="44.4538583" lon="11.2977747"><ele>237.0</ele><time>2026-04-30T10:22:57.669Z</time></trkpt><trkpt lat="44.4539497" lon="11.2977337"><ele>237.0</ele><time>2026-04-30T10:22:58.67Z</time></trkpt><trkpt lat="44.4540503" lon="11.2977353"><ele>237.0</ele><time>2026-04-30T10:22:59.689Z</time></trkpt><trkpt lat="44.4541518" lon="11.2977588"><ele>234.8</ele><time>2026-04-30T10:23:00.679Z</time></trkpt><trkpt lat="44.4542534" lon="11.2978004"><ele>232.6</ele><time>2026-04-30T10:23:01.688Z</time></trkpt><trkpt lat="44.4543512" lon="11.297863"><ele>230.40000000000003</ele><time>2026-04-30T10:23:02.672Z</time></trkpt><trkpt lat="44.4544412" lon="11.2979496"><ele>228.20000000000002</ele><time>2026-04-30T10:23:03.687Z</time></trkpt><trkpt lat="44.4545299" lon="11.2980401"><ele>226.0</ele><time>2026-04-30T10:23:04.677Z</time></trkpt><trkpt lat="44.4546055" lon="11.2981541"><ele>223.4</ele><time>2026-04-30T10:23:05.664Z</time></trkpt><trkpt lat="44.4546797" lon="11.298268"><ele>220.8</ele><time>2026-04-30T10:23:06.682Z</time></trkpt><trkpt lat="44.4547507" lon="11.2983787"><ele>218.20000000000002</ele><time>2026-04-30T10:23:07.695Z</time></trkpt><trkpt lat="44.4548215" lon="11.2984848"><ele>215.60000000000002</ele><time>2026-04-30T10:23:08.678Z</time></trkpt><trkpt lat="44.4548914" lon="11.2985877"><ele>213.0</ele><time>2026-04-30T10:23:09.678Z</time></trkpt><trkpt lat="44.4549588" lon="11.2986915"><ele>213.0</ele><time>2026-04-30T10:23:10.684Z</time></trkpt><trkpt lat="44.455026" lon="11.2987945"><ele>213.0</ele><time>2026-04-30T10:23:11.684Z</time></trkpt><trkpt lat="44.4550903" lon="11.2988993"><ele>213.0</ele><time>2026-04-30T10:23:12.675Z</time></trkpt><trkpt lat="44.455154" lon="11.2990026"><ele>213.0</ele><time>2026-04-30T10:23:13.684Z</time></trkpt><trkpt lat="44.4552171" lon="11.299104"><ele>213.0</ele><time>2026-04-30T10:23:14.666Z</time></trkpt><trkpt lat="44.4552791" lon="11.2992062"><ele>212.8</ele><time>2026-04-30T10:23:15.679Z</time></trkpt><trkpt lat="44.4553422" lon="11.2993054"><ele>212.60000000000002</ele><time>2026-04-30T10:23:16.674Z</time></trkpt><trkpt lat="44.4554049" lon="11.2994017"><ele>212.39999999999998</ele><time>2026-04-30T10:23:17.664Z</time></trkpt><trkpt lat="44.455464" lon="11.2994979"><ele>212.2</ele><time>2026-04-30T10:23:18.678Z</time></trkpt><trkpt lat="44.4555231" lon="11.2995927"><ele>212.0</ele><time>2026-04-30T10:23:19.679Z</time></trkpt><trkpt lat="44.4555884" lon="11.2996719"><ele>212.00000000000003</ele><time>2026-04-30T10:23:20.673Z</time></trkpt><trkpt lat="44.4556588" lon="11.2997386"><ele>212.0</ele><time>2026-04-30T10:23:21.677Z</time></trkpt><trkpt lat="44.4557327" lon="11.299788"><ele>212.0</ele><time>2026-04-30T10:23:22.672Z</time></trkpt><trkpt lat="44.45581" lon="11.2998224"><ele>212.0</ele><time>2026-04-30T10:23:23.681Z</time></trkpt><trkpt lat="44.4558899" lon="11.2998447"><ele>212.00000000000003</ele><time>2026-04-30T10:23:24.682Z</time></trkpt><trkpt lat="44.4559723" lon="11.2998553"><ele>212.0</ele><time>2026-04-30T10:23:25.673Z</time></trkpt><trkpt lat="44.4560585" lon="11.2998563"><ele>212.0</ele><time>2026-04-30T10:23:26.674Z</time></trkpt><trkpt lat="44.4561487" lon="11.2998467"><ele>212.0</ele><time>2026-04-30T10:23:27.693Z</time></trkpt><trkpt lat="44.45624" lon="11.2998286"><ele>212.0</ele><time>2026-04-30T10:23:28.661Z</time></trkpt><trkpt lat="44.4563296" lon="11.2998021"><ele>212.0</ele><time>2026-04-30T10:23:29.661Z</time></trkpt><trkpt lat="44.4564168" lon="11.2997623"><ele>212.0</ele><time>2026-04-30T10:23:30.685Z</time></trkpt><trkpt lat="44.4564982" lon="11.2997064"><ele>211.00000000000003</ele><time>2026-04-30T10:23:31.688Z</time></trkpt><trkpt lat="44.4565726" lon="11.2996385"><ele>210.0</ele><time>2026-04-30T10:23:32.675Z</time></trkpt><trkpt lat="44.4566373" lon="11.2995647"><ele>209.0</ele><time>2026-04-30T10:23:33.689Z</time></trkpt><trkpt lat="44.4566946" lon="11.2994907"><ele>208.0</ele><time>2026-04-30T10:23:34.689Z</time></trkpt><trkpt lat="44.456751" lon="11.2994235"><ele>207.00000000000003</ele><time>2026-04-30T10:23:35.681Z</time></trkpt><trkpt lat="44.4568074" lon="11.2993665"><ele>206.0</ele><time>2026-04-30T10:23:36.69Z</time></trkpt><trkpt lat="44.4568653" lon="11.2993188"><ele>205.99999999999997</ele><time>2026-04-30T10:23:37.68Z</time></trkpt><trkpt lat="44.4569254" lon="11.2992808"><ele>206.0</ele><time>2026-04-30T10:23:38.677Z</time></trkpt><trkpt lat="44.456986" lon="11.2992469"><ele>206.0</ele><time>2026-04-30T10:23:39.68Z</time></trkpt><trkpt lat="44.4570466" lon="11.2992162"><ele>206.0</ele><time>2026-04-30T10:23:40.689Z</time></trkpt><trkpt lat="44.4571112" lon="11.2991893"><ele>206.0</ele><time>2026-04-30T10:23:41.685Z</time></trkpt><trkpt lat="44.4571809" lon="11.299163"><ele>205.99999999999997</ele><time>2026-04-30T10:23:42.685Z</time></trkpt><trkpt lat="44.4572559" lon="11.299141"><ele>206.0</ele><time>2026-04-30T10:23:43.689Z</time></trkpt><trkpt lat="44.4573377" lon="11.299136"><ele>206.8</ele><time>2026-04-30T10:23:44.685Z</time></trkpt><trkpt lat="44.457423" lon="11.299152"><ele>207.60000000000002</ele><time>2026-04-30T10:23:45.682Z</time></trkpt><trkpt lat="44.4575122" lon="11.2991817"><ele>208.4</ele><time>2026-04-30T10:23:46.683Z</time></trkpt><trkpt lat="44.4576029" lon="11.2992127"><ele>209.2</ele><time>2026-04-30T10:23:47.672Z</time></trkpt><trkpt lat="44.4576981" lon="11.2992478"><ele>210.0</ele><time>2026-04-30T10:23:48.676Z</time></trkpt><trkpt lat="44.4577951" lon="11.2992833"><ele>210.0</ele><time>2026-04-30T10:23:49.673Z</time></trkpt><trkpt lat="44.4578872" lon="11.2993131"><ele>210.0</ele><time>2026-04-30T10:23:50.677Z</time></trkpt><trkpt lat="44.4579703" lon="11.2993344"><ele>210.0</ele><time>2026-04-30T10:23:51.676Z</time></trkpt><trkpt lat="44.4580431" lon="11.2993517"><ele>210.0</ele><time>2026-04-30T10:23:52.693Z</time></trkpt><trkpt lat="44.4581078" lon="11.299347"><ele>210.0</ele><time>2026-04-30T10:23:53.692Z</time></trkpt><trkpt lat="44.4582169" lon="11.2993183"><ele>210.0</ele><time>2026-04-30T10:23:55.681Z</time></trkpt><trkpt lat="44.458296" lon="11.2992754"><ele>210.5</ele><time>2026-04-30T10:23:57.671Z</time></trkpt><trkpt lat="44.4583561" lon="11.2992327"><ele>211.0</ele><time>2026-04-30T10:23:59.682Z</time></trkpt><trkpt lat="44.4584399" lon="11.2991918"><ele>211.5</ele><time>2026-04-30T10:24:02.681Z</time></trkpt><trkpt lat="44.4585177" lon="11.2991465"><ele>212.0</ele><time>2026-04-30T10:24:05.681Z</time></trkpt><trkpt lat="44.4585913" lon="11.2990901"><ele>212.5</ele><time>2026-04-30T10:24:08.675Z</time></trkpt><trkpt lat="44.45866" lon="11.299029"><ele>213.0</ele><time>2026-04-30T10:24:11.687Z</time></trkpt><trkpt lat="44.4587269" lon="11.2989609"><ele>214.83333333333334</ele><time>2026-04-30T10:24:14.682Z</time></trkpt><trkpt lat="44.4587926" lon="11.298892"><ele>216.66666666666669</ele><time>2026-04-30T10:24:17.685Z</time></trkpt><trkpt lat="44.4588542" lon="11.298819"><ele>218.5</ele><time>2026-04-30T10:24:20.681Z</time></trkpt><trkpt lat="44.4589085" lon="11.2987375"><ele>220.33333333333334</ele><time>2026-04-30T10:24:23.674Z</time></trkpt><trkpt lat="44.4589627" lon="11.2986544"><ele>222.16666666666669</ele><time>2026-04-30T10:24:26.69Z</time></trkpt><trkpt lat="44.4590186" lon="11.2985716"><ele>224.0</ele><time>2026-04-30T10:24:29.682Z</time></trkpt><trkpt lat="44.4590723" lon="11.2984917"><ele>224.00000000000003</ele><time>2026-04-30T10:24:32.683Z</time></trkpt><trkpt lat="44.4591283" lon="11.2984164"><ele>224.0</ele><time>2026-04-30T10:24:35.676Z</time></trkpt><trkpt lat="44.4591996" lon="11.2983704"><ele>224.0</ele><time>2026-04-30T10:24:38.683Z</time></trkpt><trkpt lat="44.4592806" lon="11.2983827"><ele>224.0</ele><time>2026-04-30T10:24:41.685Z</time></trkpt><trkpt lat="44.4593593" lon="11.2984303"><ele>224.00000000000003</ele><time>2026-04-30T10:24:44.671Z</time></trkpt><trkpt lat="44.4594335" lon="11.2984901"><ele>224.0</ele><time>2026-04-30T10:24:47.676Z</time></trkpt><trkpt lat="44.4595066" lon="11.2985378"><ele>224.00000000000003</ele><time>2026-04-30T10:24:50.673Z</time></trkpt><trkpt lat="44.4595844" lon="11.2985709"><ele>224.0</ele><time>2026-04-30T10:24:53.68Z</time></trkpt><trkpt lat="44.4596681" lon="11.2985758"><ele>224.0</ele><time>2026-04-30T10:24:56.683Z</time></trkpt><trkpt lat="44.4597505" lon="11.2986044"><ele>224.0</ele><time>2026-04-30T10:24:59.676Z</time></trkpt><trkpt lat="44.4598342" lon="11.2986315"><ele>224.00000000000003</ele><time>2026-04-30T10:25:02.674Z</time></trkpt><trkpt lat="44.4599137" lon="11.2986721"><ele>224.0</ele><time>2026-04-30T10:25:05.68Z</time></trkpt><trkpt lat="44.4599904" lon="11.2987324"><ele>223.83333333333334</ele><time>2026-04-30T10:25:08.676Z</time></trkpt><trkpt lat="44.4600553" lon="11.2988173"><ele>223.66666666666669</ele><time>2026-04-30T10:25:11.679Z</time></trkpt><trkpt lat="44.4601154" lon="11.298907"><ele>223.5</ele><time>2026-04-30T10:25:14.671Z</time></trkpt><trkpt lat="44.4601694" lon="11.2990041"><ele>223.33333333333331</ele><time>2026-04-30T10:25:17.675Z</time></trkpt><trkpt lat="44.4602152" lon="11.2991117"><ele>223.16666666666666</ele><time>2026-04-30T10:25:20.679Z</time></trkpt><trkpt lat="44.4602602" lon="11.2992167"><ele>223.0</ele><time>2026-04-30T10:25:23.686Z</time></trkpt><trkpt lat="44.4602984" lon="11.2993288"><ele>224.33333333333331</ele><time>2026-04-30T10:25:26.678Z</time></trkpt><trkpt lat="44.4603567" lon="11.2994225"><ele>225.66666666666666</ele><time>2026-04-30T10:25:29.675Z</time></trkpt><trkpt lat="44.4604243" lon="11.2995035"><ele>227.0</ele><time>2026-04-30T10:25:32.679Z</time></trkpt><trkpt lat="44.4604976" lon="11.2995814"><ele>228.33333333333331</ele><time>2026-04-30T10:25:35.677Z</time></trkpt><trkpt lat="44.4605661" lon="11.2996613"><ele>229.66666666666666</ele><time>2026-04-30T10:25:38.667Z</time></trkpt><trkpt lat="44.460636" lon="11.2997367"><ele>231.0</ele><time>2026-04-30T10:25:41.699Z</time></trkpt><trkpt lat="44.4607046" lon="11.2998153"><ele>232.16666666666666</ele><time>2026-04-30T10:25:44.685Z</time></trkpt><trkpt lat="44.46077" lon="11.2998901"><ele>233.33333333333331</ele><time>2026-04-30T10:25:47.676Z</time></trkpt><trkpt lat="44.4608374" lon="11.2999595"><ele>234.5</ele><time>2026-04-30T10:25:50.669Z</time></trkpt><trkpt lat="44.4609041" lon="11.3000305"><ele>235.66666666666666</ele><time>2026-04-30T10:25:53.679Z</time></trkpt><trkpt lat="44.4609659" lon="11.300107"><ele>236.83333333333331</ele><time>2026-04-30T10:25:56.675Z</time></trkpt><trkpt lat="44.4610227" lon="11.3001753"><ele>238.0</ele><time>2026-04-30T10:25:59.666Z</time></trkpt><trkpt lat="44.461075" lon="11.3002388"><ele>238.0</ele><time>2026-04-30T10:26:02.686Z</time></trkpt><trkpt lat="44.4611269" lon="11.3003005"><ele>238.0</ele><time>2026-04-30T10:26:05.678Z</time></trkpt><trkpt lat="44.4611766" lon="11.3003592"><ele>238.0</ele><time>2026-04-30T10:26:08.676Z</time></trkpt><trkpt lat="44.4612255" lon="11.3004209"><ele>238.0</ele><time>2026-04-30T10:26:11.676Z</time></trkpt><trkpt lat="44.4612722" lon="11.3004868"><ele>238.0</ele><time>2026-04-30T10:26:14.669Z</time></trkpt><trkpt lat="44.4613212" lon="11.3005501"><ele>238.0</ele><time>2026-04-30T10:26:17.674Z</time></trkpt><trkpt lat="44.4613844" lon="11.3006253"><ele>238.0</ele><time>2026-04-30T10:26:21.68Z</time></trkpt><trkpt lat="44.4614571" lon="11.3006893"><ele>239.85714285714286</ele><time>2026-04-30T10:26:25.69Z</time></trkpt><trkpt lat="44.4615204" lon="11.3007326"><ele>241.71428571428572</ele><time>2026-04-30T10:26:28.683Z</time></trkpt><trkpt lat="44.4615826" lon="11.3007787"><ele>243.57142857142856</ele><time>2026-04-30T10:26:31.667Z</time></trkpt><trkpt lat="44.4616424" lon="11.3008222"><ele>245.42857142857142</ele><time>2026-04-30T10:26:34.673Z</time></trkpt><trkpt lat="44.4617032" lon="11.3008668"><ele>247.28571428571428</ele><time>2026-04-30T10:26:37.686Z</time></trkpt><trkpt lat="44.4617631" lon="11.3009054"><ele>249.1428571428571</ele><time>2026-04-30T10:26:40.681Z</time></trkpt><trkpt lat="44.4618243" lon="11.3009394"><ele>250.99999999999997</ele><time>2026-04-30T10:26:43.676Z</time></trkpt><trkpt lat="44.4619024" lon="11.3009736"><ele>251.00000000000003</ele><time>2026-04-30T10:26:47.679Z</time></trkpt><trkpt lat="44.4619766" lon="11.3010073"><ele>251.0</ele><time>2026-04-30T10:26:51.686Z</time></trkpt><trkpt lat="44.4620419" lon="11.3010372"><ele>251.0</ele><time>2026-04-30T10:26:54.677Z</time></trkpt><trkpt lat="44.4621148" lon="11.3010632"><ele>251.0</ele><time>2026-04-30T10:26:57.666Z</time></trkpt><trkpt lat="44.4621855" lon="11.3010993"><ele>251.00000000000003</ele><time>2026-04-30T10:27:00.66Z</time></trkpt><trkpt lat="44.4622566" lon="11.3011395"><ele>251.0</ele><time>2026-04-30T10:27:03.675Z</time></trkpt><trkpt lat="44.4623292" lon="11.3011745"><ele>253.20000000000002</ele><time>2026-04-30T10:27:06.685Z</time></trkpt><trkpt lat="44.4624135" lon="11.3012093"><ele>255.40000000000003</ele><time>2026-04-30T10:27:09.687Z</time></trkpt><trkpt lat="44.4624772" lon="11.3012354"><ele>257.6</ele><time>2026-04-30T10:27:11.675Z</time></trkpt><trkpt lat="44.4625543" lon="11.3012611"><ele>259.8</ele><time>2026-04-30T10:27:13.674Z</time></trkpt><trkpt lat="44.4626556" lon="11.301285"><ele>262.0</ele><time>2026-04-30T10:27:15.671Z</time></trkpt><trkpt lat="44.4627912" lon="11.3012898"><ele>262.0</ele><time>2026-04-30T10:27:17.681Z</time></trkpt><trkpt lat="44.4628625" lon="11.3012909"><ele>262.0</ele><time>2026-04-30T10:27:18.676Z</time></trkpt><trkpt lat="44.4629368" lon="11.3012952"><ele>262.0</ele><time>2026-04-30T10:27:19.68Z</time></trkpt><trkpt lat="44.4630119" lon="11.3013006"><ele>262.0</ele><time>2026-04-30T10:27:20.687Z</time></trkpt><trkpt lat="44.4630872" lon="11.3013082"><ele>262.0</ele><time>2026-04-30T10:27:21.683Z</time></trkpt><trkpt lat="44.4631628" lon="11.3013133"><ele>262.0</ele><time>2026-04-30T10:27:22.68Z</time></trkpt><trkpt lat="44.4632336" lon="11.3013133"><ele>262.0</ele><time>2026-04-30T10:27:23.684Z</time></trkpt><trkpt lat="44.4633015" lon="11.3013103"><ele>261.8</ele><time>2026-04-30T10:27:24.679Z</time></trkpt><trkpt lat="44.4633661" lon="11.3012966"><ele>261.6</ele><time>2026-04-30T10:27:25.68Z</time></trkpt><trkpt lat="44.4634826" lon="11.3012487"><ele>261.40000000000003</ele><time>2026-04-30T10:27:27.683Z</time></trkpt><trkpt lat="44.4635906" lon="11.3011688"><ele>261.2</ele><time>2026-04-30T10:27:29.685Z</time></trkpt><trkpt lat="44.463694" lon="11.3010738"><ele>261.0</ele><time>2026-04-30T10:27:31.682Z</time></trkpt><trkpt lat="44.4637544" lon="11.3010312"><ele>259.1666666666667</ele><time>2026-04-30T10:27:32.673Z</time></trkpt><trkpt lat="44.4638177" lon="11.300983"><ele>257.3333333333333</ele><time>2026-04-30T10:27:33.671Z</time></trkpt><trkpt lat="44.4638865" lon="11.3009434"><ele>255.5</ele><time>2026-04-30T10:27:34.683Z</time></trkpt><trkpt lat="44.4639571" lon="11.3009025"><ele>253.66666666666666</ele><time>2026-04-30T10:27:35.676Z</time></trkpt><trkpt lat="44.46403" lon="11.3008657"><ele>251.83333333333331</ele><time>2026-04-30T10:27:36.676Z</time></trkpt><trkpt lat="44.4641069" lon="11.3008374"><ele>250.0</ele><time>2026-04-30T10:27:37.677Z</time></trkpt><trkpt lat="44.4641858" lon="11.3008289"><ele>249.99999999999997</ele><time>2026-04-30T10:27:38.685Z</time></trkpt><trkpt lat="44.4642629" lon="11.3008338"><ele>250.0</ele><time>2026-04-30T10:27:39.676Z</time></trkpt><trkpt lat="44.4643372" lon="11.3008433"><ele>250.0</ele><time>2026-04-30T10:27:40.671Z</time></trkpt><trkpt lat="44.4644075" lon="11.3008557"><ele>250.0</ele><time>2026-04-30T10:27:41.666Z</time></trkpt><trkpt lat="44.4644738" lon="11.3008648"><ele>249.99999999999997</ele><time>2026-04-30T10:27:42.676Z</time></trkpt><trkpt lat="44.464537" lon="11.3008684"><ele>250.0</ele><time>2026-04-30T10:27:43.674Z</time></trkpt><trkpt lat="44.4646497" lon="11.3008689"><ele>250.14285714285714</ele><time>2026-04-30T10:27:45.668Z</time></trkpt><trkpt lat="44.4647363" lon="11.3008485"><ele>250.28571428571428</ele><time>2026-04-30T10:27:47.666Z</time></trkpt><trkpt lat="44.4647674" lon="11.3007568"><ele>250.42857142857142</ele><time>2026-04-30T10:27:50.68Z</time></trkpt><trkpt lat="44.4647093" lon="11.300713"><ele>250.57142857142856</ele><time>2026-04-30T10:27:53.694Z</time></trkpt><trkpt lat="44.4647719" lon="11.3007452"><ele>250.71428571428572</ele><time>2026-04-30T10:29:07.684Z</time></trkpt><trkpt lat="44.464836" lon="11.3007829"><ele>250.85714285714283</ele><time>2026-04-30T10:29:11.677Z</time></trkpt><trkpt lat="44.4649216" lon="11.300805"><ele>250.99999999999997</ele><time>2026-04-30T10:29:14.671Z</time></trkpt><trkpt lat="44.4649916" lon="11.300809"><ele>251.0</ele><time>2026-04-30T10:29:16.681Z</time></trkpt><trkpt lat="44.4650723" lon="11.3008127"><ele>251.00000000000003</ele><time>2026-04-30T10:29:18.695Z</time></trkpt><trkpt lat="44.4651575" lon="11.3008114"><ele>251.00000000000003</ele><time>2026-04-30T10:29:20.683Z</time></trkpt><trkpt lat="44.4652485" lon="11.300811"><ele>251.0</ele><time>2026-04-30T10:29:22.681Z</time></trkpt><trkpt lat="44.4653467" lon="11.3008093"><ele>251.0</ele><time>2026-04-30T10:29:24.678Z</time></trkpt><trkpt lat="44.4654416" lon="11.3007926"><ele>250.8</ele><time>2026-04-30T10:29:26.685Z</time></trkpt><trkpt lat="44.4655279" lon="11.3007543"><ele>250.60000000000002</ele><time>2026-04-30T10:29:28.683Z</time></trkpt><trkpt lat="44.4656139" lon="11.3007183"><ele>250.4</ele><time>2026-04-30T10:29:30.679Z</time></trkpt><trkpt lat="44.4657049" lon="11.3006761"><ele>250.2</ele><time>2026-04-30T10:29:32.673Z</time></trkpt><trkpt lat="44.4658024" lon="11.3006322"><ele>250.0</ele><time>2026-04-30T10:29:34.678Z</time></trkpt><trkpt lat="44.4659038" lon="11.3005783"><ele>251.83333333333331</ele><time>2026-04-30T10:29:36.675Z</time></trkpt><trkpt lat="44.4660119" lon="11.3005326"><ele>253.66666666666666</ele><time>2026-04-30T10:29:38.689Z</time></trkpt><trkpt lat="44.4661302" lon="11.3005048"><ele>255.5</ele><time>2026-04-30T10:29:40.677Z</time></trkpt><trkpt lat="44.4661932" lon="11.3005042"><ele>257.3333333333333</ele><time>2026-04-30T10:29:41.675Z</time></trkpt><trkpt lat="44.466258" lon="11.3005141"><ele>259.1666666666667</ele><time>2026-04-30T10:29:42.687Z</time></trkpt><trkpt lat="44.4663244" lon="11.3005305"><ele>261.0</ele><time>2026-04-30T10:29:43.677Z</time></trkpt><trkpt lat="44.4663935" lon="11.3005486"><ele>261.0</ele><time>2026-04-30T10:29:44.683Z</time></trkpt><trkpt lat="44.4664636" lon="11.3005699"><ele>261.0</ele><time>2026-04-30T10:29:45.68Z</time></trkpt><trkpt lat="44.4665338" lon="11.3005923"><ele>261.0</ele><time>2026-04-30T10:29:46.681Z</time></trkpt><trkpt lat="44.4666039" lon="11.3006274"><ele>261.0</ele><time>2026-04-30T10:29:47.67Z</time></trkpt><trkpt lat="44.4666725" lon="11.3006708"><ele>261.0</ele><time>2026-04-30T10:29:48.685Z</time></trkpt><trkpt lat="44.4667401" lon="11.3007208"><ele>261.0</ele><time>2026-04-30T10:29:49.676Z</time></trkpt><trkpt lat="44.4668059" lon="11.3007829"><ele>261.0</ele><time>2026-04-30T10:29:50.673Z</time></trkpt><trkpt lat="44.4668673" lon="11.3008555"><ele>261.5</ele><time>2026-04-30T10:29:51.687Z</time></trkpt><trkpt lat="44.4669295" lon="11.3009305"><ele>262.0</ele><time>2026-04-30T10:29:52.683Z</time></trkpt><trkpt lat="44.4669887" lon="11.3010143"><ele>262.5</ele><time>2026-04-30T10:29:53.679Z</time></trkpt><trkpt lat="44.4670466" lon="11.3011013"><ele>263.0</ele><time>2026-04-30T10:29:54.688Z</time></trkpt><trkpt lat="44.4671084" lon="11.3011916"><ele>263.5</ele><time>2026-04-30T10:29:55.678Z</time></trkpt><trkpt lat="44.4671694" lon="11.3012829"><ele>264.0</ele><time>2026-04-30T10:29:56.676Z</time></trkpt><trkpt lat="44.467228" lon="11.3013788"><ele>260.8</ele><time>2026-04-30T10:29:57.673Z</time></trkpt><trkpt lat="44.4672887" lon="11.3014761"><ele>257.59999999999997</ele><time>2026-04-30T10:29:58.683Z</time></trkpt><trkpt lat="44.4673479" lon="11.301576"><ele>254.4</ele><time>2026-04-30T10:29:59.687Z</time></trkpt><trkpt lat="44.4674062" lon="11.3016748"><ele>251.2</ele><time>2026-04-30T10:30:00.678Z</time></trkpt><trkpt lat="44.4674652" lon="11.3017795"><ele>248.0</ele><time>2026-04-30T10:30:01.676Z</time></trkpt><trkpt lat="44.4675199" lon="11.3018854"><ele>248.0</ele><time>2026-04-30T10:30:02.68Z</time></trkpt><trkpt lat="44.4675711" lon="11.3019975"><ele>248.0</ele><time>2026-04-30T10:30:03.684Z</time></trkpt><trkpt lat="44.4676159" lon="11.3021168"><ele>248.0</ele><time>2026-04-30T10:30:04.679Z</time></trkpt><trkpt lat="44.4676517" lon="11.3022456"><ele>248.0</ele><time>2026-04-30T10:30:05.672Z</time></trkpt><trkpt lat="44.4676862" lon="11.3023718"><ele>248.0</ele><time>2026-04-30T10:30:06.677Z</time></trkpt><trkpt lat="44.4677164" lon="11.3024967"><ele>245.4</ele><time>2026-04-30T10:30:07.681Z</time></trkpt><trkpt lat="44.4677388" lon="11.302627"><ele>242.8</ele><time>2026-04-30T10:30:08.678Z</time></trkpt><trkpt lat="44.4677636" lon="11.3027621"><ele>240.2</ele><time>2026-04-30T10:30:09.684Z</time></trkpt><trkpt lat="44.4677904" lon="11.3028928"><ele>237.6</ele><time>2026-04-30T10:30:10.679Z</time></trkpt><trkpt lat="44.4678212" lon="11.3030201"><ele>235.0</ele><time>2026-04-30T10:30:11.674Z</time></trkpt><trkpt lat="44.4678583" lon="11.3031469"><ele>237.2</ele><time>2026-04-30T10:30:12.67Z</time></trkpt><trkpt lat="44.4679024" lon="11.3032681"><ele>239.4</ele><time>2026-04-30T10:30:13.681Z</time></trkpt><trkpt lat="44.467951" lon="11.3033864"><ele>241.60000000000002</ele><time>2026-04-30T10:30:14.675Z</time></trkpt><trkpt lat="44.4680012" lon="11.3035012"><ele>243.8</ele><time>2026-04-30T10:30:15.684Z</time></trkpt><trkpt lat="44.4680487" lon="11.3036177"><ele>246.0</ele><time>2026-04-30T10:30:16.682Z</time></trkpt><trkpt lat="44.4680947" lon="11.3037368"><ele>246.0</ele><time>2026-04-30T10:30:17.675Z</time></trkpt><trkpt lat="44.4681403" lon="11.3038533"><ele>246.00000000000003</ele><time>2026-04-30T10:30:18.676Z</time></trkpt><trkpt lat="44.4681774" lon="11.3039781"><ele>246.00000000000003</ele><time>2026-04-30T10:30:19.684Z</time></trkpt><trkpt lat="44.4682119" lon="11.3041049"><ele>246.0</ele><time>2026-04-30T10:30:20.682Z</time></trkpt><trkpt lat="44.4682476" lon="11.3042304"><ele>246.0</ele><time>2026-04-30T10:30:21.676Z</time></trkpt><trkpt lat="44.4682821" lon="11.3043505"><ele>243.0</ele><time>2026-04-30T10:30:22.685Z</time></trkpt><trkpt lat="44.4683163" lon="11.3044692"><ele>240.00000000000003</ele><time>2026-04-30T10:30:23.676Z</time></trkpt><trkpt lat="44.4683527" lon="11.3045998"><ele>237.00000000000003</ele><time>2026-04-30T10:30:24.674Z</time></trkpt><trkpt lat="44.4683846" lon="11.3047327"><ele>234.0</ele><time>2026-04-30T10:30:25.682Z</time></trkpt><trkpt lat="44.46842" lon="11.3048618"><ele>231.0</ele><time>2026-04-30T10:30:26.666Z</time></trkpt><trkpt lat="44.4684403" lon="11.3050065"><ele>229.8</ele><time>2026-04-30T10:30:27.677Z</time></trkpt><trkpt lat="44.4684591" lon="11.3051495"><ele>228.60000000000002</ele><time>2026-04-30T10:30:28.682Z</time></trkpt><trkpt lat="44.4684775" lon="11.3052964"><ele>227.4</ele><time>2026-04-30T10:30:29.678Z</time></trkpt><trkpt lat="44.4684962" lon="11.3054373"><ele>226.2</ele><time>2026-04-30T10:30:30.675Z</time></trkpt><trkpt lat="44.4685302" lon="11.3055739"><ele>225.0</ele><time>2026-04-30T10:30:31.684Z</time></trkpt><trkpt lat="44.4685663" lon="11.3056991"><ele>223.8</ele><time>2026-04-30T10:30:32.681Z</time></trkpt><trkpt lat="44.4686373" lon="11.3057959"><ele>222.6</ele><time>2026-04-30T10:30:33.673Z</time></trkpt><trkpt lat="44.4687245" lon="11.3058699"><ele>221.39999999999998</ele><time>2026-04-30T10:30:34.682Z</time></trkpt><trkpt lat="44.4688162" lon="11.3059212"><ele>220.2</ele><time>2026-04-30T10:30:35.682Z</time></trkpt><trkpt lat="44.4689026" lon="11.3059581"><ele>219.0</ele><time>2026-04-30T10:30:36.679Z</time></trkpt><trkpt lat="44.4689856" lon="11.3059878"><ele>219.0</ele><time>2026-04-30T10:30:37.689Z</time></trkpt><trkpt lat="44.4690588" lon="11.3060011"><ele>218.99999999999997</ele><time>2026-04-30T10:30:38.686Z</time></trkpt><trkpt lat="44.4691697" lon="11.3059492"><ele>218.99999999999997</ele><time>2026-04-30T10:30:40.684Z</time></trkpt><trkpt lat="44.4692559" lon="11.3058182"><ele>219.0</ele><time>2026-04-30T10:30:42.684Z</time></trkpt><trkpt lat="44.4692916" lon="11.3057322"><ele>219.0</ele><time>2026-04-30T10:30:43.682Z</time></trkpt><trkpt lat="44.4693258" lon="11.3056399"><ele>220.16666666666666</ele><time>2026-04-30T10:30:44.673Z</time></trkpt><trkpt lat="44.4693619" lon="11.3055457"><ele>221.33333333333331</ele><time>2026-04-30T10:30:45.676Z</time></trkpt><trkpt lat="44.4694011" lon="11.3054468"><ele>222.5</ele><time>2026-04-30T10:30:46.686Z</time></trkpt><trkpt lat="44.4694426" lon="11.3053441"><ele>223.66666666666666</ele><time>2026-04-30T10:30:47.688Z</time></trkpt><trkpt lat="44.4694877" lon="11.3052388"><ele>224.83333333333331</ele><time>2026-04-30T10:30:48.679Z</time></trkpt><trkpt lat="44.4695386" lon="11.3051361"><ele>226.0</ele><time>2026-04-30T10:30:49.678Z</time></trkpt><trkpt lat="44.4695995" lon="11.3050404"><ele>225.20000000000002</ele><time>2026-04-30T10:30:50.679Z</time></trkpt><trkpt lat="44.4696709" lon="11.3049542"><ele>224.40000000000003</ele><time>2026-04-30T10:30:51.675Z</time></trkpt><trkpt lat="44.4697428" lon="11.3048677"><ele>223.6</ele><time>2026-04-30T10:30:52.686Z</time></trkpt><trkpt lat="44.4698221" lon="11.3047783"><ele>222.8</ele><time>2026-04-30T10:30:53.677Z</time></trkpt><trkpt lat="44.469895" lon="11.3046793"><ele>222.0</ele><time>2026-04-30T10:30:54.679Z</time></trkpt><trkpt lat="44.4699673" lon="11.3045785"><ele>222.0</ele><time>2026-04-30T10:30:55.675Z</time></trkpt><trkpt lat="44.4700328" lon="11.3044645"><ele>222.0</ele><time>2026-04-30T10:30:56.687Z</time></trkpt><trkpt lat="44.4700981" lon="11.3043429"><ele>222.0</ele><time>2026-04-30T10:30:57.681Z</time></trkpt><trkpt lat="44.4701634" lon="11.3042228"><ele>222.0</ele><time>2026-04-30T10:30:58.679Z</time></trkpt><trkpt lat="44.470247" lon="11.3041254"><ele>222.0</ele><time>2026-04-30T10:30:59.679Z</time></trkpt><trkpt lat="44.4703395" lon="11.3040629"><ele>222.0</ele><time>2026-04-30T10:31:00.678Z</time></trkpt><trkpt lat="44.4704363" lon="11.3040369"><ele>222.0</ele><time>2026-04-30T10:31:01.672Z</time></trkpt><trkpt lat="44.4705303" lon="11.304016"><ele>222.0</ele><time>2026-04-30T10:31:02.683Z</time></trkpt><trkpt lat="44.4706213" lon="11.3040425"><ele>222.0</ele><time>2026-04-30T10:31:03.679Z</time></trkpt><trkpt lat="44.4707071" lon="11.3041221"><ele>222.0</ele><time>2026-04-30T10:31:04.68Z</time></trkpt><trkpt lat="44.4707825" lon="11.3042318"><ele>219.75</ele><time>2026-04-30T10:31:05.674Z</time></trkpt><trkpt lat="44.4708595" lon="11.3043535"><ele>217.5</ele><time>2026-04-30T10:31:06.67Z</time></trkpt><trkpt lat="44.4709325" lon="11.304472"><ele>215.25</ele><time>2026-04-30T10:31:07.674Z</time></trkpt><trkpt lat="44.4710073" lon="11.3045882"><ele>213.0</ele><time>2026-04-30T10:31:08.684Z</time></trkpt><trkpt lat="44.4710969" lon="11.3046934"><ele>212.0</ele><time>2026-04-30T10:31:09.69Z</time></trkpt><trkpt lat="44.4711875" lon="11.3047981"><ele>211.0</ele><time>2026-04-30T10:31:10.676Z</time></trkpt><trkpt lat="44.4712813" lon="11.3049012"><ele>210.0</ele><time>2026-04-30T10:31:11.684Z</time></trkpt><trkpt lat="44.4713731" lon="11.3050189"><ele>209.0</ele><time>2026-04-30T10:31:12.675Z</time></trkpt><trkpt lat="44.4714467" lon="11.3051501"><ele>209.0</ele><time>2026-04-30T10:31:13.675Z</time></trkpt><trkpt lat="44.4715008" lon="11.3052991"><ele>209.0</ele><time>2026-04-30T10:31:14.679Z</time></trkpt><trkpt lat="44.471537" lon="11.3054558"><ele>209.0</ele><time>2026-04-30T10:31:15.682Z</time></trkpt><trkpt lat="44.471565" lon="11.3056161"><ele>209.0</ele><time>2026-04-30T10:31:16.678Z</time></trkpt><trkpt lat="44.4715974" lon="11.3057723"><ele>204.75</ele><time>2026-04-30T10:31:17.667Z</time></trkpt><trkpt lat="44.4716507" lon="11.3059203"><ele>200.5</ele><time>2026-04-30T10:31:18.68Z</time></trkpt><trkpt lat="44.4717176" lon="11.3060574"><ele>196.25</ele><time>2026-04-30T10:31:19.681Z</time></trkpt><trkpt lat="44.4717898" lon="11.3061895"><ele>192.0</ele><time>2026-04-30T10:31:20.681Z</time></trkpt><trkpt lat="44.4718632" lon="11.3063229"><ele>194.25</ele><time>2026-04-30T10:31:21.674Z</time></trkpt><trkpt lat="44.4719347" lon="11.3064554"><ele>196.5</ele><time>2026-04-30T10:31:22.68Z</time></trkpt><trkpt lat="44.4720046" lon="11.3065916"><ele>198.75</ele><time>2026-04-30T10:31:23.686Z</time></trkpt><trkpt lat="44.4720677" lon="11.3067318"><ele>201.0</ele><time>2026-04-30T10:31:24.68Z</time></trkpt><trkpt lat="44.4721265" lon="11.3068768"><ele>201.0</ele><time>2026-04-30T10:31:25.681Z</time></trkpt><trkpt lat="44.4721809" lon="11.3070286"><ele>201.0</ele><time>2026-04-30T10:31:26.681Z</time></trkpt><trkpt lat="44.4722319" lon="11.3071827"><ele>201.0</ele><time>2026-04-30T10:31:27.669Z</time></trkpt><trkpt lat="44.4722794" lon="11.3073402"><ele>201.0</ele><time>2026-04-30T10:31:28.683Z</time></trkpt><trkpt lat="44.4723234" lon="11.3074999"><ele>198.75</ele><time>2026-04-30T10:31:29.684Z</time></trkpt><trkpt lat="44.4723621" lon="11.3076601"><ele>196.5</ele><time>2026-04-30T10:31:30.684Z</time></trkpt><trkpt lat="44.4724004" lon="11.3078148"><ele>194.25</ele><time>2026-04-30T10:31:31.684Z</time></trkpt><trkpt lat="44.4724323" lon="11.3079707"><ele>192.0</ele><time>2026-04-30T10:31:32.679Z</time></trkpt><trkpt lat="44.4724452" lon="11.3081328"><ele>189.8</ele><time>2026-04-30T10:31:33.676Z</time></trkpt><trkpt lat="44.4724503" lon="11.3082896"><ele>187.6</ele><time>2026-04-30T10:31:34.673Z</time></trkpt><trkpt lat="44.4724495" lon="11.3084412"><ele>185.4</ele><time>2026-04-30T10:31:35.676Z</time></trkpt><trkpt lat="44.4724506" lon="11.3085893"><ele>183.20000000000002</ele><time>2026-04-30T10:31:36.688Z</time></trkpt><trkpt lat="44.4724647" lon="11.3087305"><ele>181.0</ele><time>2026-04-30T10:31:37.686Z</time></trkpt><trkpt lat="44.472492" lon="11.3088679"><ele>179.20000000000002</ele><time>2026-04-30T10:31:38.671Z</time></trkpt><trkpt lat="44.4725338" lon="11.3089951"><ele>177.4</ele><time>2026-04-30T10:31:39.681Z</time></trkpt><trkpt lat="44.4725893" lon="11.3091057"><ele>175.6</ele><time>2026-04-30T10:31:40.676Z</time></trkpt><trkpt lat="44.4726529" lon="11.3091934"><ele>173.8</ele><time>2026-04-30T10:31:41.672Z</time></trkpt><trkpt lat="44.4727287" lon="11.3092512"><ele>172.0</ele><time>2026-04-30T10:31:42.674Z</time></trkpt><trkpt lat="44.4728051" lon="11.3093052"><ele>172.0</ele><time>2026-04-30T10:31:43.676Z</time></trkpt><trkpt lat="44.4728947" lon="11.3093103"><ele>172.0</ele><time>2026-04-30T10:31:44.679Z</time></trkpt><trkpt lat="44.472993" lon="11.3092969"><ele>172.0</ele><time>2026-04-30T10:31:45.679Z</time></trkpt><trkpt lat="44.4730956" lon="11.3092826"><ele>172.0</ele><time>2026-04-30T10:31:46.685Z</time></trkpt><trkpt lat="44.4731995" lon="11.3092926"><ele>172.0</ele><time>2026-04-30T10:31:47.676Z</time></trkpt><trkpt lat="44.4732978" lon="11.3093049"><ele>172.39999999999998</ele><time>2026-04-30T10:31:48.68Z</time></trkpt><trkpt lat="44.4733972" lon="11.3093467"><ele>172.79999999999998</ele><time>2026-04-30T10:31:49.682Z</time></trkpt><trkpt lat="44.4734934" lon="11.3093773"><ele>173.2</ele><time>2026-04-30T10:31:50.67Z</time></trkpt><trkpt lat="44.4735841" lon="11.3094029"><ele>173.6</ele><time>2026-04-30T10:31:51.683Z</time></trkpt><trkpt lat="44.4736803" lon="11.3093719"><ele>174.0</ele><time>2026-04-30T10:31:52.684Z</time></trkpt><trkpt lat="44.4737666" lon="11.3093055"><ele>172.2</ele><time>2026-04-30T10:31:53.678Z</time></trkpt><trkpt lat="44.4738485" lon="11.3092296"><ele>170.39999999999998</ele><time>2026-04-30T10:31:54.696Z</time></trkpt><trkpt lat="44.473928" lon="11.3091537"><ele>168.6</ele><time>2026-04-30T10:31:55.685Z</time></trkpt><trkpt lat="44.4740119" lon="11.3090833"><ele>166.8</ele><time>2026-04-30T10:31:56.67Z</time></trkpt><trkpt lat="44.4741021" lon="11.3090291"><ele>165.0</ele><time>2026-04-30T10:31:57.677Z</time></trkpt><trkpt lat="44.4741946" lon="11.3089905"><ele>165.0</ele><time>2026-04-30T10:31:58.682Z</time></trkpt><trkpt lat="44.474292" lon="11.3089646"><ele>165.0</ele><time>2026-04-30T10:31:59.676Z</time></trkpt><trkpt lat="44.4743912" lon="11.3089557"><ele>165.0</ele><time>2026-04-30T10:32:00.678Z</time></trkpt><trkpt lat="44.4744887" lon="11.3089586"><ele>165.0</ele><time>2026-04-30T10:32:01.685Z</time></trkpt><trkpt lat="44.4745858" lon="11.3089673"><ele>165.0</ele><time>2026-04-30T10:32:02.68Z</time></trkpt><trkpt lat="44.4746828" lon="11.3089765"><ele>164.0</ele><time>2026-04-30T10:32:03.68Z</time></trkpt><trkpt lat="44.4747801" lon="11.3089838"><ele>163.0</ele><time>2026-04-30T10:32:04.679Z</time></trkpt><trkpt lat="44.4748783" lon="11.3089904"><ele>162.0</ele><time>2026-04-30T10:32:05.687Z</time></trkpt><trkpt lat="44.4749771" lon="11.3089947"><ele>161.0</ele><time>2026-04-30T10:32:06.672Z</time></trkpt><trkpt lat="44.4750775" lon="11.3089974"><ele>160.0</ele><time>2026-04-30T10:32:07.678Z</time></trkpt><trkpt lat="44.4751782" lon="11.3090005"><ele>160.0</ele><time>2026-04-30T10:32:08.681Z</time></trkpt><trkpt lat="44.4752803" lon="11.3090028"><ele>160.0</ele><time>2026-04-30T10:32:09.681Z</time></trkpt><trkpt lat="44.4753802" lon="11.3090064"><ele>160.0</ele><time>2026-04-30T10:32:10.677Z</time></trkpt><trkpt lat="44.4754801" lon="11.3090091"><ele>160.0</ele><time>2026-04-30T10:32:11.691Z</time></trkpt><trkpt lat="44.4755808" lon="11.3090096"><ele>160.0</ele><time>2026-04-30T10:32:12.683Z</time></trkpt><trkpt lat="44.4756803" lon="11.309011"><ele>159.6</ele><time>2026-04-30T10:32:13.67Z</time></trkpt><trkpt lat="44.4757783" lon="11.3090078"><ele>159.2</ele><time>2026-04-30T10:32:14.685Z</time></trkpt><trkpt lat="44.4758767" lon="11.3090073"><ele>158.8</ele><time>2026-04-30T10:32:15.677Z</time></trkpt><trkpt lat="44.4759752" lon="11.3090034"><ele>158.4</ele><time>2026-04-30T10:32:16.688Z</time></trkpt><trkpt lat="44.4760722" lon="11.3089988"><ele>158.0</ele><time>2026-04-30T10:32:17.682Z</time></trkpt><trkpt lat="44.4761672" lon="11.3089952"><ele>158.0</ele><time>2026-04-30T10:32:18.673Z</time></trkpt><trkpt lat="44.4762626" lon="11.308986"><ele>158.0</ele><time>2026-04-30T10:32:19.674Z</time></trkpt><trkpt lat="44.47636" lon="11.3089744"><ele>158.0</ele><time>2026-04-30T10:32:20.688Z</time></trkpt><trkpt lat="44.4764563" lon="11.308962"><ele>158.0</ele><time>2026-04-30T10:32:21.676Z</time></trkpt><trkpt lat="44.4765534" lon="11.3089471"><ele>158.0</ele><time>2026-04-30T10:32:22.683Z</time></trkpt><trkpt lat="44.4766466" lon="11.3089341"><ele>158.0</ele><time>2026-04-30T10:32:23.675Z</time></trkpt><trkpt lat="44.4767429" lon="11.3089305"><ele>158.0</ele><time>2026-04-30T10:32:24.687Z</time></trkpt><trkpt lat="44.4768407" lon="11.308944"><ele>158.0</ele><time>2026-04-30T10:32:25.673Z</time></trkpt><trkpt lat="44.476935" lon="11.3089837"><ele>158.0</ele><time>2026-04-30T10:32:26.669Z</time></trkpt><trkpt lat="44.4770146" lon="11.3090556"><ele>158.0</ele><time>2026-04-30T10:32:27.675Z</time></trkpt><trkpt lat="44.4770829" lon="11.3091475"><ele>159.2</ele><time>2026-04-30T10:32:28.676Z</time></trkpt><trkpt lat="44.4771506" lon="11.3092482"><ele>160.4</ele><time>2026-04-30T10:32:29.674Z</time></trkpt><trkpt lat="44.4772176" lon="11.3093523"><ele>161.6</ele><time>2026-04-30T10:32:30.677Z</time></trkpt><trkpt lat="44.4772813" lon="11.3094575"><ele>162.79999999999998</ele><time>2026-04-30T10:32:31.683Z</time></trkpt><trkpt lat="44.4773356" lon="11.3095647"><ele>164.0</ele><time>2026-04-30T10:32:32.682Z</time></trkpt><trkpt lat="44.47738" lon="11.3096765"><ele>162.0</ele><time>2026-04-30T10:32:33.68Z</time></trkpt><trkpt lat="44.4774157" lon="11.3097905"><ele>160.0</ele><time>2026-04-30T10:32:34.678Z</time></trkpt><trkpt lat="44.4774512" lon="11.3099027"><ele>158.0</ele><time>2026-04-30T10:32:35.685Z</time></trkpt><trkpt lat="44.4774915" lon="11.3100137"><ele>156.0</ele><time>2026-04-30T10:32:36.676Z</time></trkpt><trkpt lat="44.4775366" lon="11.3101206"><ele>154.0</ele><time>2026-04-30T10:32:37.675Z</time></trkpt><trkpt lat="44.4775845" lon="11.310228"><ele>152.0</ele><time>2026-04-30T10:32:38.676Z</time></trkpt><trkpt lat="44.4776349" lon="11.3103375"><ele>152.0</ele><time>2026-04-30T10:32:39.679Z</time></trkpt><trkpt lat="44.4776847" lon="11.3104499"><ele>152.0</ele><time>2026-04-30T10:32:40.684Z</time></trkpt><trkpt lat="44.4777329" lon="11.3105657"><ele>152.0</ele><time>2026-04-30T10:32:41.675Z</time></trkpt><trkpt lat="44.4777815" lon="11.3106841"><ele>152.0</ele><time>2026-04-30T10:32:42.689Z</time></trkpt><trkpt lat="44.4778316" lon="11.3108021"><ele>152.0</ele><time>2026-04-30T10:32:43.685Z</time></trkpt><trkpt lat="44.4778827" lon="11.310919"><ele>152.0</ele><time>2026-04-30T10:32:44.665Z</time></trkpt><trkpt lat="44.4779382" lon="11.3110314"><ele>152.0</ele><time>2026-04-30T10:32:45.678Z</time></trkpt><trkpt lat="44.4779937" lon="11.3111413"><ele>152.0</ele><time>2026-04-30T10:32:46.678Z</time></trkpt><trkpt lat="44.4780682" lon="11.3112292"><ele>152.0</ele><time>2026-04-30T10:32:47.684Z</time></trkpt><trkpt lat="44.4781552" lon="11.311286"><ele>152.0</ele><time>2026-04-30T10:32:48.673Z</time></trkpt><trkpt lat="44.4782479" lon="11.3113176"><ele>152.0</ele><time>2026-04-30T10:32:49.676Z</time></trkpt><trkpt lat="44.478342" lon="11.3113427"><ele>152.0</ele><time>2026-04-30T10:32:50.679Z</time></trkpt><trkpt lat="44.4784351" lon="11.3113658"><ele>152.0</ele><time>2026-04-30T10:32:51.682Z</time></trkpt><trkpt lat="44.4785301" lon="11.3113857"><ele>152.0</ele><time>2026-04-30T10:32:52.69Z</time></trkpt><trkpt lat="44.4786226" lon="11.3113942"><ele>152.0</ele><time>2026-04-30T10:32:53.679Z</time></trkpt><trkpt lat="44.4787184" lon="11.3114038"><ele>150.2</ele><time>2026-04-30T10:32:54.684Z</time></trkpt><trkpt lat="44.4788095" lon="11.3114174"><ele>148.39999999999998</ele><time>2026-04-30T10:32:55.674Z</time></trkpt><trkpt lat="44.4788997" lon="11.3114402"><ele>146.60000000000002</ele><time>2026-04-30T10:32:56.677Z</time></trkpt><trkpt lat="44.4789899" lon="11.3114657"><ele>144.8</ele><time>2026-04-30T10:32:57.677Z</time></trkpt><trkpt lat="44.4790763" lon="11.3115146"><ele>143.0</ele><time>2026-04-30T10:32:58.675Z</time></trkpt><trkpt lat="44.4791648" lon="11.3115636"><ele>143.0</ele><time>2026-04-30T10:32:59.676Z</time></trkpt><trkpt lat="44.4792548" lon="11.3116109"><ele>143.0</ele><time>2026-04-30T10:33:00.683Z</time></trkpt><trkpt lat="44.4793444" lon="11.3116597"><ele>143.0</ele><time>2026-04-30T10:33:01.676Z</time></trkpt><trkpt lat="44.4794308" lon="11.311711"><ele>143.0</ele><time>2026-04-30T10:33:02.679Z</time></trkpt><trkpt lat="44.4795224" lon="11.311753"><ele>143.0</ele><time>2026-04-30T10:33:03.676Z</time></trkpt><trkpt lat="44.4796139" lon="11.3117962"><ele>142.6</ele><time>2026-04-30T10:33:04.682Z</time></trkpt><trkpt lat="44.479705" lon="11.3118345"><ele>142.20000000000002</ele><time>2026-04-30T10:33:05.687Z</time></trkpt><trkpt lat="44.4797957" lon="11.3118741"><ele>141.8</ele><time>2026-04-30T10:33:06.681Z</time></trkpt><trkpt lat="44.4798899" lon="11.3119079"><ele>141.4</ele><time>2026-04-30T10:33:07.664Z</time></trkpt><trkpt lat="44.479988" lon="11.3119324"><ele>141.0</ele><time>2026-04-30T10:33:08.676Z</time></trkpt><trkpt lat="44.4800867" lon="11.3119566"><ele>141.0</ele><time>2026-04-30T10:33:09.682Z</time></trkpt><trkpt lat="44.4801804" lon="11.3119792"><ele>141.0</ele><time>2026-04-30T10:33:10.668Z</time></trkpt><trkpt lat="44.4802753" lon="11.312002"><ele>141.0</ele><time>2026-04-30T10:33:11.679Z</time></trkpt><trkpt lat="44.4803714" lon="11.3120316"><ele>141.0</ele><time>2026-04-30T10:33:12.683Z</time></trkpt><trkpt lat="44.4804655" lon="11.3120651"><ele>141.0</ele><time>2026-04-30T10:33:13.683Z</time></trkpt><trkpt lat="44.4805573" lon="11.3121021"><ele>141.4</ele><time>2026-04-30T10:33:14.683Z</time></trkpt><trkpt lat="44.4806478" lon="11.3121405"><ele>141.8</ele><time>2026-04-30T10:33:15.676Z</time></trkpt><trkpt lat="44.4807387" lon="11.3121769"><ele>142.20000000000002</ele><time>2026-04-30T10:33:16.682Z</time></trkpt><trkpt lat="44.480832" lon="11.3122144"><ele>142.6</ele><time>2026-04-30T10:33:17.681Z</time></trkpt><trkpt lat="44.4809237" lon="11.3122532"><ele>143.0</ele><time>2026-04-30T10:33:18.676Z</time></trkpt><trkpt lat="44.4810148" lon="11.31229"><ele>139.8</ele><time>2026-04-30T10:33:19.677Z</time></trkpt><trkpt lat="44.4811074" lon="11.3123271"><ele>136.60000000000002</ele><time>2026-04-30T10:33:20.684Z</time></trkpt><trkpt lat="44.4812016" lon="11.3123637"><ele>133.39999999999998</ele><time>2026-04-30T10:33:21.682Z</time></trkpt><trkpt lat="44.4812978" lon="11.3123953"><ele>130.2</ele><time>2026-04-30T10:33:22.678Z</time></trkpt><trkpt lat="44.4813931" lon="11.3124244"><ele>127.0</ele><time>2026-04-30T10:33:23.683Z</time></trkpt><trkpt lat="44.48149" lon="11.3124455"><ele>127.0</ele><time>2026-04-30T10:33:24.672Z</time></trkpt><trkpt lat="44.4815902" lon="11.3124616"><ele>126.99999999999999</ele><time>2026-04-30T10:33:25.679Z</time></trkpt><trkpt lat="44.4816914" lon="11.3124808"><ele>126.99999999999999</ele><time>2026-04-30T10:33:26.669Z</time></trkpt><trkpt lat="44.481795" lon="11.312513"><ele>127.0</ele><time>2026-04-30T10:33:27.679Z</time></trkpt><trkpt lat="44.4818992" lon="11.3125459"><ele>127.0</ele><time>2026-04-30T10:33:28.678Z</time></trkpt><trkpt lat="44.481998" lon="11.3126071"><ele>127.0</ele><time>2026-04-30T10:33:29.676Z</time></trkpt><trkpt lat="44.482096" lon="11.3126793"><ele>126.99999999999999</ele><time>2026-04-30T10:33:30.68Z</time></trkpt><trkpt lat="44.4821901" lon="11.3127556"><ele>126.99999999999999</ele><time>2026-04-30T10:33:31.683Z</time></trkpt><trkpt lat="44.4822867" lon="11.3128226"><ele>127.0</ele><time>2026-04-30T10:33:32.682Z</time></trkpt><trkpt lat="44.482389" lon="11.312874"><ele>127.0</ele><time>2026-04-30T10:33:33.676Z</time></trkpt><trkpt lat="44.4824927" lon="11.3129084"><ele>127.0</ele><time>2026-04-30T10:33:34.681Z</time></trkpt><trkpt lat="44.4825976" lon="11.3129262"><ele>126.99999999999999</ele><time>2026-04-30T10:33:35.67Z</time></trkpt><trkpt lat="44.4827008" lon="11.3129208"><ele>126.99999999999999</ele><time>2026-04-30T10:33:36.686Z</time></trkpt><trkpt lat="44.4828009" lon="11.3128913"><ele>127.0</ele><time>2026-04-30T10:33:37.682Z</time></trkpt><trkpt lat="44.4828996" lon="11.3128512"><ele>127.0</ele><time>2026-04-30T10:33:38.672Z</time></trkpt><trkpt lat="44.4829975" lon="11.3128115"><ele>126.6</ele><time>2026-04-30T10:33:39.673Z</time></trkpt><trkpt lat="44.4831022" lon="11.3127775"><ele>126.19999999999999</ele><time>2026-04-30T10:33:40.685Z</time></trkpt><trkpt lat="44.4832018" lon="11.3127489"><ele>125.8</ele><time>2026-04-30T10:33:41.678Z</time></trkpt><trkpt lat="44.4833051" lon="11.3127559"><ele>125.4</ele><time>2026-04-30T10:33:42.684Z</time></trkpt><trkpt lat="44.4834063" lon="11.3127673"><ele>125.0</ele><time>2026-04-30T10:33:43.679Z</time></trkpt><trkpt lat="44.4835011" lon="11.312817"><ele>125.0</ele><time>2026-04-30T10:33:44.687Z</time></trkpt><trkpt lat="44.4835975" lon="11.3128663"><ele>125.0</ele><time>2026-04-30T10:33:45.687Z</time></trkpt><trkpt lat="44.4836909" lon="11.3129158"><ele>125.0</ele><time>2026-04-30T10:33:46.674Z</time></trkpt><trkpt lat="44.4837852" lon="11.3129641"><ele>125.0</ele><time>2026-04-30T10:33:47.683Z</time></trkpt><trkpt lat="44.4838825" lon="11.313012"><ele>125.0</ele><time>2026-04-30T10:33:48.685Z</time></trkpt><trkpt lat="44.4839815" lon="11.3130475"><ele>121.4</ele><time>2026-04-30T10:33:49.679Z</time></trkpt><trkpt lat="44.4840844" lon="11.3130835"><ele>117.8</ele><time>2026-04-30T10:33:50.679Z</time></trkpt><trkpt lat="44.4841873" lon="11.3131112"><ele>114.19999999999999</ele><time>2026-04-30T10:33:51.674Z</time></trkpt><trkpt lat="44.4842942" lon="11.3131398"><ele>110.6</ele><time>2026-04-30T10:33:52.68Z</time></trkpt><trkpt lat="44.4844001" lon="11.3131593"><ele>107.0</ele><time>2026-04-30T10:33:53.679Z</time></trkpt><trkpt lat="44.4845075" lon="11.3131743"><ele>106.6</ele><time>2026-04-30T10:33:54.683Z</time></trkpt><trkpt lat="44.4846139" lon="11.313178"><ele>106.19999999999999</ele><time>2026-04-30T10:33:55.676Z</time></trkpt><trkpt lat="44.4847233" lon="11.3131656"><ele>105.8</ele><time>2026-04-30T10:33:56.683Z</time></trkpt><trkpt lat="44.4848322" lon="11.3131378"><ele>105.4</ele><time>2026-04-30T10:33:57.679Z</time></trkpt><trkpt lat="44.4849403" lon="11.3130953"><ele>105.0</ele><time>2026-04-30T10:33:58.692Z</time></trkpt><trkpt lat="44.4850502" lon="11.3130578"><ele>105.25</ele><time>2026-04-30T10:33:59.686Z</time></trkpt><trkpt lat="44.4851615" lon="11.313044"><ele>105.5</ele><time>2026-04-30T10:34:00.689Z</time></trkpt><trkpt lat="44.4852749" lon="11.3130456"><ele>105.75</ele><time>2026-04-30T10:34:01.678Z</time></trkpt><trkpt lat="44.4853889" lon="11.3130605"><ele>106.0</ele><time>2026-04-30T10:34:02.678Z</time></trkpt><trkpt lat="44.4854995" lon="11.3130907"><ele>106.0</ele><time>2026-04-30T10:34:03.686Z</time></trkpt><trkpt lat="44.485609" lon="11.313131"><ele>106.0</ele><time>2026-04-30T10:34:04.671Z</time></trkpt><trkpt lat="44.485717" lon="11.313179"><ele>106.0</ele><time>2026-04-30T10:34:05.683Z</time></trkpt><trkpt lat="44.4858211" lon="11.3132255"><ele>106.0</ele><time>2026-04-30T10:34:06.689Z</time></trkpt><trkpt lat="44.485914" lon="11.3132676"><ele>106.0</ele><time>2026-04-30T10:34:07.685Z</time></trkpt><trkpt lat="44.4859864" lon="11.3133121"><ele>106.00000000000001</ele><time>2026-04-30T10:34:08.678Z</time></trkpt><trkpt lat="44.4860449" lon="11.313356"><ele>106.0</ele><time>2026-04-30T10:34:09.681Z</time></trkpt><trkpt lat="44.4860908" lon="11.3134833"><ele>106.0</ele><time>2026-04-30T10:34:11.689Z</time></trkpt><trkpt lat="44.4859912" lon="11.3135712"><ele>106.0</ele><time>2026-04-30T10:34:13.677Z</time></trkpt><trkpt lat="44.4859254" lon="11.3135835"><ele>106.00000000000001</ele><time>2026-04-30T10:34:14.674Z</time></trkpt><trkpt lat="44.485858" lon="11.3135926"><ele>106.0</ele><time>2026-04-30T10:34:15.676Z</time></trkpt><trkpt lat="44.4857889" lon="11.3136072"><ele>106.00000000000001</ele><time>2026-04-30T10:34:16.691Z</time></trkpt><trkpt lat="44.4857198" lon="11.3136277"><ele>106.0</ele><time>2026-04-30T10:34:17.678Z</time></trkpt><trkpt lat="44.4856494" lon="11.3136485"><ele>106.0</ele><time>2026-04-30T10:34:18.672Z</time></trkpt><trkpt lat="44.485576" lon="11.3136721"><ele>106.0</ele><time>2026-04-30T10:34:19.673Z</time></trkpt><trkpt lat="44.4855037" lon="11.3137157"><ele>106.00000000000001</ele><time>2026-04-30T10:34:20.677Z</time></trkpt><trkpt lat="44.4854346" lon="11.3137661"><ele>106.0</ele><time>2026-04-30T10:34:21.669Z</time></trkpt><trkpt lat="44.4853654" lon="11.3138227"><ele>105.83333333333334</ele><time>2026-04-30T10:34:22.677Z</time></trkpt><trkpt lat="44.485293" lon="11.3138852"><ele>105.66666666666667</ele><time>2026-04-30T10:34:23.688Z</time></trkpt><trkpt lat="44.4852177" lon="11.3139442"><ele>105.5</ele><time>2026-04-30T10:34:24.681Z</time></trkpt><trkpt lat="44.4851373" lon="11.3139934"><ele>105.33333333333334</ele><time>2026-04-30T10:34:25.668Z</time></trkpt><trkpt lat="44.4850544" lon="11.3140371"><ele>105.16666666666667</ele><time>2026-04-30T10:34:26.681Z</time></trkpt><trkpt lat="44.4849664" lon="11.314069"><ele>105.0</ele><time>2026-04-30T10:34:27.688Z</time></trkpt><trkpt lat="44.4848776" lon="11.3140974"><ele>103.0</ele><time>2026-04-30T10:34:28.683Z</time></trkpt><trkpt lat="44.4847865" lon="11.3141185"><ele>101.0</ele><time>2026-04-30T10:34:29.683Z</time></trkpt><trkpt lat="44.484696" lon="11.314123"><ele>99.0</ele><time>2026-04-30T10:34:30.683Z</time></trkpt><trkpt lat="44.4846179" lon="11.3141256"><ele>97.0</ele><time>2026-04-30T10:34:31.686Z</time></trkpt><trkpt lat="44.4845511" lon="11.3141364"><ele>95.0</ele><time>2026-04-30T10:34:32.688Z</time></trkpt><trkpt lat="44.4844898" lon="11.3142449"><ele>93.0</ele><time>2026-04-30T10:34:34.676Z</time></trkpt><trkpt lat="44.4845674" lon="11.3143435"><ele>93.00000000000001</ele><time>2026-04-30T10:34:36.677Z</time></trkpt><trkpt lat="44.4846306" lon="11.3143591"><ele>93.0</ele><time>2026-04-30T10:34:37.68Z</time></trkpt><trkpt lat="44.4846987" lon="11.3143731"><ele>93.0</ele><time>2026-04-30T10:34:38.685Z</time></trkpt><trkpt lat="44.4847673" lon="11.3143885"><ele>93.0</ele><time>2026-04-30T10:34:39.682Z</time></trkpt><trkpt lat="44.4848415" lon="11.3143998"><ele>93.0</ele><time>2026-04-30T10:34:40.682Z</time></trkpt><trkpt lat="44.4849191" lon="11.3144156"><ele>93.00000000000001</ele><time>2026-04-30T10:34:41.678Z</time></trkpt><trkpt lat="44.4849986" lon="11.3144305"><ele>93.0</ele><time>2026-04-30T10:34:42.683Z</time></trkpt><trkpt lat="44.4850777" lon="11.3144466"><ele>93.0</ele><time>2026-04-30T10:34:43.676Z</time></trkpt><trkpt lat="44.4851574" lon="11.3144676"><ele>93.0</ele><time>2026-04-30T10:34:44.684Z</time></trkpt><trkpt lat="44.4852389" lon="11.3144926"><ele>93.0</ele><time>2026-04-30T10:34:45.682Z</time></trkpt><trkpt lat="44.4853223" lon="11.3145195"><ele>93.0</ele><time>2026-04-30T10:34:46.674Z</time></trkpt><trkpt lat="44.4854071" lon="11.3145488"><ele>93.0</ele><time>2026-04-30T10:34:47.681Z</time></trkpt><trkpt lat="44.4854908" lon="11.3145778"><ele>93.0</ele><time>2026-04-30T10:34:48.677Z</time></trkpt><trkpt lat="44.4855745" lon="11.3146114"><ele>93.0</ele><time>2026-04-30T10:34:49.674Z</time></trkpt><trkpt lat="44.4856565" lon="11.314645"><ele>93.0</ele><time>2026-04-30T10:34:50.675Z</time></trkpt><trkpt lat="44.4857409" lon="11.3146856"><ele>93.0</ele><time>2026-04-30T10:34:51.669Z</time></trkpt><trkpt lat="44.485823" lon="11.314726"><ele>93.0</ele><time>2026-04-30T10:34:52.677Z</time></trkpt><trkpt lat="44.4859022" lon="11.3147701"><ele>93.0</ele><time>2026-04-30T10:34:53.682Z</time></trkpt><trkpt lat="44.4859758" lon="11.3148046"><ele>93.0</ele><time>2026-04-30T10:34:54.689Z</time></trkpt><trkpt lat="44.4860522" lon="11.3148337"><ele>91.16666666666667</ele><time>2026-04-30T10:34:55.685Z</time></trkpt><trkpt lat="44.4861265" lon="11.3148638"><ele>89.33333333333333</ele><time>2026-04-30T10:34:56.675Z</time></trkpt><trkpt lat="44.4861902" lon="11.3148884"><ele>87.5</ele><time>2026-04-30T10:34:57.675Z</time></trkpt><trkpt lat="44.4862903" lon="11.3149364"><ele>85.66666666666666</ele><time>2026-04-30T10:34:59.678Z</time></trkpt><trkpt lat="44.4863244" lon="11.3150152"><ele>83.83333333333333</ele><time>2026-04-30T10:35:01.68Z</time></trkpt><trkpt lat="44.4862626" lon="11.3150633"><ele>82.0</ele><time>2026-04-30T10:35:03.671Z</time></trkpt><trkpt lat="44.4861812" lon="11.3150462"><ele>82.0</ele><time>2026-04-30T10:35:05.681Z</time></trkpt><trkpt lat="44.4860972" lon="11.3150361"><ele>82.0</ele><time>2026-04-30T10:35:07.678Z</time></trkpt><trkpt lat="44.4860113" lon="11.3150285"><ele>82.0</ele><time>2026-04-30T10:35:09.67Z</time></trkpt><trkpt lat="44.4859236" lon="11.3150169"><ele>82.0</ele><time>2026-04-30T10:35:11.661Z</time></trkpt><trkpt lat="44.4858387" lon="11.3150116"><ele>82.0</ele><time>2026-04-30T10:35:13.681Z</time></trkpt><trkpt lat="44.4857538" lon="11.3150034"><ele>82.0</ele><time>2026-04-30T10:35:15.685Z</time></trkpt><trkpt lat="44.4856612" lon="11.3150056"><ele>82.0</ele><time>2026-04-30T10:35:17.681Z</time></trkpt><trkpt lat="44.4855688" lon="11.3150152"><ele>82.0</ele><time>2026-04-30T10:35:19.678Z</time></trkpt><trkpt lat="44.4854875" lon="11.3150083"><ele>82.0</ele><time>2026-04-30T10:35:21.687Z</time></trkpt><trkpt lat="44.4853845" lon="11.3149969"><ele>82.0</ele><time>2026-04-30T10:35:23.674Z</time></trkpt><trkpt lat="44.4852732" lon="11.3150051"><ele>82.0</ele><time>2026-04-30T10:35:25.682Z</time></trkpt><trkpt lat="44.4851695" lon="11.3150208"><ele>82.0</ele><time>2026-04-30T10:35:27.685Z</time></trkpt><trkpt lat="44.4850664" lon="11.3150202"><ele>82.0</ele><time>2026-04-30T10:35:29.683Z</time></trkpt><trkpt lat="44.4849605" lon="11.3150178"><ele>82.0</ele><time>2026-04-30T10:35:31.689Z</time></trkpt><trkpt lat="44.4848597" lon="11.3150158"><ele>82.0</ele><time>2026-04-30T10:35:33.683Z</time></trkpt><trkpt lat="44.484755" lon="11.3150153"><ele>82.0</ele><time>2026-04-30T10:35:35.681Z</time></trkpt><trkpt lat="44.4846555" lon="11.3150189"><ele>82.39999999999999</ele><time>2026-04-30T10:35:37.684Z</time></trkpt><trkpt lat="44.4845572" lon="11.3150202"><ele>82.8</ele><time>2026-04-30T10:35:39.674Z</time></trkpt><trkpt lat="44.4844564" lon="11.3150182"><ele>83.2</ele><time>2026-04-30T10:35:41.674Z</time></trkpt><trkpt lat="44.4843571" lon="11.3150257"><ele>83.6</ele><time>2026-04-30T10:35:43.681Z</time></trkpt><trkpt lat="44.4842506" lon="11.3150427"><ele>84.0</ele><time>2026-04-30T10:35:45.686Z</time></trkpt><trkpt lat="44.4841297" lon="11.3150651"><ele>84.0</ele><time>2026-04-30T10:35:47.681Z</time></trkpt><trkpt lat="44.4840653" lon="11.3150733"><ele>84.0</ele><time>2026-04-30T10:35:48.67Z</time></trkpt><trkpt lat="44.4839983" lon="11.3150553"><ele>84.0</ele><time>2026-04-30T10:35:49.677Z</time></trkpt><trkpt lat="44.4839318" lon="11.3150254"><ele>84.0</ele><time>2026-04-30T10:35:50.681Z</time></trkpt><trkpt lat="44.4838667" lon="11.3149837"><ele>84.0</ele><time>2026-04-30T10:35:51.679Z</time></trkpt><trkpt lat="44.4838034" lon="11.3149428"><ele>84.0</ele><time>2026-04-30T10:35:52.673Z</time></trkpt><trkpt lat="44.4837416" lon="11.314891"><ele>84.0</ele><time>2026-04-30T10:35:53.68Z</time></trkpt><trkpt lat="44.4836817" lon="11.3148401"><ele>83.66666666666667</ele><time>2026-04-30T10:35:54.678Z</time></trkpt><trkpt lat="44.4836248" lon="11.3147863"><ele>83.33333333333333</ele><time>2026-04-30T10:35:55.676Z</time></trkpt><trkpt lat="44.4835715" lon="11.3147347"><ele>83.0</ele><time>2026-04-30T10:35:56.683Z</time></trkpt><trkpt lat="44.4835194" lon="11.3146798"><ele>82.66666666666666</ele><time>2026-04-30T10:35:57.682Z</time></trkpt><trkpt lat="44.4834254" lon="11.3145796"><ele>82.33333333333333</ele><time>2026-04-30T10:35:59.681Z</time></trkpt><trkpt lat="44.48333" lon="11.3145791"><ele>82.0</ele><time>2026-04-30T10:36:01.688Z</time></trkpt><trkpt lat="44.4832767" lon="11.3147147"><ele>82.0</ele><time>2026-04-30T10:36:03.682Z</time></trkpt><trkpt lat="44.483237" lon="11.3148674"><ele>82.0</ele><time>2026-04-30T10:36:05.682Z</time></trkpt><trkpt lat="44.4831916" lon="11.3150023"><ele>82.0</ele><time>2026-04-30T10:36:07.684Z</time></trkpt><trkpt lat="44.4831553" lon="11.3151376"><ele>82.0</ele><time>2026-04-30T10:36:09.684Z</time></trkpt><trkpt lat="44.4831311" lon="11.3152619"><ele>82.0</ele><time>2026-04-30T10:36:11.676Z</time></trkpt><trkpt lat="44.483143" lon="11.3153685"><ele>82.0</ele><time>2026-04-30T10:36:14.67Z</time></trkpt><trkpt lat="44.4832075" lon="11.3154066"><ele>82.0</ele><time>2026-04-30T10:36:16.674Z</time></trkpt><trkpt lat="44.4832753" lon="11.3154604"><ele>82.0</ele><time>2026-04-30T10:36:18.669Z</time></trkpt><trkpt lat="44.4833376" lon="11.3155435"><ele>82.0</ele><time>2026-04-30T10:36:20.683Z</time></trkpt><trkpt lat="44.4833994" lon="11.315619"><ele>82.0</ele><time>2026-04-30T10:36:22.676Z</time></trkpt><trkpt lat="44.4834613" lon="11.3156917"><ele>82.0</ele><time>2026-04-30T10:36:24.67Z</time></trkpt><trkpt lat="44.4835189" lon="11.3157637"><ele>82.0</ele><time>2026-04-30T10:36:26.669Z</time></trkpt><trkpt lat="44.4835731" lon="11.3158338"><ele>82.0</ele><time>2026-04-30T10:36:28.679Z</time></trkpt><trkpt lat="44.4836248" lon="11.3159062"><ele>82.0</ele><time>2026-04-30T10:36:30.685Z</time></trkpt><trkpt lat="44.4836698" lon="11.3159707"><ele>82.0</ele><time>2026-04-30T10:36:32.675Z</time></trkpt><trkpt lat="44.4837294" lon="11.3160677"><ele>82.0</ele><time>2026-04-30T10:36:35.676Z</time></trkpt><trkpt lat="44.483758" lon="11.3161866"><ele>82.0</ele><time>2026-04-30T10:36:38.679Z</time></trkpt><trkpt lat="44.483773" lon="11.3163064"><ele>81.99999999999999</ele><time>2026-04-30T10:36:41.683Z</time></trkpt><trkpt lat="44.4837716" lon="11.3164089"><ele>82.0</ele><time>2026-04-30T10:36:44.683Z</time></trkpt><trkpt lat="44.4838168" lon="11.3164801"><ele>82.0</ele><time>2026-04-30T10:38:09.678Z</time></trkpt><trkpt lat="44.4837418" lon="11.3164569"><ele>82.0</ele><time>2026-04-30T10:39:09.677Z</time></trkpt><trkpt lat="44.483678" lon="11.3164776"><ele>82.0</ele><time>2026-04-30T10:39:13.678Z</time></trkpt><trkpt lat="44.4836088" lon="11.3164556"><ele>81.99999999999999</ele><time>2026-04-30T10:39:17.681Z</time></trkpt><trkpt lat="44.4835437" lon="11.316408"><ele>82.0</ele><time>2026-04-30T10:39:20.674Z</time></trkpt><trkpt lat="44.4834854" lon="11.3163644"><ele>82.0</ele><time>2026-04-30T10:39:23.675Z</time></trkpt><trkpt lat="44.4834136" lon="11.3163246"><ele>82.0</ele><time>2026-04-30T10:39:28.677Z</time></trkpt><trkpt lat="44.4833818" lon="11.3164274"><ele>82.0</ele><time>2026-04-30T10:39:34.677Z</time></trkpt><trkpt lat="44.4834041" lon="11.3165249"><ele>82.0</ele><time>2026-04-30T10:39:37.679Z</time></trkpt><trkpt lat="44.4834139" lon="11.3166218"><ele>82.0</ele><time>2026-04-30T10:39:41.671Z</time></trkpt><trkpt lat="44.4834006" lon="11.3167378"><ele>82.0</ele><time>2026-04-30T10:39:45.668Z</time></trkpt><trkpt lat="44.4833913" lon="11.3168314"><ele>83.16666666666666</ele><time>2026-04-30T10:39:48.673Z</time></trkpt><trkpt lat="44.4833653" lon="11.3169347"><ele>84.33333333333333</ele><time>2026-04-30T10:39:51.667Z</time></trkpt><trkpt lat="44.4833378" lon="11.3170742"><ele>85.5</ele><time>2026-04-30T10:40:00.673Z</time></trkpt><trkpt lat="44.4832752" lon="11.3170287"><ele>86.66666666666667</ele><time>2026-04-30T10:40:03.667Z</time></trkpt><trkpt lat="44.4832176" lon="11.3169369"><ele>87.83333333333334</ele><time>2026-04-30T10:40:06.689Z</time></trkpt><trkpt lat="44.4831749" lon="11.3168453"><ele>89.0</ele><time>2026-04-30T10:40:09.688Z</time></trkpt><trkpt lat="44.4831377" lon="11.316771"><ele>89.0</ele><time>2026-04-30T10:40:11.673Z</time></trkpt><trkpt lat="44.4830945" lon="11.3166805"><ele>89.0</ele><time>2026-04-30T10:40:14.682Z</time></trkpt><trkpt lat="44.4830345" lon="11.316623"><ele>89.0</ele><time>2026-04-30T10:40:17.685Z</time></trkpt><trkpt lat="44.4830615" lon="11.3167115"><ele>89.0</ele><time>2026-04-30T10:40:27.684Z</time></trkpt><trkpt lat="44.4830812" lon="11.3168117"><ele>89.0</ele><time>2026-04-30T10:40:31.675Z</time></trkpt><trkpt lat="44.483095" lon="11.316924"><ele>89.0</ele><time>2026-04-30T10:40:35.676Z</time></trkpt><trkpt lat="44.4830506" lon="11.3170312"><ele>89.0</ele><time>2026-04-30T10:40:46.681Z</time></trkpt><trkpt lat="44.4830067" lon="11.3169362"><ele>89.0</ele><time>2026-04-30T10:40:49.676Z</time></trkpt><trkpt lat="44.4829423" lon="11.3168612"><ele>89.0</ele><time>2026-04-30T10:40:52.675Z</time></trkpt><trkpt lat="44.482876" lon="11.3168355"><ele>89.0</ele><time>2026-04-30T10:40:55.678Z</time></trkpt><trkpt lat="44.4828387" lon="11.3169125"><ele>89.0</ele><time>2026-04-30T10:41:05.677Z</time></trkpt><trkpt lat="44.4828212" lon="11.3170135"><ele>89.0</ele><time>2026-04-30T10:41:09.674Z</time></trkpt><trkpt lat="44.4828162" lon="11.3171268"><ele>91.16666666666667</ele><time>2026-04-30T10:41:12.673Z</time></trkpt><trkpt lat="44.4828072" lon="11.3172216"><ele>93.33333333333334</ele><time>2026-04-30T10:41:15.687Z</time></trkpt><trkpt lat="44.4827982" lon="11.317331"><ele>95.5</ele><time>2026-04-30T10:41:19.673Z</time></trkpt><trkpt lat="44.4827653" lon="11.3174346"><ele>97.66666666666667</ele><time>2026-04-30T10:41:22.676Z</time></trkpt><trkpt lat="44.4827136" lon="11.3174939"><ele>99.83333333333333</ele><time>2026-04-30T10:41:27.678Z</time></trkpt><trkpt lat="44.482645" lon="11.3174247"><ele>102.0</ele><time>2026-04-30T10:41:32.685Z</time></trkpt><trkpt lat="44.4826104" lon="11.3173278"><ele>102.0</ele><time>2026-04-30T10:41:36.674Z</time></trkpt><trkpt lat="44.4825774" lon="11.3172365"><ele>102.0</ele><time>2026-04-30T10:41:39.694Z</time></trkpt><trkpt lat="44.4825427" lon="11.3171391"><ele>102.0</ele><time>2026-04-30T10:41:42.688Z</time></trkpt><trkpt lat="44.4825076" lon="11.3170527"><ele>102.0</ele><time>2026-04-30T10:41:45.68Z</time></trkpt><trkpt lat="44.4824541" lon="11.3169814"><ele>102.0</ele><time>2026-04-30T10:41:50.669Z</time></trkpt><trkpt lat="44.4823861" lon="11.3169344"><ele>102.0</ele><time>2026-04-30T10:41:55.68Z</time></trkpt><trkpt lat="44.482324" lon="11.3168897"><ele>102.0</ele><time>2026-04-30T10:41:59.678Z</time></trkpt><trkpt lat="44.4822474" lon="11.3168486"><ele>102.0</ele><time>2026-04-30T10:42:03.676Z</time></trkpt><trkpt lat="44.4821785" lon="11.3168116"><ele>102.0</ele><time>2026-04-30T10:42:07.667Z</time></trkpt><trkpt lat="44.4821181" lon="11.316759"><ele>102.0</ele><time>2026-04-30T10:42:12.674Z</time></trkpt><trkpt lat="44.4820398" lon="11.3167243"><ele>102.0</ele><time>2026-04-30T10:42:16.682Z</time></trkpt><trkpt lat="44.4819744" lon="11.3166996"><ele>102.0</ele><time>2026-04-30T10:42:19.678Z</time></trkpt><trkpt lat="44.4819165" lon="11.3166634"><ele>102.0</ele><time>2026-04-30T10:42:22.674Z</time></trkpt><trkpt lat="44.4818619" lon="11.3166176"><ele>102.0</ele><time>2026-04-30T10:42:25.676Z</time></trkpt><trkpt lat="44.4817834" lon="11.3165824"><ele>104.57142857142857</ele><time>2026-04-30T10:42:29.69Z</time></trkpt><trkpt lat="44.4817112" lon="11.3165578"><ele>107.14285714285714</ele><time>2026-04-30T10:42:32.678Z</time></trkpt><trkpt lat="44.4816375" lon="11.3165423"><ele>109.71428571428572</ele><time>2026-04-30T10:42:35.677Z</time></trkpt><trkpt lat="44.4815527" lon="11.3165273"><ele>112.28571428571428</ele><time>2026-04-30T10:42:38.679Z</time></trkpt><trkpt lat="44.4814822" lon="11.3165198"><ele>114.85714285714285</ele><time>2026-04-30T10:42:41.685Z</time></trkpt><trkpt lat="44.4814042" lon="11.3165145"><ele>117.42857142857143</ele><time>2026-04-30T10:42:44.679Z</time></trkpt><trkpt lat="44.4813391" lon="11.3164968"><ele>120.0</ele><time>2026-04-30T10:42:47.685Z</time></trkpt><trkpt lat="44.4812683" lon="11.3164601"><ele>119.42857142857143</ele><time>2026-04-30T10:42:50.683Z</time></trkpt><trkpt lat="44.4812028" lon="11.316418"><ele>118.85714285714286</ele><time>2026-04-30T10:42:53.684Z</time></trkpt><trkpt lat="44.4811432" lon="11.316374"><ele>118.28571428571429</ele><time>2026-04-30T10:42:56.668Z</time></trkpt><trkpt lat="44.4810851" lon="11.316334"><ele>117.71428571428572</ele><time>2026-04-30T10:42:59.677Z</time></trkpt><trkpt lat="44.48101" lon="11.3162895"><ele>117.14285714285714</ele><time>2026-04-30T10:43:03.676Z</time></trkpt><trkpt lat="44.4809434" lon="11.3162426"><ele>116.57142857142858</ele><time>2026-04-30T10:43:07.672Z</time></trkpt><trkpt lat="44.4808736" lon="11.3161996"><ele>116.00000000000001</ele><time>2026-04-30T10:43:11.677Z</time></trkpt><trkpt lat="44.4808068" lon="11.3161444"><ele>115.99999999999999</ele><time>2026-04-30T10:43:15.674Z</time></trkpt><trkpt lat="44.4807383" lon="11.3160857"><ele>116.0</ele><time>2026-04-30T10:43:19.674Z</time></trkpt><trkpt lat="44.48067" lon="11.31603"><ele>116.0</ele><time>2026-04-30T10:43:23.662Z</time></trkpt><trkpt lat="44.4806049" lon="11.315975"><ele>116.0</ele><time>2026-04-30T10:43:27.678Z</time></trkpt><trkpt lat="44.4805398" lon="11.3159388"><ele>115.99999999999999</ele><time>2026-04-30T10:43:32.678Z</time></trkpt><trkpt lat="44.4804759" lon="11.3159083"><ele>116.0</ele><time>2026-04-30T10:43:36.678Z</time></trkpt><trkpt lat="44.4803968" lon="11.3158871"><ele>117.85714285714288</ele><time>2026-04-30T10:43:41.684Z</time></trkpt><trkpt lat="44.4803267" lon="11.3158818"><ele>119.71428571428572</ele><time>2026-04-30T10:43:46.667Z</time></trkpt><trkpt lat="44.4802476" lon="11.3158939"><ele>121.57142857142857</ele><time>2026-04-30T10:43:51.683Z</time></trkpt><trkpt lat="44.4801854" lon="11.3159184"><ele>123.42857142857143</ele><time>2026-04-30T10:43:55.683Z</time></trkpt><trkpt lat="44.4801222" lon="11.3159439"><ele>125.28571428571428</ele><time>2026-04-30T10:43:59.684Z</time></trkpt><trkpt lat="44.4800585" lon="11.3159717"><ele>127.14285714285712</ele><time>2026-04-30T10:44:02.682Z</time></trkpt><trkpt lat="44.4799778" lon="11.3159995"><ele>129.0</ele><time>2026-04-30T10:44:05.68Z</time></trkpt><trkpt lat="44.4799085" lon="11.3160184"><ele>128.99999999999997</ele><time>2026-04-30T10:44:08.664Z</time></trkpt><trkpt lat="44.4798381" lon="11.3160341"><ele>129.0</ele><time>2026-04-30T10:44:11.685Z</time></trkpt><trkpt lat="44.4797709" lon="11.316057"><ele>129.0</ele><time>2026-04-30T10:44:14.675Z</time></trkpt><trkpt lat="44.4796983" lon="11.3160738"><ele>129.0</ele><time>2026-04-30T10:44:17.674Z</time></trkpt><trkpt lat="44.4796283" lon="11.3161051"><ele>129.0</ele><time>2026-04-30T10:44:20.674Z</time></trkpt><trkpt lat="44.4795667" lon="11.3161387"><ele>128.99999999999997</ele><time>2026-04-30T10:44:23.68Z</time></trkpt><trkpt lat="44.4795899" lon="11.3162301"><ele>129.0</ele><time>2026-04-30T10:44:30.68Z</time></trkpt><trkpt lat="44.4796524" lon="11.3162562"><ele>128.99999999999997</ele><time>2026-04-30T10:44:33.668Z</time></trkpt><trkpt lat="44.4797219" lon="11.3162885"><ele>129.0</ele><time>2026-04-30T10:44:36.673Z</time></trkpt><trkpt lat="44.4797902" lon="11.3163223"><ele>129.0</ele><time>2026-04-30T10:44:39.676Z</time></trkpt><trkpt lat="44.4798579" lon="11.3163571"><ele>129.0</ele><time>2026-04-30T10:44:42.671Z</time></trkpt><trkpt lat="44.4799234" lon="11.3163898"><ele>129.0</ele><time>2026-04-30T10:44:45.678Z</time></trkpt><trkpt lat="44.4799871" lon="11.3164233"><ele>128.99999999999997</ele><time>2026-04-30T10:44:48.678Z</time></trkpt><trkpt lat="44.4800493" lon="11.3164587"><ele>129.0</ele><time>2026-04-30T10:44:51.685Z</time></trkpt><trkpt lat="44.4801118" lon="11.3164976"><ele>130.16666666666666</ele><time>2026-04-30T10:44:54.687Z</time></trkpt><trkpt lat="44.4801814" lon="11.3165435"><ele>131.33333333333334</ele><time>2026-04-30T10:44:57.673Z</time></trkpt><trkpt lat="44.4802512" lon="11.3165916"><ele>132.5</ele><time>2026-04-30T10:45:00.682Z</time></trkpt><trkpt lat="44.4803241" lon="11.3166423"><ele>133.66666666666669</ele><time>2026-04-30T10:45:03.675Z</time></trkpt><trkpt lat="44.4803983" lon="11.3167"><ele>134.83333333333334</ele><time>2026-04-30T10:45:06.68Z</time></trkpt><trkpt lat="44.4804673" lon="11.3167713"><ele>136.0</ele><time>2026-04-30T10:45:09.677Z</time></trkpt><trkpt lat="44.480533" lon="11.3168441"><ele>136.0</ele><time>2026-04-30T10:45:12.68Z</time></trkpt><trkpt lat="44.4805898" lon="11.3169138"><ele>136.0</ele><time>2026-04-30T10:45:15.68Z</time></trkpt><trkpt lat="44.4806379" lon="11.317002"><ele>136.0</ele><time>2026-04-30T10:45:18.678Z</time></trkpt><trkpt lat="44.4806814" lon="11.3170891"><ele>136.0</ele><time>2026-04-30T10:45:21.68Z</time></trkpt><trkpt lat="44.4807241" lon="11.3171859"><ele>136.0</ele><time>2026-04-30T10:45:24.674Z</time></trkpt><trkpt lat="44.4807659" lon="11.3172763"><ele>136.0</ele><time>2026-04-30T10:45:27.671Z</time></trkpt><trkpt lat="44.4808033" lon="11.3173581"><ele>138.28571428571428</ele><time>2026-04-30T10:45:30.674Z</time></trkpt><trkpt lat="44.4808474" lon="11.3174364"><ele>140.57142857142856</ele><time>2026-04-30T10:45:33.677Z</time></trkpt><trkpt lat="44.4808937" lon="11.3175135"><ele>142.85714285714283</ele><time>2026-04-30T10:45:36.685Z</time></trkpt><trkpt lat="44.4809391" lon="11.3175927"><ele>145.14285714285714</ele><time>2026-04-30T10:45:39.677Z</time></trkpt><trkpt lat="44.4809875" lon="11.3176629"><ele>147.42857142857144</ele><time>2026-04-30T10:45:42.682Z</time></trkpt><trkpt lat="44.4810459" lon="11.3177303"><ele>149.7142857142857</ele><time>2026-04-30T10:45:45.68Z</time></trkpt><trkpt lat="44.4811019" lon="11.3177956"><ele>152.0</ele><time>2026-04-30T10:45:48.683Z</time></trkpt><trkpt lat="44.4811566" lon="11.3178436"><ele>152.0</ele><time>2026-04-30T10:45:51.692Z</time></trkpt><trkpt lat="44.4812131" lon="11.3178926"><ele>152.0</ele><time>2026-04-30T10:45:54.685Z</time></trkpt><trkpt lat="44.4812652" lon="11.3179468"><ele>152.0</ele><time>2026-04-30T10:45:57.688Z</time></trkpt><trkpt lat="44.4813061" lon="11.3180156"><ele>152.0</ele><time>2026-04-30T10:46:00.683Z</time></trkpt><trkpt lat="44.4813249" lon="11.3181003"><ele>152.0</ele><time>2026-04-30T10:46:03.682Z</time></trkpt><trkpt lat="44.4812984" lon="11.3182059"><ele>152.0</ele><time>2026-04-30T10:46:07.677Z</time></trkpt><trkpt lat="44.4812436" lon="11.3182913"><ele>152.0</ele><time>2026-04-30T10:46:11.677Z</time></trkpt><trkpt lat="44.4811946" lon="11.3183789"><ele>154.5</ele><time>2026-04-30T10:46:15.689Z</time></trkpt><trkpt lat="44.4811596" lon="11.3184837"><ele>157.0</ele><time>2026-04-30T10:46:19.667Z</time></trkpt><trkpt lat="44.481131" lon="11.3185925"><ele>159.5</ele><time>2026-04-30T10:46:23.672Z</time></trkpt><trkpt lat="44.4810881" lon="11.3186847"><ele>162.0</ele><time>2026-04-30T10:46:27.671Z</time></trkpt><trkpt lat="44.4810279" lon="11.3186268"><ele>164.5</ele><time>2026-04-30T10:46:32.682Z</time></trkpt><trkpt lat="44.4810032" lon="11.3185311"><ele>167.0</ele><time>2026-04-30T10:46:36.675Z</time></trkpt><trkpt lat="44.4809744" lon="11.3184484"><ele>167.0</ele><time>2026-04-30T10:46:41.676Z</time></trkpt><trkpt lat="44.4809275" lon="11.3183704"><ele>167.0</ele><time>2026-04-30T10:46:45.672Z</time></trkpt><trkpt lat="44.4809162" lon="11.3184699"><ele>167.0</ele><time>2026-04-30T10:46:53.672Z</time></trkpt><trkpt lat="44.4809248" lon="11.3185752"><ele>167.0</ele><time>2026-04-30T10:46:58.661Z</time></trkpt><trkpt lat="44.4809041" lon="11.3186728"><ele>167.0</ele><time>2026-04-30T10:47:01.676Z</time></trkpt><trkpt lat="44.4808333" lon="11.3186936"><ele>167.0</ele><time>2026-04-30T10:47:06.676Z</time></trkpt><trkpt lat="44.4807817" lon="11.3186206"><ele>167.0</ele><time>2026-04-30T10:47:11.685Z</time></trkpt><trkpt lat="44.4807415" lon="11.3185283"><ele>167.0</ele><time>2026-04-30T10:47:16.677Z</time></trkpt><trkpt lat="44.4806886" lon="11.3184701"><ele>167.0</ele><time>2026-04-30T10:47:19.667Z</time></trkpt><trkpt lat="44.4806665" lon="11.3185667"><ele>167.0</ele><time>2026-04-30T10:47:25.682Z</time></trkpt><trkpt lat="44.4806741" lon="11.3186661"><ele>167.0</ele><time>2026-04-30T10:47:30.679Z</time></trkpt><trkpt lat="44.4806656" lon="11.3187576"><ele>167.0</ele><time>2026-04-30T10:47:35.677Z</time></trkpt><trkpt lat="44.4805976" lon="11.3187228"><ele>167.0</ele><time>2026-04-30T10:47:41.685Z</time></trkpt><trkpt lat="44.4805579" lon="11.318633"><ele>167.0</ele><time>2026-04-30T10:47:46.677Z</time></trkpt><trkpt lat="44.4805063" lon="11.3186871"><ele>167.0</ele><time>2026-04-30T10:47:56.665Z</time></trkpt><trkpt lat="44.4804907" lon="11.3187992"><ele>167.0</ele><time>2026-04-30T10:48:00.68Z</time></trkpt><trkpt lat="44.48047" lon="11.3188916"><ele>167.0</ele><time>2026-04-30T10:48:04.665Z</time></trkpt><trkpt lat="44.4804357" lon="11.3189692"><ele>167.0</ele><time>2026-04-30T10:48:07.664Z</time></trkpt><trkpt lat="44.4803698" lon="11.3189538"><ele>167.0</ele><time>2026-04-30T10:48:12.677Z</time></trkpt><trkpt lat="44.4803356" lon="11.3188647"><ele>167.0</ele><time>2026-04-30T10:48:16.679Z</time></trkpt><trkpt lat="44.4803185" lon="11.3187677"><ele>167.0</ele><time>2026-04-30T10:48:20.676Z</time></trkpt><trkpt lat="44.4802847" lon="11.318681"><ele>168.57142857142856</ele><time>2026-04-30T10:48:24.677Z</time></trkpt><trkpt lat="44.4802229" lon="11.3186173"><ele>170.14285714285714</ele><time>2026-04-30T10:48:27.683Z</time></trkpt><trkpt lat="44.4801584" lon="11.318582"><ele>171.71428571428572</ele><time>2026-04-30T10:48:30.67Z</time></trkpt><trkpt lat="44.4800924" lon="11.3185844"><ele>173.28571428571428</ele><time>2026-04-30T10:48:33.676Z</time></trkpt><trkpt lat="44.4800353" lon="11.3186306"><ele>174.85714285714286</ele><time>2026-04-30T10:48:36.674Z</time></trkpt><trkpt lat="44.4799929" lon="11.3187281"><ele>176.42857142857142</ele><time>2026-04-30T10:48:40.681Z</time></trkpt><trkpt lat="44.4799803" lon="11.3188415"><ele>178.0</ele><time>2026-04-30T10:48:44.681Z</time></trkpt><trkpt lat="44.4799724" lon="11.3189504"><ele>179.66666666666669</ele><time>2026-04-30T10:48:48.684Z</time></trkpt><trkpt lat="44.4799713" lon="11.3190595"><ele>181.33333333333334</ele><time>2026-04-30T10:48:52.683Z</time></trkpt><trkpt lat="44.4799599" lon="11.3191691"><ele>183.0</ele><time>2026-04-30T10:48:56.686Z</time></trkpt><trkpt lat="44.4799347" lon="11.3192669"><ele>184.66666666666666</ele><time>2026-04-30T10:49:00.679Z</time></trkpt><trkpt lat="44.4798983" lon="11.319359"><ele>186.33333333333331</ele><time>2026-04-30T10:49:04.685Z</time></trkpt><trkpt lat="44.4798949" lon="11.3194705"><ele>188.0</ele><time>2026-04-30T10:49:08.675Z</time></trkpt><trkpt lat="44.4799375" lon="11.3195653"><ele>188.0</ele><time>2026-04-30T10:49:12.696Z</time></trkpt><trkpt lat="44.479991" lon="11.3196334"><ele>188.0</ele><time>2026-04-30T10:49:16.682Z</time></trkpt><trkpt lat="44.4800286" lon="11.3197068"><ele>188.0</ele><time>2026-04-30T10:49:21.68Z</time></trkpt><trkpt lat="44.4800658" lon="11.3197884"><ele>188.0</ele><time>2026-04-30T10:49:26.688Z</time></trkpt><trkpt lat="44.4800886" lon="11.3198921"><ele>188.0</ele><time>2026-04-30T10:49:31.681Z</time></trkpt><trkpt lat="44.4800949" lon="11.3199811"><ele>188.0</ele><time>2026-04-30T10:49:37.685Z</time></trkpt><trkpt lat="44.4800156" lon="11.3199784"><ele>188.0</ele><time>2026-04-30T10:49:43.676Z</time></trkpt><trkpt lat="44.4799476" lon="11.3200048"><ele>189.42857142857142</ele><time>2026-04-30T10:49:46.679Z</time></trkpt><trkpt lat="44.4799264" lon="11.3200964"><ele>190.85714285714283</ele><time>2026-04-30T10:49:52.668Z</time></trkpt><trkpt lat="44.479968" lon="11.3201844"><ele>192.28571428571428</ele><time>2026-04-30T10:49:57.681Z</time></trkpt><trkpt lat="44.4799968" lon="11.320263"><ele>193.71428571428572</ele><time>2026-04-30T10:50:01.675Z</time></trkpt><trkpt lat="44.4800296" lon="11.3203451"><ele>195.14285714285714</ele><time>2026-04-30T10:50:05.685Z</time></trkpt><trkpt lat="44.4800707" lon="11.3204131"><ele>196.57142857142858</ele><time>2026-04-30T10:50:09.679Z</time></trkpt><trkpt lat="44.4801117" lon="11.3204979"><ele>198.0</ele><time>2026-04-30T10:50:14.676Z</time></trkpt><trkpt lat="44.4801277" lon="11.3205889"><ele>200.42857142857144</ele><time>2026-04-30T10:50:20.672Z</time></trkpt><trkpt lat="44.480059" lon="11.3206129"><ele>202.85714285714283</ele><time>2026-04-30T10:50:35.68Z</time></trkpt><trkpt lat="44.4799971" lon="11.3206471"><ele>205.28571428571428</ele><time>2026-04-30T10:50:38.682Z</time></trkpt><trkpt lat="44.4799949" lon="11.3207385"><ele>207.71428571428572</ele><time>2026-04-30T10:50:46.676Z</time></trkpt><trkpt lat="44.4800319" lon="11.3208173"><ele>210.14285714285717</ele><time>2026-04-30T10:50:50.695Z</time></trkpt><trkpt lat="44.4800071" lon="11.3209032"><ele>212.57142857142856</ele><time>2026-04-30T10:50:56.675Z</time></trkpt><trkpt lat="44.4799384" lon="11.3208988"><ele>215.0</ele><time>2026-04-30T10:51:00.677Z</time></trkpt><trkpt lat="44.4798745" lon="11.3209099"><ele>215.00000000000003</ele><time>2026-04-30T10:51:04.681Z</time></trkpt><trkpt lat="44.4798203" lon="11.3209681"><ele>215.0</ele><time>2026-04-30T10:51:08.677Z</time></trkpt><trkpt lat="44.4797545" lon="11.3210325"><ele>215.0</ele><time>2026-04-30T10:51:12.676Z</time></trkpt><trkpt lat="44.4796892" lon="11.3210915"><ele>215.0</ele><time>2026-04-30T10:51:15.69Z</time></trkpt><trkpt lat="44.4796302" lon="11.3211489"><ele>215.00000000000003</ele><time>2026-04-30T10:51:18.683Z</time></trkpt><trkpt lat="44.4795703" lon="11.321211"><ele>215.0</ele><time>2026-04-30T10:51:21.695Z</time></trkpt><trkpt lat="44.4795057" lon="11.3212739"><ele>215.50000000000003</ele><time>2026-04-30T10:51:24.677Z</time></trkpt><trkpt lat="44.4794266" lon="11.3213441"><ele>216.0</ele><time>2026-04-30T10:51:27.683Z</time></trkpt><trkpt lat="44.479359" lon="11.3214023"><ele>216.5</ele><time>2026-04-30T10:51:30.675Z</time></trkpt><trkpt lat="44.4793068" lon="11.3214623"><ele>217.0</ele><time>2026-04-30T10:51:32.691Z</time></trkpt><trkpt lat="44.4792505" lon="11.3215307"><ele>217.50000000000003</ele><time>2026-04-30T10:51:34.688Z</time></trkpt><trkpt lat="44.47919" lon="11.3215803"><ele>218.0</ele><time>2026-04-30T10:52:00.681Z</time></trkpt><trkpt lat="44.479141" lon="11.3217021"><ele>218.00000000000003</ele><time>2026-04-30T10:52:05.674Z</time></trkpt><trkpt lat="44.4791053" lon="11.321828"><ele>218.0</ele><time>2026-04-30T10:52:07.668Z</time></trkpt><trkpt lat="44.4790742" lon="11.3219781"><ele>218.0</ele><time>2026-04-30T10:52:09.682Z</time></trkpt><trkpt lat="44.4790674" lon="11.3220667"><ele>218.0</ele><time>2026-04-30T10:52:10.681Z</time></trkpt><trkpt lat="44.479068" lon="11.322157"><ele>218.00000000000003</ele><time>2026-04-30T10:52:11.673Z</time></trkpt><trkpt lat="44.4790775" lon="11.3222505"><ele>218.0</ele><time>2026-04-30T10:52:12.685Z</time></trkpt><trkpt lat="44.4790994" lon="11.3223474"><ele>218.33333333333334</ele><time>2026-04-30T10:52:13.678Z</time></trkpt><trkpt lat="44.4791309" lon="11.3224418"><ele>218.66666666666669</ele><time>2026-04-30T10:52:14.685Z</time></trkpt><trkpt lat="44.4791695" lon="11.3225309"><ele>219.0</ele><time>2026-04-30T10:52:15.699Z</time></trkpt><trkpt lat="44.4792132" lon="11.3226502"><ele>219.33333333333331</ele><time>2026-04-30T10:52:17.687Z</time></trkpt><trkpt lat="44.4791719" lon="11.3227227"><ele>219.66666666666666</ele><time>2026-04-30T10:52:19.681Z</time></trkpt><trkpt lat="44.4790913" lon="11.3226752"><ele>220.0</ele><time>2026-04-30T10:52:21.677Z</time></trkpt><trkpt lat="44.4790107" lon="11.3226009"><ele>219.99999999999997</ele><time>2026-04-30T10:52:23.686Z</time></trkpt><trkpt lat="44.4789008" lon="11.3224976"><ele>220.0</ele><time>2026-04-30T10:52:25.679Z</time></trkpt><trkpt lat="44.4788411" lon="11.3224376"><ele>220.0</ele><time>2026-04-30T10:52:26.68Z</time></trkpt><trkpt lat="44.4787808" lon="11.3223745"><ele>220.0</ele><time>2026-04-30T10:52:27.679Z</time></trkpt><trkpt lat="44.4787207" lon="11.3223021"><ele>219.99999999999997</ele><time>2026-04-30T10:52:28.685Z</time></trkpt><trkpt lat="44.4786596" lon="11.3222265"><ele>220.0</ele><time>2026-04-30T10:52:29.686Z</time></trkpt><trkpt lat="44.4785963" lon="11.3221454"><ele>216.8</ele><time>2026-04-30T10:52:30.686Z</time></trkpt><trkpt lat="44.4785342" lon="11.3220571"><ele>213.6</ele><time>2026-04-30T10:52:31.696Z</time></trkpt><trkpt lat="44.4784698" lon="11.3219637"><ele>210.39999999999998</ele><time>2026-04-30T10:52:32.682Z</time></trkpt><trkpt lat="44.4784042" lon="11.3218633"><ele>207.2</ele><time>2026-04-30T10:52:33.683Z</time></trkpt><trkpt lat="44.4783383" lon="11.3217639"><ele>204.0</ele><time>2026-04-30T10:52:34.692Z</time></trkpt><trkpt lat="44.4782737" lon="11.3216576"><ele>204.0</ele><time>2026-04-30T10:52:35.683Z</time></trkpt><trkpt lat="44.4782109" lon="11.3215504"><ele>204.0</ele><time>2026-04-30T10:52:36.674Z</time></trkpt><trkpt lat="44.4781533" lon="11.3214468"><ele>204.0</ele><time>2026-04-30T10:52:37.677Z</time></trkpt><trkpt lat="44.4780956" lon="11.3213341"><ele>204.0</ele><time>2026-04-30T10:52:38.679Z</time></trkpt><trkpt lat="44.4780357" lon="11.3212296"><ele>204.0</ele><time>2026-04-30T10:52:39.682Z</time></trkpt><trkpt lat="44.4779694" lon="11.3211362"><ele>203.6</ele><time>2026-04-30T10:52:40.677Z</time></trkpt><trkpt lat="44.4778923" lon="11.3210648"><ele>203.2</ele><time>2026-04-30T10:52:41.674Z</time></trkpt><trkpt lat="44.4778106" lon="11.3210001"><ele>202.79999999999998</ele><time>2026-04-30T10:52:42.683Z</time></trkpt><trkpt lat="44.4777271" lon="11.3209461"><ele>202.39999999999998</ele><time>2026-04-30T10:52:43.679Z</time></trkpt><trkpt lat="44.4776446" lon="11.3208944"><ele>202.0</ele><time>2026-04-30T10:52:44.674Z</time></trkpt><trkpt lat="44.4775641" lon="11.3208439"><ele>201.99999999999997</ele><time>2026-04-30T10:52:45.677Z</time></trkpt><trkpt lat="44.4774871" lon="11.320795"><ele>202.0</ele><time>2026-04-30T10:52:46.688Z</time></trkpt><trkpt lat="44.4774159" lon="11.3207369"><ele>202.0</ele><time>2026-04-30T10:52:47.685Z</time></trkpt><trkpt lat="44.4773534" lon="11.3206731"><ele>202.0</ele><time>2026-04-30T10:52:48.674Z</time></trkpt><trkpt lat="44.4772996" lon="11.3206074"><ele>201.99999999999997</ele><time>2026-04-30T10:52:49.682Z</time></trkpt><trkpt lat="44.4772537" lon="11.3205461"><ele>202.0</ele><time>2026-04-30T10:52:50.677Z</time></trkpt><trkpt lat="44.4771806" lon="11.3204327"><ele>201.66666666666666</ele><time>2026-04-30T10:52:52.679Z</time></trkpt><trkpt lat="44.4771205" lon="11.3203534"><ele>201.33333333333331</ele><time>2026-04-30T10:52:54.675Z</time></trkpt><trkpt lat="44.4770748" lon="11.3202851"><ele>201.0</ele><time>2026-04-30T10:52:56.673Z</time></trkpt><trkpt lat="44.4770299" lon="11.3202227"><ele>200.66666666666669</ele><time>2026-04-30T10:52:58.686Z</time></trkpt><trkpt lat="44.4769743" lon="11.3201282"><ele>200.33333333333334</ele><time>2026-04-30T10:53:01.673Z</time></trkpt><trkpt lat="44.4769468" lon="11.320022"><ele>200.0</ele><time>2026-04-30T10:53:04.694Z</time></trkpt><trkpt lat="44.4769215" lon="11.3199148"><ele>201.00000000000003</ele><time>2026-04-30T10:53:07.666Z</time></trkpt><trkpt lat="44.4768858" lon="11.3198362"><ele>202.0</ele><time>2026-04-30T10:53:09.678Z</time></trkpt><trkpt lat="44.4768563" lon="11.3197485"><ele>203.0</ele><time>2026-04-30T10:53:11.687Z</time></trkpt><trkpt lat="44.4768236" lon="11.3196688"><ele>204.0</ele><time>2026-04-30T10:53:13.678Z</time></trkpt><trkpt lat="44.4767889" lon="11.3195942"><ele>205.0</ele><time>2026-04-30T10:53:15.687Z</time></trkpt><trkpt lat="44.4767343" lon="11.3194899"><ele>206.00000000000003</ele><time>2026-04-30T10:53:18.677Z</time></trkpt><trkpt lat="44.4766755" lon="11.3194108"><ele>207.0</ele><time>2026-04-30T10:53:21.692Z</time></trkpt><trkpt lat="44.4766266" lon="11.3193136"><ele>207.00000000000003</ele><time>2026-04-30T10:53:24.668Z</time></trkpt><trkpt lat="44.476569" lon="11.319215"><ele>207.0</ele><time>2026-04-30T10:53:27.669Z</time></trkpt><trkpt lat="44.4765371" lon="11.3191385"><ele>207.0</ele><time>2026-04-30T10:53:29.677Z</time></trkpt><trkpt lat="44.4765069" lon="11.3190563"><ele>207.0</ele><time>2026-04-30T10:53:31.687Z</time></trkpt><trkpt lat="44.4764781" lon="11.3189733"><ele>207.0</ele><time>2026-04-30T10:53:33.685Z</time></trkpt><trkpt lat="44.4764504" lon="11.318893"><ele>207.00000000000003</ele><time>2026-04-30T10:53:35.67Z</time></trkpt><trkpt lat="44.4764121" lon="11.3187798"><ele>207.0</ele><time>2026-04-30T10:53:38.68Z</time></trkpt><trkpt lat="44.4763718" lon="11.3186697"><ele>206.33333333333334</ele><time>2026-04-30T10:53:41.672Z</time></trkpt><trkpt lat="44.47634" lon="11.3185573"><ele>205.66666666666669</ele><time>2026-04-30T10:53:44.681Z</time></trkpt><trkpt lat="44.4763045" lon="11.3184541"><ele>205.0</ele><time>2026-04-30T10:53:47.678Z</time></trkpt><trkpt lat="44.4762615" lon="11.3183586"><ele>204.33333333333334</ele><time>2026-04-30T10:53:50.68Z</time></trkpt><trkpt lat="44.4762102" lon="11.3182713"><ele>203.66666666666669</ele><time>2026-04-30T10:53:53.682Z</time></trkpt><trkpt lat="44.4761497" lon="11.3182041"><ele>203.0</ele><time>2026-04-30T10:53:56.677Z</time></trkpt><trkpt lat="44.4760856" lon="11.3181377"><ele>204.16666666666669</ele><time>2026-04-30T10:53:59.678Z</time></trkpt><trkpt lat="44.4760118" lon="11.3180872"><ele>205.33333333333334</ele><time>2026-04-30T10:54:02.676Z</time></trkpt><trkpt lat="44.4759385" lon="11.318027"><ele>206.5</ele><time>2026-04-30T10:54:05.684Z</time></trkpt><trkpt lat="44.4758676" lon="11.3179707"><ele>207.66666666666669</ele><time>2026-04-30T10:54:08.68Z</time></trkpt><trkpt lat="44.4757995" lon="11.3179152"><ele>208.83333333333334</ele><time>2026-04-30T10:54:11.669Z</time></trkpt><trkpt lat="44.4757279" lon="11.3178901"><ele>210.0</ele><time>2026-04-30T10:54:14.683Z</time></trkpt><trkpt lat="44.475714" lon="11.3179853"><ele>210.0</ele><time>2026-04-30T10:54:18.681Z</time></trkpt><trkpt lat="44.4757695" lon="11.3180619"><ele>210.0</ele><time>2026-04-30T10:54:21.668Z</time></trkpt><trkpt lat="44.4758346" lon="11.3181306"><ele>210.0</ele><time>2026-04-30T10:54:24.675Z</time></trkpt><trkpt lat="44.4758922" lon="11.318207"><ele>210.0</ele><time>2026-04-30T10:54:27.672Z</time></trkpt><trkpt lat="44.4759422" lon="11.318291"><ele>210.0</ele><time>2026-04-30T10:54:30.677Z</time></trkpt><trkpt lat="44.4759599" lon="11.3183898"><ele>210.0</ele><time>2026-04-30T10:54:33.697Z</time></trkpt><trkpt lat="44.4758858" lon="11.3183406"><ele>212.16666666666666</ele><time>2026-04-30T10:54:38.678Z</time></trkpt><trkpt lat="44.4758301" lon="11.3182754"><ele>214.33333333333331</ele><time>2026-04-30T10:54:41.681Z</time></trkpt><trkpt lat="44.475769" lon="11.3182166"><ele>216.5</ele><time>2026-04-30T10:54:44.677Z</time></trkpt><trkpt lat="44.4757016" lon="11.3181697"><ele>218.66666666666666</ele><time>2026-04-30T10:54:47.688Z</time></trkpt><trkpt lat="44.4756269" lon="11.318143"><ele>220.83333333333331</ele><time>2026-04-30T10:54:50.665Z</time></trkpt><trkpt lat="44.475552" lon="11.3181404"><ele>223.0</ele><time>2026-04-30T10:54:53.687Z</time></trkpt><trkpt lat="44.475478" lon="11.3181687"><ele>222.83333333333331</ele><time>2026-04-30T10:54:56.659Z</time></trkpt><trkpt lat="44.4754117" lon="11.3182226"><ele>222.66666666666666</ele><time>2026-04-30T10:54:59.691Z</time></trkpt><trkpt lat="44.4753504" lon="11.3182902"><ele>222.5</ele><time>2026-04-30T10:55:02.686Z</time></trkpt><trkpt lat="44.4752961" lon="11.3183716"><ele>222.33333333333331</ele><time>2026-04-30T10:55:05.687Z</time></trkpt><trkpt lat="44.4752502" lon="11.3184658"><ele>222.16666666666666</ele><time>2026-04-30T10:55:08.686Z</time></trkpt><trkpt lat="44.4751999" lon="11.3185554"><ele>222.0</ele><time>2026-04-30T10:55:11.687Z</time></trkpt><trkpt lat="44.4751558" lon="11.3186461"><ele>222.0</ele><time>2026-04-30T10:55:14.695Z</time></trkpt><trkpt lat="44.475113" lon="11.3187347"><ele>222.0</ele><time>2026-04-30T10:55:17.681Z</time></trkpt><trkpt lat="44.4750629" lon="11.318816"><ele>222.0</ele><time>2026-04-30T10:55:20.676Z</time></trkpt><trkpt lat="44.4750093" lon="11.318888"><ele>222.0</ele><time>2026-04-30T10:55:23.674Z</time></trkpt><trkpt lat="44.4749556" lon="11.3189536"><ele>222.0</ele><time>2026-04-30T10:55:26.679Z</time></trkpt><trkpt lat="44.4749045" lon="11.3190154"><ele>222.0</ele><time>2026-04-30T10:55:29.686Z</time></trkpt><trkpt lat="44.4748508" lon="11.3190692"><ele>222.0</ele><time>2026-04-30T10:55:32.684Z</time></trkpt><trkpt lat="44.4747936" lon="11.3191347"><ele>223.33333333333334</ele><time>2026-04-30T10:55:36.691Z</time></trkpt><trkpt lat="44.4747362" lon="11.3192151"><ele>224.66666666666669</ele><time>2026-04-30T10:55:41.678Z</time></trkpt><trkpt lat="44.4746807" lon="11.3192774"><ele>226.0</ele><time>2026-04-30T10:55:44.684Z</time></trkpt><trkpt lat="44.4746197" lon="11.3193484"><ele>227.33333333333334</ele><time>2026-04-30T10:55:47.683Z</time></trkpt><trkpt lat="44.4745628" lon="11.3194168"><ele>228.66666666666669</ele><time>2026-04-30T10:55:50.672Z</time></trkpt><trkpt lat="44.4744975" lon="11.3194844"><ele>230.0</ele><time>2026-04-30T10:55:53.682Z</time></trkpt><trkpt lat="44.4744388" lon="11.3195508"><ele>230.00000000000003</ele><time>2026-04-30T10:55:56.679Z</time></trkpt><trkpt lat="44.4743804" lon="11.3196236"><ele>230.0</ele><time>2026-04-30T10:55:59.677Z</time></trkpt><trkpt lat="44.474322" lon="11.3196962"><ele>230.0</ele><time>2026-04-30T10:56:02.67Z</time></trkpt><trkpt lat="44.4742633" lon="11.319773"><ele>230.0</ele><time>2026-04-30T10:56:06.679Z</time></trkpt><trkpt lat="44.4741882" lon="11.3198376"><ele>230.00000000000003</ele><time>2026-04-30T10:56:10.686Z</time></trkpt><trkpt lat="44.4741154" lon="11.3198844"><ele>230.0</ele><time>2026-04-30T10:56:13.684Z</time></trkpt><trkpt lat="44.4740459" lon="11.3199359"><ele>231.83333333333334</ele><time>2026-04-30T10:56:16.671Z</time></trkpt><trkpt lat="44.473985" lon="11.3199843"><ele>233.66666666666669</ele><time>2026-04-30T10:56:19.675Z</time></trkpt><trkpt lat="44.4739253" lon="11.32005"><ele>235.5</ele><time>2026-04-30T10:56:22.681Z</time></trkpt><trkpt lat="44.473862" lon="11.3201266"><ele>237.33333333333331</ele><time>2026-04-30T10:56:26.682Z</time></trkpt><trkpt lat="44.4738059" lon="11.3201891"><ele>239.16666666666666</ele><time>2026-04-30T10:56:29.686Z</time></trkpt><trkpt lat="44.4737556" lon="11.320258"><ele>241.0</ele><time>2026-04-30T10:56:32.679Z</time></trkpt><trkpt lat="44.4736996" lon="11.3203433"><ele>240.99999999999997</ele><time>2026-04-30T10:56:36.684Z</time></trkpt><trkpt lat="44.4736417" lon="11.3204283"><ele>241.0</ele><time>2026-04-30T10:56:40.68Z</time></trkpt><trkpt lat="44.4735829" lon="11.3205184"><ele>241.0</ele><time>2026-04-30T10:56:43.683Z</time></trkpt><trkpt lat="44.4735333" lon="11.3205904"><ele>241.0</ele><time>2026-04-30T10:56:46.678Z</time></trkpt><trkpt lat="44.4734728" lon="11.3206844"><ele>240.99999999999997</ele><time>2026-04-30T10:56:50.679Z</time></trkpt><trkpt lat="44.473407" lon="11.3207549"><ele>241.0</ele><time>2026-04-30T10:56:54.675Z</time></trkpt><trkpt lat="44.4733502" lon="11.3208405"><ele>244.49999999999997</ele><time>2026-04-30T10:56:58.68Z</time></trkpt><trkpt lat="44.4732987" lon="11.320901"><ele>248.0</ele><time>2026-04-30T10:57:01.676Z</time></trkpt><trkpt lat="44.4732343" lon="11.3209296"><ele>251.5</ele><time>2026-04-30T10:57:05.676Z</time></trkpt><trkpt lat="44.4731351" lon="11.3209276"><ele>255.0</ele><time>2026-04-30T10:57:08.676Z</time></trkpt><trkpt lat="44.4730679" lon="11.3209063"><ele>258.5</ele><time>2026-04-30T10:57:11.678Z</time></trkpt><trkpt lat="44.4729968" lon="11.3208605"><ele>262.0</ele><time>2026-04-30T10:57:15.682Z</time></trkpt><trkpt lat="44.4729315" lon="11.3208262"><ele>263.8333333333333</ele><time>2026-04-30T10:57:18.672Z</time></trkpt><trkpt lat="44.4728541" lon="11.3207845"><ele>265.66666666666663</ele><time>2026-04-30T10:57:21.679Z</time></trkpt><trkpt lat="44.4727831" lon="11.3207479"><ele>267.5</ele><time>2026-04-30T10:57:24.68Z</time></trkpt><trkpt lat="44.4727179" lon="11.3207259"><ele>269.3333333333333</ele><time>2026-04-30T10:57:27.68Z</time></trkpt><trkpt lat="44.472634" lon="11.3207046"><ele>271.1666666666667</ele><time>2026-04-30T10:57:31.682Z</time></trkpt><trkpt lat="44.4725694" lon="11.3206963"><ele>273.0</ele><time>2026-04-30T10:57:33.689Z</time></trkpt><trkpt lat="44.4724826" lon="11.3206808"><ele>273.0</ele><time>2026-04-30T10:57:37.677Z</time></trkpt><trkpt lat="44.4724032" lon="11.3206567"><ele>273.0</ele><time>2026-04-30T10:57:39.683Z</time></trkpt><trkpt lat="44.4723286" lon="11.3206327"><ele>273.0</ele><time>2026-04-30T10:57:42.685Z</time></trkpt><trkpt lat="44.4722501" lon="11.3206215"><ele>273.0</ele><time>2026-04-30T10:57:45.677Z</time></trkpt><trkpt lat="44.4721724" lon="11.3206114"><ele>273.0</ele><time>2026-04-30T10:57:48.679Z</time></trkpt><trkpt lat="44.4721081" lon="11.3206009"><ele>273.0</ele><time>2026-04-30T10:57:51.682Z</time></trkpt><trkpt lat="44.4720206" lon="11.3205838"><ele>273.6666666666667</ele><time>2026-04-30T10:57:54.67Z</time></trkpt><trkpt lat="44.4719558" lon="11.3205703"><ele>274.3333333333333</ele><time>2026-04-30T10:57:56.686Z</time></trkpt><trkpt lat="44.4718718" lon="11.3205388"><ele>275.0</ele><time>2026-04-30T10:57:59.675Z</time></trkpt><trkpt lat="44.4717928" lon="11.320502"><ele>275.66666666666663</ele><time>2026-04-30T10:58:02.686Z</time></trkpt><trkpt lat="44.4717138" lon="11.3204509"><ele>276.3333333333333</ele><time>2026-04-30T10:58:05.677Z</time></trkpt><trkpt lat="44.4716335" lon="11.3203984"><ele>277.0</ele><time>2026-04-30T10:58:08.685Z</time></trkpt><trkpt lat="44.47156" lon="11.3203524"><ele>274.16666666666663</ele><time>2026-04-30T10:58:10.682Z</time></trkpt><trkpt lat="44.4714822" lon="11.3203021"><ele>271.3333333333333</ele><time>2026-04-30T10:58:12.681Z</time></trkpt><trkpt lat="44.4713861" lon="11.3202447"><ele>268.5</ele><time>2026-04-30T10:58:14.685Z</time></trkpt><trkpt lat="44.471324" lon="11.3202112"><ele>265.6666666666667</ele><time>2026-04-30T10:58:15.684Z</time></trkpt><trkpt lat="44.4712561" lon="11.3201762"><ele>262.83333333333337</ele><time>2026-04-30T10:58:16.688Z</time></trkpt><trkpt lat="44.4711868" lon="11.3201432"><ele>260.0</ele><time>2026-04-30T10:58:17.691Z</time></trkpt><trkpt lat="44.4711164" lon="11.3201092"><ele>258.83333333333337</ele><time>2026-04-30T10:58:18.68Z</time></trkpt><trkpt lat="44.4710447" lon="11.3200995"><ele>257.6666666666667</ele><time>2026-04-30T10:58:19.687Z</time></trkpt><trkpt lat="44.4709693" lon="11.3201237"><ele>256.5</ele><time>2026-04-30T10:58:20.678Z</time></trkpt><trkpt lat="44.4708971" lon="11.3201717"><ele>255.33333333333331</ele><time>2026-04-30T10:58:21.683Z</time></trkpt><trkpt lat="44.4708307" lon="11.320232"><ele>254.16666666666666</ele><time>2026-04-30T10:58:22.682Z</time></trkpt><trkpt lat="44.4707585" lon="11.3203056"><ele>253.0</ele><time>2026-04-30T10:58:23.682Z</time></trkpt><trkpt lat="44.4706862" lon="11.3203772"><ele>253.0</ele><time>2026-04-30T10:58:24.689Z</time></trkpt><trkpt lat="44.4706137" lon="11.3204443"><ele>253.0</ele><time>2026-04-30T10:58:25.681Z</time></trkpt><trkpt lat="44.4705369" lon="11.3204994"><ele>253.0</ele><time>2026-04-30T10:58:26.678Z</time></trkpt><trkpt lat="44.4704591" lon="11.3205696"><ele>253.0</ele><time>2026-04-30T10:58:27.686Z</time></trkpt><trkpt lat="44.4703791" lon="11.3206493"><ele>253.0</ele><time>2026-04-30T10:58:28.672Z</time></trkpt><trkpt lat="44.470308" lon="11.3207457"><ele>252.33333333333331</ele><time>2026-04-30T10:58:29.687Z</time></trkpt><trkpt lat="44.4702441" lon="11.3208563"><ele>251.66666666666666</ele><time>2026-04-30T10:58:30.684Z</time></trkpt><trkpt lat="44.4701825" lon="11.32095"><ele>251.0</ele><time>2026-04-30T10:58:31.678Z</time></trkpt><trkpt lat="44.470119" lon="11.3210412"><ele>250.33333333333331</ele><time>2026-04-30T10:58:32.678Z</time></trkpt><trkpt lat="44.4700623" lon="11.321129"><ele>249.66666666666666</ele><time>2026-04-30T10:58:33.683Z</time></trkpt><trkpt lat="44.4700003" lon="11.3211969"><ele>249.0</ele><time>2026-04-30T10:58:34.681Z</time></trkpt><trkpt lat="44.4699195" lon="11.32124"><ele>249.0</ele><time>2026-04-30T10:58:35.678Z</time></trkpt><trkpt lat="44.4698399" lon="11.3212809"><ele>248.99999999999997</ele><time>2026-04-30T10:58:36.678Z</time></trkpt><trkpt lat="44.4697538" lon="11.321328"><ele>248.99999999999997</ele><time>2026-04-30T10:58:37.687Z</time></trkpt><trkpt lat="44.469665" lon="11.321373"><ele>249.0</ele><time>2026-04-30T10:58:38.675Z</time></trkpt><trkpt lat="44.4695812" lon="11.3214152"><ele>249.0</ele><time>2026-04-30T10:58:39.685Z</time></trkpt><trkpt lat="44.4694989" lon="11.3214651"><ele>248.79999999999998</ele><time>2026-04-30T10:58:40.678Z</time></trkpt><trkpt lat="44.4694191" lon="11.3215184"><ele>248.59999999999997</ele><time>2026-04-30T10:58:41.682Z</time></trkpt><trkpt lat="44.4693375" lon="11.3215697"><ele>248.4</ele><time>2026-04-30T10:58:42.689Z</time></trkpt><trkpt lat="44.4692427" lon="11.3216189"><ele>248.2</ele><time>2026-04-30T10:58:43.679Z</time></trkpt><trkpt lat="44.4691525" lon="11.3216679"><ele>248.0</ele><time>2026-04-30T10:58:44.683Z</time></trkpt><trkpt lat="44.4690636" lon="11.3217069"><ele>248.0</ele><time>2026-04-30T10:58:45.677Z</time></trkpt><trkpt lat="44.468987" lon="11.3217165"><ele>248.0</ele><time>2026-04-30T10:58:46.685Z</time></trkpt><trkpt lat="44.4689048" lon="11.3216804"><ele>248.0</ele><time>2026-04-30T10:58:47.679Z</time></trkpt><trkpt lat="44.4688155" lon="11.3216031"><ele>248.0</ele><time>2026-04-30T10:58:48.686Z</time></trkpt><trkpt lat="44.4687288" lon="11.3215146"><ele>248.0</ele><time>2026-04-30T10:58:49.682Z</time></trkpt><trkpt lat="44.4686406" lon="11.321424"><ele>246.4</ele><time>2026-04-30T10:58:50.684Z</time></trkpt><trkpt lat="44.4685602" lon="11.3213307"><ele>244.8</ele><time>2026-04-30T10:58:51.682Z</time></trkpt><trkpt lat="44.4684895" lon="11.3212179"><ele>243.2</ele><time>2026-04-30T10:58:52.677Z</time></trkpt><trkpt lat="44.4684288" lon="11.3210881"><ele>241.6</ele><time>2026-04-30T10:58:53.683Z</time></trkpt><trkpt lat="44.4683703" lon="11.3209622"><ele>240.0</ele><time>2026-04-30T10:58:54.685Z</time></trkpt><trkpt lat="44.4683122" lon="11.3208369"><ele>240.0</ele><time>2026-04-30T10:58:55.677Z</time></trkpt><trkpt lat="44.468249" lon="11.3207307"><ele>240.0</ele><time>2026-04-30T10:58:56.68Z</time></trkpt><trkpt lat="44.4681655" lon="11.3206601"><ele>240.0</ele><time>2026-04-30T10:58:57.681Z</time></trkpt><trkpt lat="44.4680737" lon="11.3206168"><ele>240.0</ele><time>2026-04-30T10:58:58.681Z</time></trkpt><trkpt lat="44.4679765" lon="11.3205927"><ele>240.0</ele><time>2026-04-30T10:58:59.682Z</time></trkpt><trkpt lat="44.4678762" lon="11.3205844"><ele>239.0</ele><time>2026-04-30T10:59:00.684Z</time></trkpt><trkpt lat="44.4677732" lon="11.3205857"><ele>238.0</ele><time>2026-04-30T10:59:01.673Z</time></trkpt><trkpt lat="44.4676668" lon="11.320584"><ele>237.0</ele><time>2026-04-30T10:59:02.689Z</time></trkpt><trkpt lat="44.4675581" lon="11.3205812"><ele>236.0</ele><time>2026-04-30T10:59:03.673Z</time></trkpt><trkpt lat="44.4674441" lon="11.3205563"><ele>235.0</ele><time>2026-04-30T10:59:04.677Z</time></trkpt><trkpt lat="44.4673285" lon="11.320521"><ele>233.25</ele><time>2026-04-30T10:59:05.679Z</time></trkpt><trkpt lat="44.4672134" lon="11.3204792"><ele>231.5</ele><time>2026-04-30T10:59:06.68Z</time></trkpt><trkpt lat="44.4670962" lon="11.3204374"><ele>229.75</ele><time>2026-04-30T10:59:07.684Z</time></trkpt><trkpt lat="44.4669833" lon="11.320388"><ele>228.0</ele><time>2026-04-30T10:59:08.683Z</time></trkpt><trkpt lat="44.4668734" lon="11.3203446"><ele>228.0</ele><time>2026-04-30T10:59:09.69Z</time></trkpt><trkpt lat="44.4667671" lon="11.3202934"><ele>228.0</ele><time>2026-04-30T10:59:10.682Z</time></trkpt><trkpt lat="44.4666618" lon="11.320245"><ele>228.0</ele><time>2026-04-30T10:59:11.67Z</time></trkpt><trkpt lat="44.4665575" lon="11.3201989"><ele>228.0</ele><time>2026-04-30T10:59:12.677Z</time></trkpt><trkpt lat="44.4664587" lon="11.3201587"><ele>228.0</ele><time>2026-04-30T10:59:13.678Z</time></trkpt><trkpt lat="44.4663712" lon="11.3201258"><ele>228.0</ele><time>2026-04-30T10:59:14.68Z</time></trkpt><trkpt lat="44.4662869" lon="11.3201003"><ele>228.0</ele><time>2026-04-30T10:59:15.681Z</time></trkpt><trkpt lat="44.4662087" lon="11.3200689"><ele>228.0</ele><time>2026-04-30T10:59:16.682Z</time></trkpt><trkpt lat="44.4661314" lon="11.32004"><ele>228.0</ele><time>2026-04-30T10:59:17.674Z</time></trkpt><trkpt lat="44.4660589" lon="11.3200158"><ele>228.0</ele><time>2026-04-30T10:59:18.671Z</time></trkpt><trkpt lat="44.4659954" lon="11.3200001"><ele>228.0</ele><time>2026-04-30T10:59:19.678Z</time></trkpt><trkpt lat="44.4658802" lon="11.3199727"><ele>228.25</ele><time>2026-04-30T10:59:21.681Z</time></trkpt><trkpt lat="44.4657718" lon="11.3199474"><ele>228.5</ele><time>2026-04-30T10:59:23.683Z</time></trkpt><trkpt lat="44.465651" lon="11.3199366"><ele>228.75</ele><time>2026-04-30T10:59:25.682Z</time></trkpt><trkpt lat="44.4655327" lon="11.3199239"><ele>229.0</ele><time>2026-04-30T10:59:27.682Z</time></trkpt><trkpt lat="44.465416" lon="11.3199203"><ele>228.99999999999997</ele><time>2026-04-30T10:59:29.674Z</time></trkpt><trkpt lat="44.4652898" lon="11.3199078"><ele>229.0</ele><time>2026-04-30T10:59:31.689Z</time></trkpt><trkpt lat="44.4652103" lon="11.319896"><ele>229.0</ele><time>2026-04-30T10:59:32.677Z</time></trkpt><trkpt lat="44.4651362" lon="11.319887"><ele>229.0</ele><time>2026-04-30T10:59:33.684Z</time></trkpt><trkpt lat="44.4650658" lon="11.3198746"><ele>228.99999999999997</ele><time>2026-04-30T10:59:34.675Z</time></trkpt><trkpt lat="44.4649924" lon="11.3198587"><ele>229.0</ele><time>2026-04-30T10:59:35.682Z</time></trkpt><trkpt lat="44.464921" lon="11.3198444"><ele>228.99999999999997</ele><time>2026-04-30T10:59:36.686Z</time></trkpt><trkpt lat="44.464855" lon="11.3198181"><ele>229.0</ele><time>2026-04-30T10:59:37.678Z</time></trkpt><trkpt lat="44.464789" lon="11.3197863"><ele>229.0</ele><time>2026-04-30T10:59:38.676Z</time></trkpt><trkpt lat="44.4647256" lon="11.3197531"><ele>229.0</ele><time>2026-04-30T10:59:39.675Z</time></trkpt><trkpt lat="44.4646632" lon="11.3197247"><ele>228.99999999999997</ele><time>2026-04-30T10:59:40.682Z</time></trkpt><trkpt lat="44.4645393" lon="11.3196839"><ele>229.0</ele><time>2026-04-30T10:59:42.675Z</time></trkpt><trkpt lat="44.4644746" lon="11.3196693"><ele>229.33333333333331</ele><time>2026-04-30T10:59:43.679Z</time></trkpt><trkpt lat="44.4644107" lon="11.3196585"><ele>229.66666666666666</ele><time>2026-04-30T10:59:44.673Z</time></trkpt><trkpt lat="44.464347" lon="11.3196443"><ele>230.0</ele><time>2026-04-30T10:59:45.692Z</time></trkpt><trkpt lat="44.4642781" lon="11.3196297"><ele>230.33333333333331</ele><time>2026-04-30T10:59:46.686Z</time></trkpt><trkpt lat="44.4641531" lon="11.3196074"><ele>230.66666666666666</ele><time>2026-04-30T10:59:48.682Z</time></trkpt><trkpt lat="44.4640321" lon="11.319588"><ele>231.0</ele><time>2026-04-30T10:59:50.691Z</time></trkpt><trkpt lat="44.463911" lon="11.3195693"><ele>231.0</ele><time>2026-04-30T10:59:52.684Z</time></trkpt><trkpt lat="44.4637935" lon="11.3195452"><ele>231.00000000000003</ele><time>2026-04-30T10:59:54.68Z</time></trkpt><trkpt lat="44.4636688" lon="11.3195437"><ele>231.00000000000003</ele><time>2026-04-30T10:59:56.67Z</time></trkpt><trkpt lat="44.4635418" lon="11.3195582"><ele>231.0</ele><time>2026-04-30T10:59:58.676Z</time></trkpt><trkpt lat="44.4634772" lon="11.3195664"><ele>231.0</ele><time>2026-04-30T10:59:59.679Z</time></trkpt><trkpt lat="44.4633528" lon="11.3195901"><ele>231.0</ele><time>2026-04-30T11:00:01.691Z</time></trkpt><trkpt lat="44.4632321" lon="11.3196182"><ele>231.00000000000003</ele><time>2026-04-30T11:00:03.685Z</time></trkpt><trkpt lat="44.4631213" lon="11.3196366"><ele>231.00000000000003</ele><time>2026-04-30T11:00:05.681Z</time></trkpt><trkpt lat="44.4630172" lon="11.3196344"><ele>231.0</ele><time>2026-04-30T11:00:07.688Z</time></trkpt><trkpt lat="44.4629078" lon="11.3196398"><ele>231.0</ele><time>2026-04-30T11:00:09.677Z</time></trkpt><trkpt lat="44.462802" lon="11.3196486"><ele>231.0</ele><time>2026-04-30T11:00:11.677Z</time></trkpt><trkpt lat="44.462693" lon="11.3196611"><ele>231.00000000000003</ele><time>2026-04-30T11:00:13.685Z</time></trkpt><trkpt lat="44.4625951" lon="11.3196782"><ele>231.00000000000003</ele><time>2026-04-30T11:00:15.679Z</time></trkpt><trkpt lat="44.4625031" lon="11.3197195"><ele>231.0</ele><time>2026-04-30T11:00:17.679Z</time></trkpt><trkpt lat="44.462436" lon="11.3198118"><ele>231.0</ele><time>2026-04-30T11:00:19.686Z</time></trkpt><trkpt lat="44.4624144" lon="11.3199251"><ele>231.42857142857144</ele><time>2026-04-30T11:00:21.682Z</time></trkpt><trkpt lat="44.4624088" lon="11.3200345"><ele>231.85714285714286</ele><time>2026-04-30T11:00:23.68Z</time></trkpt><trkpt lat="44.4623947" lon="11.3201311"><ele>232.28571428571428</ele><time>2026-04-30T11:00:25.684Z</time></trkpt><trkpt lat="44.4623844" lon="11.3202527"><ele>232.71428571428572</ele><time>2026-04-30T11:00:28.687Z</time></trkpt><trkpt lat="44.4623757" lon="11.3203437"><ele>233.14285714285717</ele><time>2026-04-30T11:00:30.679Z</time></trkpt><trkpt lat="44.4623659" lon="11.3204388"><ele>233.57142857142858</ele><time>2026-04-30T11:00:32.677Z</time></trkpt><trkpt lat="44.4623564" lon="11.3205413"><ele>234.0</ele><time>2026-04-30T11:00:34.68Z</time></trkpt><trkpt lat="44.4623521" lon="11.3206511"><ele>234.0</ele><time>2026-04-30T11:00:36.678Z</time></trkpt><trkpt lat="44.4623414" lon="11.3207653"><ele>234.0</ele><time>2026-04-30T11:00:38.677Z</time></trkpt><trkpt lat="44.4623329" lon="11.3208656"><ele>234.0</ele><time>2026-04-30T11:00:40.683Z</time></trkpt><trkpt lat="44.4623308" lon="11.3209677"><ele>234.0</ele><time>2026-04-30T11:00:42.687Z</time></trkpt><trkpt lat="44.462316" lon="11.3210989"><ele>234.0</ele><time>2026-04-30T11:00:44.686Z</time></trkpt><trkpt lat="44.4623052" lon="11.3212254"><ele>234.0</ele><time>2026-04-30T11:00:46.669Z</time></trkpt><trkpt lat="44.4622906" lon="11.3213519"><ele>233.16666666666666</ele><time>2026-04-30T11:00:48.684Z</time></trkpt><trkpt lat="44.4622775" lon="11.3214793"><ele>232.33333333333331</ele><time>2026-04-30T11:00:50.687Z</time></trkpt><trkpt lat="44.4622596" lon="11.3215997"><ele>231.5</ele><time>2026-04-30T11:00:52.692Z</time></trkpt><trkpt lat="44.4622447" lon="11.3217211"><ele>230.66666666666666</ele><time>2026-04-30T11:00:54.679Z</time></trkpt><trkpt lat="44.4622319" lon="11.3218365"><ele>229.83333333333331</ele><time>2026-04-30T11:00:56.669Z</time></trkpt><trkpt lat="44.4622183" lon="11.3219477"><ele>229.0</ele><time>2026-04-30T11:00:58.677Z</time></trkpt><trkpt lat="44.4622081" lon="11.3220527"><ele>228.99999999999997</ele><time>2026-04-30T11:01:00.69Z</time></trkpt><trkpt lat="44.4621966" lon="11.3221502"><ele>229.0</ele><time>2026-04-30T11:01:02.689Z</time></trkpt><trkpt lat="44.4621883" lon="11.3222418"><ele>229.0</ele><time>2026-04-30T11:01:04.686Z</time></trkpt><trkpt lat="44.4621779" lon="11.3223699"><ele>229.0</ele><time>2026-04-30T11:01:07.684Z</time></trkpt><trkpt lat="44.4621714" lon="11.3224838"><ele>228.99999999999997</ele><time>2026-04-30T11:01:10.682Z</time></trkpt><trkpt lat="44.4621593" lon="11.3225975"><ele>229.0</ele><time>2026-04-30T11:01:13.68Z</time></trkpt><trkpt lat="44.4621469" lon="11.3227072"><ele>229.49999999999997</ele><time>2026-04-30T11:01:16.681Z</time></trkpt><trkpt lat="44.4621421" lon="11.3227955"><ele>230.0</ele><time>2026-04-30T11:01:19.685Z</time></trkpt><trkpt lat="44.462133" lon="11.3229031"><ele>230.5</ele><time>2026-04-30T11:01:22.677Z</time></trkpt><trkpt lat="44.462123" lon="11.3230024"><ele>231.0</ele><time>2026-04-30T11:01:25.681Z</time></trkpt><trkpt lat="44.4621189" lon="11.3231156"><ele>231.49999999999997</ele><time>2026-04-30T11:01:28.668Z</time></trkpt><trkpt lat="44.462133" lon="11.323227"><ele>232.0</ele><time>2026-04-30T11:01:31.676Z</time></trkpt><trkpt lat="44.4621213" lon="11.3233345"><ele>232.5714285714286</ele><time>2026-04-30T11:01:34.693Z</time></trkpt><trkpt lat="44.4621197" lon="11.3234267"><ele>233.14285714285717</ele><time>2026-04-30T11:01:36.674Z</time></trkpt><trkpt lat="44.4620951" lon="11.3235333"><ele>233.71428571428572</ele><time>2026-04-30T11:01:38.685Z</time></trkpt><trkpt lat="44.4620832" lon="11.3236336"><ele>234.2857142857143</ele><time>2026-04-30T11:01:40.667Z</time></trkpt><trkpt lat="44.462073" lon="11.3237252"><ele>234.8571428571429</ele><time>2026-04-30T11:01:42.679Z</time></trkpt><trkpt lat="44.4620608" lon="11.3238166"><ele>235.42857142857142</ele><time>2026-04-30T11:01:44.684Z</time></trkpt><trkpt lat="44.4620424" lon="11.323919"><ele>236.0</ele><time>2026-04-30T11:01:46.683Z</time></trkpt><trkpt lat="44.4620219" lon="11.3240183"><ele>238.14285714285714</ele><time>2026-04-30T11:01:48.676Z</time></trkpt><trkpt lat="44.4620094" lon="11.3241194"><ele>240.28571428571428</ele><time>2026-04-30T11:01:50.688Z</time></trkpt><trkpt lat="44.4619959" lon="11.3242211"><ele>242.42857142857142</ele><time>2026-04-30T11:01:52.688Z</time></trkpt><trkpt lat="44.4619829" lon="11.3243198"><ele>244.57142857142856</ele><time>2026-04-30T11:01:54.686Z</time></trkpt><trkpt lat="44.4619707" lon="11.3244158"><ele>246.71428571428572</ele><time>2026-04-30T11:01:56.68Z</time></trkpt><trkpt lat="44.4619593" lon="11.3245143"><ele>248.85714285714283</ele><time>2026-04-30T11:01:58.677Z</time></trkpt><trkpt lat="44.4619479" lon="11.3246071"><ele>250.99999999999997</ele><time>2026-04-30T11:02:00.687Z</time></trkpt><trkpt lat="44.4619374" lon="11.3247005"><ele>250.99999999999997</ele><time>2026-04-30T11:02:02.682Z</time></trkpt><trkpt lat="44.4619255" lon="11.3247942"><ele>251.0</ele><time>2026-04-30T11:02:04.674Z</time></trkpt><trkpt lat="44.4619155" lon="11.3248867"><ele>250.99999999999997</ele><time>2026-04-30T11:02:06.679Z</time></trkpt><trkpt lat="44.4619041" lon="11.3249763"><ele>250.99999999999997</ele><time>2026-04-30T11:02:08.688Z</time></trkpt><trkpt lat="44.4618943" lon="11.3250645"><ele>251.0</ele><time>2026-04-30T11:02:10.682Z</time></trkpt><trkpt lat="44.4618788" lon="11.3251919"><ele>250.99999999999997</ele><time>2026-04-30T11:02:13.689Z</time></trkpt><trkpt lat="44.4618611" lon="11.3253188"><ele>250.99999999999997</ele><time>2026-04-30T11:02:16.675Z</time></trkpt><trkpt lat="44.4618304" lon="11.3254268"><ele>251.00000000000003</ele><time>2026-04-30T11:02:19.68Z</time></trkpt><trkpt lat="44.4617643" lon="11.3254991"><ele>251.0</ele><time>2026-04-30T11:02:22.68Z</time></trkpt><trkpt lat="44.4616987" lon="11.325495"><ele>251.0</ele><time>2026-04-30T11:02:24.677Z</time></trkpt><trkpt lat="44.461631" lon="11.3254901"><ele>251.0</ele><time>2026-04-30T11:02:26.675Z</time></trkpt><trkpt lat="44.4615568" lon="11.3254839"><ele>251.00000000000003</ele><time>2026-04-30T11:02:28.683Z</time></trkpt><trkpt lat="44.4614776" lon="11.3254688"><ele>251.0</ele><time>2026-04-30T11:02:30.679Z</time></trkpt><trkpt lat="44.4613978" lon="11.3254572"><ele>251.00000000000003</ele><time>2026-04-30T11:02:32.69Z</time></trkpt><trkpt lat="44.461319" lon="11.3254431"><ele>251.0</ele><time>2026-04-30T11:02:34.681Z</time></trkpt><trkpt lat="44.4612402" lon="11.325406"><ele>251.0</ele><time>2026-04-30T11:02:36.682Z</time></trkpt><trkpt lat="44.4611639" lon="11.3253597"><ele>251.0</ele><time>2026-04-30T11:02:38.674Z</time></trkpt><trkpt lat="44.4610867" lon="11.3253063"><ele>251.00000000000003</ele><time>2026-04-30T11:02:40.683Z</time></trkpt><trkpt lat="44.4610029" lon="11.3252461"><ele>251.0</ele><time>2026-04-30T11:02:42.684Z</time></trkpt><trkpt lat="44.4609089" lon="11.3251743"><ele>251.33333333333334</ele><time>2026-04-30T11:02:44.689Z</time></trkpt><trkpt lat="44.4608127" lon="11.3250983"><ele>251.66666666666669</ele><time>2026-04-30T11:02:46.685Z</time></trkpt><trkpt lat="44.460709" lon="11.3250127"><ele>252.0</ele><time>2026-04-30T11:02:48.669Z</time></trkpt><trkpt lat="44.460654" lon="11.3249638"><ele>252.33333333333331</ele><time>2026-04-30T11:02:49.685Z</time></trkpt><trkpt lat="44.4605984" lon="11.3249117"><ele>252.66666666666666</ele><time>2026-04-30T11:02:50.68Z</time></trkpt><trkpt lat="44.4605407" lon="11.3248587"><ele>253.0</ele><time>2026-04-30T11:02:51.683Z</time></trkpt><trkpt lat="44.4604801" lon="11.3248037"><ele>252.71428571428575</ele><time>2026-04-30T11:02:52.682Z</time></trkpt><trkpt lat="44.4604174" lon="11.3247491"><ele>252.42857142857144</ele><time>2026-04-30T11:02:53.688Z</time></trkpt><trkpt lat="44.4603555" lon="11.324695"><ele>252.14285714285714</ele><time>2026-04-30T11:02:54.686Z</time></trkpt><trkpt lat="44.460294" lon="11.3246421"><ele>251.85714285714286</ele><time>2026-04-30T11:02:55.684Z</time></trkpt><trkpt lat="44.4602319" lon="11.3245895"><ele>251.57142857142856</ele><time>2026-04-30T11:02:56.681Z</time></trkpt><trkpt lat="44.4601716" lon="11.324534"><ele>251.28571428571425</ele><time>2026-04-30T11:02:57.685Z</time></trkpt><trkpt lat="44.4601138" lon="11.3244764"><ele>250.99999999999997</ele><time>2026-04-30T11:02:58.677Z</time></trkpt><trkpt lat="44.4600555" lon="11.324415"><ele>251.00000000000003</ele><time>2026-04-30T11:02:59.682Z</time></trkpt><trkpt lat="44.4599962" lon="11.3243506"><ele>251.0</ele><time>2026-04-30T11:03:00.679Z</time></trkpt><trkpt lat="44.4599379" lon="11.3242827"><ele>251.0</ele><time>2026-04-30T11:03:01.684Z</time></trkpt><trkpt lat="44.4598793" lon="11.3242102"><ele>251.0</ele><time>2026-04-30T11:03:02.691Z</time></trkpt><trkpt lat="44.4598199" lon="11.3241301"><ele>251.00000000000003</ele><time>2026-04-30T11:03:03.69Z</time></trkpt><trkpt lat="44.4597593" lon="11.3240418"><ele>251.0</ele><time>2026-04-30T11:03:04.685Z</time></trkpt><trkpt lat="44.4596984" lon="11.3239463"><ele>252.4</ele><time>2026-04-30T11:03:05.69Z</time></trkpt><trkpt lat="44.4596385" lon="11.323844"><ele>253.8</ele><time>2026-04-30T11:03:06.682Z</time></trkpt><trkpt lat="44.4595784" lon="11.3237359"><ele>255.20000000000002</ele><time>2026-04-30T11:03:07.689Z</time></trkpt><trkpt lat="44.459514" lon="11.3236216"><ele>256.6</ele><time>2026-04-30T11:03:08.682Z</time></trkpt><trkpt lat="44.4594441" lon="11.3234975"><ele>258.0</ele><time>2026-04-30T11:03:09.697Z</time></trkpt><trkpt lat="44.459369" lon="11.323363"><ele>255.75</ele><time>2026-04-30T11:03:10.684Z</time></trkpt><trkpt lat="44.4592996" lon="11.3232295"><ele>253.5</ele><time>2026-04-30T11:03:11.677Z</time></trkpt><trkpt lat="44.4592309" lon="11.3230928"><ele>251.25</ele><time>2026-04-30T11:03:12.687Z</time></trkpt><trkpt lat="44.4591624" lon="11.3229593"><ele>249.0</ele><time>2026-04-30T11:03:13.683Z</time></trkpt><trkpt lat="44.4590909" lon="11.3228321"><ele>249.0</ele><time>2026-04-30T11:03:14.68Z</time></trkpt><trkpt lat="44.4590206" lon="11.3227087"><ele>248.99999999999997</ele><time>2026-04-30T11:03:15.684Z</time></trkpt><trkpt lat="44.4589552" lon="11.3225949"><ele>248.99999999999997</ele><time>2026-04-30T11:03:16.686Z</time></trkpt><trkpt lat="44.4588921" lon="11.322493"><ele>249.0</ele><time>2026-04-30T11:03:17.675Z</time></trkpt><trkpt lat="44.458833" lon="11.3224026"><ele>249.0</ele><time>2026-04-30T11:03:18.676Z</time></trkpt><trkpt lat="44.4587765" lon="11.3223205"><ele>247.85714285714283</ele><time>2026-04-30T11:03:19.677Z</time></trkpt><trkpt lat="44.4587211" lon="11.3222499"><ele>246.7142857142857</ele><time>2026-04-30T11:03:20.689Z</time></trkpt><trkpt lat="44.4586656" lon="11.3221825"><ele>245.57142857142856</ele><time>2026-04-30T11:03:21.682Z</time></trkpt><trkpt lat="44.4586168" lon="11.3221026"><ele>244.42857142857144</ele><time>2026-04-30T11:03:22.677Z</time></trkpt><trkpt lat="44.4585693" lon="11.322028"><ele>243.2857142857143</ele><time>2026-04-30T11:03:23.692Z</time></trkpt><trkpt lat="44.4585152" lon="11.3219586"><ele>242.14285714285717</ele><time>2026-04-30T11:03:24.683Z</time></trkpt><trkpt lat="44.4584569" lon="11.321897"><ele>241.0</ele><time>2026-04-30T11:03:25.685Z</time></trkpt><trkpt lat="44.4583923" lon="11.3218389"><ele>240.99999999999997</ele><time>2026-04-30T11:03:26.68Z</time></trkpt><trkpt lat="44.4583251" lon="11.3217824"><ele>241.0</ele><time>2026-04-30T11:03:27.682Z</time></trkpt><trkpt lat="44.4582581" lon="11.321727"><ele>241.0</ele><time>2026-04-30T11:03:28.682Z</time></trkpt><trkpt lat="44.4581901" lon="11.3216706"><ele>241.0</ele><time>2026-04-30T11:03:29.686Z</time></trkpt><trkpt lat="44.4581195" lon="11.3216099"><ele>240.99999999999997</ele><time>2026-04-30T11:03:30.679Z</time></trkpt><trkpt lat="44.4580502" lon="11.3215509"><ele>241.0</ele><time>2026-04-30T11:03:31.68Z</time></trkpt><trkpt lat="44.4579787" lon="11.3214893"><ele>240.16666666666666</ele><time>2026-04-30T11:03:32.689Z</time></trkpt><trkpt lat="44.4579044" lon="11.3214289"><ele>239.33333333333331</ele><time>2026-04-30T11:03:33.682Z</time></trkpt><trkpt lat="44.4578321" lon="11.3213711"><ele>238.5</ele><time>2026-04-30T11:03:34.689Z</time></trkpt><trkpt lat="44.4577605" lon="11.3213134"><ele>237.66666666666669</ele><time>2026-04-30T11:03:35.687Z</time></trkpt><trkpt lat="44.4576899" lon="11.3212549"><ele>236.83333333333334</ele><time>2026-04-30T11:03:36.682Z</time></trkpt><trkpt lat="44.4576195" lon="11.3211979"><ele>236.0</ele><time>2026-04-30T11:03:37.681Z</time></trkpt><trkpt lat="44.4575492" lon="11.3211401"><ele>236.00000000000003</ele><time>2026-04-30T11:03:38.68Z</time></trkpt><trkpt lat="44.4574786" lon="11.3210841"><ele>236.0</ele><time>2026-04-30T11:03:39.685Z</time></trkpt><trkpt lat="44.457409" lon="11.3210294"><ele>236.0</ele><time>2026-04-30T11:03:40.691Z</time></trkpt><trkpt lat="44.4573397" lon="11.3209725"><ele>236.0</ele><time>2026-04-30T11:03:41.682Z</time></trkpt><trkpt lat="44.4572724" lon="11.3209213"><ele>236.00000000000003</ele><time>2026-04-30T11:03:42.69Z</time></trkpt><trkpt lat="44.4572087" lon="11.32087"><ele>236.0</ele><time>2026-04-30T11:03:43.688Z</time></trkpt><trkpt lat="44.4571481" lon="11.3208206"><ele>236.00000000000003</ele><time>2026-04-30T11:03:44.684Z</time></trkpt><trkpt lat="44.4570894" lon="11.3207752"><ele>236.0</ele><time>2026-04-30T11:03:45.68Z</time></trkpt><trkpt lat="44.457031" lon="11.3207303"><ele>236.0</ele><time>2026-04-30T11:03:46.681Z</time></trkpt><trkpt lat="44.4569753" lon="11.3206832"><ele>236.0</ele><time>2026-04-30T11:03:47.677Z</time></trkpt><trkpt lat="44.4568728" lon="11.3206074"><ele>236.00000000000003</ele><time>2026-04-30T11:03:49.676Z</time></trkpt><trkpt lat="44.4567692" lon="11.3205366"><ele>236.0</ele><time>2026-04-30T11:03:51.687Z</time></trkpt><trkpt lat="44.4566719" lon="11.3204482"><ele>236.14285714285714</ele><time>2026-04-30T11:03:53.683Z</time></trkpt><trkpt lat="44.4565835" lon="11.320333"><ele>236.28571428571428</ele><time>2026-04-30T11:03:55.684Z</time></trkpt><trkpt lat="44.4565396" lon="11.3202695"><ele>236.42857142857142</ele><time>2026-04-30T11:03:56.681Z</time></trkpt><trkpt lat="44.4564955" lon="11.320206"><ele>236.57142857142856</ele><time>2026-04-30T11:03:57.685Z</time></trkpt><trkpt lat="44.4564512" lon="11.3201421"><ele>236.71428571428572</ele><time>2026-04-30T11:03:58.691Z</time></trkpt><trkpt lat="44.4564069" lon="11.3200743"><ele>236.85714285714283</ele><time>2026-04-30T11:03:59.688Z</time></trkpt><trkpt lat="44.4563593" lon="11.3200077"><ele>236.99999999999997</ele><time>2026-04-30T11:04:00.689Z</time></trkpt><trkpt lat="44.4563156" lon="11.3199396"><ele>237.0</ele><time>2026-04-30T11:04:01.69Z</time></trkpt><trkpt lat="44.4562737" lon="11.3198696"><ele>237.0</ele><time>2026-04-30T11:04:02.688Z</time></trkpt><trkpt lat="44.4562291" lon="11.3198029"><ele>237.0</ele><time>2026-04-30T11:04:03.684Z</time></trkpt><trkpt lat="44.4561435" lon="11.3196787"><ele>237.0</ele><time>2026-04-30T11:04:05.686Z</time></trkpt><trkpt lat="44.456048" lon="11.3195741"><ele>237.0</ele><time>2026-04-30T11:04:07.684Z</time></trkpt><trkpt lat="44.4559448" lon="11.3194791"><ele>237.28571428571425</ele><time>2026-04-30T11:04:09.685Z</time></trkpt><trkpt lat="44.4558921" lon="11.3194296"><ele>237.57142857142856</ele><time>2026-04-30T11:04:10.681Z</time></trkpt><trkpt lat="44.4558361" lon="11.3193838"><ele>237.85714285714286</ele><time>2026-04-30T11:04:11.68Z</time></trkpt><trkpt lat="44.4557772" lon="11.319339"><ele>238.14285714285714</ele><time>2026-04-30T11:04:12.685Z</time></trkpt><trkpt lat="44.4557183" lon="11.3192911"><ele>238.42857142857144</ele><time>2026-04-30T11:04:13.687Z</time></trkpt><trkpt lat="44.4556607" lon="11.3192371"><ele>238.71428571428575</ele><time>2026-04-30T11:04:14.681Z</time></trkpt><trkpt lat="44.4556009" lon="11.3191832"><ele>239.00000000000003</ele><time>2026-04-30T11:04:15.697Z</time></trkpt><trkpt lat="44.45554" lon="11.3191308"><ele>239.00000000000003</ele><time>2026-04-30T11:04:16.696Z</time></trkpt><trkpt lat="44.4554799" lon="11.3190783"><ele>239.0</ele><time>2026-04-30T11:04:17.687Z</time></trkpt><trkpt lat="44.4554213" lon="11.3190285"><ele>239.00000000000003</ele><time>2026-04-30T11:04:18.681Z</time></trkpt><trkpt lat="44.4553637" lon="11.3189825"><ele>239.00000000000003</ele><time>2026-04-30T11:04:19.688Z</time></trkpt><trkpt lat="44.4553085" lon="11.3189352"><ele>239.0</ele><time>2026-04-30T11:04:20.685Z</time></trkpt><trkpt lat="44.4552546" lon="11.318888"><ele>239.00000000000003</ele><time>2026-04-30T11:04:21.679Z</time></trkpt><trkpt lat="44.455199" lon="11.3188427"><ele>239.00000000000003</ele><time>2026-04-30T11:04:22.683Z</time></trkpt><trkpt lat="44.4551445" lon="11.3187962"><ele>238.2</ele><time>2026-04-30T11:04:23.686Z</time></trkpt><trkpt lat="44.4550365" lon="11.3187069"><ele>237.39999999999998</ele><time>2026-04-30T11:04:25.676Z</time></trkpt><trkpt lat="44.4549807" lon="11.3186648"><ele>236.6</ele><time>2026-04-30T11:04:26.685Z</time></trkpt><trkpt lat="44.4548755" lon="11.3185809"><ele>235.8</ele><time>2026-04-30T11:04:28.691Z</time></trkpt><trkpt lat="44.4547734" lon="11.3185037"><ele>235.0</ele><time>2026-04-30T11:04:30.684Z</time></trkpt><trkpt lat="44.4546669" lon="11.3184436"><ele>237.16666666666666</ele><time>2026-04-30T11:04:32.692Z</time></trkpt><trkpt lat="44.4545648" lon="11.3184012"><ele>239.33333333333331</ele><time>2026-04-30T11:04:34.678Z</time></trkpt><trkpt lat="44.4544759" lon="11.3183644"><ele>241.5</ele><time>2026-04-30T11:04:36.677Z</time></trkpt><trkpt lat="44.4543996" lon="11.318341"><ele>243.66666666666669</ele><time>2026-04-30T11:04:38.677Z</time></trkpt><trkpt lat="44.4543264" lon="11.3183175"><ele>245.83333333333334</ele><time>2026-04-30T11:04:40.686Z</time></trkpt><trkpt lat="44.4542517" lon="11.3183242"><ele>248.0</ele><time>2026-04-30T11:04:43.677Z</time></trkpt><trkpt lat="44.4542276" lon="11.3184293"><ele>248.00000000000003</ele><time>2026-04-30T11:04:48.672Z</time></trkpt><trkpt lat="44.4542233" lon="11.3185637"><ele>248.0</ele><time>2026-04-30T11:04:51.678Z</time></trkpt><trkpt lat="44.4542057" lon="11.3186541"><ele>248.0</ele><time>2026-04-30T11:04:53.687Z</time></trkpt><trkpt lat="44.454182" lon="11.3187752"><ele>248.0</ele><time>2026-04-30T11:04:56.676Z</time></trkpt><trkpt lat="44.4541571" lon="11.3188677"><ele>248.00000000000003</ele><time>2026-04-30T11:04:58.664Z</time></trkpt><trkpt lat="44.4541361" lon="11.3189579"><ele>248.0</ele><time>2026-04-30T11:05:00.682Z</time></trkpt><trkpt lat="44.4541082" lon="11.3190437"><ele>247.66666666666669</ele><time>2026-04-30T11:05:02.673Z</time></trkpt><trkpt lat="44.4540734" lon="11.3191233"><ele>247.33333333333334</ele><time>2026-04-30T11:05:04.673Z</time></trkpt><trkpt lat="44.4540337" lon="11.3192056"><ele>247.0</ele><time>2026-04-30T11:05:06.683Z</time></trkpt><trkpt lat="44.4539947" lon="11.3192786"><ele>246.66666666666669</ele><time>2026-04-30T11:05:08.685Z</time></trkpt><trkpt lat="44.4539247" lon="11.3193779"><ele>246.33333333333334</ele><time>2026-04-30T11:05:10.68Z</time></trkpt><trkpt lat="44.4538692" lon="11.3194696"><ele>246.0</ele><time>2026-04-30T11:05:12.689Z</time></trkpt><trkpt lat="44.4538068" lon="11.3195724"><ele>247.33333333333334</ele><time>2026-04-30T11:05:14.68Z</time></trkpt><trkpt lat="44.45374" lon="11.3196797"><ele>248.66666666666669</ele><time>2026-04-30T11:05:16.696Z</time></trkpt><trkpt lat="44.453692" lon="11.3197814"><ele>250.0</ele><time>2026-04-30T11:05:18.682Z</time></trkpt><trkpt lat="44.4536558" lon="11.3198731"><ele>251.33333333333334</ele><time>2026-04-30T11:05:20.676Z</time></trkpt><trkpt lat="44.4536118" lon="11.3199867"><ele>252.66666666666669</ele><time>2026-04-30T11:05:23.693Z</time></trkpt><trkpt lat="44.4535653" lon="11.3200945"><ele>254.0</ele><time>2026-04-30T11:05:26.682Z</time></trkpt><trkpt lat="44.4535334" lon="11.320173"><ele>254.00000000000003</ele><time>2026-04-30T11:05:28.673Z</time></trkpt><trkpt lat="44.4534925" lon="11.3202552"><ele>254.0</ele><time>2026-04-30T11:05:30.681Z</time></trkpt><trkpt lat="44.453455" lon="11.3203416"><ele>254.0</ele><time>2026-04-30T11:05:32.683Z</time></trkpt><trkpt lat="44.4534106" lon="11.3204402"><ele>254.0</ele><time>2026-04-30T11:05:34.679Z</time></trkpt><trkpt lat="44.4533559" lon="11.3205456"><ele>254.00000000000003</ele><time>2026-04-30T11:05:36.667Z</time></trkpt><trkpt lat="44.4533007" lon="11.3206613"><ele>254.0</ele><time>2026-04-30T11:05:38.686Z</time></trkpt><trkpt lat="44.4532526" lon="11.3207881"><ele>252.6</ele><time>2026-04-30T11:05:40.686Z</time></trkpt><trkpt lat="44.4532357" lon="11.3209402"><ele>251.2</ele><time>2026-04-30T11:05:42.676Z</time></trkpt><trkpt lat="44.4532488" lon="11.3210906"><ele>249.79999999999998</ele><time>2026-04-30T11:05:44.674Z</time></trkpt><trkpt lat="44.453307" lon="11.3212309"><ele>248.39999999999998</ele><time>2026-04-30T11:05:46.688Z</time></trkpt><trkpt lat="44.4533416" lon="11.3213091"><ele>247.0</ele><time>2026-04-30T11:05:47.689Z</time></trkpt><trkpt lat="44.4533747" lon="11.3213961"><ele>246.49999999999997</ele><time>2026-04-30T11:05:48.68Z</time></trkpt><trkpt lat="44.4533943" lon="11.3214971"><ele>246.0</ele><time>2026-04-30T11:05:49.676Z</time></trkpt><trkpt lat="44.4534032" lon="11.3216275"><ele>245.5</ele><time>2026-04-30T11:05:50.675Z</time></trkpt><trkpt lat="44.4533897" lon="11.321752"><ele>245.0</ele><time>2026-04-30T11:05:51.677Z</time></trkpt><trkpt lat="44.4533428" lon="11.3218561"><ele>244.49999999999997</ele><time>2026-04-30T11:05:52.678Z</time></trkpt><trkpt lat="44.4532836" lon="11.3219431"><ele>244.0</ele><time>2026-04-30T11:05:53.673Z</time></trkpt><trkpt lat="44.4532183" lon="11.3220197"><ele>244.0</ele><time>2026-04-30T11:05:54.674Z</time></trkpt><trkpt lat="44.4531495" lon="11.3220971"><ele>243.99999999999997</ele><time>2026-04-30T11:05:55.685Z</time></trkpt><trkpt lat="44.4530871" lon="11.3221623"><ele>243.99999999999997</ele><time>2026-04-30T11:05:56.672Z</time></trkpt><trkpt lat="44.4530276" lon="11.3222274"><ele>244.0</ele><time>2026-04-30T11:05:57.684Z</time></trkpt><trkpt lat="44.4529285" lon="11.3223483"><ele>244.0</ele><time>2026-04-30T11:05:59.676Z</time></trkpt><trkpt lat="44.4528377" lon="11.3224606"><ele>244.28571428571425</ele><time>2026-04-30T11:06:01.677Z</time></trkpt><trkpt lat="44.452784" lon="11.3225235"><ele>244.57142857142856</ele><time>2026-04-30T11:06:02.684Z</time></trkpt><trkpt lat="44.4527265" lon="11.3225804"><ele>244.85714285714286</ele><time>2026-04-30T11:06:03.677Z</time></trkpt><trkpt lat="44.4526637" lon="11.3226224"><ele>245.14285714285714</ele><time>2026-04-30T11:06:04.684Z</time></trkpt><trkpt lat="44.4526019" lon="11.3226608"><ele>245.42857142857144</ele><time>2026-04-30T11:06:05.675Z</time></trkpt><trkpt lat="44.4525354" lon="11.322699"><ele>245.71428571428575</ele><time>2026-04-30T11:06:06.685Z</time></trkpt><trkpt lat="44.4524585" lon="11.322734"><ele>246.00000000000003</ele><time>2026-04-30T11:06:07.684Z</time></trkpt><trkpt lat="44.45237" lon="11.3227717"><ele>246.0</ele><time>2026-04-30T11:06:08.682Z</time></trkpt><trkpt lat="44.4522875" lon="11.3228104"><ele>246.00000000000003</ele><time>2026-04-30T11:06:09.684Z</time></trkpt><trkpt lat="44.4522026" lon="11.3228494"><ele>246.00000000000003</ele><time>2026-04-30T11:06:10.681Z</time></trkpt><trkpt lat="44.4521111" lon="11.322917"><ele>246.0</ele><time>2026-04-30T11:06:11.676Z</time></trkpt><trkpt lat="44.4520214" lon="11.3229969"><ele>246.0</ele><time>2026-04-30T11:06:12.688Z</time></trkpt><trkpt lat="44.451931" lon="11.3230797"><ele>244.20000000000002</ele><time>2026-04-30T11:06:13.685Z</time></trkpt><trkpt lat="44.4518422" lon="11.3231733"><ele>242.40000000000003</ele><time>2026-04-30T11:06:14.686Z</time></trkpt><trkpt lat="44.4517547" lon="11.3232619"><ele>240.6</ele><time>2026-04-30T11:06:15.686Z</time></trkpt><trkpt lat="44.4516606" lon="11.3233103"><ele>238.8</ele><time>2026-04-30T11:06:16.682Z</time></trkpt><trkpt lat="44.4515727" lon="11.3233546"><ele>237.0</ele><time>2026-04-30T11:06:17.673Z</time></trkpt><trkpt lat="44.4514938" lon="11.3233969"><ele>237.0</ele><time>2026-04-30T11:06:18.675Z</time></trkpt><trkpt lat="44.4514228" lon="11.3234328"><ele>237.0</ele><time>2026-04-30T11:06:19.671Z</time></trkpt><trkpt lat="44.4513595" lon="11.3234643"><ele>237.0</ele><time>2026-04-30T11:06:20.673Z</time></trkpt><trkpt lat="44.451248" lon="11.3234995"><ele>237.0</ele><time>2026-04-30T11:06:22.677Z</time></trkpt><trkpt lat="44.4511478" lon="11.3235107"><ele>237.0</ele><time>2026-04-30T11:06:24.67Z</time></trkpt><trkpt lat="44.4510601" lon="11.323543"><ele>237.0</ele><time>2026-04-30T11:06:26.677Z</time></trkpt><trkpt lat="44.4509938" lon="11.3236302"><ele>240.5</ele><time>2026-04-30T11:06:28.685Z</time></trkpt><trkpt lat="44.450972" lon="11.3237394"><ele>244.0</ele><time>2026-04-30T11:06:30.681Z</time></trkpt><trkpt lat="44.4509996" lon="11.3238504"><ele>247.5</ele><time>2026-04-30T11:06:32.674Z</time></trkpt><trkpt lat="44.4510338" lon="11.3239481"><ele>251.0</ele><time>2026-04-30T11:06:34.684Z</time></trkpt><trkpt lat="44.4510756" lon="11.324049"><ele>254.5</ele><time>2026-04-30T11:06:36.678Z</time></trkpt><trkpt lat="44.4511192" lon="11.3241733"><ele>258.0</ele><time>2026-04-30T11:06:38.684Z</time></trkpt><trkpt lat="44.4511701" lon="11.324304"><ele>258.8333333333333</ele><time>2026-04-30T11:06:40.689Z</time></trkpt><trkpt lat="44.4512553" lon="11.3244323"><ele>259.6666666666667</ele><time>2026-04-30T11:06:42.686Z</time></trkpt><trkpt lat="44.4513147" lon="11.3244959"><ele>260.5</ele><time>2026-04-30T11:06:43.677Z</time></trkpt><trkpt lat="44.4513676" lon="11.3245666"><ele>261.33333333333337</ele><time>2026-04-30T11:06:44.678Z</time></trkpt><trkpt lat="44.4514047" lon="11.3246547"><ele>262.1666666666667</ele><time>2026-04-30T11:06:45.673Z</time></trkpt><trkpt lat="44.4514268" lon="11.3247398"><ele>263.0</ele><time>2026-04-30T11:06:46.68Z</time></trkpt><trkpt lat="44.4514671" lon="11.3248953"><ele>259.8</ele><time>2026-04-30T11:06:48.689Z</time></trkpt><trkpt lat="44.4515055" lon="11.3250312"><ele>256.6</ele><time>2026-04-30T11:06:50.681Z</time></trkpt><trkpt lat="44.4515443" lon="11.3251685"><ele>253.39999999999998</ele><time>2026-04-30T11:06:52.677Z</time></trkpt><trkpt lat="44.4515736" lon="11.3253195"><ele>250.2</ele><time>2026-04-30T11:06:54.687Z</time></trkpt><trkpt lat="44.4516106" lon="11.3254567"><ele>247.0</ele><time>2026-04-30T11:06:56.686Z</time></trkpt><trkpt lat="44.4516508" lon="11.3256037"><ele>247.0</ele><time>2026-04-30T11:06:58.671Z</time></trkpt><trkpt lat="44.4516794" lon="11.3257425"><ele>247.0</ele><time>2026-04-30T11:07:00.678Z</time></trkpt><trkpt lat="44.4516842" lon="11.3259014"><ele>247.0</ele><time>2026-04-30T11:07:02.693Z</time></trkpt><trkpt lat="44.4516658" lon="11.3260704"><ele>247.0</ele><time>2026-04-30T11:07:04.678Z</time></trkpt><trkpt lat="44.4516491" lon="11.3261637"><ele>247.0</ele><time>2026-04-30T11:07:05.686Z</time></trkpt><trkpt lat="44.4516299" lon="11.3262646"><ele>247.0</ele><time>2026-04-30T11:07:06.664Z</time></trkpt><trkpt lat="44.4516127" lon="11.3263718"><ele>247.0</ele><time>2026-04-30T11:07:07.681Z</time></trkpt><trkpt lat="44.4516026" lon="11.3264823"><ele>247.0</ele><time>2026-04-30T11:07:08.681Z</time></trkpt><trkpt lat="44.4516084" lon="11.3265828"><ele>247.0</ele><time>2026-04-30T11:07:09.68Z</time></trkpt><trkpt lat="44.4516131" lon="11.3266837"><ele>247.0</ele><time>2026-04-30T11:07:10.685Z</time></trkpt><trkpt lat="44.4516193" lon="11.3267776"><ele>247.0</ele><time>2026-04-30T11:07:11.688Z</time></trkpt><trkpt lat="44.4516215" lon="11.3268721"><ele>247.0</ele><time>2026-04-30T11:07:12.679Z</time></trkpt><trkpt lat="44.4516244" lon="11.3269639"><ele>246.42857142857144</ele><time>2026-04-30T11:07:13.681Z</time></trkpt><trkpt lat="44.4516264" lon="11.3270596"><ele>245.85714285714283</ele><time>2026-04-30T11:07:14.687Z</time></trkpt><trkpt lat="44.4516301" lon="11.3271536"><ele>245.28571428571428</ele><time>2026-04-30T11:07:15.678Z</time></trkpt><trkpt lat="44.4516349" lon="11.3272467"><ele>244.71428571428572</ele><time>2026-04-30T11:07:16.682Z</time></trkpt><trkpt lat="44.4516365" lon="11.3273431"><ele>244.14285714285717</ele><time>2026-04-30T11:07:17.685Z</time></trkpt><trkpt lat="44.4516383" lon="11.3274324"><ele>243.57142857142856</ele><time>2026-04-30T11:07:18.68Z</time></trkpt><trkpt lat="44.4516414" lon="11.3275207"><ele>243.0</ele><time>2026-04-30T11:07:19.687Z</time></trkpt><trkpt lat="44.4516426" lon="11.3276154"><ele>242.60000000000002</ele><time>2026-04-30T11:07:20.678Z</time></trkpt><trkpt lat="44.4516443" lon="11.3277039"><ele>242.20000000000002</ele><time>2026-04-30T11:07:21.682Z</time></trkpt><trkpt lat="44.451667" lon="11.3278667"><ele>241.8</ele><time>2026-04-30T11:07:23.68Z</time></trkpt><trkpt lat="44.4517359" lon="11.3280323"><ele>241.4</ele><time>2026-04-30T11:07:25.683Z</time></trkpt><trkpt lat="44.4517693" lon="11.3281343"><ele>241.0</ele><time>2026-04-30T11:07:26.687Z</time></trkpt><trkpt lat="44.451801" lon="11.32824"><ele>239.8</ele><time>2026-04-30T11:07:27.681Z</time></trkpt><trkpt lat="44.4518017" lon="11.3283555"><ele>238.60000000000002</ele><time>2026-04-30T11:07:28.675Z</time></trkpt><trkpt lat="44.4517905" lon="11.3284805"><ele>237.4</ele><time>2026-04-30T11:07:29.674Z</time></trkpt><trkpt lat="44.4517697" lon="11.3286108"><ele>236.2</ele><time>2026-04-30T11:07:30.684Z</time></trkpt><trkpt lat="44.4517468" lon="11.3287498"><ele>235.0</ele><time>2026-04-30T11:07:31.684Z</time></trkpt><trkpt lat="44.4517149" lon="11.3288861"><ele>233.49999999999997</ele><time>2026-04-30T11:07:32.68Z</time></trkpt><trkpt lat="44.4516837" lon="11.3290217"><ele>232.0</ele><time>2026-04-30T11:07:33.682Z</time></trkpt><trkpt lat="44.4516404" lon="11.3291456"><ele>230.5</ele><time>2026-04-30T11:07:34.684Z</time></trkpt><trkpt lat="44.4516014" lon="11.3292588"><ele>229.0</ele><time>2026-04-30T11:07:35.682Z</time></trkpt><trkpt lat="44.4515523" lon="11.3293486"><ele>227.49999999999997</ele><time>2026-04-30T11:07:36.678Z</time></trkpt><trkpt lat="44.4514979" lon="11.3294191"><ele>226.0</ele><time>2026-04-30T11:07:37.676Z</time></trkpt><trkpt lat="44.4514383" lon="11.3294661"><ele>226.0</ele><time>2026-04-30T11:07:38.687Z</time></trkpt><trkpt lat="44.4513318" lon="11.3295411"><ele>226.00000000000003</ele><time>2026-04-30T11:07:40.68Z</time></trkpt><trkpt lat="44.4512381" lon="11.3296067"><ele>226.00000000000003</ele><time>2026-04-30T11:07:42.675Z</time></trkpt><trkpt lat="44.4511773" lon="11.3296475"><ele>226.0</ele><time>2026-04-30T11:07:44.69Z</time></trkpt><trkpt lat="44.4510981" lon="11.3296953"><ele>226.0</ele><time>2026-04-30T11:07:47.682Z</time></trkpt><trkpt lat="44.451024" lon="11.3297652"><ele>228.99999999999997</ele><time>2026-04-30T11:07:50.672Z</time></trkpt><trkpt lat="44.4509646" lon="11.3298625"><ele>232.0</ele><time>2026-04-30T11:07:53.689Z</time></trkpt><trkpt lat="44.4509217" lon="11.3299671"><ele>235.0</ele><time>2026-04-30T11:07:56.686Z</time></trkpt><trkpt lat="44.4508847" lon="11.3300403"><ele>238.0</ele><time>2026-04-30T11:07:58.688Z</time></trkpt><trkpt lat="44.4508534" lon="11.330131"><ele>240.99999999999997</ele><time>2026-04-30T11:08:00.682Z</time></trkpt><trkpt lat="44.4508222" lon="11.3302237"><ele>244.0</ele><time>2026-04-30T11:08:02.675Z</time></trkpt><trkpt lat="44.4507957" lon="11.3303167"><ele>243.99999999999997</ele><time>2026-04-30T11:08:04.686Z</time></trkpt><trkpt lat="44.450786" lon="11.3304223"><ele>244.0</ele><time>2026-04-30T11:08:06.679Z</time></trkpt><trkpt lat="44.4507932" lon="11.3305293"><ele>244.0</ele><time>2026-04-30T11:08:08.682Z</time></trkpt><trkpt lat="44.4507977" lon="11.3306251"><ele>244.0</ele><time>2026-04-30T11:08:10.682Z</time></trkpt><trkpt lat="44.4508071" lon="11.3307583"><ele>243.99999999999997</ele><time>2026-04-30T11:08:13.68Z</time></trkpt><trkpt lat="44.4508099" lon="11.3308921"><ele>244.0</ele><time>2026-04-30T11:08:15.679Z</time></trkpt><trkpt lat="44.450811" lon="11.3310243"><ele>242.83333333333331</ele><time>2026-04-30T11:08:17.691Z</time></trkpt><trkpt lat="44.4508077" lon="11.3311449"><ele>241.66666666666666</ele><time>2026-04-30T11:08:19.686Z</time></trkpt><trkpt lat="44.4508085" lon="11.331266"><ele>240.5</ele><time>2026-04-30T11:08:21.666Z</time></trkpt><trkpt lat="44.4508098" lon="11.3313823"><ele>239.33333333333331</ele><time>2026-04-30T11:08:23.669Z</time></trkpt><trkpt lat="44.4508133" lon="11.3314929"><ele>238.16666666666666</ele><time>2026-04-30T11:08:25.676Z</time></trkpt><trkpt lat="44.4508167" lon="11.3315899"><ele>237.0</ele><time>2026-04-30T11:08:27.678Z</time></trkpt><trkpt lat="44.4508268" lon="11.3316943"><ele>236.99999999999997</ele><time>2026-04-30T11:08:29.68Z</time></trkpt><trkpt lat="44.4508397" lon="11.3318035"><ele>237.0</ele><time>2026-04-30T11:08:31.677Z</time></trkpt><trkpt lat="44.4508628" lon="11.3318999"><ele>236.99999999999997</ele><time>2026-04-30T11:08:33.678Z</time></trkpt><trkpt lat="44.4508928" lon="11.3320152"><ele>236.99999999999997</ele><time>2026-04-30T11:08:36.683Z</time></trkpt><trkpt lat="44.4509226" lon="11.3320991"><ele>237.0</ele><time>2026-04-30T11:08:40.68Z</time></trkpt><trkpt lat="44.450946" lon="11.3321845"><ele>236.99999999999997</ele><time>2026-04-30T11:08:43.697Z</time></trkpt><trkpt lat="44.4509776" lon="11.3322683"><ele>236.99999999999997</ele><time>2026-04-30T11:08:45.677Z</time></trkpt><trkpt lat="44.4510137" lon="11.3323787"><ele>239.28571428571425</ele><time>2026-04-30T11:08:48.686Z</time></trkpt><trkpt lat="44.4510426" lon="11.3324781"><ele>241.57142857142856</ele><time>2026-04-30T11:08:51.685Z</time></trkpt><trkpt lat="44.451075" lon="11.332564"><ele>243.85714285714286</ele><time>2026-04-30T11:08:54.676Z</time></trkpt><trkpt lat="44.4511035" lon="11.3326468"><ele>246.14285714285714</ele><time>2026-04-30T11:08:57.676Z</time></trkpt><trkpt lat="44.4511419" lon="11.3327403"><ele>248.42857142857144</ele><time>2026-04-30T11:09:02.677Z</time></trkpt><trkpt lat="44.4511568" lon="11.3328283"><ele>250.71428571428575</ele><time>2026-04-30T11:09:05.675Z</time></trkpt><trkpt lat="44.4511712" lon="11.3329343"><ele>253.00000000000003</ele><time>2026-04-30T11:09:09.682Z</time></trkpt><trkpt lat="44.451178" lon="11.3330283"><ele>251.83333333333331</ele><time>2026-04-30T11:09:14.678Z</time></trkpt><trkpt lat="44.4512374" lon="11.3330581"><ele>250.66666666666666</ele><time>2026-04-30T11:09:18.686Z</time></trkpt><trkpt lat="44.4513189" lon="11.3330882"><ele>249.5</ele><time>2026-04-30T11:09:20.677Z</time></trkpt><trkpt lat="44.4514439" lon="11.3331551"><ele>248.33333333333331</ele><time>2026-04-30T11:09:22.686Z</time></trkpt><trkpt lat="44.45151" lon="11.3332136"><ele>247.16666666666666</ele><time>2026-04-30T11:09:23.683Z</time></trkpt><trkpt lat="44.4515731" lon="11.3332857"><ele>246.0</ele><time>2026-04-30T11:09:24.679Z</time></trkpt><trkpt lat="44.4516232" lon="11.3333801"><ele>246.00000000000003</ele><time>2026-04-30T11:09:25.681Z</time></trkpt><trkpt lat="44.4516596" lon="11.3334704"><ele>246.0</ele><time>2026-04-30T11:09:26.684Z</time></trkpt><trkpt lat="44.4516921" lon="11.3335547"><ele>246.00000000000003</ele><time>2026-04-30T11:09:27.667Z</time></trkpt><trkpt lat="44.4517301" lon="11.3336469"><ele>246.00000000000003</ele><time>2026-04-30T11:09:30.659Z</time></trkpt><trkpt lat="44.4518058" lon="11.3337246"><ele>246.0</ele><time>2026-04-30T11:09:34.672Z</time></trkpt><trkpt lat="44.4518631" lon="11.3337727"><ele>246.00000000000003</ele><time>2026-04-30T11:09:37.687Z</time></trkpt><trkpt lat="44.4518164" lon="11.3338329"><ele>246.00000000000003</ele><time>2026-04-30T11:10:38.676Z</time></trkpt><trkpt lat="44.4518927" lon="11.33382"><ele>246.0</ele><time>2026-04-30T11:13:56.684Z</time></trkpt><trkpt lat="44.4519599" lon="11.3338416"><ele>246.0</ele><time>2026-04-30T11:14:07.682Z</time></trkpt><trkpt lat="44.4520408" lon="11.3338841"><ele>246.0</ele><time>2026-04-30T11:14:10.688Z</time></trkpt><trkpt lat="44.4521047" lon="11.333912"><ele>246.0</ele><time>2026-04-30T11:14:12.686Z</time></trkpt><trkpt lat="44.4521778" lon="11.3339426"><ele>246.0</ele><time>2026-04-30T11:14:14.694Z</time></trkpt><trkpt lat="44.4522547" lon="11.3339695"><ele>246.0</ele><time>2026-04-30T11:14:16.684Z</time></trkpt><trkpt lat="44.4523268" lon="11.3340057"><ele>245.16666666666666</ele><time>2026-04-30T11:14:18.691Z</time></trkpt><trkpt lat="44.4524014" lon="11.3340477"><ele>244.33333333333331</ele><time>2026-04-30T11:14:20.682Z</time></trkpt><trkpt lat="44.4524776" lon="11.3340848"><ele>243.5</ele><time>2026-04-30T11:14:22.668Z</time></trkpt><trkpt lat="44.4525537" lon="11.3341196"><ele>242.66666666666666</ele><time>2026-04-30T11:14:24.69Z</time></trkpt><trkpt lat="44.4526311" lon="11.3341507"><ele>241.83333333333331</ele><time>2026-04-30T11:14:26.683Z</time></trkpt><trkpt lat="44.4527041" lon="11.3341832"><ele>241.0</ele><time>2026-04-30T11:14:28.681Z</time></trkpt><trkpt lat="44.4527814" lon="11.3342135"><ele>240.99999999999997</ele><time>2026-04-30T11:14:30.688Z</time></trkpt><trkpt lat="44.4528599" lon="11.334245"><ele>241.0</ele><time>2026-04-30T11:14:32.69Z</time></trkpt><trkpt lat="44.4529387" lon="11.3342819"><ele>241.0</ele><time>2026-04-30T11:14:34.696Z</time></trkpt><trkpt lat="44.4530173" lon="11.3343175"><ele>241.0</ele><time>2026-04-30T11:14:36.687Z</time></trkpt><trkpt lat="44.4530922" lon="11.3343489"><ele>240.99999999999997</ele><time>2026-04-30T11:14:38.667Z</time></trkpt><trkpt lat="44.4531763" lon="11.3343867"><ele>241.0</ele><time>2026-04-30T11:14:40.685Z</time></trkpt><trkpt lat="44.4532557" lon="11.3344188"><ele>241.66666666666666</ele><time>2026-04-30T11:14:42.683Z</time></trkpt><trkpt lat="44.4533379" lon="11.3344545"><ele>242.33333333333331</ele><time>2026-04-30T11:14:44.676Z</time></trkpt><trkpt lat="44.453422" lon="11.3344936"><ele>243.0</ele><time>2026-04-30T11:14:46.682Z</time></trkpt><trkpt lat="44.4535054" lon="11.3345339"><ele>243.66666666666669</ele><time>2026-04-30T11:14:48.682Z</time></trkpt><trkpt lat="44.4535895" lon="11.3345746"><ele>244.33333333333334</ele><time>2026-04-30T11:14:50.683Z</time></trkpt><trkpt lat="44.4536752" lon="11.3346229"><ele>245.0</ele><time>2026-04-30T11:14:52.684Z</time></trkpt><trkpt lat="44.4537562" lon="11.334676"><ele>243.8</ele><time>2026-04-30T11:14:54.682Z</time></trkpt><trkpt lat="44.4538381" lon="11.3347556"><ele>242.6</ele><time>2026-04-30T11:14:56.686Z</time></trkpt><trkpt lat="44.4539191" lon="11.3348661"><ele>241.39999999999998</ele><time>2026-04-30T11:14:58.682Z</time></trkpt><trkpt lat="44.4540085" lon="11.3349938"><ele>240.2</ele><time>2026-04-30T11:15:00.678Z</time></trkpt><trkpt lat="44.4540549" lon="11.3350607"><ele>239.0</ele><time>2026-04-30T11:15:01.681Z</time></trkpt><trkpt lat="44.4541073" lon="11.3351425"><ele>239.00000000000003</ele><time>2026-04-30T11:15:02.687Z</time></trkpt><trkpt lat="44.4541617" lon="11.3352262"><ele>239.0</ele><time>2026-04-30T11:15:03.688Z</time></trkpt><trkpt lat="44.4542185" lon="11.335313"><ele>239.0</ele><time>2026-04-30T11:15:04.694Z</time></trkpt><trkpt lat="44.4542763" lon="11.335408"><ele>239.0</ele><time>2026-04-30T11:15:05.688Z</time></trkpt><trkpt lat="44.4543304" lon="11.3355102"><ele>239.00000000000003</ele><time>2026-04-30T11:15:06.69Z</time></trkpt><trkpt lat="44.4543795" lon="11.3356235"><ele>239.0</ele><time>2026-04-30T11:15:07.695Z</time></trkpt><trkpt lat="44.4544182" lon="11.3357453"><ele>237.33333333333334</ele><time>2026-04-30T11:15:08.679Z</time></trkpt><trkpt lat="44.4544462" lon="11.3358636"><ele>235.66666666666669</ele><time>2026-04-30T11:15:09.679Z</time></trkpt><trkpt lat="44.4544699" lon="11.3359753"><ele>234.0</ele><time>2026-04-30T11:15:10.68Z</time></trkpt><trkpt lat="44.454498" lon="11.3360848"><ele>232.33333333333331</ele><time>2026-04-30T11:15:11.682Z</time></trkpt><trkpt lat="44.4545312" lon="11.3361844"><ele>230.66666666666666</ele><time>2026-04-30T11:15:12.684Z</time></trkpt><trkpt lat="44.4545661" lon="11.3362849"><ele>229.0</ele><time>2026-04-30T11:15:13.688Z</time></trkpt><trkpt lat="44.454626" lon="11.3363623"><ele>227.83333333333331</ele><time>2026-04-30T11:15:14.684Z</time></trkpt><trkpt lat="44.4546928" lon="11.3364213"><ele>226.66666666666666</ele><time>2026-04-30T11:15:15.685Z</time></trkpt><trkpt lat="44.454771" lon="11.336456"><ele>225.5</ele><time>2026-04-30T11:15:16.686Z</time></trkpt><trkpt lat="44.4548553" lon="11.3364732"><ele>224.33333333333331</ele><time>2026-04-30T11:15:17.684Z</time></trkpt><trkpt lat="44.454943" lon="11.3364743"><ele>223.16666666666666</ele><time>2026-04-30T11:15:18.685Z</time></trkpt><trkpt lat="44.4550282" lon="11.336471"><ele>222.0</ele><time>2026-04-30T11:15:19.677Z</time></trkpt><trkpt lat="44.4551089" lon="11.3364536"><ele>222.0</ele><time>2026-04-30T11:15:20.698Z</time></trkpt><trkpt lat="44.4551858" lon="11.3364224"><ele>222.0</ele><time>2026-04-30T11:15:21.688Z</time></trkpt><trkpt lat="44.4552633" lon="11.3363902"><ele>222.0</ele><time>2026-04-30T11:15:22.678Z</time></trkpt><trkpt lat="44.4553383" lon="11.3363381"><ele>222.0</ele><time>2026-04-30T11:15:23.682Z</time></trkpt><trkpt lat="44.4554007" lon="11.3362389"><ele>222.0</ele><time>2026-04-30T11:15:24.686Z</time></trkpt><trkpt lat="44.4554616" lon="11.3361389"><ele>222.0</ele><time>2026-04-30T11:15:25.681Z</time></trkpt><trkpt lat="44.4555099" lon="11.3360158"><ele>220.6</ele><time>2026-04-30T11:15:26.683Z</time></trkpt><trkpt lat="44.4555453" lon="11.3358807"><ele>219.2</ele><time>2026-04-30T11:15:27.686Z</time></trkpt><trkpt lat="44.4555805" lon="11.3357428"><ele>217.8</ele><time>2026-04-30T11:15:28.688Z</time></trkpt><trkpt lat="44.4556041" lon="11.335599"><ele>216.4</ele><time>2026-04-30T11:15:29.685Z</time></trkpt><trkpt lat="44.4556186" lon="11.3354492"><ele>215.0</ele><time>2026-04-30T11:15:30.687Z</time></trkpt><trkpt lat="44.4556329" lon="11.3353014"><ele>213.2</ele><time>2026-04-30T11:15:31.681Z</time></trkpt><trkpt lat="44.45564" lon="11.335151"><ele>211.4</ele><time>2026-04-30T11:15:32.685Z</time></trkpt><trkpt lat="44.4556148" lon="11.3350014"><ele>209.60000000000002</ele><time>2026-04-30T11:15:33.684Z</time></trkpt><trkpt lat="44.4555874" lon="11.3348472"><ele>207.8</ele><time>2026-04-30T11:15:34.685Z</time></trkpt><trkpt lat="44.4555601" lon="11.3346903"><ele>206.0</ele><time>2026-04-30T11:15:35.671Z</time></trkpt><trkpt lat="44.4555308" lon="11.3345345"><ele>207.20000000000002</ele><time>2026-04-30T11:15:36.685Z</time></trkpt><trkpt lat="44.455496" lon="11.3343867"><ele>208.4</ele><time>2026-04-30T11:15:37.686Z</time></trkpt><trkpt lat="44.4554624" lon="11.334258"><ele>209.6</ele><time>2026-04-30T11:15:38.688Z</time></trkpt><trkpt lat="44.4554311" lon="11.3341384"><ele>210.8</ele><time>2026-04-30T11:15:39.684Z</time></trkpt><trkpt lat="44.4554027" lon="11.3340366"><ele>212.0</ele><time>2026-04-30T11:15:40.68Z</time></trkpt><trkpt lat="44.4553408" lon="11.3339372"><ele>209.0</ele><time>2026-04-30T11:15:41.684Z</time></trkpt><trkpt lat="44.4552652" lon="11.3338622"><ele>206.0</ele><time>2026-04-30T11:15:42.685Z</time></trkpt><trkpt lat="44.4551782" lon="11.3337871"><ele>203.0</ele><time>2026-04-30T11:15:43.686Z</time></trkpt><trkpt lat="44.4550903" lon="11.3337129"><ele>200.0</ele><time>2026-04-30T11:15:44.687Z</time></trkpt><trkpt lat="44.4549946" lon="11.3336361"><ele>197.0</ele><time>2026-04-30T11:15:45.676Z</time></trkpt><trkpt lat="44.4548954" lon="11.3335573"><ele>197.0</ele><time>2026-04-30T11:15:46.69Z</time></trkpt><trkpt lat="44.4547965" lon="11.3334796"><ele>197.0</ele><time>2026-04-30T11:15:47.682Z</time></trkpt><trkpt lat="44.4547029" lon="11.3334054"><ele>197.0</ele><time>2026-04-30T11:15:48.687Z</time></trkpt><trkpt lat="44.4546157" lon="11.3333325"><ele>197.0</ele><time>2026-04-30T11:15:49.677Z</time></trkpt><trkpt lat="44.4545305" lon="11.333262"><ele>197.0</ele><time>2026-04-30T11:15:50.693Z</time></trkpt><trkpt lat="44.4544468" lon="11.3331942"><ele>195.8</ele><time>2026-04-30T11:15:51.684Z</time></trkpt><trkpt lat="44.4543639" lon="11.3331266"><ele>194.6</ele><time>2026-04-30T11:15:52.682Z</time></trkpt><trkpt lat="44.4542749" lon="11.3330534"><ele>193.4</ele><time>2026-04-30T11:15:53.684Z</time></trkpt><trkpt lat="44.454196" lon="11.3329751"><ele>192.20000000000002</ele><time>2026-04-30T11:15:54.689Z</time></trkpt><trkpt lat="44.4541334" lon="11.3328778"><ele>191.0</ele><time>2026-04-30T11:15:55.684Z</time></trkpt><trkpt lat="44.4540899" lon="11.3327712"><ele>191.0</ele><time>2026-04-30T11:15:56.684Z</time></trkpt><trkpt lat="44.4540627" lon="11.3326545"><ele>191.0</ele><time>2026-04-30T11:15:57.68Z</time></trkpt><trkpt lat="44.4540365" lon="11.3325257"><ele>191.0</ele><time>2026-04-30T11:15:58.688Z</time></trkpt><trkpt lat="44.454045" lon="11.3323905"><ele>191.0</ele><time>2026-04-30T11:15:59.686Z</time></trkpt><trkpt lat="44.4540738" lon="11.3322519"><ele>191.0</ele><time>2026-04-30T11:16:00.687Z</time></trkpt><trkpt lat="44.4541025" lon="11.3321061"><ele>189.60000000000002</ele><time>2026-04-30T11:16:01.683Z</time></trkpt><trkpt lat="44.4541343" lon="11.3319529"><ele>188.2</ele><time>2026-04-30T11:16:02.685Z</time></trkpt><trkpt lat="44.4541564" lon="11.3318018"><ele>186.8</ele><time>2026-04-30T11:16:03.685Z</time></trkpt><trkpt lat="44.4541749" lon="11.3316574"><ele>185.39999999999998</ele><time>2026-04-30T11:16:04.675Z</time></trkpt><trkpt lat="44.4541953" lon="11.3315163"><ele>184.0</ele><time>2026-04-30T11:16:05.689Z</time></trkpt><trkpt lat="44.4542276" lon="11.3313907"><ele>182.6</ele><time>2026-04-30T11:16:06.684Z</time></trkpt><trkpt lat="44.4542812" lon="11.3312766"><ele>181.2</ele><time>2026-04-30T11:16:07.685Z</time></trkpt><trkpt lat="44.4543543" lon="11.33117"><ele>179.79999999999998</ele><time>2026-04-30T11:16:08.689Z</time></trkpt><trkpt lat="44.454442" lon="11.3310731"><ele>178.39999999999998</ele><time>2026-04-30T11:16:09.683Z</time></trkpt><trkpt lat="44.4545385" lon="11.3309883"><ele>177.0</ele><time>2026-04-30T11:16:10.69Z</time></trkpt><trkpt lat="44.4546328" lon="11.3309204"><ele>174.8</ele><time>2026-04-30T11:16:11.683Z</time></trkpt><trkpt lat="44.4547239" lon="11.3308756"><ele>172.6</ele><time>2026-04-30T11:16:12.686Z</time></trkpt><trkpt lat="44.4548141" lon="11.3308722"><ele>170.4</ele><time>2026-04-30T11:16:13.694Z</time></trkpt><trkpt lat="44.4549077" lon="11.330905"><ele>168.20000000000002</ele><time>2026-04-30T11:16:14.688Z</time></trkpt><trkpt lat="44.4549969" lon="11.3309694"><ele>166.0</ele><time>2026-04-30T11:16:15.684Z</time></trkpt><trkpt lat="44.4550834" lon="11.3310471"><ele>166.0</ele><time>2026-04-30T11:16:16.677Z</time></trkpt><trkpt lat="44.4551771" lon="11.3311125"><ele>166.0</ele><time>2026-04-30T11:16:17.684Z</time></trkpt><trkpt lat="44.4552773" lon="11.3311548"><ele>166.0</ele><time>2026-04-30T11:16:18.686Z</time></trkpt><trkpt lat="44.4553811" lon="11.3311823"><ele>166.0</ele><time>2026-04-30T11:16:19.681Z</time></trkpt><trkpt lat="44.455483" lon="11.3311923"><ele>166.0</ele><time>2026-04-30T11:16:20.683Z</time></trkpt><trkpt lat="44.455578" lon="11.3311797"><ele>163.60000000000002</ele><time>2026-04-30T11:16:21.677Z</time></trkpt><trkpt lat="44.4556607" lon="11.3311452"><ele>161.20000000000002</ele><time>2026-04-30T11:16:22.681Z</time></trkpt><trkpt lat="44.4557311" lon="11.3310837"><ele>158.8</ele><time>2026-04-30T11:16:23.688Z</time></trkpt><trkpt lat="44.4557885" lon="11.3309921"><ele>156.4</ele><time>2026-04-30T11:16:24.68Z</time></trkpt><trkpt lat="44.4558369" lon="11.3308799"><ele>154.0</ele><time>2026-04-30T11:16:25.676Z</time></trkpt><trkpt lat="44.4558945" lon="11.3307634"><ele>154.0</ele><time>2026-04-30T11:16:26.689Z</time></trkpt><trkpt lat="44.455964" lon="11.3306618"><ele>154.0</ele><time>2026-04-30T11:16:27.689Z</time></trkpt><trkpt lat="44.4560463" lon="11.3305848"><ele>154.0</ele><time>2026-04-30T11:16:28.683Z</time></trkpt><trkpt lat="44.4561414" lon="11.3305309"><ele>154.0</ele><time>2026-04-30T11:16:29.681Z</time></trkpt><trkpt lat="44.4562419" lon="11.3305027"><ele>154.0</ele><time>2026-04-30T11:16:30.68Z</time></trkpt><trkpt lat="44.4563485" lon="11.3304987"><ele>151.25</ele><time>2026-04-30T11:16:31.689Z</time></trkpt><trkpt lat="44.4564599" lon="11.3304936"><ele>148.5</ele><time>2026-04-30T11:16:32.686Z</time></trkpt><trkpt lat="44.4565741" lon="11.3304774"><ele>145.75</ele><time>2026-04-30T11:16:33.684Z</time></trkpt><trkpt lat="44.4566882" lon="11.3304486"><ele>143.0</ele><time>2026-04-30T11:16:34.684Z</time></trkpt><trkpt lat="44.4567953" lon="11.3304275"><ele>143.0</ele><time>2026-04-30T11:16:35.687Z</time></trkpt><trkpt lat="44.4568913" lon="11.3304351"><ele>143.0</ele><time>2026-04-30T11:16:36.683Z</time></trkpt><trkpt lat="44.4569775" lon="11.3304754"><ele>143.0</ele><time>2026-04-30T11:16:37.677Z</time></trkpt><trkpt lat="44.4570538" lon="11.3305437"><ele>143.0</ele><time>2026-04-30T11:16:38.687Z</time></trkpt><trkpt lat="44.4571206" lon="11.3306255"><ele>143.0</ele><time>2026-04-30T11:16:39.68Z</time></trkpt><trkpt lat="44.457177" lon="11.3307176"><ele>142.66666666666666</ele><time>2026-04-30T11:16:40.686Z</time></trkpt><trkpt lat="44.4572232" lon="11.3308247"><ele>142.33333333333331</ele><time>2026-04-30T11:16:41.683Z</time></trkpt><trkpt lat="44.4572522" lon="11.3309442"><ele>142.0</ele><time>2026-04-30T11:16:42.682Z</time></trkpt><trkpt lat="44.4572536" lon="11.3310699"><ele>141.66666666666666</ele><time>2026-04-30T11:16:43.684Z</time></trkpt><trkpt lat="44.4572229" lon="11.331187"><ele>141.33333333333334</ele><time>2026-04-30T11:16:44.682Z</time></trkpt><trkpt lat="44.4571816" lon="11.3312933"><ele>141.0</ele><time>2026-04-30T11:16:45.688Z</time></trkpt><trkpt lat="44.4571416" lon="11.3313992"><ele>140.83333333333334</ele><time>2026-04-30T11:16:46.687Z</time></trkpt><trkpt lat="44.4571606" lon="11.3315058"><ele>140.66666666666666</ele><time>2026-04-30T11:16:47.681Z</time></trkpt><trkpt lat="44.4571801" lon="11.3316076"><ele>140.5</ele><time>2026-04-30T11:16:48.686Z</time></trkpt><trkpt lat="44.4572403" lon="11.3316962"><ele>140.33333333333331</ele><time>2026-04-30T11:16:49.678Z</time></trkpt><trkpt lat="44.4573034" lon="11.3317824"><ele>140.16666666666666</ele><time>2026-04-30T11:16:50.693Z</time></trkpt><trkpt lat="44.4573667" lon="11.3318751"><ele>140.0</ele><time>2026-04-30T11:16:51.687Z</time></trkpt><trkpt lat="44.4574308" lon="11.3319714"><ele>140.0</ele><time>2026-04-30T11:16:52.691Z</time></trkpt><trkpt lat="44.4574956" lon="11.3320706"><ele>140.0</ele><time>2026-04-30T11:16:53.687Z</time></trkpt><trkpt lat="44.4575631" lon="11.3321787"><ele>140.0</ele><time>2026-04-30T11:16:54.689Z</time></trkpt><trkpt lat="44.4576249" lon="11.3323056"><ele>140.0</ele><time>2026-04-30T11:16:55.689Z</time></trkpt><trkpt lat="44.457682" lon="11.3324385"><ele>140.0</ele><time>2026-04-30T11:16:56.685Z</time></trkpt><trkpt lat="44.4577368" lon="11.3325697"><ele>139.8</ele><time>2026-04-30T11:16:57.691Z</time></trkpt><trkpt lat="44.4577966" lon="11.3326976"><ele>139.6</ele><time>2026-04-30T11:16:58.678Z</time></trkpt><trkpt lat="44.4578534" lon="11.3328163"><ele>139.4</ele><time>2026-04-30T11:16:59.683Z</time></trkpt><trkpt lat="44.457923" lon="11.3329101"><ele>139.2</ele><time>2026-04-30T11:17:00.675Z</time></trkpt><trkpt lat="44.458013" lon="11.333"><ele>139.0</ele><time>2026-04-30T11:17:01.675Z</time></trkpt><trkpt lat="44.4581068" lon="11.3330872"><ele>138.4</ele><time>2026-04-30T11:17:02.685Z</time></trkpt><trkpt lat="44.4581984" lon="11.3331723"><ele>137.8</ele><time>2026-04-30T11:17:03.688Z</time></trkpt><trkpt lat="44.4582868" lon="11.3332569"><ele>137.2</ele><time>2026-04-30T11:17:04.69Z</time></trkpt><trkpt lat="44.458376" lon="11.3333411"><ele>136.6</ele><time>2026-04-30T11:17:05.673Z</time></trkpt><trkpt lat="44.4584633" lon="11.3334253"><ele>136.0</ele><time>2026-04-30T11:17:06.673Z</time></trkpt><trkpt lat="44.458551" lon="11.33351"><ele>136.0</ele><time>2026-04-30T11:17:07.686Z</time></trkpt><trkpt lat="44.4586357" lon="11.3335947"><ele>136.0</ele><time>2026-04-30T11:17:08.684Z</time></trkpt><trkpt lat="44.4587204" lon="11.3336765"><ele>136.0</ele><time>2026-04-30T11:17:09.679Z</time></trkpt><trkpt lat="44.4588043" lon="11.3337553"><ele>136.0</ele><time>2026-04-30T11:17:10.681Z</time></trkpt><trkpt lat="44.4588879" lon="11.333832"><ele>136.0</ele><time>2026-04-30T11:17:11.687Z</time></trkpt><trkpt lat="44.4589714" lon="11.3338976"><ele>136.83333333333334</ele><time>2026-04-30T11:17:12.688Z</time></trkpt><trkpt lat="44.4590565" lon="11.3339474"><ele>137.66666666666669</ele><time>2026-04-30T11:17:13.684Z</time></trkpt><trkpt lat="44.4591414" lon="11.333996"><ele>138.5</ele><time>2026-04-30T11:17:14.661Z</time></trkpt><trkpt lat="44.4592179" lon="11.3340533"><ele>139.33333333333334</ele><time>2026-04-30T11:17:15.695Z</time></trkpt><trkpt lat="44.4592816" lon="11.3341297"><ele>140.16666666666666</ele><time>2026-04-30T11:17:16.677Z</time></trkpt><trkpt lat="44.459343" lon="11.334204"><ele>141.0</ele><time>2026-04-30T11:17:17.67Z</time></trkpt><trkpt lat="44.4593893" lon="11.3342914"><ele>141.0</ele><time>2026-04-30T11:17:18.686Z</time></trkpt><trkpt lat="44.4594285" lon="11.3343861"><ele>141.0</ele><time>2026-04-30T11:17:19.673Z</time></trkpt><trkpt lat="44.4594666" lon="11.3344849"><ele>141.0</ele><time>2026-04-30T11:17:20.685Z</time></trkpt><trkpt lat="44.4594951" lon="11.3345871"><ele>141.0</ele><time>2026-04-30T11:17:21.688Z</time></trkpt><trkpt lat="44.4595243" lon="11.3346956"><ele>141.0</ele><time>2026-04-30T11:17:22.673Z</time></trkpt><trkpt lat="44.4595549" lon="11.3348008"><ele>141.0</ele><time>2026-04-30T11:17:23.683Z</time></trkpt><trkpt lat="44.4595853" lon="11.3349043"><ele>140.66666666666666</ele><time>2026-04-30T11:17:24.679Z</time></trkpt><trkpt lat="44.459624" lon="11.3349983"><ele>140.33333333333334</ele><time>2026-04-30T11:17:25.686Z</time></trkpt><trkpt lat="44.4596619" lon="11.3350907"><ele>140.0</ele><time>2026-04-30T11:17:26.686Z</time></trkpt><trkpt lat="44.4597048" lon="11.3351832"><ele>139.66666666666669</ele><time>2026-04-30T11:17:27.69Z</time></trkpt><trkpt lat="44.4597643" lon="11.3352584"><ele>139.33333333333334</ele><time>2026-04-30T11:17:28.683Z</time></trkpt><trkpt lat="44.4598264" lon="11.3353203"><ele>139.0</ele><time>2026-04-30T11:17:29.682Z</time></trkpt><trkpt lat="44.4598923" lon="11.3353781"><ele>139.0</ele><time>2026-04-30T11:17:30.681Z</time></trkpt><trkpt lat="44.4599606" lon="11.3354432"><ele>139.0</ele><time>2026-04-30T11:17:31.684Z</time></trkpt><trkpt lat="44.4600231" lon="11.3355032"><ele>139.0</ele><time>2026-04-30T11:17:32.685Z</time></trkpt><trkpt lat="44.4600864" lon="11.3355702"><ele>139.0</ele><time>2026-04-30T11:17:33.675Z</time></trkpt><trkpt lat="44.4601473" lon="11.335633"><ele>139.0</ele><time>2026-04-30T11:17:34.682Z</time></trkpt><trkpt lat="44.4602049" lon="11.3356991"><ele>139.0</ele><time>2026-04-30T11:17:35.679Z</time></trkpt><trkpt lat="44.4602651" lon="11.3357729"><ele>139.16666666666669</ele><time>2026-04-30T11:17:36.683Z</time></trkpt><trkpt lat="44.4603211" lon="11.3358532"><ele>139.33333333333334</ele><time>2026-04-30T11:17:37.681Z</time></trkpt><trkpt lat="44.4603754" lon="11.3359415"><ele>139.5</ele><time>2026-04-30T11:17:38.69Z</time></trkpt><trkpt lat="44.4604322" lon="11.3360296"><ele>139.66666666666666</ele><time>2026-04-30T11:17:39.679Z</time></trkpt><trkpt lat="44.4604889" lon="11.3361169"><ele>139.83333333333331</ele><time>2026-04-30T11:17:40.687Z</time></trkpt><trkpt lat="44.4605453" lon="11.3362094"><ele>140.0</ele><time>2026-04-30T11:17:41.683Z</time></trkpt><trkpt lat="44.4605988" lon="11.3363044"><ele>138.5</ele><time>2026-04-30T11:17:42.676Z</time></trkpt><trkpt lat="44.4606475" lon="11.3364023"><ele>137.0</ele><time>2026-04-30T11:17:43.681Z</time></trkpt><trkpt lat="44.4606956" lon="11.3365006"><ele>135.5</ele><time>2026-04-30T11:17:44.662Z</time></trkpt><trkpt lat="44.4607315" lon="11.3366012"><ele>134.0</ele><time>2026-04-30T11:17:45.669Z</time></trkpt><trkpt lat="44.4607646" lon="11.3367075"><ele>132.5</ele><time>2026-04-30T11:17:46.708Z</time></trkpt><trkpt lat="44.4608087" lon="11.3368022"><ele>131.0</ele><time>2026-04-30T11:17:47.68Z</time></trkpt><trkpt lat="44.4608512" lon="11.3368877"><ele>131.0</ele><time>2026-04-30T11:17:48.685Z</time></trkpt><trkpt lat="44.4609245" lon="11.3369227"><ele>131.0</ele><time>2026-04-30T11:17:49.677Z</time></trkpt><trkpt lat="44.4610099" lon="11.3369271"><ele>131.0</ele><time>2026-04-30T11:17:50.68Z</time></trkpt><trkpt lat="44.4610937" lon="11.3369212"><ele>131.0</ele><time>2026-04-30T11:17:51.675Z</time></trkpt><trkpt lat="44.4611819" lon="11.3369146"><ele>131.0</ele><time>2026-04-30T11:17:52.683Z</time></trkpt><trkpt lat="44.4612654" lon="11.3368998"><ele>131.0</ele><time>2026-04-30T11:17:53.682Z</time></trkpt><trkpt lat="44.4613483" lon="11.3368848"><ele>130.5</ele><time>2026-04-30T11:17:54.677Z</time></trkpt><trkpt lat="44.4614287" lon="11.3368697"><ele>130.0</ele><time>2026-04-30T11:17:55.685Z</time></trkpt><trkpt lat="44.4615058" lon="11.3368566"><ele>129.5</ele><time>2026-04-30T11:17:56.672Z</time></trkpt><trkpt lat="44.4615815" lon="11.3368373"><ele>129.0</ele><time>2026-04-30T11:17:57.676Z</time></trkpt><trkpt lat="44.4616575" lon="11.3368143"><ele>128.5</ele><time>2026-04-30T11:17:58.688Z</time></trkpt><trkpt lat="44.4617315" lon="11.3367872"><ele>128.0</ele><time>2026-04-30T11:17:59.681Z</time></trkpt><trkpt lat="44.4618052" lon="11.3367581"><ele>127.99999999999999</ele><time>2026-04-30T11:18:00.669Z</time></trkpt><trkpt lat="44.4618773" lon="11.3367262"><ele>128.0</ele><time>2026-04-30T11:18:01.688Z</time></trkpt><trkpt lat="44.4619482" lon="11.3366908"><ele>128.0</ele><time>2026-04-30T11:18:02.682Z</time></trkpt><trkpt lat="44.4620208" lon="11.3366556"><ele>128.0</ele><time>2026-04-30T11:18:03.679Z</time></trkpt><trkpt lat="44.4620935" lon="11.3366223"><ele>127.99999999999999</ele><time>2026-04-30T11:18:04.683Z</time></trkpt><trkpt lat="44.4621653" lon="11.3365883"><ele>128.0</ele><time>2026-04-30T11:18:05.676Z</time></trkpt><trkpt lat="44.4622376" lon="11.3365583"><ele>127.85714285714285</ele><time>2026-04-30T11:18:06.685Z</time></trkpt><trkpt lat="44.4623126" lon="11.336534"><ele>127.7142857142857</ele><time>2026-04-30T11:18:07.685Z</time></trkpt><trkpt lat="44.4623872" lon="11.33651"><ele>127.57142857142857</ele><time>2026-04-30T11:18:08.683Z</time></trkpt><trkpt lat="44.4624608" lon="11.3364876"><ele>127.42857142857142</ele><time>2026-04-30T11:18:09.688Z</time></trkpt><trkpt lat="44.4625332" lon="11.3364673"><ele>127.28571428571428</ele><time>2026-04-30T11:18:10.683Z</time></trkpt><trkpt lat="44.4626036" lon="11.3364469"><ele>127.14285714285714</ele><time>2026-04-30T11:18:11.689Z</time></trkpt><trkpt lat="44.4626753" lon="11.3364351"><ele>127.0</ele><time>2026-04-30T11:18:12.678Z</time></trkpt><trkpt lat="44.4627467" lon="11.3364255"><ele>127.0</ele><time>2026-04-30T11:18:13.685Z</time></trkpt><trkpt lat="44.4628173" lon="11.3364221"><ele>127.0</ele><time>2026-04-30T11:18:14.679Z</time></trkpt><trkpt lat="44.4628883" lon="11.3364238"><ele>127.0</ele><time>2026-04-30T11:18:15.691Z</time></trkpt><trkpt lat="44.4629618" lon="11.3364258"><ele>127.0</ele><time>2026-04-30T11:18:16.675Z</time></trkpt><trkpt lat="44.4630346" lon="11.336443"><ele>127.0</ele><time>2026-04-30T11:18:17.673Z</time></trkpt><trkpt lat="44.4631053" lon="11.3364679"><ele>127.0</ele><time>2026-04-30T11:18:18.678Z</time></trkpt><trkpt lat="44.4631763" lon="11.3364905"><ele>127.0</ele><time>2026-04-30T11:18:19.678Z</time></trkpt><trkpt lat="44.4632475" lon="11.3365078"><ele>126.57142857142858</ele><time>2026-04-30T11:18:20.681Z</time></trkpt><trkpt lat="44.4633208" lon="11.3365139"><ele>126.14285714285714</ele><time>2026-04-30T11:18:21.677Z</time></trkpt><trkpt lat="44.4633941" lon="11.3365132"><ele>125.71428571428572</ele><time>2026-04-30T11:18:22.678Z</time></trkpt><trkpt lat="44.4634675" lon="11.3365077"><ele>125.28571428571429</ele><time>2026-04-30T11:18:23.691Z</time></trkpt><trkpt lat="44.4635424" lon="11.3364995"><ele>124.85714285714286</ele><time>2026-04-30T11:18:24.684Z</time></trkpt><trkpt lat="44.4636181" lon="11.3364885"><ele>124.42857142857143</ele><time>2026-04-30T11:18:25.688Z</time></trkpt><trkpt lat="44.4636944" lon="11.3364782"><ele>124.0</ele><time>2026-04-30T11:18:26.688Z</time></trkpt><trkpt lat="44.4637704" lon="11.3364558"><ele>123.83333333333334</ele><time>2026-04-30T11:18:27.68Z</time></trkpt><trkpt lat="44.4638439" lon="11.336418"><ele>123.66666666666667</ele><time>2026-04-30T11:18:28.685Z</time></trkpt><trkpt lat="44.463913" lon="11.3363657"><ele>123.5</ele><time>2026-04-30T11:18:29.695Z</time></trkpt><trkpt lat="44.463979" lon="11.3363045"><ele>123.33333333333334</ele><time>2026-04-30T11:18:30.676Z</time></trkpt><trkpt lat="44.4640433" lon="11.3362391"><ele>123.16666666666667</ele><time>2026-04-30T11:18:31.688Z</time></trkpt><trkpt lat="44.4641097" lon="11.3361773"><ele>123.0</ele><time>2026-04-30T11:18:32.681Z</time></trkpt><trkpt lat="44.464177" lon="11.3361192"><ele>123.33333333333333</ele><time>2026-04-30T11:18:33.674Z</time></trkpt><trkpt lat="44.4642463" lon="11.3360693"><ele>123.66666666666666</ele><time>2026-04-30T11:18:34.672Z</time></trkpt><trkpt lat="44.4643193" lon="11.3360298"><ele>124.0</ele><time>2026-04-30T11:18:35.674Z</time></trkpt><trkpt lat="44.464393" lon="11.3359956"><ele>124.33333333333333</ele><time>2026-04-30T11:18:36.676Z</time></trkpt><trkpt lat="44.4644698" lon="11.3359765"><ele>124.66666666666666</ele><time>2026-04-30T11:18:37.673Z</time></trkpt><trkpt lat="44.4645481" lon="11.3359748"><ele>125.0</ele><time>2026-04-30T11:18:38.683Z</time></trkpt><trkpt lat="44.4646248" lon="11.3359769"><ele>125.0</ele><time>2026-04-30T11:18:39.684Z</time></trkpt><trkpt lat="44.4647003" lon="11.3359818"><ele>125.0</ele><time>2026-04-30T11:18:40.675Z</time></trkpt><trkpt lat="44.4647729" lon="11.3359918"><ele>125.0</ele><time>2026-04-30T11:18:41.677Z</time></trkpt><trkpt lat="44.4648436" lon="11.3360016"><ele>125.0</ele><time>2026-04-30T11:18:42.676Z</time></trkpt><trkpt lat="44.4649124" lon="11.3360175"><ele>125.0</ele><time>2026-04-30T11:18:43.686Z</time></trkpt><trkpt lat="44.4649784" lon="11.3360493"><ele>125.0</ele><time>2026-04-30T11:18:44.683Z</time></trkpt><trkpt lat="44.4650414" lon="11.3360913"><ele>125.0</ele><time>2026-04-30T11:18:45.685Z</time></trkpt><trkpt lat="44.4651028" lon="11.3361383"><ele>125.0</ele><time>2026-04-30T11:18:46.678Z</time></trkpt><trkpt lat="44.4651625" lon="11.3361892"><ele>125.0</ele><time>2026-04-30T11:18:47.688Z</time></trkpt><trkpt lat="44.4652182" lon="11.3362419"><ele>125.0</ele><time>2026-04-30T11:18:48.682Z</time></trkpt><trkpt lat="44.4652747" lon="11.3362894"><ele>125.0</ele><time>2026-04-30T11:18:49.676Z</time></trkpt><trkpt lat="44.4653307" lon="11.3363373"><ele>125.0</ele><time>2026-04-30T11:18:50.691Z</time></trkpt><trkpt lat="44.4653868" lon="11.3363838"><ele>125.0</ele><time>2026-04-30T11:18:51.68Z</time></trkpt><trkpt lat="44.4654421" lon="11.3364319"><ele>125.0</ele><time>2026-04-30T11:18:52.679Z</time></trkpt><trkpt lat="44.4654963" lon="11.3364795"><ele>125.57142857142857</ele><time>2026-04-30T11:18:53.682Z</time></trkpt><trkpt lat="44.4655545" lon="11.336524"><ele>126.14285714285714</ele><time>2026-04-30T11:18:54.674Z</time></trkpt><trkpt lat="44.4656132" lon="11.3365642"><ele>126.71428571428571</ele><time>2026-04-30T11:18:55.691Z</time></trkpt><trkpt lat="44.4656747" lon="11.3366058"><ele>127.28571428571428</ele><time>2026-04-30T11:18:56.684Z</time></trkpt><trkpt lat="44.4657367" lon="11.3366451"><ele>127.85714285714286</ele><time>2026-04-30T11:18:57.687Z</time></trkpt><trkpt lat="44.4658027" lon="11.3366793"><ele>128.42857142857142</ele><time>2026-04-30T11:18:58.69Z</time></trkpt><trkpt lat="44.4658692" lon="11.3367055"><ele>129.0</ele><time>2026-04-30T11:18:59.672Z</time></trkpt><trkpt lat="44.4659371" lon="11.3367248"><ele>128.99999999999997</ele><time>2026-04-30T11:19:00.684Z</time></trkpt><trkpt lat="44.4660049" lon="11.3367436"><ele>129.0</ele><time>2026-04-30T11:19:01.692Z</time></trkpt><trkpt lat="44.4660732" lon="11.3367506"><ele>129.0</ele><time>2026-04-30T11:19:02.682Z</time></trkpt><trkpt lat="44.4661419" lon="11.3367544"><ele>129.0</ele><time>2026-04-30T11:19:03.678Z</time></trkpt><trkpt lat="44.4662122" lon="11.3367554"><ele>129.0</ele><time>2026-04-30T11:19:04.691Z</time></trkpt><trkpt lat="44.4662832" lon="11.3367536"><ele>128.99999999999997</ele><time>2026-04-30T11:19:05.675Z</time></trkpt><trkpt lat="44.4663536" lon="11.3367434"><ele>129.0</ele><time>2026-04-30T11:19:06.683Z</time></trkpt><trkpt lat="44.4664272" lon="11.3367301"><ele>127.5</ele><time>2026-04-30T11:19:07.674Z</time></trkpt><trkpt lat="44.4665018" lon="11.3367157"><ele>126.0</ele><time>2026-04-30T11:19:08.678Z</time></trkpt><trkpt lat="44.466578" lon="11.3367046"><ele>124.5</ele><time>2026-04-30T11:19:09.684Z</time></trkpt><trkpt lat="44.466656" lon="11.3366993"><ele>123.0</ele><time>2026-04-30T11:19:10.683Z</time></trkpt><trkpt lat="44.4667339" lon="11.3366984"><ele>121.5</ele><time>2026-04-30T11:19:11.693Z</time></trkpt><trkpt lat="44.4668108" lon="11.336697"><ele>120.0</ele><time>2026-04-30T11:19:12.684Z</time></trkpt><trkpt lat="44.4668889" lon="11.3366941"><ele>120.0</ele><time>2026-04-30T11:19:13.677Z</time></trkpt><trkpt lat="44.4669664" lon="11.3366836"><ele>120.0</ele><time>2026-04-30T11:19:14.675Z</time></trkpt><trkpt lat="44.467045" lon="11.3366645"><ele>120.0</ele><time>2026-04-30T11:19:15.688Z</time></trkpt><trkpt lat="44.467125" lon="11.336638"><ele>120.0</ele><time>2026-04-30T11:19:16.682Z</time></trkpt><trkpt lat="44.467206" lon="11.3366089"><ele>120.0</ele><time>2026-04-30T11:19:17.688Z</time></trkpt><trkpt lat="44.4672897" lon="11.3365872"><ele>120.0</ele><time>2026-04-30T11:19:18.681Z</time></trkpt><trkpt lat="44.4673758" lon="11.3365703"><ele>119.8</ele><time>2026-04-30T11:19:19.676Z</time></trkpt><trkpt lat="44.4674639" lon="11.3365491"><ele>119.6</ele><time>2026-04-30T11:19:20.685Z</time></trkpt><trkpt lat="44.4675544" lon="11.3365275"><ele>119.4</ele><time>2026-04-30T11:19:21.677Z</time></trkpt><trkpt lat="44.4676484" lon="11.3365243"><ele>119.2</ele><time>2026-04-30T11:19:22.678Z</time></trkpt><trkpt lat="44.4677409" lon="11.336558"><ele>119.0</ele><time>2026-04-30T11:19:23.679Z</time></trkpt><trkpt lat="44.4678224" lon="11.3366263"><ele>119.0</ele><time>2026-04-30T11:19:24.688Z</time></trkpt><trkpt lat="44.4678927" lon="11.3367159"><ele>119.0</ele><time>2026-04-30T11:19:25.692Z</time></trkpt><trkpt lat="44.4679616" lon="11.3368039"><ele>119.0</ele><time>2026-04-30T11:19:26.683Z</time></trkpt><trkpt lat="44.4680315" lon="11.3368883"><ele>119.0</ele><time>2026-04-30T11:19:27.689Z</time></trkpt><trkpt lat="44.468113" lon="11.3369514"><ele>119.0</ele><time>2026-04-30T11:19:28.693Z</time></trkpt><trkpt lat="44.4681993" lon="11.3370005"><ele>117.80000000000001</ele><time>2026-04-30T11:19:29.684Z</time></trkpt><trkpt lat="44.4682823" lon="11.3370455"><ele>116.60000000000001</ele><time>2026-04-30T11:19:30.684Z</time></trkpt><trkpt lat="44.4683697" lon="11.3370837"><ele>115.4</ele><time>2026-04-30T11:19:31.678Z</time></trkpt><trkpt lat="44.4684586" lon="11.3371142"><ele>114.2</ele><time>2026-04-30T11:19:32.679Z</time></trkpt><trkpt lat="44.4685454" lon="11.3371472"><ele>113.0</ele><time>2026-04-30T11:19:33.672Z</time></trkpt><trkpt lat="44.4686311" lon="11.3371839"><ele>112.99999999999999</ele><time>2026-04-30T11:19:34.68Z</time></trkpt><trkpt lat="44.4687161" lon="11.3372146"><ele>113.0</ele><time>2026-04-30T11:19:35.663Z</time></trkpt><trkpt lat="44.4687999" lon="11.3372438"><ele>113.0</ele><time>2026-04-30T11:19:36.686Z</time></trkpt><trkpt lat="44.4688812" lon="11.3372732"><ele>113.0</ele><time>2026-04-30T11:19:37.677Z</time></trkpt><trkpt lat="44.4689604" lon="11.3373064"><ele>112.99999999999999</ele><time>2026-04-30T11:19:38.675Z</time></trkpt><trkpt lat="44.4690378" lon="11.3373343"><ele>113.0</ele><time>2026-04-30T11:19:39.681Z</time></trkpt><trkpt lat="44.4691144" lon="11.33736"><ele>112.85714285714286</ele><time>2026-04-30T11:19:40.686Z</time></trkpt><trkpt lat="44.4691892" lon="11.337383"><ele>112.71428571428571</ele><time>2026-04-30T11:19:41.678Z</time></trkpt><trkpt lat="44.4692631" lon="11.3374039"><ele>112.57142857142857</ele><time>2026-04-30T11:19:42.689Z</time></trkpt><trkpt lat="44.4693354" lon="11.3374233"><ele>112.42857142857143</ele><time>2026-04-30T11:19:43.68Z</time></trkpt><trkpt lat="44.4694033" lon="11.337444"><ele>112.28571428571428</ele><time>2026-04-30T11:19:44.688Z</time></trkpt><trkpt lat="44.4694733" lon="11.3374703"><ele>112.14285714285714</ele><time>2026-04-30T11:19:45.683Z</time></trkpt><trkpt lat="44.4695425" lon="11.3375029"><ele>112.0</ele><time>2026-04-30T11:19:46.677Z</time></trkpt><trkpt lat="44.4696105" lon="11.3375407"><ele>111.85714285714286</ele><time>2026-04-30T11:19:47.688Z</time></trkpt><trkpt lat="44.4696784" lon="11.3375809"><ele>111.71428571428572</ele><time>2026-04-30T11:19:48.684Z</time></trkpt><trkpt lat="44.4697452" lon="11.3376209"><ele>111.57142857142857</ele><time>2026-04-30T11:19:49.684Z</time></trkpt><trkpt lat="44.4698119" lon="11.3376646"><ele>111.42857142857143</ele><time>2026-04-30T11:19:50.691Z</time></trkpt><trkpt lat="44.4698782" lon="11.33771"><ele>111.28571428571429</ele><time>2026-04-30T11:19:51.68Z</time></trkpt><trkpt lat="44.4699454" lon="11.3377551"><ele>111.14285714285714</ele><time>2026-04-30T11:19:52.681Z</time></trkpt><trkpt lat="44.4700122" lon="11.337799"><ele>111.0</ele><time>2026-04-30T11:19:53.682Z</time></trkpt><trkpt lat="44.4700807" lon="11.3378489"><ele>111.0</ele><time>2026-04-30T11:19:54.675Z</time></trkpt><trkpt lat="44.4701506" lon="11.3378942"><ele>111.0</ele><time>2026-04-30T11:19:55.687Z</time></trkpt><trkpt lat="44.4702233" lon="11.3379344"><ele>111.0</ele><time>2026-04-30T11:19:56.689Z</time></trkpt><trkpt lat="44.4702968" lon="11.3379716"><ele>111.0</ele><time>2026-04-30T11:19:57.683Z</time></trkpt><trkpt lat="44.4703695" lon="11.3379983"><ele>111.0</ele><time>2026-04-30T11:19:58.678Z</time></trkpt><trkpt lat="44.4704456" lon="11.3380149"><ele>111.0</ele><time>2026-04-30T11:19:59.688Z</time></trkpt><trkpt lat="44.470524" lon="11.3380418"><ele>111.16666666666667</ele><time>2026-04-30T11:20:00.683Z</time></trkpt><trkpt lat="44.4706031" lon="11.3380716"><ele>111.33333333333334</ele><time>2026-04-30T11:20:01.696Z</time></trkpt><trkpt lat="44.47068" lon="11.3380978"><ele>111.5</ele><time>2026-04-30T11:20:02.682Z</time></trkpt><trkpt lat="44.4707585" lon="11.3381238"><ele>111.66666666666667</ele><time>2026-04-30T11:20:03.682Z</time></trkpt><trkpt lat="44.4708365" lon="11.3381496"><ele>111.83333333333334</ele><time>2026-04-30T11:20:04.709Z</time></trkpt><trkpt lat="44.4709148" lon="11.3381731"><ele>112.0</ele><time>2026-04-30T11:20:05.681Z</time></trkpt><trkpt lat="44.4709937" lon="11.3381997"><ele>112.00000000000001</ele><time>2026-04-30T11:20:06.684Z</time></trkpt><trkpt lat="44.4710734" lon="11.3382275"><ele>112.0</ele><time>2026-04-30T11:20:07.684Z</time></trkpt><trkpt lat="44.4711514" lon="11.3382488"><ele>112.0</ele><time>2026-04-30T11:20:08.689Z</time></trkpt><trkpt lat="44.4712287" lon="11.338268"><ele>112.0</ele><time>2026-04-30T11:20:09.689Z</time></trkpt><trkpt lat="44.4713057" lon="11.3382821"><ele>112.00000000000001</ele><time>2026-04-30T11:20:10.687Z</time></trkpt><trkpt lat="44.4713801" lon="11.3382839"><ele>112.0</ele><time>2026-04-30T11:20:11.681Z</time></trkpt><trkpt lat="44.4714531" lon="11.3382713"><ele>111.28571428571429</ele><time>2026-04-30T11:20:12.677Z</time></trkpt><trkpt lat="44.471524" lon="11.3382484"><ele>110.57142857142857</ele><time>2026-04-30T11:20:13.687Z</time></trkpt><trkpt lat="44.4715929" lon="11.3382177"><ele>109.85714285714286</ele><time>2026-04-30T11:20:14.681Z</time></trkpt><trkpt lat="44.4716602" lon="11.3381822"><ele>109.14285714285714</ele><time>2026-04-30T11:20:15.686Z</time></trkpt><trkpt lat="44.4717315" lon="11.3381544"><ele>108.42857142857143</ele><time>2026-04-30T11:20:16.681Z</time></trkpt><trkpt lat="44.4718053" lon="11.3381395"><ele>107.71428571428572</ele><time>2026-04-30T11:20:17.68Z</time></trkpt><trkpt lat="44.4718811" lon="11.3381434"><ele>107.0</ele><time>2026-04-30T11:20:18.68Z</time></trkpt><trkpt lat="44.4719544" lon="11.3381671"><ele>107.00000000000001</ele><time>2026-04-30T11:20:19.687Z</time></trkpt><trkpt lat="44.4720254" lon="11.3381987"><ele>107.0</ele><time>2026-04-30T11:20:20.679Z</time></trkpt><trkpt lat="44.4720975" lon="11.3382227"><ele>107.0</ele><time>2026-04-30T11:20:21.682Z</time></trkpt><trkpt lat="44.4721689" lon="11.3382463"><ele>107.0</ele><time>2026-04-30T11:20:22.678Z</time></trkpt><trkpt lat="44.4722392" lon="11.3382719"><ele>107.0</ele><time>2026-04-30T11:20:23.69Z</time></trkpt><trkpt lat="44.4723105" lon="11.3382965"><ele>107.00000000000001</ele><time>2026-04-30T11:20:24.69Z</time></trkpt><trkpt lat="44.4723888" lon="11.3383085"><ele>107.0</ele><time>2026-04-30T11:20:25.671Z</time></trkpt><trkpt lat="44.4724639" lon="11.3383198"><ele>106.85714285714286</ele><time>2026-04-30T11:20:26.699Z</time></trkpt><trkpt lat="44.4725387" lon="11.3383288"><ele>106.71428571428572</ele><time>2026-04-30T11:20:27.682Z</time></trkpt><trkpt lat="44.4726149" lon="11.3383386"><ele>106.57142857142858</ele><time>2026-04-30T11:20:28.688Z</time></trkpt><trkpt lat="44.4726893" lon="11.3383494"><ele>106.42857142857143</ele><time>2026-04-30T11:20:29.679Z</time></trkpt><trkpt lat="44.4727645" lon="11.3383612"><ele>106.28571428571428</ele><time>2026-04-30T11:20:30.681Z</time></trkpt><trkpt lat="44.4728376" lon="11.3383717"><ele>106.14285714285715</ele><time>2026-04-30T11:20:31.69Z</time></trkpt><trkpt lat="44.4729081" lon="11.3383818"><ele>106.0</ele><time>2026-04-30T11:20:32.681Z</time></trkpt><trkpt lat="44.4729788" lon="11.3383944"><ele>106.0</ele><time>2026-04-30T11:20:33.679Z</time></trkpt><trkpt lat="44.4730478" lon="11.3384104"><ele>106.0</ele><time>2026-04-30T11:20:34.681Z</time></trkpt><trkpt lat="44.4731174" lon="11.3384199"><ele>106.0</ele><time>2026-04-30T11:20:35.684Z</time></trkpt><trkpt lat="44.4731872" lon="11.3384204"><ele>106.0</ele><time>2026-04-30T11:20:36.678Z</time></trkpt><trkpt lat="44.4732604" lon="11.3384013"><ele>106.0</ele><time>2026-04-30T11:20:37.689Z</time></trkpt><trkpt lat="44.4733286" lon="11.3383669"><ele>106.0</ele><time>2026-04-30T11:20:38.678Z</time></trkpt><trkpt lat="44.473388" lon="11.3383194"><ele>106.0</ele><time>2026-04-30T11:20:39.68Z</time></trkpt><trkpt lat="44.4734565" lon="11.338276"><ele>106.00000000000001</ele><time>2026-04-30T11:20:40.677Z</time></trkpt><trkpt lat="44.4735252" lon="11.3382244"><ele>106.0</ele><time>2026-04-30T11:20:41.685Z</time></trkpt><trkpt lat="44.4735944" lon="11.3381757"><ele>106.0</ele><time>2026-04-30T11:20:42.683Z</time></trkpt><trkpt lat="44.4736611" lon="11.338126"><ele>106.0</ele><time>2026-04-30T11:20:43.685Z</time></trkpt><trkpt lat="44.4737262" lon="11.3380733"><ele>106.00000000000001</ele><time>2026-04-30T11:20:44.689Z</time></trkpt><trkpt lat="44.4737903" lon="11.338018"><ele>106.0</ele><time>2026-04-30T11:20:45.678Z</time></trkpt><trkpt lat="44.4738463" lon="11.3379481"><ele>104.83333333333334</ele><time>2026-04-30T11:20:46.687Z</time></trkpt><trkpt lat="44.4738963" lon="11.3378724"><ele>103.66666666666667</ele><time>2026-04-30T11:20:47.683Z</time></trkpt><trkpt lat="44.473944" lon="11.3377911"><ele>102.5</ele><time>2026-04-30T11:20:48.684Z</time></trkpt><trkpt lat="44.4739931" lon="11.3377095"><ele>101.33333333333334</ele><time>2026-04-30T11:20:49.671Z</time></trkpt><trkpt lat="44.4740427" lon="11.3376267"><ele>100.16666666666667</ele><time>2026-04-30T11:20:50.682Z</time></trkpt><trkpt lat="44.4740972" lon="11.3375476"><ele>99.0</ele><time>2026-04-30T11:20:51.688Z</time></trkpt><trkpt lat="44.4741521" lon="11.3374677"><ele>99.0</ele><time>2026-04-30T11:20:52.685Z</time></trkpt><trkpt lat="44.474217" lon="11.3373953"><ele>99.0</ele><time>2026-04-30T11:20:53.694Z</time></trkpt><trkpt lat="44.4742721" lon="11.3373177"><ele>99.0</ele><time>2026-04-30T11:20:54.677Z</time></trkpt><trkpt lat="44.4743161" lon="11.3372329"><ele>99.0</ele><time>2026-04-30T11:20:55.69Z</time></trkpt><trkpt lat="44.4743532" lon="11.3371417"><ele>99.0</ele><time>2026-04-30T11:20:56.693Z</time></trkpt><trkpt lat="44.474393" lon="11.3370498"><ele>99.0</ele><time>2026-04-30T11:20:57.688Z</time></trkpt><trkpt lat="44.4744327" lon="11.3369555"><ele>98.5</ele><time>2026-04-30T11:20:58.684Z</time></trkpt><trkpt lat="44.4744719" lon="11.3368563"><ele>98.0</ele><time>2026-04-30T11:20:59.679Z</time></trkpt><trkpt lat="44.4745139" lon="11.336756"><ele>97.5</ele><time>2026-04-30T11:21:00.686Z</time></trkpt><trkpt lat="44.4745539" lon="11.3366539"><ele>97.0</ele><time>2026-04-30T11:21:01.682Z</time></trkpt><trkpt lat="44.4746065" lon="11.3365646"><ele>96.5</ele><time>2026-04-30T11:21:02.691Z</time></trkpt><trkpt lat="44.4746563" lon="11.3364814"><ele>96.0</ele><time>2026-04-30T11:21:03.683Z</time></trkpt><trkpt lat="44.4747324" lon="11.336444"><ele>96.0</ele><time>2026-04-30T11:21:04.691Z</time></trkpt><trkpt lat="44.4748096" lon="11.3364135"><ele>96.0</ele><time>2026-04-30T11:21:05.682Z</time></trkpt><trkpt lat="44.4748884" lon="11.3363841"><ele>96.0</ele><time>2026-04-30T11:21:06.687Z</time></trkpt><trkpt lat="44.4749696" lon="11.3363546"><ele>96.0</ele><time>2026-04-30T11:21:07.684Z</time></trkpt><trkpt lat="44.4750523" lon="11.3363272"><ele>96.0</ele><time>2026-04-30T11:21:08.687Z</time></trkpt><trkpt lat="44.4751362" lon="11.3362968"><ele>96.0</ele><time>2026-04-30T11:21:09.68Z</time></trkpt><trkpt lat="44.4752194" lon="11.3362647"><ele>96.33333333333333</ele><time>2026-04-30T11:21:10.693Z</time></trkpt><trkpt lat="44.4753018" lon="11.3362323"><ele>96.66666666666666</ele><time>2026-04-30T11:21:11.686Z</time></trkpt><trkpt lat="44.4753828" lon="11.3362006"><ele>97.0</ele><time>2026-04-30T11:21:12.676Z</time></trkpt><trkpt lat="44.4754622" lon="11.336168"><ele>97.33333333333333</ele><time>2026-04-30T11:21:13.681Z</time></trkpt><trkpt lat="44.4755396" lon="11.3361364"><ele>97.66666666666666</ele><time>2026-04-30T11:21:14.676Z</time></trkpt><trkpt lat="44.4756136" lon="11.3361075"><ele>98.0</ele><time>2026-04-30T11:21:15.68Z</time></trkpt><trkpt lat="44.4756865" lon="11.3360832"><ele>98.0</ele><time>2026-04-30T11:21:16.681Z</time></trkpt><trkpt lat="44.4757592" lon="11.3360616"><ele>98.0</ele><time>2026-04-30T11:21:17.686Z</time></trkpt><trkpt lat="44.4758286" lon="11.3360355"><ele>98.0</ele><time>2026-04-30T11:21:18.69Z</time></trkpt><trkpt lat="44.4758975" lon="11.3360097"><ele>98.0</ele><time>2026-04-30T11:21:19.682Z</time></trkpt><trkpt lat="44.4759655" lon="11.3359901"><ele>98.0</ele><time>2026-04-30T11:21:20.679Z</time></trkpt><trkpt lat="44.4760317" lon="11.3359733"><ele>98.0</ele><time>2026-04-30T11:21:21.686Z</time></trkpt><trkpt lat="44.476099" lon="11.3359607"><ele>98.0</ele><time>2026-04-30T11:21:22.673Z</time></trkpt><trkpt lat="44.4761661" lon="11.3359568"><ele>98.0</ele><time>2026-04-30T11:21:23.688Z</time></trkpt><trkpt lat="44.4762347" lon="11.3359636"><ele>98.0</ele><time>2026-04-30T11:21:24.694Z</time></trkpt><trkpt lat="44.4763029" lon="11.3359745"><ele>98.0</ele><time>2026-04-30T11:21:25.684Z</time></trkpt><trkpt lat="44.4763702" lon="11.3359878"><ele>98.0</ele><time>2026-04-30T11:21:26.689Z</time></trkpt><trkpt lat="44.4764375" lon="11.3360016"><ele>98.0</ele><time>2026-04-30T11:21:27.682Z</time></trkpt><trkpt lat="44.476508" lon="11.3360151"><ele>98.0</ele><time>2026-04-30T11:21:28.688Z</time></trkpt><trkpt lat="44.4765778" lon="11.3360209"><ele>98.0</ele><time>2026-04-30T11:21:29.68Z</time></trkpt><trkpt lat="44.4766464" lon="11.3360271"><ele>97.14285714285714</ele><time>2026-04-30T11:21:30.699Z</time></trkpt><trkpt lat="44.476716" lon="11.3360301"><ele>96.28571428571428</ele><time>2026-04-30T11:21:31.691Z</time></trkpt><trkpt lat="44.4767864" lon="11.3360322"><ele>95.42857142857143</ele><time>2026-04-30T11:21:32.676Z</time></trkpt><trkpt lat="44.4768546" lon="11.3360136"><ele>94.57142857142857</ele><time>2026-04-30T11:21:33.69Z</time></trkpt><trkpt lat="44.4769195" lon="11.3359943"><ele>93.71428571428571</ele><time>2026-04-30T11:21:34.677Z</time></trkpt><trkpt lat="44.4769859" lon="11.3359881"><ele>92.85714285714286</ele><time>2026-04-30T11:21:35.691Z</time></trkpt><trkpt lat="44.4770515" lon="11.3359784"><ele>92.0</ele><time>2026-04-30T11:21:36.685Z</time></trkpt><trkpt lat="44.4771205" lon="11.3359706"><ele>91.85714285714286</ele><time>2026-04-30T11:21:37.682Z</time></trkpt><trkpt lat="44.4771938" lon="11.3359622"><ele>91.71428571428571</ele><time>2026-04-30T11:21:38.681Z</time></trkpt><trkpt lat="44.477266" lon="11.3359548"><ele>91.57142857142857</ele><time>2026-04-30T11:21:39.676Z</time></trkpt><trkpt lat="44.4773381" lon="11.3359437"><ele>91.42857142857143</ele><time>2026-04-30T11:21:40.684Z</time></trkpt><trkpt lat="44.4774068" lon="11.3359269"><ele>91.28571428571428</ele><time>2026-04-30T11:21:41.675Z</time></trkpt><trkpt lat="44.4774709" lon="11.3358958"><ele>91.14285714285714</ele><time>2026-04-30T11:21:42.682Z</time></trkpt><trkpt lat="44.4775317" lon="11.3358589"><ele>91.0</ele><time>2026-04-30T11:21:43.682Z</time></trkpt><trkpt lat="44.47759" lon="11.3358211"><ele>91.0</ele><time>2026-04-30T11:21:44.677Z</time></trkpt><trkpt lat="44.4777074" lon="11.3357623"><ele>91.0</ele><time>2026-04-30T11:21:46.675Z</time></trkpt><trkpt lat="44.4777707" lon="11.3357462"><ele>91.0</ele><time>2026-04-30T11:21:47.689Z</time></trkpt><trkpt lat="44.4778336" lon="11.3357319"><ele>91.0</ele><time>2026-04-30T11:21:48.68Z</time></trkpt><trkpt lat="44.4778982" lon="11.3357221"><ele>91.0</ele><time>2026-04-30T11:21:49.681Z</time></trkpt><trkpt lat="44.4779643" lon="11.3357123"><ele>91.0</ele><time>2026-04-30T11:21:50.683Z</time></trkpt><trkpt lat="44.4780297" lon="11.3357028"><ele>91.0</ele><time>2026-04-30T11:21:51.684Z</time></trkpt><trkpt lat="44.4780964" lon="11.3357007"><ele>91.0</ele><time>2026-04-30T11:21:52.685Z</time></trkpt><trkpt lat="44.4781624" lon="11.3357028"><ele>91.0</ele><time>2026-04-30T11:21:53.685Z</time></trkpt><trkpt lat="44.4782295" lon="11.3357087"><ele>91.0</ele><time>2026-04-30T11:21:54.685Z</time></trkpt><trkpt lat="44.4782977" lon="11.3357171"><ele>91.0</ele><time>2026-04-30T11:21:55.68Z</time></trkpt><trkpt lat="44.4783664" lon="11.3357263"><ele>91.0</ele><time>2026-04-30T11:21:56.681Z</time></trkpt><trkpt lat="44.4784351" lon="11.3357378"><ele>91.0</ele><time>2026-04-30T11:21:57.685Z</time></trkpt><trkpt lat="44.4785016" lon="11.3357509"><ele>91.0</ele><time>2026-04-30T11:21:58.684Z</time></trkpt><trkpt lat="44.4785654" lon="11.3357633"><ele>91.0</ele><time>2026-04-30T11:21:59.682Z</time></trkpt><trkpt lat="44.4786292" lon="11.3357756"><ele>91.0</ele><time>2026-04-30T11:22:00.688Z</time></trkpt><trkpt lat="44.4786929" lon="11.3357896"><ele>91.0</ele><time>2026-04-30T11:22:01.675Z</time></trkpt><trkpt lat="44.4787562" lon="11.3358043"><ele>91.0</ele><time>2026-04-30T11:22:02.678Z</time></trkpt><trkpt lat="44.4788801" lon="11.335833"><ele>91.0</ele><time>2026-04-30T11:22:04.682Z</time></trkpt><trkpt lat="44.4789985" lon="11.3358546"><ele>91.0</ele><time>2026-04-30T11:22:06.68Z</time></trkpt><trkpt lat="44.479093" lon="11.3358979"><ele>91.0</ele><time>2026-04-30T11:22:08.686Z</time></trkpt><trkpt lat="44.4791781" lon="11.3359511"><ele>91.0</ele><time>2026-04-30T11:22:10.681Z</time></trkpt><trkpt lat="44.4792718" lon="11.335981"><ele>91.0</ele><time>2026-04-30T11:22:12.692Z</time></trkpt><trkpt lat="44.4793407" lon="11.3360199"><ele>91.0</ele><time>2026-04-30T11:22:14.674Z</time></trkpt><trkpt lat="44.4794058" lon="11.3360509"><ele>91.0</ele><time>2026-04-30T11:22:17.677Z</time></trkpt><trkpt lat="44.4793224" lon="11.3359871"><ele>91.0</ele><time>2026-04-30T11:24:06.679Z</time></trkpt><trkpt lat="44.479259" lon="11.3359563"><ele>91.0</ele><time>2026-04-30T11:24:11.688Z</time></trkpt><trkpt lat="44.4791893" lon="11.3359745"><ele>91.0</ele><time>2026-04-30T11:24:27.684Z</time></trkpt><trkpt lat="44.4791245" lon="11.3359831"><ele>91.0</ele><time>2026-04-30T11:24:32.687Z</time></trkpt><trkpt lat="44.4789942" lon="11.3359896"><ele>91.0</ele><time>2026-04-30T11:24:34.696Z</time></trkpt><trkpt lat="44.4789302" lon="11.3359942"><ele>91.0</ele><time>2026-04-30T11:24:38.681Z</time></trkpt><trkpt lat="44.4788549" lon="11.3360043"><ele>91.0</ele><time>2026-04-30T11:24:42.676Z</time></trkpt><trkpt lat="44.4787901" lon="11.3360086"><ele>91.0</ele><time>2026-04-30T11:24:46.696Z</time></trkpt><trkpt lat="44.4787194" lon="11.3360278"><ele>91.0</ele><time>2026-04-30T11:24:50.692Z</time></trkpt><trkpt lat="44.4786497" lon="11.3360581"><ele>91.0</ele><time>2026-04-30T11:24:53.676Z</time></trkpt><trkpt lat="44.4785706" lon="11.336075"><ele>91.0</ele><time>2026-04-30T11:24:56.693Z</time></trkpt><trkpt lat="44.4785038" lon="11.3360925"><ele>91.0</ele><time>2026-04-30T11:24:59.676Z</time></trkpt><trkpt lat="44.4784257" lon="11.3360821"><ele>91.0</ele><time>2026-04-30T11:25:03.693Z</time></trkpt><trkpt lat="44.4783542" lon="11.3360637"><ele>91.0</ele><time>2026-04-30T11:25:07.681Z</time></trkpt><trkpt lat="44.4783248" lon="11.3361462"><ele>91.0</ele><time>2026-04-30T11:25:12.686Z</time></trkpt><trkpt lat="44.4783818" lon="11.3361908"><ele>91.0</ele><time>2026-04-30T11:25:15.679Z</time></trkpt><trkpt lat="44.4784417" lon="11.3362321"><ele>91.0</ele><time>2026-04-30T11:25:18.672Z</time></trkpt><trkpt lat="44.4785015" lon="11.3362661"><ele>91.0</ele><time>2026-04-30T11:25:21.68Z</time></trkpt><trkpt lat="44.47856" lon="11.3363033"><ele>91.0</ele><time>2026-04-30T11:25:24.683Z</time></trkpt><trkpt lat="44.4786225" lon="11.3363363"><ele>91.0</ele><time>2026-04-30T11:25:27.678Z</time></trkpt><trkpt lat="44.4786861" lon="11.3363693"><ele>91.85714285714286</ele><time>2026-04-30T11:25:30.685Z</time></trkpt><trkpt lat="44.4787521" lon="11.3363962"><ele>92.71428571428572</ele><time>2026-04-30T11:25:33.682Z</time></trkpt><trkpt lat="44.4788177" lon="11.3364085"><ele>93.57142857142857</ele><time>2026-04-30T11:25:36.682Z</time></trkpt><trkpt lat="44.4788741" lon="11.3364772"><ele>94.42857142857143</ele><time>2026-04-30T11:25:40.672Z</time></trkpt><trkpt lat="44.4787948" lon="11.3364939"><ele>95.28571428571429</ele><time>2026-04-30T11:25:44.679Z</time></trkpt><trkpt lat="44.4787269" lon="11.3364921"><ele>96.14285714285714</ele><time>2026-04-30T11:25:47.678Z</time></trkpt><trkpt lat="44.4786598" lon="11.3364979"><ele>97.0</ele><time>2026-04-30T11:25:50.67Z</time></trkpt><trkpt lat="44.4785774" lon="11.3365133"><ele>97.71428571428571</ele><time>2026-04-30T11:25:54.677Z</time></trkpt><trkpt lat="44.4784947" lon="11.3365245"><ele>98.42857142857143</ele><time>2026-04-30T11:25:58.681Z</time></trkpt><trkpt lat="44.4784275" lon="11.336543"><ele>99.14285714285714</ele><time>2026-04-30T11:26:01.679Z</time></trkpt><trkpt lat="44.4783625" lon="11.3365666"><ele>99.85714285714286</ele><time>2026-04-30T11:26:04.683Z</time></trkpt><trkpt lat="44.4782987" lon="11.3365798"><ele>100.57142857142858</ele><time>2026-04-30T11:26:07.682Z</time></trkpt><trkpt lat="44.4782187" lon="11.3366013"><ele>101.28571428571429</ele><time>2026-04-30T11:26:11.684Z</time></trkpt><trkpt lat="44.478206" lon="11.3366882"><ele>102.0</ele><time>2026-04-30T11:26:15.67Z</time></trkpt><trkpt lat="44.4782687" lon="11.3367269"><ele>102.0</ele><time>2026-04-30T11:26:18.673Z</time></trkpt><trkpt lat="44.4783331" lon="11.3367577"><ele>102.0</ele><time>2026-04-30T11:26:21.685Z</time></trkpt><trkpt lat="44.4783949" lon="11.3367799"><ele>102.0</ele><time>2026-04-30T11:26:24.687Z</time></trkpt><trkpt lat="44.4784557" lon="11.336813"><ele>102.0</ele><time>2026-04-30T11:26:27.675Z</time></trkpt><trkpt lat="44.478505" lon="11.3368729"><ele>102.0</ele><time>2026-04-30T11:26:30.673Z</time></trkpt><trkpt lat="44.4785423" lon="11.336946"><ele>102.0</ele><time>2026-04-30T11:26:33.685Z</time></trkpt><trkpt lat="44.4785914" lon="11.3370394"><ele>102.0</ele><time>2026-04-30T11:26:37.676Z</time></trkpt><trkpt lat="44.4786086" lon="11.3371436"><ele>102.0</ele><time>2026-04-30T11:26:41.687Z</time></trkpt><trkpt lat="44.4785375" lon="11.3371489"><ele>102.0</ele><time>2026-04-30T11:26:45.698Z</time></trkpt><trkpt lat="44.4784726" lon="11.3371283"><ele>102.0</ele><time>2026-04-30T11:26:48.682Z</time></trkpt><trkpt lat="44.4784037" lon="11.3371236"><ele>102.0</ele><time>2026-04-30T11:26:51.677Z</time></trkpt><trkpt lat="44.4783386" lon="11.3371274"><ele>102.0</ele><time>2026-04-30T11:26:54.682Z</time></trkpt><trkpt lat="44.4782753" lon="11.3371358"><ele>102.0</ele><time>2026-04-30T11:26:57.671Z</time></trkpt><trkpt lat="44.4782043" lon="11.3371429"><ele>102.0</ele><time>2026-04-30T11:27:00.672Z</time></trkpt><trkpt lat="44.478138" lon="11.3371527"><ele>102.0</ele><time>2026-04-30T11:27:03.672Z</time></trkpt><trkpt lat="44.4780554" lon="11.3371636"><ele>102.0</ele><time>2026-04-30T11:27:07.68Z</time></trkpt><trkpt lat="44.4779908" lon="11.3371763"><ele>102.0</ele><time>2026-04-30T11:27:10.687Z</time></trkpt><trkpt lat="44.477924" lon="11.3371873"><ele>102.0</ele><time>2026-04-30T11:27:13.677Z</time></trkpt><trkpt lat="44.4778589" lon="11.3372024"><ele>102.0</ele><time>2026-04-30T11:27:16.685Z</time></trkpt><trkpt lat="44.4777943" lon="11.3372021"><ele>102.0</ele><time>2026-04-30T11:27:19.678Z</time></trkpt><trkpt lat="44.4777304" lon="11.3371965"><ele>102.0</ele><time>2026-04-30T11:27:22.689Z</time></trkpt><trkpt lat="44.4776638" lon="11.3371799"><ele>102.57142857142857</ele><time>2026-04-30T11:27:25.685Z</time></trkpt><trkpt lat="44.4775933" lon="11.337161"><ele>103.14285714285714</ele><time>2026-04-30T11:27:28.677Z</time></trkpt><trkpt lat="44.4775263" lon="11.3371422"><ele>103.71428571428572</ele><time>2026-04-30T11:27:31.687Z</time></trkpt><trkpt lat="44.477459" lon="11.3371339"><ele>104.28571428571428</ele><time>2026-04-30T11:27:34.688Z</time></trkpt><trkpt lat="44.4773937" lon="11.3371479"><ele>104.85714285714285</ele><time>2026-04-30T11:27:37.681Z</time></trkpt><trkpt lat="44.4773797" lon="11.3372519"><ele>105.42857142857143</ele><time>2026-04-30T11:27:41.683Z</time></trkpt><trkpt lat="44.4774349" lon="11.3372984"><ele>106.0</ele><time>2026-04-30T11:27:44.683Z</time></trkpt><trkpt lat="44.4774959" lon="11.3373414"><ele>108.42857142857143</ele><time>2026-04-30T11:27:47.679Z</time></trkpt><trkpt lat="44.477554" lon="11.3373891"><ele>110.85714285714286</ele><time>2026-04-30T11:27:50.679Z</time></trkpt><trkpt lat="44.4776147" lon="11.3374565"><ele>113.28571428571429</ele><time>2026-04-30T11:27:54.68Z</time></trkpt><trkpt lat="44.4776787" lon="11.3375313"><ele>115.71428571428572</ele><time>2026-04-30T11:27:58.675Z</time></trkpt><trkpt lat="44.4777339" lon="11.3375833"><ele>118.14285714285714</ele><time>2026-04-30T11:28:01.692Z</time></trkpt><trkpt lat="44.4777778" lon="11.3376592"><ele>120.57142857142858</ele><time>2026-04-30T11:28:04.688Z</time></trkpt><trkpt lat="44.4778227" lon="11.3377313"><ele>123.00000000000001</ele><time>2026-04-30T11:28:07.683Z</time></trkpt><trkpt lat="44.4778714" lon="11.3377915"><ele>123.00000000000001</ele><time>2026-04-30T11:28:10.693Z</time></trkpt><trkpt lat="44.4778715" lon="11.3378847"><ele>123.0</ele><time>2026-04-30T11:28:14.694Z</time></trkpt><trkpt lat="44.4777905" lon="11.3378649"><ele>123.00000000000001</ele><time>2026-04-30T11:28:18.678Z</time></trkpt><trkpt lat="44.4777254" lon="11.3378511"><ele>123.00000000000001</ele><time>2026-04-30T11:28:21.689Z</time></trkpt><trkpt lat="44.4776623" lon="11.3378331"><ele>123.0</ele><time>2026-04-30T11:28:24.673Z</time></trkpt><trkpt lat="44.4775978" lon="11.3378059"><ele>123.00000000000001</ele><time>2026-04-30T11:28:27.68Z</time></trkpt><trkpt lat="44.4775334" lon="11.3377841"><ele>123.00000000000001</ele><time>2026-04-30T11:28:30.691Z</time></trkpt><trkpt lat="44.4774709" lon="11.3377595"><ele>123.00000000000001</ele><time>2026-04-30T11:28:33.684Z</time></trkpt><trkpt lat="44.4774051" lon="11.3377382"><ele>123.0</ele><time>2026-04-30T11:28:36.684Z</time></trkpt><trkpt lat="44.4773359" lon="11.337727"><ele>123.00000000000001</ele><time>2026-04-30T11:28:39.68Z</time></trkpt><trkpt lat="44.4772737" lon="11.3377434"><ele>123.00000000000001</ele><time>2026-04-30T11:28:42.686Z</time></trkpt><trkpt lat="44.4772134" lon="11.3377742"><ele>123.0</ele><time>2026-04-30T11:28:45.684Z</time></trkpt><trkpt lat="44.4771562" lon="11.3378167"><ele>123.00000000000001</ele><time>2026-04-30T11:28:48.687Z</time></trkpt><trkpt lat="44.4770989" lon="11.3378594"><ele>123.00000000000001</ele><time>2026-04-30T11:28:51.679Z</time></trkpt><trkpt lat="44.4770313" lon="11.3379105"><ele>122.85714285714288</ele><time>2026-04-30T11:28:55.687Z</time></trkpt><trkpt lat="44.4769658" lon="11.3379357"><ele>122.71428571428572</ele><time>2026-04-30T11:28:58.679Z</time></trkpt><trkpt lat="44.4768854" lon="11.3379656"><ele>122.57142857142857</ele><time>2026-04-30T11:29:02.686Z</time></trkpt><trkpt lat="44.4768202" lon="11.3379834"><ele>122.42857142857143</ele><time>2026-04-30T11:29:05.676Z</time></trkpt><trkpt lat="44.476754" lon="11.338044"><ele>122.28571428571428</ele><time>2026-04-30T11:29:09.687Z</time></trkpt><trkpt lat="44.4767903" lon="11.3381302"><ele>122.14285714285712</ele><time>2026-04-30T11:29:13.687Z</time></trkpt><trkpt lat="44.4768638" lon="11.3381397"><ele>121.99999999999999</ele><time>2026-04-30T11:29:17.684Z</time></trkpt><trkpt lat="44.476944" lon="11.3381473"><ele>124.85714285714283</ele><time>2026-04-30T11:29:21.677Z</time></trkpt><trkpt lat="44.4770269" lon="11.3381578"><ele>127.71428571428571</ele><time>2026-04-30T11:29:25.684Z</time></trkpt><trkpt lat="44.4770964" lon="11.3382002"><ele>130.57142857142856</ele><time>2026-04-30T11:29:29.684Z</time></trkpt><trkpt lat="44.4770463" lon="11.3382765"><ele>133.42857142857142</ele><time>2026-04-30T11:29:34.678Z</time></trkpt><trkpt lat="44.4769639" lon="11.3382891"><ele>136.28571428571428</ele><time>2026-04-30T11:29:38.679Z</time></trkpt><trkpt lat="44.476902" lon="11.3383132"><ele>139.14285714285714</ele><time>2026-04-30T11:29:41.694Z</time></trkpt><trkpt lat="44.4768379" lon="11.3383344"><ele>142.0</ele><time>2026-04-30T11:29:44.677Z</time></trkpt><trkpt lat="44.4767737" lon="11.3383567"><ele>142.0</ele><time>2026-04-30T11:29:47.692Z</time></trkpt><trkpt lat="44.4767077" lon="11.3383789"><ele>142.0</ele><time>2026-04-30T11:29:50.679Z</time></trkpt><trkpt lat="44.4766471" lon="11.3384085"><ele>142.0</ele><time>2026-04-30T11:29:53.684Z</time></trkpt><trkpt lat="44.4765878" lon="11.3384435"><ele>142.0</ele><time>2026-04-30T11:29:56.678Z</time></trkpt><trkpt lat="44.4765265" lon="11.3384852"><ele>142.0</ele><time>2026-04-30T11:29:59.679Z</time></trkpt><trkpt lat="44.4764673" lon="11.3385291"><ele>142.0</ele><time>2026-04-30T11:30:02.679Z</time></trkpt><trkpt lat="44.4764063" lon="11.3385786"><ele>142.0</ele><time>2026-04-30T11:30:05.684Z</time></trkpt><trkpt lat="44.4763458" lon="11.338618"><ele>142.0</ele><time>2026-04-30T11:30:08.686Z</time></trkpt><trkpt lat="44.4762764" lon="11.338646"><ele>142.0</ele><time>2026-04-30T11:30:11.684Z</time></trkpt><trkpt lat="44.4762104" lon="11.338673"><ele>142.0</ele><time>2026-04-30T11:30:14.681Z</time></trkpt><trkpt lat="44.4761399" lon="11.3387042"><ele>142.0</ele><time>2026-04-30T11:30:17.675Z</time></trkpt><trkpt lat="44.4760727" lon="11.3387279"><ele>142.0</ele><time>2026-04-30T11:30:20.673Z</time></trkpt><trkpt lat="44.4760096" lon="11.338763"><ele>142.0</ele><time>2026-04-30T11:30:23.684Z</time></trkpt><trkpt lat="44.4759296" lon="11.3388064"><ele>142.0</ele><time>2026-04-30T11:30:26.686Z</time></trkpt><trkpt lat="44.4758576" lon="11.3388605"><ele>142.33333333333334</ele><time>2026-04-30T11:30:29.689Z</time></trkpt><trkpt lat="44.4757898" lon="11.3389106"><ele>142.66666666666669</ele><time>2026-04-30T11:30:32.686Z</time></trkpt><trkpt lat="44.4757181" lon="11.3389663"><ele>143.0</ele><time>2026-04-30T11:30:35.677Z</time></trkpt><trkpt lat="44.4756479" lon="11.339031"><ele>143.33333333333334</ele><time>2026-04-30T11:30:38.681Z</time></trkpt><trkpt lat="44.4755789" lon="11.3390983"><ele>143.66666666666666</ele><time>2026-04-30T11:30:41.674Z</time></trkpt><trkpt lat="44.4755034" lon="11.3391592"><ele>144.0</ele><time>2026-04-30T11:30:44.676Z</time></trkpt><trkpt lat="44.4754266" lon="11.3392233"><ele>144.0</ele><time>2026-04-30T11:30:47.693Z</time></trkpt><trkpt lat="44.4753518" lon="11.3392883"><ele>144.0</ele><time>2026-04-30T11:30:50.683Z</time></trkpt><trkpt lat="44.4752751" lon="11.3393485"><ele>144.0</ele><time>2026-04-30T11:30:53.683Z</time></trkpt><trkpt lat="44.4751887" lon="11.3393988"><ele>144.0</ele><time>2026-04-30T11:30:56.678Z</time></trkpt><trkpt lat="44.4751032" lon="11.3394487"><ele>144.0</ele><time>2026-04-30T11:30:59.688Z</time></trkpt><trkpt lat="44.4750409" lon="11.3394799"><ele>144.0</ele><time>2026-04-30T11:31:01.68Z</time></trkpt><trkpt lat="44.4749726" lon="11.3395139"><ele>144.00000000000003</ele><time>2026-04-30T11:31:03.678Z</time></trkpt><trkpt lat="44.4749054" lon="11.3395457"><ele>144.0</ele><time>2026-04-30T11:31:05.685Z</time></trkpt><trkpt lat="44.4748361" lon="11.3395929"><ele>144.0</ele><time>2026-04-30T11:31:07.687Z</time></trkpt><trkpt lat="44.4747694" lon="11.3396412"><ele>144.0</ele><time>2026-04-30T11:31:09.67Z</time></trkpt><trkpt lat="44.4747081" lon="11.3396936"><ele>144.0</ele><time>2026-04-30T11:31:11.695Z</time></trkpt><trkpt lat="44.4746516" lon="11.3397543"><ele>144.00000000000003</ele><time>2026-04-30T11:31:13.673Z</time></trkpt><trkpt lat="44.4745979" lon="11.3398206"><ele>144.0</ele><time>2026-04-30T11:31:15.685Z</time></trkpt><trkpt lat="44.4745426" lon="11.3398832"><ele>144.71428571428572</ele><time>2026-04-30T11:31:17.68Z</time></trkpt><trkpt lat="44.4744911" lon="11.3399471"><ele>145.42857142857144</ele><time>2026-04-30T11:31:19.685Z</time></trkpt><trkpt lat="44.474441" lon="11.3400132"><ele>146.14285714285714</ele><time>2026-04-30T11:31:21.692Z</time></trkpt><trkpt lat="44.4743893" lon="11.3400774"><ele>146.85714285714286</ele><time>2026-04-30T11:31:23.687Z</time></trkpt><trkpt lat="44.4743378" lon="11.3401387"><ele>147.57142857142856</ele><time>2026-04-30T11:31:25.684Z</time></trkpt><trkpt lat="44.4742879" lon="11.3401957"><ele>148.28571428571428</ele><time>2026-04-30T11:31:27.677Z</time></trkpt><trkpt lat="44.4742396" lon="11.3402573"><ele>149.0</ele><time>2026-04-30T11:31:29.692Z</time></trkpt><trkpt lat="44.4741891" lon="11.340316"><ele>149.0</ele><time>2026-04-30T11:31:31.68Z</time></trkpt><trkpt lat="44.4741205" lon="11.3404043"><ele>149.0</ele><time>2026-04-30T11:31:34.683Z</time></trkpt><trkpt lat="44.4740415" lon="11.3404762"><ele>149.0</ele><time>2026-04-30T11:31:37.679Z</time></trkpt><trkpt lat="44.4739624" lon="11.3405223"><ele>149.0</ele><time>2026-04-30T11:31:40.679Z</time></trkpt><trkpt lat="44.4738803" lon="11.340556"><ele>149.0</ele><time>2026-04-30T11:31:43.674Z</time></trkpt><trkpt lat="44.4738011" lon="11.3405936"><ele>149.0</ele><time>2026-04-30T11:31:46.677Z</time></trkpt><trkpt lat="44.4737242" lon="11.3406229"><ele>151.0</ele><time>2026-04-30T11:31:49.669Z</time></trkpt><trkpt lat="44.4736513" lon="11.3406484"><ele>153.0</ele><time>2026-04-30T11:31:52.683Z</time></trkpt><trkpt lat="44.4735795" lon="11.3406818"><ele>155.0</ele><time>2026-04-30T11:31:55.691Z</time></trkpt><trkpt lat="44.4735053" lon="11.3406956"><ele>157.0</ele><time>2026-04-30T11:31:58.674Z</time></trkpt><trkpt lat="44.4734275" lon="11.3407041"><ele>159.0</ele><time>2026-04-30T11:32:01.684Z</time></trkpt><trkpt lat="44.4733529" lon="11.3407076"><ele>161.0</ele><time>2026-04-30T11:32:04.691Z</time></trkpt><trkpt lat="44.4732788" lon="11.3407043"><ele>161.0</ele><time>2026-04-30T11:32:07.682Z</time></trkpt><trkpt lat="44.4732057" lon="11.3406683"><ele>161.0</ele><time>2026-04-30T11:32:10.683Z</time></trkpt><trkpt lat="44.4731398" lon="11.3406084"><ele>161.0</ele><time>2026-04-30T11:32:13.696Z</time></trkpt><trkpt lat="44.4730914" lon="11.340524"><ele>161.0</ele><time>2026-04-30T11:32:16.69Z</time></trkpt><trkpt lat="44.4730501" lon="11.3404338"><ele>161.0</ele><time>2026-04-30T11:32:19.678Z</time></trkpt><trkpt lat="44.4730186" lon="11.3403341"><ele>161.0</ele><time>2026-04-30T11:32:22.674Z</time></trkpt><trkpt lat="44.4729805" lon="11.3402431"><ele>161.57142857142858</ele><time>2026-04-30T11:32:25.675Z</time></trkpt><trkpt lat="44.4729427" lon="11.3401586"><ele>162.14285714285714</ele><time>2026-04-30T11:32:28.678Z</time></trkpt><trkpt lat="44.4729049" lon="11.3400836"><ele>162.71428571428572</ele><time>2026-04-30T11:32:31.686Z</time></trkpt><trkpt lat="44.4728602" lon="11.3400189"><ele>163.28571428571428</ele><time>2026-04-30T11:32:34.668Z</time></trkpt><trkpt lat="44.4727831" lon="11.3400179"><ele>163.85714285714286</ele><time>2026-04-30T11:32:38.689Z</time></trkpt><trkpt lat="44.4727855" lon="11.3401232"><ele>164.42857142857144</ele><time>2026-04-30T11:32:42.67Z</time></trkpt><trkpt lat="44.472819" lon="11.3402304"><ele>165.0</ele><time>2026-04-30T11:32:46.679Z</time></trkpt><trkpt lat="44.4728421" lon="11.3403422"><ele>165.0</ele><time>2026-04-30T11:32:50.692Z</time></trkpt><trkpt lat="44.4727842" lon="11.3402962"><ele>165.0</ele><time>2026-04-30T11:32:57.683Z</time></trkpt><trkpt lat="44.4727394" lon="11.3402105"><ele>165.0</ele><time>2026-04-30T11:33:01.683Z</time></trkpt><trkpt lat="44.4726692" lon="11.3401476"><ele>165.0</ele><time>2026-04-30T11:33:05.685Z</time></trkpt><trkpt lat="44.4726069" lon="11.3401233"><ele>165.0</ele><time>2026-04-30T11:33:08.685Z</time></trkpt><trkpt lat="44.4725272" lon="11.3401368"><ele>165.0</ele><time>2026-04-30T11:33:12.687Z</time></trkpt><trkpt lat="44.4724547" lon="11.3401949"><ele>165.00000000000003</ele><time>2026-04-30T11:33:16.672Z</time></trkpt><trkpt lat="44.4723886" lon="11.3402638"><ele>165.0</ele><time>2026-04-30T11:33:20.685Z</time></trkpt><trkpt lat="44.472334" lon="11.3403186"><ele>165.0</ele><time>2026-04-30T11:33:23.682Z</time></trkpt><trkpt lat="44.47227" lon="11.3403667"><ele>165.0</ele><time>2026-04-30T11:33:26.686Z</time></trkpt><trkpt lat="44.472209" lon="11.3404067"><ele>165.0</ele><time>2026-04-30T11:33:29.693Z</time></trkpt><trkpt lat="44.4721313" lon="11.3404489"><ele>165.00000000000003</ele><time>2026-04-30T11:33:33.684Z</time></trkpt><trkpt lat="44.4720983" lon="11.3405389"><ele>165.0</ele><time>2026-04-30T11:33:38.683Z</time></trkpt><trkpt lat="44.4721619" lon="11.3405814"><ele>166.5</ele><time>2026-04-30T11:33:43.685Z</time></trkpt><trkpt lat="44.4721096" lon="11.3406351"><ele>168.0</ele><time>2026-04-30T11:33:47.677Z</time></trkpt><trkpt lat="44.4720348" lon="11.3406197"><ele>169.5</ele><time>2026-04-30T11:33:53.692Z</time></trkpt><trkpt lat="44.4719585" lon="11.3406037"><ele>171.0</ele><time>2026-04-30T11:33:56.68Z</time></trkpt><trkpt lat="44.4718866" lon="11.3405706"><ele>172.5</ele><time>2026-04-30T11:33:59.69Z</time></trkpt><trkpt lat="44.4718122" lon="11.3405224"><ele>174.0</ele><time>2026-04-30T11:34:03.689Z</time></trkpt><trkpt lat="44.4717384" lon="11.3404704"><ele>174.0</ele><time>2026-04-30T11:34:06.683Z</time></trkpt><trkpt lat="44.4716732" lon="11.3404027"><ele>174.0</ele><time>2026-04-30T11:34:10.687Z</time></trkpt><trkpt lat="44.4716078" lon="11.3403326"><ele>174.0</ele><time>2026-04-30T11:34:14.685Z</time></trkpt><trkpt lat="44.4715404" lon="11.3402951"><ele>174.0</ele><time>2026-04-30T11:34:17.685Z</time></trkpt><trkpt lat="44.4714723" lon="11.3402603"><ele>174.0</ele><time>2026-04-30T11:34:21.68Z</time></trkpt><trkpt lat="44.4713923" lon="11.3402417"><ele>174.0</ele><time>2026-04-30T11:34:25.676Z</time></trkpt><trkpt lat="44.47131" lon="11.3402253"><ele>175.66666666666666</ele><time>2026-04-30T11:34:29.699Z</time></trkpt><trkpt lat="44.4712345" lon="11.3402166"><ele>177.33333333333334</ele><time>2026-04-30T11:34:33.689Z</time></trkpt><trkpt lat="44.4711655" lon="11.3402005"><ele>179.0</ele><time>2026-04-30T11:34:36.69Z</time></trkpt><trkpt lat="44.4710862" lon="11.3401981"><ele>180.66666666666669</ele><time>2026-04-30T11:34:40.684Z</time></trkpt><trkpt lat="44.4710258" lon="11.3402674"><ele>182.33333333333334</ele><time>2026-04-30T11:34:44.677Z</time></trkpt><trkpt lat="44.4709802" lon="11.3403552"><ele>184.0</ele><time>2026-04-30T11:34:48.691Z</time></trkpt><trkpt lat="44.4709312" lon="11.3404439"><ele>184.0</ele><time>2026-04-30T11:34:52.681Z</time></trkpt><trkpt lat="44.470879" lon="11.3405253"><ele>184.0</ele><time>2026-04-30T11:34:56.69Z</time></trkpt><trkpt lat="44.4708283" lon="11.3406072"><ele>184.0</ele><time>2026-04-30T11:35:00.685Z</time></trkpt><trkpt lat="44.4707599" lon="11.340651"><ele>184.0</ele><time>2026-04-30T11:35:04.684Z</time></trkpt><trkpt lat="44.4706776" lon="11.3406671"><ele>184.0</ele><time>2026-04-30T11:35:08.687Z</time></trkpt><trkpt lat="44.4705968" lon="11.3406884"><ele>184.0</ele><time>2026-04-30T11:35:12.687Z</time></trkpt><trkpt lat="44.4705267" lon="11.3407238"><ele>187.85714285714286</ele><time>2026-04-30T11:35:16.677Z</time></trkpt><trkpt lat="44.470525" lon="11.3408131"><ele>191.7142857142857</ele><time>2026-04-30T11:35:20.695Z</time></trkpt><trkpt lat="44.4705934" lon="11.3408401"><ele>195.57142857142856</ele><time>2026-04-30T11:35:24.69Z</time></trkpt><trkpt lat="44.4706651" lon="11.3408287"><ele>199.42857142857144</ele><time>2026-04-30T11:35:28.679Z</time></trkpt><trkpt lat="44.4707345" lon="11.340812"><ele>203.28571428571428</ele><time>2026-04-30T11:35:32.691Z</time></trkpt><trkpt lat="44.4708124" lon="11.3408111"><ele>207.14285714285714</ele><time>2026-04-30T11:35:36.679Z</time></trkpt><trkpt lat="44.4708902" lon="11.3408129"><ele>211.0</ele><time>2026-04-30T11:35:40.68Z</time></trkpt><trkpt lat="44.4709713" lon="11.3408139"><ele>210.99999999999997</ele><time>2026-04-30T11:35:44.682Z</time></trkpt><trkpt lat="44.471049" lon="11.3408066"><ele>211.0</ele><time>2026-04-30T11:35:48.679Z</time></trkpt><trkpt lat="44.4711272" lon="11.3408011"><ele>211.0</ele><time>2026-04-30T11:35:52.691Z</time></trkpt><trkpt lat="44.471143" lon="11.3408889"><ele>211.0</ele><time>2026-04-30T11:35:56.686Z</time></trkpt><trkpt lat="44.471101" lon="11.340978"><ele>210.99999999999997</ele><time>2026-04-30T11:36:00.686Z</time></trkpt><trkpt lat="44.4710641" lon="11.3410681"><ele>211.0</ele><time>2026-04-30T11:36:04.689Z</time></trkpt><trkpt lat="44.4710145" lon="11.341163"><ele>210.99999999999997</ele><time>2026-04-30T11:36:08.663Z</time></trkpt><trkpt lat="44.4709675" lon="11.3412395"><ele>211.0</ele><time>2026-04-30T11:36:12.687Z</time></trkpt><trkpt lat="44.470908" lon="11.3413011"><ele>211.0</ele><time>2026-04-30T11:36:16.692Z</time></trkpt><trkpt lat="44.4708329" lon="11.3413424"><ele>211.0</ele><time>2026-04-30T11:36:20.682Z</time></trkpt><trkpt lat="44.4707542" lon="11.3413732"><ele>210.99999999999997</ele><time>2026-04-30T11:36:25.688Z</time></trkpt><trkpt lat="44.4706886" lon="11.3413798"><ele>211.0</ele><time>2026-04-30T11:36:27.678Z</time></trkpt><trkpt lat="44.4706015" lon="11.3413751"><ele>211.0</ele><time>2026-04-30T11:36:30.679Z</time></trkpt><trkpt lat="44.4705291" lon="11.3413611"><ele>211.0</ele><time>2026-04-30T11:36:33.685Z</time></trkpt><trkpt lat="44.4704613" lon="11.3413405"><ele>211.0</ele><time>2026-04-30T11:36:36.685Z</time></trkpt><trkpt lat="44.47039" lon="11.3413294"><ele>211.0</ele><time>2026-04-30T11:36:39.684Z</time></trkpt><trkpt lat="44.4703174" lon="11.3412999"><ele>211.0</ele><time>2026-04-30T11:36:42.678Z</time></trkpt><trkpt lat="44.4702347" lon="11.341272"><ele>211.0</ele><time>2026-04-30T11:36:46.672Z</time></trkpt><trkpt lat="44.4701681" lon="11.3412593"><ele>211.0</ele><time>2026-04-30T11:36:49.672Z</time></trkpt><trkpt lat="44.4700888" lon="11.3412564"><ele>211.14285714285714</ele><time>2026-04-30T11:36:53.685Z</time></trkpt><trkpt lat="44.4700058" lon="11.3412539"><ele>211.28571428571428</ele><time>2026-04-30T11:36:57.686Z</time></trkpt><trkpt lat="44.4699426" lon="11.3412627"><ele>211.42857142857144</ele><time>2026-04-30T11:37:00.678Z</time></trkpt><trkpt lat="44.4698878" lon="11.3413429"><ele>211.57142857142856</ele><time>2026-04-30T11:37:04.68Z</time></trkpt><trkpt lat="44.4699488" lon="11.3414057"><ele>211.7142857142857</ele><time>2026-04-30T11:37:08.686Z</time></trkpt><trkpt lat="44.470006" lon="11.3414582"><ele>211.85714285714286</ele><time>2026-04-30T11:37:12.694Z</time></trkpt><trkpt lat="44.4699598" lon="11.3415192"><ele>212.0</ele><time>2026-04-30T11:37:16.689Z</time></trkpt><trkpt lat="44.4698826" lon="11.3415337"><ele>213.2857142857143</ele><time>2026-04-30T11:37:20.68Z</time></trkpt><trkpt lat="44.4698018" lon="11.3415517"><ele>214.57142857142856</ele><time>2026-04-30T11:37:24.68Z</time></trkpt><trkpt lat="44.4697383" lon="11.3415635"><ele>215.85714285714286</ele><time>2026-04-30T11:37:27.69Z</time></trkpt><trkpt lat="44.4696759" lon="11.3415923"><ele>217.14285714285717</ele><time>2026-04-30T11:37:30.684Z</time></trkpt><trkpt lat="44.4696258" lon="11.3416569"><ele>218.42857142857144</ele><time>2026-04-30T11:37:33.69Z</time></trkpt><trkpt lat="44.4696046" lon="11.3417469"><ele>219.71428571428572</ele><time>2026-04-30T11:37:36.683Z</time></trkpt><trkpt lat="44.4695799" lon="11.341855"><ele>221.0</ele><time>2026-04-30T11:37:40.694Z</time></trkpt><trkpt lat="44.4695374" lon="11.3419542"><ele>222.14285714285717</ele><time>2026-04-30T11:37:44.677Z</time></trkpt><trkpt lat="44.4694999" lon="11.3420258"><ele>223.28571428571428</ele><time>2026-04-30T11:37:47.679Z</time></trkpt><trkpt lat="44.4694438" lon="11.34211"><ele>224.42857142857144</ele><time>2026-04-30T11:37:51.689Z</time></trkpt><trkpt lat="44.4693958" lon="11.3421698"><ele>225.57142857142858</ele><time>2026-04-30T11:37:54.673Z</time></trkpt><trkpt lat="44.4693492" lon="11.342233"><ele>226.71428571428572</ele><time>2026-04-30T11:37:57.689Z</time></trkpt><trkpt lat="44.4693005" lon="11.3422915"><ele>227.85714285714286</ele><time>2026-04-30T11:38:00.679Z</time></trkpt><trkpt lat="44.4692292" lon="11.3423336"><ele>229.0</ele><time>2026-04-30T11:38:04.682Z</time></trkpt><trkpt lat="44.469227" lon="11.3422403"><ele>229.0</ele><time>2026-04-30T11:38:08.685Z</time></trkpt><trkpt lat="44.4692385" lon="11.3421227"><ele>229.0</ele><time>2026-04-30T11:38:12.678Z</time></trkpt><trkpt lat="44.4692338" lon="11.3420274"><ele>229.0</ele><time>2026-04-30T11:38:15.68Z</time></trkpt><trkpt lat="44.469205" lon="11.3419441"><ele>229.0</ele><time>2026-04-30T11:38:18.687Z</time></trkpt><trkpt lat="44.4691433" lon="11.3419713"><ele>229.0</ele><time>2026-04-30T11:38:21.684Z</time></trkpt><trkpt lat="44.46911" lon="11.3420479"><ele>229.0</ele><time>2026-04-30T11:38:24.675Z</time></trkpt><trkpt lat="44.4690722" lon="11.34215"><ele>229.0</ele><time>2026-04-30T11:38:28.681Z</time></trkpt><trkpt lat="44.4690261" lon="11.342222"><ele>229.42857142857142</ele><time>2026-04-30T11:38:31.69Z</time></trkpt><trkpt lat="44.4689884" lon="11.3421324"><ele>229.8571428571429</ele><time>2026-04-30T11:38:36.681Z</time></trkpt><trkpt lat="44.4690051" lon="11.3420428"><ele>230.2857142857143</ele><time>2026-04-30T11:38:39.672Z</time></trkpt><trkpt lat="44.4690186" lon="11.3419529"><ele>230.71428571428572</ele><time>2026-04-30T11:38:42.679Z</time></trkpt><trkpt lat="44.468946" lon="11.3419219"><ele>231.14285714285717</ele><time>2026-04-30T11:38:46.693Z</time></trkpt><trkpt lat="44.468905" lon="11.3419938"><ele>231.5714285714286</ele><time>2026-04-30T11:38:49.674Z</time></trkpt><trkpt lat="44.4688769" lon="11.3420778"><ele>232.00000000000003</ele><time>2026-04-30T11:38:52.683Z</time></trkpt><trkpt lat="44.4688209" lon="11.3421623"><ele>232.00000000000003</ele><time>2026-04-30T11:38:56.683Z</time></trkpt><trkpt lat="44.4687907" lon="11.3420817"><ele>232.0</ele><time>2026-04-30T11:39:00.686Z</time></trkpt><trkpt lat="44.4688101" lon="11.3419891"><ele>232.00000000000003</ele><time>2026-04-30T11:39:03.678Z</time></trkpt><trkpt lat="44.4688252" lon="11.3418987"><ele>232.00000000000003</ele><time>2026-04-30T11:39:06.686Z</time></trkpt><trkpt lat="44.4688235" lon="11.3418013"><ele>232.0</ele><time>2026-04-30T11:39:09.67Z</time></trkpt><trkpt lat="44.4688003" lon="11.3417049"><ele>232.00000000000003</ele><time>2026-04-30T11:39:12.675Z</time></trkpt><trkpt lat="44.4687602" lon="11.3416203"><ele>232.00000000000003</ele><time>2026-04-30T11:39:15.682Z</time></trkpt><trkpt lat="44.4687151" lon="11.3415416"><ele>234.5714285714286</ele><time>2026-04-30T11:39:18.682Z</time></trkpt><trkpt lat="44.4686705" lon="11.3414729"><ele>237.14285714285717</ele><time>2026-04-30T11:39:21.682Z</time></trkpt><trkpt lat="44.4685979" lon="11.3414449"><ele>239.71428571428572</ele><time>2026-04-30T11:39:24.688Z</time></trkpt><trkpt lat="44.4685325" lon="11.341459"><ele>242.2857142857143</ele><time>2026-04-30T11:39:27.688Z</time></trkpt><trkpt lat="44.4684618" lon="11.3414757"><ele>244.8571428571429</ele><time>2026-04-30T11:39:30.69Z</time></trkpt><trkpt lat="44.4683966" lon="11.3415139"><ele>247.42857142857142</ele><time>2026-04-30T11:39:33.688Z</time></trkpt><trkpt lat="44.4683285" lon="11.3415474"><ele>250.0</ele><time>2026-04-30T11:39:36.691Z</time></trkpt><trkpt lat="44.4682565" lon="11.3415853"><ele>250.0</ele><time>2026-04-30T11:39:39.686Z</time></trkpt><trkpt lat="44.4681886" lon="11.3416239"><ele>250.0</ele><time>2026-04-30T11:39:42.682Z</time></trkpt><trkpt lat="44.4681174" lon="11.3416577"><ele>250.0</ele><time>2026-04-30T11:39:45.685Z</time></trkpt><trkpt lat="44.4680495" lon="11.3416938"><ele>250.0</ele><time>2026-04-30T11:39:48.687Z</time></trkpt><trkpt lat="44.467984" lon="11.3417301"><ele>250.0</ele><time>2026-04-30T11:39:51.692Z</time></trkpt><trkpt lat="44.4679126" lon="11.3417524"><ele>250.0</ele><time>2026-04-30T11:39:54.681Z</time></trkpt><trkpt lat="44.467845" lon="11.3417537"><ele>250.0</ele><time>2026-04-30T11:39:57.682Z</time></trkpt><trkpt lat="44.4677701" lon="11.3417451"><ele>251.49999999999997</ele><time>2026-04-30T11:40:01.68Z</time></trkpt><trkpt lat="44.4676919" lon="11.3417264"><ele>253.0</ele><time>2026-04-30T11:40:04.677Z</time></trkpt><trkpt lat="44.4676184" lon="11.3417024"><ele>254.5</ele><time>2026-04-30T11:40:07.683Z</time></trkpt><trkpt lat="44.4675419" lon="11.3416776"><ele>256.0</ele><time>2026-04-30T11:40:10.679Z</time></trkpt><trkpt lat="44.4674658" lon="11.3416646"><ele>257.5</ele><time>2026-04-30T11:40:13.687Z</time></trkpt><trkpt lat="44.4673936" lon="11.3416879"><ele>259.0</ele><time>2026-04-30T11:40:16.688Z</time></trkpt><trkpt lat="44.4673463" lon="11.3417626"><ele>259.0</ele><time>2026-04-30T11:40:19.686Z</time></trkpt><trkpt lat="44.4673173" lon="11.3418683"><ele>259.0</ele><time>2026-04-30T11:40:23.685Z</time></trkpt><trkpt lat="44.4672917" lon="11.3419516"><ele>259.0</ele><time>2026-04-30T11:40:26.677Z</time></trkpt><trkpt lat="44.4672414" lon="11.3420116"><ele>259.0</ele><time>2026-04-30T11:40:29.682Z</time></trkpt><trkpt lat="44.4671829" lon="11.3420596"><ele>259.0</ele><time>2026-04-30T11:40:32.68Z</time></trkpt><trkpt lat="44.4671149" lon="11.3421066"><ele>259.0</ele><time>2026-04-30T11:40:35.679Z</time></trkpt><trkpt lat="44.4670484" lon="11.3421421"><ele>259.0</ele><time>2026-04-30T11:40:38.69Z</time></trkpt><trkpt lat="44.4669802" lon="11.3421611"><ele>259.0</ele><time>2026-04-30T11:40:41.681Z</time></trkpt><trkpt lat="44.4669168" lon="11.3421845"><ele>259.0</ele><time>2026-04-30T11:40:44.681Z</time></trkpt><trkpt lat="44.4668452" lon="11.3422078"><ele>259.0</ele><time>2026-04-30T11:40:47.664Z</time></trkpt><trkpt lat="44.4667715" lon="11.3422182"><ele>259.0</ele><time>2026-04-30T11:40:50.677Z</time></trkpt><trkpt lat="44.4666937" lon="11.3422428"><ele>259.0</ele><time>2026-04-30T11:40:53.678Z</time></trkpt><trkpt lat="44.4666082" lon="11.3422735"><ele>259.0</ele><time>2026-04-30T11:40:56.683Z</time></trkpt><trkpt lat="44.4665296" lon="11.3423042"><ele>259.0</ele><time>2026-04-30T11:40:59.697Z</time></trkpt><trkpt lat="44.4664499" lon="11.3423331"><ele>259.0</ele><time>2026-04-30T11:41:02.693Z</time></trkpt><trkpt lat="44.4663648" lon="11.3423604"><ele>259.0</ele><time>2026-04-30T11:41:05.679Z</time></trkpt><trkpt lat="44.4662782" lon="11.3423749"><ele>259.0</ele><time>2026-04-30T11:41:08.677Z</time></trkpt><trkpt lat="44.4661964" lon="11.3423771"><ele>259.0</ele><time>2026-04-30T11:41:10.68Z</time></trkpt><trkpt lat="44.46612" lon="11.3423762"><ele>259.0</ele><time>2026-04-30T11:41:12.692Z</time></trkpt><trkpt lat="44.466036" lon="11.342376"><ele>259.3333333333333</ele><time>2026-04-30T11:41:14.682Z</time></trkpt><trkpt lat="44.4659721" lon="11.3423844"><ele>259.66666666666663</ele><time>2026-04-30T11:41:17.684Z</time></trkpt><trkpt lat="44.4658894" lon="11.3424126"><ele>260.0</ele><time>2026-04-30T11:42:12.688Z</time></trkpt><trkpt lat="44.4658064" lon="11.3424121"><ele>260.3333333333333</ele><time>2026-04-30T11:42:14.677Z</time></trkpt><trkpt lat="44.4657065" lon="11.3424142"><ele>260.6666666666667</ele><time>2026-04-30T11:42:16.679Z</time></trkpt><trkpt lat="44.4655987" lon="11.3424044"><ele>261.0</ele><time>2026-04-30T11:42:18.681Z</time></trkpt><trkpt lat="44.4654887" lon="11.3423362"><ele>260.1666666666667</ele><time>2026-04-30T11:42:20.69Z</time></trkpt><trkpt lat="44.4654283" lon="11.3422915"><ele>259.3333333333333</ele><time>2026-04-30T11:42:21.676Z</time></trkpt><trkpt lat="44.4653644" lon="11.3422351"><ele>258.5</ele><time>2026-04-30T11:42:22.682Z</time></trkpt><trkpt lat="44.4652979" lon="11.3421751"><ele>257.66666666666663</ele><time>2026-04-30T11:42:23.684Z</time></trkpt><trkpt lat="44.4652192" lon="11.3421335"><ele>256.8333333333333</ele><time>2026-04-30T11:42:24.685Z</time></trkpt><trkpt lat="44.4651381" lon="11.3420934"><ele>256.0</ele><time>2026-04-30T11:42:25.681Z</time></trkpt><trkpt lat="44.4650458" lon="11.3420926"><ele>256.0</ele><time>2026-04-30T11:42:26.682Z</time></trkpt><trkpt lat="44.464956" lon="11.3421152"><ele>256.0</ele><time>2026-04-30T11:42:27.684Z</time></trkpt><trkpt lat="44.4648712" lon="11.342165"><ele>256.0</ele><time>2026-04-30T11:42:28.691Z</time></trkpt><trkpt lat="44.4647944" lon="11.342241"><ele>256.0</ele><time>2026-04-30T11:42:29.676Z</time></trkpt><trkpt lat="44.4647263" lon="11.3423366"><ele>256.0</ele><time>2026-04-30T11:42:30.687Z</time></trkpt><trkpt lat="44.4646644" lon="11.3424257"><ele>255.99999999999997</ele><time>2026-04-30T11:42:31.686Z</time></trkpt><trkpt lat="44.464621" lon="11.3425115"><ele>256.0</ele><time>2026-04-30T11:42:32.69Z</time></trkpt><trkpt lat="44.4645784" lon="11.3425783"><ele>256.0</ele><time>2026-04-30T11:42:33.684Z</time></trkpt><trkpt lat="44.4644617" lon="11.3426698"><ele>256.0</ele><time>2026-04-30T11:42:35.683Z</time></trkpt><trkpt lat="44.4643841" lon="11.342693"><ele>255.99999999999997</ele><time>2026-04-30T11:42:36.68Z</time></trkpt><trkpt lat="44.4643066" lon="11.3427207"><ele>256.0</ele><time>2026-04-30T11:42:37.673Z</time></trkpt><trkpt lat="44.4642339" lon="11.3427597"><ele>255.83333333333331</ele><time>2026-04-30T11:42:38.698Z</time></trkpt><trkpt lat="44.4641688" lon="11.342807"><ele>255.66666666666666</ele><time>2026-04-30T11:42:39.676Z</time></trkpt><trkpt lat="44.4641152" lon="11.3428676"><ele>255.5</ele><time>2026-04-30T11:42:40.681Z</time></trkpt><trkpt lat="44.4640766" lon="11.3429378"><ele>255.33333333333331</ele><time>2026-04-30T11:42:41.689Z</time></trkpt><trkpt lat="44.4640473" lon="11.3430843"><ele>255.16666666666666</ele><time>2026-04-30T11:42:43.678Z</time></trkpt><trkpt lat="44.4640381" lon="11.3432112"><ele>255.0</ele><time>2026-04-30T11:42:45.679Z</time></trkpt><trkpt lat="44.4640396" lon="11.3433189"><ele>255.0</ele><time>2026-04-30T11:42:47.681Z</time></trkpt><trkpt lat="44.4640469" lon="11.343417"><ele>255.0</ele><time>2026-04-30T11:42:49.685Z</time></trkpt><trkpt lat="44.4640702" lon="11.3435114"><ele>255.0</ele><time>2026-04-30T11:42:51.693Z</time></trkpt><trkpt lat="44.464108" lon="11.3435836"><ele>255.0</ele><time>2026-04-30T11:42:53.693Z</time></trkpt><trkpt lat="44.4641764" lon="11.3436419"><ele>255.0</ele><time>2026-04-30T11:42:56.69Z</time></trkpt><trkpt lat="44.4642592" lon="11.3436854"><ele>255.0</ele><time>2026-04-30T11:42:59.681Z</time></trkpt><trkpt lat="44.4643306" lon="11.3437456"><ele>255.0</ele><time>2026-04-30T11:43:02.686Z</time></trkpt><trkpt lat="44.4643098" lon="11.3438502"><ele>255.0</ele><time>2026-04-30T11:43:05.684Z</time></trkpt><trkpt lat="44.4642161" lon="11.3438681"><ele>255.0</ele><time>2026-04-30T11:43:09.69Z</time></trkpt><trkpt lat="44.4641479" lon="11.3438742"><ele>255.0</ele><time>2026-04-30T11:43:11.687Z</time></trkpt><trkpt lat="44.4640645" lon="11.3438698"><ele>255.0</ele><time>2026-04-30T11:43:14.68Z</time></trkpt><trkpt lat="44.4639856" lon="11.3438599"><ele>255.0</ele><time>2026-04-30T11:43:17.685Z</time></trkpt><trkpt lat="44.4639033" lon="11.3438524"><ele>255.0</ele><time>2026-04-30T11:43:20.692Z</time></trkpt><trkpt lat="44.4638145" lon="11.3438342"><ele>255.0</ele><time>2026-04-30T11:43:23.688Z</time></trkpt><trkpt lat="44.4637439" lon="11.3438109"><ele>255.0</ele><time>2026-04-30T11:43:25.688Z</time></trkpt><trkpt lat="44.4636527" lon="11.3437828"><ele>255.0</ele><time>2026-04-30T11:43:28.683Z</time></trkpt><trkpt lat="44.4635689" lon="11.3437641"><ele>255.0</ele><time>2026-04-30T11:43:31.683Z</time></trkpt><trkpt lat="44.4634905" lon="11.3437326"><ele>255.0</ele><time>2026-04-30T11:43:34.688Z</time></trkpt><trkpt lat="44.4634079" lon="11.3436991"><ele>256.3333333333333</ele><time>2026-04-30T11:43:37.685Z</time></trkpt><trkpt lat="44.4633312" lon="11.343678"><ele>257.6666666666667</ele><time>2026-04-30T11:43:40.696Z</time></trkpt><trkpt lat="44.4632523" lon="11.343668"><ele>259.0</ele><time>2026-04-30T11:43:43.684Z</time></trkpt><trkpt lat="44.4631689" lon="11.3436515"><ele>260.33333333333337</ele><time>2026-04-30T11:43:46.68Z</time></trkpt><trkpt lat="44.463087" lon="11.3436258"><ele>261.6666666666667</ele><time>2026-04-30T11:43:49.681Z</time></trkpt><trkpt lat="44.4630027" lon="11.3436106"><ele>263.0</ele><time>2026-04-30T11:43:52.685Z</time></trkpt><trkpt lat="44.4629384" lon="11.3435914"><ele>263.0</ele><time>2026-04-30T11:43:54.689Z</time></trkpt><trkpt lat="44.4628656" lon="11.3435767"><ele>263.0</ele><time>2026-04-30T11:43:56.689Z</time></trkpt><trkpt lat="44.4627945" lon="11.3435587"><ele>263.0</ele><time>2026-04-30T11:43:58.683Z</time></trkpt><trkpt lat="44.4627053" lon="11.3435516"><ele>263.0</ele><time>2026-04-30T11:44:00.684Z</time></trkpt><trkpt lat="44.4626091" lon="11.3435551"><ele>263.0</ele><time>2026-04-30T11:44:02.682Z</time></trkpt><trkpt lat="44.4624972" lon="11.3435643"><ele>263.0</ele><time>2026-04-30T11:44:04.686Z</time></trkpt><trkpt lat="44.4623712" lon="11.3435727"><ele>263.0</ele><time>2026-04-30T11:44:06.685Z</time></trkpt><trkpt lat="44.4623053" lon="11.3435792"><ele>263.0</ele><time>2026-04-30T11:44:07.68Z</time></trkpt><trkpt lat="44.4622395" lon="11.3435893"><ele>263.0</ele><time>2026-04-30T11:44:08.677Z</time></trkpt><trkpt lat="44.4621764" lon="11.3436017"><ele>263.0</ele><time>2026-04-30T11:44:09.686Z</time></trkpt><trkpt lat="44.462064" lon="11.343622"><ele>263.0</ele><time>2026-04-30T11:44:11.689Z</time></trkpt><trkpt lat="44.4619993" lon="11.3436251"><ele>263.0</ele><time>2026-04-30T11:44:12.663Z</time></trkpt><trkpt lat="44.4618765" lon="11.3436286"><ele>262.2</ele><time>2026-04-30T11:44:14.682Z</time></trkpt><trkpt lat="44.4617611" lon="11.3436404"><ele>261.4</ele><time>2026-04-30T11:44:16.686Z</time></trkpt><trkpt lat="44.4616494" lon="11.343649"><ele>260.59999999999997</ele><time>2026-04-30T11:44:18.684Z</time></trkpt><trkpt lat="44.4615442" lon="11.3436539"><ele>259.8</ele><time>2026-04-30T11:44:20.694Z</time></trkpt><trkpt lat="44.4614378" lon="11.3436498"><ele>259.0</ele><time>2026-04-30T11:44:22.691Z</time></trkpt><trkpt lat="44.4613275" lon="11.3436182"><ele>258.2857142857143</ele><time>2026-04-30T11:44:24.676Z</time></trkpt><trkpt lat="44.4612648" lon="11.3436013"><ele>257.57142857142856</ele><time>2026-04-30T11:44:25.682Z</time></trkpt><trkpt lat="44.4611987" lon="11.3435889"><ele>256.8571428571429</ele><time>2026-04-30T11:44:26.684Z</time></trkpt><trkpt lat="44.4611306" lon="11.3435863"><ele>256.1428571428571</ele><time>2026-04-30T11:44:27.687Z</time></trkpt><trkpt lat="44.461063" lon="11.3435955"><ele>255.42857142857142</ele><time>2026-04-30T11:44:28.682Z</time></trkpt><trkpt lat="44.4609979" lon="11.3436181"><ele>254.71428571428572</ele><time>2026-04-30T11:44:29.693Z</time></trkpt><trkpt lat="44.4609347" lon="11.3436407"><ele>254.0</ele><time>2026-04-30T11:44:30.688Z</time></trkpt><trkpt lat="44.4608328" lon="11.3437359"><ele>254.0</ele><time>2026-04-30T11:44:32.679Z</time></trkpt><trkpt lat="44.4607544" lon="11.3438487"><ele>253.99999999999997</ele><time>2026-04-30T11:44:34.689Z</time></trkpt><trkpt lat="44.460696" lon="11.3439587"><ele>253.99999999999997</ele><time>2026-04-30T11:44:36.692Z</time></trkpt><trkpt lat="44.4606446" lon="11.3440592"><ele>254.0</ele><time>2026-04-30T11:44:38.679Z</time></trkpt><trkpt lat="44.4606061" lon="11.3441643"><ele>254.0</ele><time>2026-04-30T11:44:40.691Z</time></trkpt><trkpt lat="44.4605712" lon="11.3442693"><ele>256.8</ele><time>2026-04-30T11:44:42.679Z</time></trkpt><trkpt lat="44.4605456" lon="11.3443853"><ele>259.59999999999997</ele><time>2026-04-30T11:44:44.67Z</time></trkpt><trkpt lat="44.4605271" lon="11.3445291"><ele>262.4</ele><time>2026-04-30T11:44:46.695Z</time></trkpt><trkpt lat="44.4605268" lon="11.3447104"><ele>265.2</ele><time>2026-04-30T11:44:48.693Z</time></trkpt><trkpt lat="44.460537" lon="11.3448128"><ele>268.0</ele><time>2026-04-30T11:44:49.69Z</time></trkpt><trkpt lat="44.4605453" lon="11.3449139"><ele>268.0</ele><time>2026-04-30T11:44:50.693Z</time></trkpt><trkpt lat="44.4605502" lon="11.345023"><ele>268.0</ele><time>2026-04-30T11:44:51.689Z</time></trkpt><trkpt lat="44.4605494" lon="11.3451363"><ele>268.0</ele><time>2026-04-30T11:44:52.679Z</time></trkpt><trkpt lat="44.4605437" lon="11.3452528"><ele>268.0</ele><time>2026-04-30T11:44:53.695Z</time></trkpt><trkpt lat="44.4605558" lon="11.3453609"><ele>268.0</ele><time>2026-04-30T11:44:54.681Z</time></trkpt><trkpt lat="44.4605685" lon="11.3454655"><ele>268.0</ele><time>2026-04-30T11:44:55.675Z</time></trkpt><trkpt lat="44.4606156" lon="11.345549"><ele>267.14285714285717</ele><time>2026-04-30T11:44:56.68Z</time></trkpt><trkpt lat="44.4606723" lon="11.3456224"><ele>266.2857142857143</ele><time>2026-04-30T11:44:57.69Z</time></trkpt><trkpt lat="44.4607205" lon="11.3456977"><ele>265.42857142857144</ele><time>2026-04-30T11:44:58.683Z</time></trkpt><trkpt lat="44.4607514" lon="11.3457898"><ele>264.57142857142856</ele><time>2026-04-30T11:44:59.683Z</time></trkpt><trkpt lat="44.460755" lon="11.3458942"><ele>263.7142857142857</ele><time>2026-04-30T11:45:00.688Z</time></trkpt><trkpt lat="44.4607406" lon="11.3459991"><ele>262.8571428571429</ele><time>2026-04-30T11:45:01.685Z</time></trkpt><trkpt lat="44.4607181" lon="11.3460994"><ele>262.0</ele><time>2026-04-30T11:45:02.684Z</time></trkpt><trkpt lat="44.4606969" lon="11.3461989"><ele>262.0</ele><time>2026-04-30T11:45:03.69Z</time></trkpt><trkpt lat="44.4606715" lon="11.3463052"><ele>262.0</ele><time>2026-04-30T11:45:04.684Z</time></trkpt><trkpt lat="44.4606451" lon="11.3464137"><ele>262.0</ele><time>2026-04-30T11:45:05.679Z</time></trkpt><trkpt lat="44.4606213" lon="11.3465241"><ele>262.0</ele><time>2026-04-30T11:45:06.685Z</time></trkpt><trkpt lat="44.460599" lon="11.3466337"><ele>262.0</ele><time>2026-04-30T11:45:07.688Z</time></trkpt><trkpt lat="44.4605769" lon="11.3467384"><ele>262.0</ele><time>2026-04-30T11:45:08.693Z</time></trkpt><trkpt lat="44.460554" lon="11.3468417"><ele>261.5</ele><time>2026-04-30T11:45:09.694Z</time></trkpt><trkpt lat="44.4605136" lon="11.3469367"><ele>261.0</ele><time>2026-04-30T11:45:10.689Z</time></trkpt><trkpt lat="44.4604475" lon="11.3469962"><ele>260.5</ele><time>2026-04-30T11:45:11.688Z</time></trkpt><trkpt lat="44.4603739" lon="11.3470312"><ele>260.0</ele><time>2026-04-30T11:45:12.693Z</time></trkpt><trkpt lat="44.4603013" lon="11.3470657"><ele>259.5</ele><time>2026-04-30T11:45:13.681Z</time></trkpt><trkpt lat="44.4602286" lon="11.3471001"><ele>259.0</ele><time>2026-04-30T11:45:14.687Z</time></trkpt><trkpt lat="44.4601549" lon="11.3471326"><ele>257.3333333333333</ele><time>2026-04-30T11:45:15.68Z</time></trkpt><trkpt lat="44.46008" lon="11.3471666"><ele>255.66666666666666</ele><time>2026-04-30T11:45:16.674Z</time></trkpt><trkpt lat="44.4600057" lon="11.3471978"><ele>254.0</ele><time>2026-04-30T11:45:17.69Z</time></trkpt><trkpt lat="44.4599302" lon="11.3472298"><ele>252.33333333333331</ele><time>2026-04-30T11:45:18.685Z</time></trkpt><trkpt lat="44.459854" lon="11.3472624"><ele>250.66666666666666</ele><time>2026-04-30T11:45:19.692Z</time></trkpt><trkpt lat="44.459777" lon="11.347288"><ele>249.0</ele><time>2026-04-30T11:45:20.676Z</time></trkpt><trkpt lat="44.4596988" lon="11.3473059"><ele>249.0</ele><time>2026-04-30T11:45:21.685Z</time></trkpt><trkpt lat="44.4596221" lon="11.3473235"><ele>248.99999999999997</ele><time>2026-04-30T11:45:22.676Z</time></trkpt><trkpt lat="44.4595463" lon="11.3473372"><ele>249.0</ele><time>2026-04-30T11:45:23.679Z</time></trkpt><trkpt lat="44.4594756" lon="11.3473529"><ele>249.0</ele><time>2026-04-30T11:45:24.682Z</time></trkpt><trkpt lat="44.4594039" lon="11.3473687"><ele>248.99999999999997</ele><time>2026-04-30T11:45:25.681Z</time></trkpt><trkpt lat="44.459341" lon="11.347386"><ele>249.0</ele><time>2026-04-30T11:45:26.691Z</time></trkpt><trkpt lat="44.4592764" lon="11.3474036"><ele>249.0</ele><time>2026-04-30T11:45:27.674Z</time></trkpt><trkpt lat="44.4592125" lon="11.3474214"><ele>249.0</ele><time>2026-04-30T11:45:28.68Z</time></trkpt><trkpt lat="44.4591489" lon="11.3474442"><ele>248.99999999999997</ele><time>2026-04-30T11:45:29.689Z</time></trkpt><trkpt lat="44.4590327" lon="11.3474951"><ele>248.99999999999997</ele><time>2026-04-30T11:45:31.679Z</time></trkpt><trkpt lat="44.4589263" lon="11.3475539"><ele>249.0</ele><time>2026-04-30T11:45:33.68Z</time></trkpt><trkpt lat="44.4588295" lon="11.3476244"><ele>249.0</ele><time>2026-04-30T11:45:35.69Z</time></trkpt><trkpt lat="44.4587489" lon="11.3477074"><ele>248.5</ele><time>2026-04-30T11:45:37.688Z</time></trkpt><trkpt lat="44.458683" lon="11.3477961"><ele>248.0</ele><time>2026-04-30T11:45:39.69Z</time></trkpt><trkpt lat="44.4586224" lon="11.3478827"><ele>247.5</ele><time>2026-04-30T11:45:41.689Z</time></trkpt><trkpt lat="44.4585671" lon="11.3479657"><ele>247.0</ele><time>2026-04-30T11:45:43.679Z</time></trkpt><trkpt lat="44.4585159" lon="11.3480427"><ele>246.5</ele><time>2026-04-30T11:45:45.678Z</time></trkpt><trkpt lat="44.4584683" lon="11.3481173"><ele>246.0</ele><time>2026-04-30T11:45:47.685Z</time></trkpt><trkpt lat="44.4584179" lon="11.3481924"><ele>247.5714285714286</ele><time>2026-04-30T11:45:49.686Z</time></trkpt><trkpt lat="44.4583653" lon="11.3482625"><ele>249.14285714285717</ele><time>2026-04-30T11:45:51.687Z</time></trkpt><trkpt lat="44.4583143" lon="11.3483302"><ele>250.71428571428572</ele><time>2026-04-30T11:45:53.685Z</time></trkpt><trkpt lat="44.458261" lon="11.3484005"><ele>252.2857142857143</ele><time>2026-04-30T11:45:55.685Z</time></trkpt><trkpt lat="44.4582006" lon="11.3484536"><ele>253.8571428571429</ele><time>2026-04-30T11:45:57.674Z</time></trkpt><trkpt lat="44.4581324" lon="11.3484864"><ele>255.42857142857142</ele><time>2026-04-30T11:45:59.69Z</time></trkpt><trkpt lat="44.4580646" lon="11.3485134"><ele>257.0</ele><time>2026-04-30T11:46:01.687Z</time></trkpt><trkpt lat="44.457998" lon="11.3485289"><ele>257.6666666666667</ele><time>2026-04-30T11:46:03.684Z</time></trkpt><trkpt lat="44.4579351" lon="11.3485412"><ele>258.33333333333337</ele><time>2026-04-30T11:46:05.68Z</time></trkpt><trkpt lat="44.4578413" lon="11.3485479"><ele>259.0</ele><time>2026-04-30T11:46:08.688Z</time></trkpt><trkpt lat="44.4577503" lon="11.3485612"><ele>259.6666666666667</ele><time>2026-04-30T11:46:11.679Z</time></trkpt><trkpt lat="44.4576584" lon="11.3485744"><ele>260.3333333333333</ele><time>2026-04-30T11:46:14.692Z</time></trkpt><trkpt lat="44.4575708" lon="11.3485878"><ele>261.0</ele><time>2026-04-30T11:46:17.688Z</time></trkpt><trkpt lat="44.4574862" lon="11.3486004"><ele>261.0</ele><time>2026-04-30T11:46:20.693Z</time></trkpt><trkpt lat="44.4574034" lon="11.3486134"><ele>261.0</ele><time>2026-04-30T11:46:23.682Z</time></trkpt><trkpt lat="44.4573254" lon="11.3486247"><ele>261.0</ele><time>2026-04-30T11:46:26.692Z</time></trkpt><trkpt lat="44.4572497" lon="11.348637"><ele>261.0</ele><time>2026-04-30T11:46:29.689Z</time></trkpt><trkpt lat="44.4571756" lon="11.3486515"><ele>261.0</ele><time>2026-04-30T11:46:32.69Z</time></trkpt><trkpt lat="44.4571026" lon="11.3486748"><ele>261.0</ele><time>2026-04-30T11:46:35.683Z</time></trkpt><trkpt lat="44.4570345" lon="11.3486896"><ele>261.1666666666667</ele><time>2026-04-30T11:46:38.68Z</time></trkpt><trkpt lat="44.456962" lon="11.3487124"><ele>261.3333333333333</ele><time>2026-04-30T11:46:41.698Z</time></trkpt><trkpt lat="44.4568973" lon="11.3487363"><ele>261.5</ele><time>2026-04-30T11:46:44.682Z</time></trkpt><trkpt lat="44.4568205" lon="11.3487754"><ele>261.66666666666663</ele><time>2026-04-30T11:46:48.688Z</time></trkpt><trkpt lat="44.4567575" lon="11.3488059"><ele>261.8333333333333</ele><time>2026-04-30T11:46:51.69Z</time></trkpt><trkpt lat="44.4566863" lon="11.3488571"><ele>262.0</ele><time>2026-04-30T11:46:55.682Z</time></trkpt><trkpt lat="44.4566202" lon="11.3489234"><ele>264.0</ele><time>2026-04-30T11:46:59.681Z</time></trkpt><trkpt lat="44.4565623" lon="11.349003"><ele>266.0</ele><time>2026-04-30T11:47:03.675Z</time></trkpt><trkpt lat="44.456501" lon="11.349079"><ele>268.0</ele><time>2026-04-30T11:47:07.689Z</time></trkpt><trkpt lat="44.4564557" lon="11.3491405"><ele>270.0</ele><time>2026-04-30T11:47:10.681Z</time></trkpt><trkpt lat="44.456415" lon="11.349211"><ele>272.0</ele><time>2026-04-30T11:47:14.688Z</time></trkpt><trkpt lat="44.4563698" lon="11.349278"><ele>274.0</ele><time>2026-04-30T11:47:18.688Z</time></trkpt><trkpt lat="44.4563236" lon="11.3493505"><ele>276.0</ele><time>2026-04-30T11:47:22.683Z</time></trkpt><trkpt lat="44.4562697" lon="11.3494338"><ele>276.0</ele><time>2026-04-30T11:47:27.691Z</time></trkpt><trkpt lat="44.4562139" lon="11.3495076"><ele>276.0</ele><time>2026-04-30T11:47:31.685Z</time></trkpt><trkpt lat="44.4561504" lon="11.3495782"><ele>276.0</ele><time>2026-04-30T11:47:35.686Z</time></trkpt><trkpt lat="44.456097" lon="11.3496454"><ele>276.0</ele><time>2026-04-30T11:47:40.681Z</time></trkpt><trkpt lat="44.4560889" lon="11.3497359"><ele>276.0</ele><time>2026-04-30T11:47:44.68Z</time></trkpt><trkpt lat="44.4561612" lon="11.3497795"><ele>276.0</ele><time>2026-04-30T11:47:47.68Z</time></trkpt><trkpt lat="44.456229" lon="11.3497703"><ele>276.0</ele><time>2026-04-30T11:47:52.69Z</time></trkpt><trkpt lat="44.4563063" lon="11.3497697"><ele>276.57142857142856</ele><time>2026-04-30T11:47:56.693Z</time></trkpt><trkpt lat="44.4563886" lon="11.3497634"><ele>277.14285714285717</ele><time>2026-04-30T11:48:00.693Z</time></trkpt><trkpt lat="44.456455" lon="11.3497504"><ele>277.7142857142857</ele><time>2026-04-30T11:48:03.68Z</time></trkpt><trkpt lat="44.456521" lon="11.3497289"><ele>278.2857142857143</ele><time>2026-04-30T11:48:06.681Z</time></trkpt><trkpt lat="44.4565885" lon="11.3497032"><ele>278.8571428571429</ele><time>2026-04-30T11:48:09.692Z</time></trkpt><trkpt lat="44.4566579" lon="11.3496876"><ele>279.42857142857144</ele><time>2026-04-30T11:48:12.694Z</time></trkpt><trkpt lat="44.4567322" lon="11.3496933"><ele>280.0</ele><time>2026-04-30T11:48:15.686Z</time></trkpt><trkpt lat="44.4568072" lon="11.3497285"><ele>281.8333333333333</ele><time>2026-04-30T11:48:18.684Z</time></trkpt><trkpt lat="44.45687" lon="11.3497968"><ele>283.66666666666663</ele><time>2026-04-30T11:48:21.671Z</time></trkpt><trkpt lat="44.456915" lon="11.3498912"><ele>285.5</ele><time>2026-04-30T11:48:24.687Z</time></trkpt><trkpt lat="44.4569361" lon="11.3500105"><ele>287.3333333333333</ele><time>2026-04-30T11:48:27.683Z</time></trkpt><trkpt lat="44.4569485" lon="11.3500972"><ele>289.1666666666667</ele><time>2026-04-30T11:48:29.683Z</time></trkpt><trkpt lat="44.4569623" lon="11.3502277"><ele>291.0</ele><time>2026-04-30T11:48:32.686Z</time></trkpt><trkpt lat="44.456967" lon="11.3503584"><ele>291.0</ele><time>2026-04-30T11:48:35.676Z</time></trkpt><trkpt lat="44.4569811" lon="11.3504915"><ele>291.0</ele><time>2026-04-30T11:48:38.682Z</time></trkpt><trkpt lat="44.4570017" lon="11.3506014"><ele>291.0</ele><time>2026-04-30T11:48:40.684Z</time></trkpt><trkpt lat="44.457026" lon="11.3507348"><ele>291.0</ele><time>2026-04-30T11:48:42.689Z</time></trkpt><trkpt lat="44.4570619" lon="11.3508892"><ele>291.0</ele><time>2026-04-30T11:48:44.674Z</time></trkpt><trkpt lat="44.4570788" lon="11.3509781"><ele>291.1666666666667</ele><time>2026-04-30T11:48:45.692Z</time></trkpt><trkpt lat="44.4570961" lon="11.3510691"><ele>291.3333333333333</ele><time>2026-04-30T11:48:46.686Z</time></trkpt><trkpt lat="44.4571057" lon="11.3511764"><ele>291.5</ele><time>2026-04-30T11:48:47.68Z</time></trkpt><trkpt lat="44.4571081" lon="11.351289"><ele>291.66666666666663</ele><time>2026-04-30T11:48:48.684Z</time></trkpt><trkpt lat="44.4571049" lon="11.3514078"><ele>291.8333333333333</ele><time>2026-04-30T11:48:49.688Z</time></trkpt><trkpt lat="44.4570975" lon="11.3515339"><ele>292.0</ele><time>2026-04-30T11:48:50.669Z</time></trkpt><trkpt lat="44.457089" lon="11.3516665"><ele>291.2</ele><time>2026-04-30T11:48:51.684Z</time></trkpt><trkpt lat="44.45708" lon="11.3518044"><ele>290.4</ele><time>2026-04-30T11:48:52.679Z</time></trkpt><trkpt lat="44.4570667" lon="11.3519514"><ele>289.6</ele><time>2026-04-30T11:48:53.681Z</time></trkpt><trkpt lat="44.4570563" lon="11.3520995"><ele>288.8</ele><time>2026-04-30T11:48:54.683Z</time></trkpt><trkpt lat="44.4570577" lon="11.3522432"><ele>288.0</ele><time>2026-04-30T11:48:55.68Z</time></trkpt><trkpt lat="44.4570809" lon="11.3523805"><ele>285.2</ele><time>2026-04-30T11:48:56.683Z</time></trkpt><trkpt lat="44.457127" lon="11.3525083"><ele>282.4</ele><time>2026-04-30T11:48:57.68Z</time></trkpt><trkpt lat="44.4571904" lon="11.3526173"><ele>279.59999999999997</ele><time>2026-04-30T11:48:58.666Z</time></trkpt><trkpt lat="44.4572658" lon="11.3527081"><ele>276.8</ele><time>2026-04-30T11:48:59.672Z</time></trkpt><trkpt lat="44.4573484" lon="11.352781"><ele>274.0</ele><time>2026-04-30T11:49:00.688Z</time></trkpt><trkpt lat="44.4574282" lon="11.3528488"><ele>274.0</ele><time>2026-04-30T11:49:01.68Z</time></trkpt><trkpt lat="44.4575081" lon="11.3529002"><ele>274.0</ele><time>2026-04-30T11:49:02.691Z</time></trkpt><trkpt lat="44.4575849" lon="11.3529501"><ele>274.0</ele><time>2026-04-30T11:49:03.684Z</time></trkpt><trkpt lat="44.457658" lon="11.3529891"><ele>274.0</ele><time>2026-04-30T11:49:04.689Z</time></trkpt><trkpt lat="44.4577283" lon="11.3530175"><ele>274.0</ele><time>2026-04-30T11:49:05.686Z</time></trkpt><trkpt lat="44.4577933" lon="11.3530399"><ele>274.0</ele><time>2026-04-30T11:49:06.673Z</time></trkpt><trkpt lat="44.4578555" lon="11.3530602"><ele>274.59999999999997</ele><time>2026-04-30T11:49:07.675Z</time></trkpt><trkpt lat="44.4579668" lon="11.353098"><ele>275.2</ele><time>2026-04-30T11:49:09.691Z</time></trkpt><trkpt lat="44.4580676" lon="11.3531262"><ele>275.79999999999995</ele><time>2026-04-30T11:49:11.673Z</time></trkpt><trkpt lat="44.4581599" lon="11.3531694"><ele>276.4</ele><time>2026-04-30T11:49:13.674Z</time></trkpt><trkpt lat="44.458252" lon="11.3532289"><ele>277.0</ele><time>2026-04-30T11:49:15.679Z</time></trkpt><trkpt lat="44.458344" lon="11.3533102"><ele>277.0</ele><time>2026-04-30T11:49:17.689Z</time></trkpt><trkpt lat="44.4584353" lon="11.3534078"><ele>277.0</ele><time>2026-04-30T11:49:19.688Z</time></trkpt><trkpt lat="44.458535" lon="11.3535087"><ele>277.0</ele><time>2026-04-30T11:49:21.676Z</time></trkpt><trkpt lat="44.4586414" lon="11.3535927"><ele>277.0</ele><time>2026-04-30T11:49:23.684Z</time></trkpt><trkpt lat="44.4587038" lon="11.3536333"><ele>277.0</ele><time>2026-04-30T11:49:24.681Z</time></trkpt><trkpt lat="44.4587626" lon="11.3536712"><ele>276.5</ele><time>2026-04-30T11:49:25.68Z</time></trkpt><trkpt lat="44.4588227" lon="11.3537003"><ele>276.0</ele><time>2026-04-30T11:49:26.675Z</time></trkpt><trkpt lat="44.4588962" lon="11.3537146"><ele>275.5</ele><time>2026-04-30T11:49:27.685Z</time></trkpt><trkpt lat="44.4589753" lon="11.3537208"><ele>275.0</ele><time>2026-04-30T11:49:28.686Z</time></trkpt><trkpt lat="44.4590602" lon="11.3537192"><ele>274.5</ele><time>2026-04-30T11:49:29.681Z</time></trkpt><trkpt lat="44.4591501" lon="11.3537076"><ele>274.0</ele><time>2026-04-30T11:49:30.683Z</time></trkpt><trkpt lat="44.4592378" lon="11.353684"><ele>274.0</ele><time>2026-04-30T11:49:31.691Z</time></trkpt><trkpt lat="44.4593251" lon="11.3536591"><ele>274.0</ele><time>2026-04-30T11:49:32.693Z</time></trkpt><trkpt lat="44.45941" lon="11.3536304"><ele>274.0</ele><time>2026-04-30T11:49:33.695Z</time></trkpt><trkpt lat="44.4594908" lon="11.3535929"><ele>274.0</ele><time>2026-04-30T11:49:34.681Z</time></trkpt><trkpt lat="44.4595671" lon="11.3535258"><ele>274.0</ele><time>2026-04-30T11:49:35.678Z</time></trkpt><trkpt lat="44.4596274" lon="11.3534335"><ele>274.0</ele><time>2026-04-30T11:49:36.676Z</time></trkpt><trkpt lat="44.4596606" lon="11.3533185"><ele>272.3333333333333</ele><time>2026-04-30T11:49:37.684Z</time></trkpt><trkpt lat="44.4596632" lon="11.3531968"><ele>270.66666666666663</ele><time>2026-04-30T11:49:38.679Z</time></trkpt><trkpt lat="44.4596388" lon="11.3530885"><ele>269.0</ele><time>2026-04-30T11:49:39.682Z</time></trkpt><trkpt lat="44.4595854" lon="11.3529984"><ele>267.3333333333333</ele><time>2026-04-30T11:49:40.685Z</time></trkpt><trkpt lat="44.4595223" lon="11.3529245"><ele>265.6666666666667</ele><time>2026-04-30T11:49:41.682Z</time></trkpt><trkpt lat="44.4594715" lon="11.3528476"><ele>264.0</ele><time>2026-04-30T11:49:42.678Z</time></trkpt><trkpt lat="44.459444" lon="11.3527637"><ele>263.6666666666667</ele><time>2026-04-30T11:49:43.674Z</time></trkpt><trkpt lat="44.4594771" lon="11.3525952"><ele>263.3333333333333</ele><time>2026-04-30T11:49:45.685Z</time></trkpt><trkpt lat="44.4595357" lon="11.3525371"><ele>263.0</ele><time>2026-04-30T11:49:46.688Z</time></trkpt><trkpt lat="44.4596135" lon="11.3525162"><ele>262.66666666666663</ele><time>2026-04-30T11:49:47.693Z</time></trkpt><trkpt lat="44.4596919" lon="11.3524981"><ele>262.3333333333333</ele><time>2026-04-30T11:49:48.688Z</time></trkpt><trkpt lat="44.4597712" lon="11.3525272"><ele>262.0</ele><time>2026-04-30T11:49:49.681Z</time></trkpt><trkpt lat="44.4598533" lon="11.3525871"><ele>260.0</ele><time>2026-04-30T11:49:50.682Z</time></trkpt><trkpt lat="44.4599374" lon="11.3526529"><ele>258.0</ele><time>2026-04-30T11:49:51.682Z</time></trkpt><trkpt lat="44.4600204" lon="11.3527184"><ele>256.0</ele><time>2026-04-30T11:49:52.679Z</time></trkpt><trkpt lat="44.4601033" lon="11.3527959"><ele>254.0</ele><time>2026-04-30T11:49:53.688Z</time></trkpt><trkpt lat="44.4601697" lon="11.3528891"><ele>252.0</ele><time>2026-04-30T11:49:54.681Z</time></trkpt><trkpt lat="44.4602381" lon="11.3529851"><ele>251.39999999999998</ele><time>2026-04-30T11:49:55.684Z</time></trkpt><trkpt lat="44.4602962" lon="11.3531022"><ele>250.79999999999998</ele><time>2026-04-30T11:49:56.679Z</time></trkpt><trkpt lat="44.4603475" lon="11.3532259"><ele>250.2</ele><time>2026-04-30T11:49:57.679Z</time></trkpt><trkpt lat="44.4603859" lon="11.3533518"><ele>249.6</ele><time>2026-04-30T11:49:58.679Z</time></trkpt><trkpt lat="44.4604299" lon="11.353482"><ele>249.0</ele><time>2026-04-30T11:49:59.683Z</time></trkpt><trkpt lat="44.4604795" lon="11.3536092"><ele>249.0</ele><time>2026-04-30T11:50:00.686Z</time></trkpt><trkpt lat="44.4605296" lon="11.3537323"><ele>248.99999999999997</ele><time>2026-04-30T11:50:01.68Z</time></trkpt><trkpt lat="44.4606148" lon="11.3538076"><ele>248.99999999999997</ele><time>2026-04-30T11:50:02.671Z</time></trkpt><trkpt lat="44.4607076" lon="11.35386"><ele>249.0</ele><time>2026-04-30T11:50:03.686Z</time></trkpt><trkpt lat="44.4608101" lon="11.3538912"><ele>249.0</ele><time>2026-04-30T11:50:04.683Z</time></trkpt><trkpt lat="44.4609162" lon="11.3538936"><ele>249.0</ele><time>2026-04-30T11:50:05.68Z</time></trkpt><trkpt lat="44.4610258" lon="11.3538919"><ele>248.99999999999997</ele><time>2026-04-30T11:50:06.671Z</time></trkpt><trkpt lat="44.4611253" lon="11.3538366"><ele>248.99999999999997</ele><time>2026-04-30T11:50:07.677Z</time></trkpt><trkpt lat="44.461225" lon="11.3537627"><ele>249.0</ele><time>2026-04-30T11:50:08.689Z</time></trkpt><trkpt lat="44.4613211" lon="11.3536918"><ele>249.0</ele><time>2026-04-30T11:50:09.679Z</time></trkpt><trkpt lat="44.4614105" lon="11.3536225"><ele>247.0</ele><time>2026-04-30T11:50:10.684Z</time></trkpt><trkpt lat="44.4614986" lon="11.3535718"><ele>244.99999999999997</ele><time>2026-04-30T11:50:11.678Z</time></trkpt><trkpt lat="44.4615888" lon="11.35353"><ele>242.99999999999997</ele><time>2026-04-30T11:50:12.681Z</time></trkpt><trkpt lat="44.4616836" lon="11.3535089"><ele>241.0</ele><time>2026-04-30T11:50:13.67Z</time></trkpt><trkpt lat="44.4617752" lon="11.3534903"><ele>239.0</ele><time>2026-04-30T11:50:14.685Z</time></trkpt><trkpt lat="44.4618686" lon="11.3534977"><ele>239.0</ele><time>2026-04-30T11:50:15.679Z</time></trkpt><trkpt lat="44.4619535" lon="11.3535087"><ele>238.99999999999997</ele><time>2026-04-30T11:50:16.684Z</time></trkpt><trkpt lat="44.4620322" lon="11.3535198"><ele>238.99999999999997</ele><time>2026-04-30T11:50:17.679Z</time></trkpt><trkpt lat="44.4620954" lon="11.3535516"><ele>239.0</ele><time>2026-04-30T11:50:18.679Z</time></trkpt><trkpt lat="44.462163" lon="11.3536896"><ele>239.0</ele><time>2026-04-30T11:50:20.674Z</time></trkpt><trkpt lat="44.4621404" lon="11.353864"><ele>238.83333333333334</ele><time>2026-04-30T11:50:22.682Z</time></trkpt><trkpt lat="44.4620978" lon="11.3539387"><ele>238.66666666666669</ele><time>2026-04-30T11:50:23.683Z</time></trkpt><trkpt lat="44.4620493" lon="11.354017"><ele>238.5</ele><time>2026-04-30T11:50:24.686Z</time></trkpt><trkpt lat="44.4619997" lon="11.3540993"><ele>238.33333333333331</ele><time>2026-04-30T11:50:25.671Z</time></trkpt><trkpt lat="44.4619489" lon="11.3541949"><ele>238.16666666666666</ele><time>2026-04-30T11:50:26.683Z</time></trkpt><trkpt lat="44.4619079" lon="11.3543076"><ele>238.0</ele><time>2026-04-30T11:50:27.68Z</time></trkpt><trkpt lat="44.4618747" lon="11.3544302"><ele>238.0</ele><time>2026-04-30T11:50:28.692Z</time></trkpt><trkpt lat="44.4618456" lon="11.3545608"><ele>238.0</ele><time>2026-04-30T11:50:29.684Z</time></trkpt><trkpt lat="44.4618177" lon="11.354699"><ele>238.0</ele><time>2026-04-30T11:50:30.67Z</time></trkpt><trkpt lat="44.4617914" lon="11.3548443"><ele>238.0</ele><time>2026-04-30T11:50:31.688Z</time></trkpt><trkpt lat="44.4617684" lon="11.3549948"><ele>238.0</ele><time>2026-04-30T11:50:32.682Z</time></trkpt><trkpt lat="44.4617493" lon="11.3551451"><ele>235.4</ele><time>2026-04-30T11:50:33.692Z</time></trkpt><trkpt lat="44.4617297" lon="11.3552898"><ele>232.8</ele><time>2026-04-30T11:50:34.685Z</time></trkpt><trkpt lat="44.4617147" lon="11.3554318"><ele>230.2</ele><time>2026-04-30T11:50:35.672Z</time></trkpt><trkpt lat="44.4617116" lon="11.3555846"><ele>227.6</ele><time>2026-04-30T11:50:36.685Z</time></trkpt><trkpt lat="44.4617242" lon="11.3557366"><ele>225.0</ele><time>2026-04-30T11:50:37.683Z</time></trkpt><trkpt lat="44.4617322" lon="11.3558773"><ele>223.5</ele><time>2026-04-30T11:50:38.683Z</time></trkpt><trkpt lat="44.461742" lon="11.3560121"><ele>222.0</ele><time>2026-04-30T11:50:39.682Z</time></trkpt><trkpt lat="44.4617459" lon="11.3561322"><ele>220.5</ele><time>2026-04-30T11:50:40.686Z</time></trkpt><trkpt lat="44.4617516" lon="11.3562478"><ele>219.0</ele><time>2026-04-30T11:50:41.681Z</time></trkpt><trkpt lat="44.4617442" lon="11.3563542"><ele>217.5</ele><time>2026-04-30T11:50:42.685Z</time></trkpt><trkpt lat="44.4617555" lon="11.3564745"><ele>216.0</ele><time>2026-04-30T11:50:43.678Z</time></trkpt><trkpt lat="44.4617716" lon="11.3565986"><ele>215.20000000000002</ele><time>2026-04-30T11:50:44.691Z</time></trkpt><trkpt lat="44.4617928" lon="11.3567242"><ele>214.40000000000003</ele><time>2026-04-30T11:50:45.683Z</time></trkpt><trkpt lat="44.4618167" lon="11.3568544"><ele>213.6</ele><time>2026-04-30T11:50:46.683Z</time></trkpt><trkpt lat="44.4618439" lon="11.3569892"><ele>212.8</ele><time>2026-04-30T11:50:47.707Z</time></trkpt><trkpt lat="44.4618743" lon="11.3571272"><ele>212.0</ele><time>2026-04-30T11:50:48.682Z</time></trkpt><trkpt lat="44.4619091" lon="11.3572684"><ele>210.0</ele><time>2026-04-30T11:50:49.687Z</time></trkpt><trkpt lat="44.4619459" lon="11.3574045"><ele>208.0</ele><time>2026-04-30T11:50:50.693Z</time></trkpt><trkpt lat="44.4619817" lon="11.357536"><ele>206.0</ele><time>2026-04-30T11:50:51.681Z</time></trkpt><trkpt lat="44.4620199" lon="11.3576646"><ele>204.0</ele><time>2026-04-30T11:50:52.682Z</time></trkpt><trkpt lat="44.4620672" lon="11.3577994"><ele>202.0</ele><time>2026-04-30T11:50:53.685Z</time></trkpt><trkpt lat="44.4621169" lon="11.3579329"><ele>201.16666666666666</ele><time>2026-04-30T11:50:54.686Z</time></trkpt><trkpt lat="44.4621683" lon="11.3580454"><ele>200.33333333333331</ele><time>2026-04-30T11:50:55.692Z</time></trkpt><trkpt lat="44.4622276" lon="11.3581361"><ele>199.5</ele><time>2026-04-30T11:50:56.69Z</time></trkpt><trkpt lat="44.4622834" lon="11.3582161"><ele>198.66666666666669</ele><time>2026-04-30T11:50:57.67Z</time></trkpt><trkpt lat="44.4623442" lon="11.3582482"><ele>197.83333333333334</ele><time>2026-04-30T11:50:58.682Z</time></trkpt><trkpt lat="44.462437" lon="11.3582706"><ele>197.0</ele><time>2026-04-30T11:51:00.689Z</time></trkpt><trkpt lat="44.4625014" lon="11.3582819"><ele>197.00000000000003</ele><time>2026-04-30T11:51:03.687Z</time></trkpt><trkpt lat="44.4625529" lon="11.3583378"><ele>197.0</ele><time>2026-04-30T11:51:06.68Z</time></trkpt><trkpt lat="44.4625091" lon="11.3584048"><ele>197.0</ele><time>2026-04-30T11:51:08.695Z</time></trkpt><trkpt lat="44.46242" lon="11.3584285"><ele>197.0</ele><time>2026-04-30T11:51:10.678Z</time></trkpt><trkpt lat="44.4623094" lon="11.3584732"><ele>197.00000000000003</ele><time>2026-04-30T11:51:12.676Z</time></trkpt><trkpt lat="44.4622481" lon="11.358506"><ele>197.0</ele><time>2026-04-30T11:51:13.684Z</time></trkpt><trkpt lat="44.4621857" lon="11.3585503"><ele>197.00000000000003</ele><time>2026-04-30T11:51:14.675Z</time></trkpt><trkpt lat="44.4621241" lon="11.35861"><ele>197.0</ele><time>2026-04-30T11:51:15.676Z</time></trkpt><trkpt lat="44.4620612" lon="11.3586748"><ele>197.0</ele><time>2026-04-30T11:51:16.681Z</time></trkpt><trkpt lat="44.4619961" lon="11.3587368"><ele>197.0</ele><time>2026-04-30T11:51:17.688Z</time></trkpt><trkpt lat="44.4619239" lon="11.3587962"><ele>197.00000000000003</ele><time>2026-04-30T11:51:18.671Z</time></trkpt><trkpt lat="44.4618447" lon="11.3588347"><ele>197.0</ele><time>2026-04-30T11:51:19.682Z</time></trkpt><trkpt lat="44.4617582" lon="11.3588504"><ele>197.00000000000003</ele><time>2026-04-30T11:51:20.687Z</time></trkpt><trkpt lat="44.461673" lon="11.3588625"><ele>197.0</ele><time>2026-04-30T11:51:21.682Z</time></trkpt><trkpt lat="44.461592" lon="11.3588788"><ele>197.0</ele><time>2026-04-30T11:51:22.677Z</time></trkpt><trkpt lat="44.4615249" lon="11.3589214"><ele>197.0</ele><time>2026-04-30T11:51:23.7Z</time></trkpt><trkpt lat="44.4614615" lon="11.3589682"><ele>197.00000000000003</ele><time>2026-04-30T11:51:24.682Z</time></trkpt><trkpt lat="44.4614146" lon="11.3590614"><ele>197.0</ele><time>2026-04-30T11:51:25.68Z</time></trkpt><trkpt lat="44.4613901" lon="11.3591746"><ele>195.6</ele><time>2026-04-30T11:51:26.682Z</time></trkpt><trkpt lat="44.4613668" lon="11.3593054"><ele>194.2</ele><time>2026-04-30T11:51:27.68Z</time></trkpt><trkpt lat="44.4613407" lon="11.3594399"><ele>192.8</ele><time>2026-04-30T11:51:28.682Z</time></trkpt><trkpt lat="44.4613134" lon="11.3595806"><ele>191.4</ele><time>2026-04-30T11:51:29.675Z</time></trkpt><trkpt lat="44.4612837" lon="11.3597253"><ele>190.0</ele><time>2026-04-30T11:51:30.683Z</time></trkpt><trkpt lat="44.4612544" lon="11.359879"><ele>184.75</ele><time>2026-04-30T11:51:31.687Z</time></trkpt><trkpt lat="44.4612238" lon="11.3600347"><ele>179.5</ele><time>2026-04-30T11:51:32.671Z</time></trkpt><trkpt lat="44.4611609" lon="11.3601885"><ele>174.25</ele><time>2026-04-30T11:51:33.682Z</time></trkpt><trkpt lat="44.4610825" lon="11.3603241"><ele>169.0</ele><time>2026-04-30T11:51:34.689Z</time></trkpt><trkpt lat="44.4609999" lon="11.3604473"><ele>170.39999999999998</ele><time>2026-04-30T11:51:35.685Z</time></trkpt><trkpt lat="44.4609187" lon="11.3605596"><ele>171.8</ele><time>2026-04-30T11:51:36.692Z</time></trkpt><trkpt lat="44.4608367" lon="11.36067"><ele>173.2</ele><time>2026-04-30T11:51:37.69Z</time></trkpt><trkpt lat="44.4607566" lon="11.3607727"><ele>174.60000000000002</ele><time>2026-04-30T11:51:38.679Z</time></trkpt><trkpt lat="44.4606771" lon="11.3608741"><ele>176.0</ele><time>2026-04-30T11:51:39.69Z</time></trkpt><trkpt lat="44.460598" lon="11.3609724"><ele>176.0</ele><time>2026-04-30T11:51:40.668Z</time></trkpt><trkpt lat="44.4605222" lon="11.3610664"><ele>176.0</ele><time>2026-04-30T11:51:41.685Z</time></trkpt><trkpt lat="44.4604513" lon="11.3611521"><ele>176.0</ele><time>2026-04-30T11:51:42.688Z</time></trkpt><trkpt lat="44.4603842" lon="11.3612333"><ele>176.0</ele><time>2026-04-30T11:51:43.682Z</time></trkpt><trkpt lat="44.4603231" lon="11.3613096"><ele>176.0</ele><time>2026-04-30T11:51:44.685Z</time></trkpt><trkpt lat="44.4602707" lon="11.3613832"><ele>176.0</ele><time>2026-04-30T11:51:45.681Z</time></trkpt><trkpt lat="44.4602323" lon="11.3614571"><ele>176.25</ele><time>2026-04-30T11:51:46.684Z</time></trkpt><trkpt lat="44.4602117" lon="11.3616143"><ele>176.5</ele><time>2026-04-30T11:51:48.689Z</time></trkpt><trkpt lat="44.4602357" lon="11.361765"><ele>176.75</ele><time>2026-04-30T11:51:50.676Z</time></trkpt><trkpt lat="44.4602696" lon="11.3619142"><ele>177.0</ele><time>2026-04-30T11:51:52.682Z</time></trkpt><trkpt lat="44.4603013" lon="11.3620742"><ele>176.6</ele><time>2026-04-30T11:51:54.68Z</time></trkpt><trkpt lat="44.4603358" lon="11.3622332"><ele>176.2</ele><time>2026-04-30T11:51:56.694Z</time></trkpt><trkpt lat="44.4603733" lon="11.3623993"><ele>175.8</ele><time>2026-04-30T11:51:58.694Z</time></trkpt><trkpt lat="44.4603917" lon="11.3624886"><ele>175.4</ele><time>2026-04-30T11:51:59.693Z</time></trkpt><trkpt lat="44.4604097" lon="11.3625837"><ele>175.0</ele><time>2026-04-30T11:52:00.689Z</time></trkpt><trkpt lat="44.4604253" lon="11.3626873"><ele>175.0</ele><time>2026-04-30T11:52:01.69Z</time></trkpt><trkpt lat="44.4604388" lon="11.3628003"><ele>175.0</ele><time>2026-04-30T11:52:02.691Z</time></trkpt><trkpt lat="44.4604563" lon="11.3629189"><ele>175.0</ele><time>2026-04-30T11:52:03.689Z</time></trkpt><trkpt lat="44.460477" lon="11.3630457"><ele>175.0</ele><time>2026-04-30T11:52:04.691Z</time></trkpt><trkpt lat="44.4605039" lon="11.3631759"><ele>175.0</ele><time>2026-04-30T11:52:05.693Z</time></trkpt><trkpt lat="44.4605443" lon="11.36329"><ele>175.0</ele><time>2026-04-30T11:52:06.686Z</time></trkpt><trkpt lat="44.4606005" lon="11.3633801"><ele>174.33333333333334</ele><time>2026-04-30T11:52:07.686Z</time></trkpt><trkpt lat="44.4606574" lon="11.3634688"><ele>173.66666666666669</ele><time>2026-04-30T11:52:08.68Z</time></trkpt><trkpt lat="44.4607198" lon="11.3635362"><ele>173.0</ele><time>2026-04-30T11:52:09.686Z</time></trkpt><trkpt lat="44.4607804" lon="11.3635992"><ele>172.33333333333334</ele><time>2026-04-30T11:52:10.691Z</time></trkpt><trkpt lat="44.4607964" lon="11.3636924"><ele>171.66666666666666</ele><time>2026-04-30T11:52:11.679Z</time></trkpt><trkpt lat="44.4608107" lon="11.3637903"><ele>171.0</ele><time>2026-04-30T11:52:12.686Z</time></trkpt><trkpt lat="44.4607906" lon="11.3639096"><ele>170.0</ele><time>2026-04-30T11:52:13.681Z</time></trkpt><trkpt lat="44.4607643" lon="11.3640397"><ele>169.0</ele><time>2026-04-30T11:52:14.683Z</time></trkpt><trkpt lat="44.4607357" lon="11.364175"><ele>168.0</ele><time>2026-04-30T11:52:15.68Z</time></trkpt><trkpt lat="44.4607054" lon="11.3643239"><ele>167.0</ele><time>2026-04-30T11:52:16.683Z</time></trkpt><trkpt lat="44.4606719" lon="11.3644742"><ele>166.0</ele><time>2026-04-30T11:52:17.682Z</time></trkpt><trkpt lat="44.4606495" lon="11.3646348"><ele>163.75</ele><time>2026-04-30T11:52:18.682Z</time></trkpt><trkpt lat="44.460627" lon="11.3647945"><ele>161.5</ele><time>2026-04-30T11:52:19.678Z</time></trkpt><trkpt lat="44.4606239" lon="11.3649577"><ele>159.25</ele><time>2026-04-30T11:52:20.689Z</time></trkpt><trkpt lat="44.4606201" lon="11.3651242"><ele>157.0</ele><time>2026-04-30T11:52:21.688Z</time></trkpt><trkpt lat="44.4606187" lon="11.3652905"><ele>157.0</ele><time>2026-04-30T11:52:22.683Z</time></trkpt><trkpt lat="44.4606136" lon="11.3654451"><ele>157.0</ele><time>2026-04-30T11:52:23.694Z</time></trkpt><trkpt lat="44.4606111" lon="11.3655881"><ele>157.0</ele><time>2026-04-30T11:52:24.669Z</time></trkpt><trkpt lat="44.4605841" lon="11.3657132"><ele>157.0</ele><time>2026-04-30T11:52:25.689Z</time></trkpt><trkpt lat="44.4605381" lon="11.3658424"><ele>157.0</ele><time>2026-04-30T11:52:26.688Z</time></trkpt><trkpt lat="44.4604882" lon="11.365985"><ele>152.4</ele><time>2026-04-30T11:52:27.683Z</time></trkpt><trkpt lat="44.4604434" lon="11.3661298"><ele>147.79999999999998</ele><time>2026-04-30T11:52:28.681Z</time></trkpt><trkpt lat="44.4603923" lon="11.3662517"><ele>143.2</ele><time>2026-04-30T11:52:29.68Z</time></trkpt><trkpt lat="44.4603224" lon="11.3663506"><ele>138.6</ele><time>2026-04-30T11:52:30.692Z</time></trkpt><trkpt lat="44.4602322" lon="11.3664223"><ele>134.0</ele><time>2026-04-30T11:52:31.681Z</time></trkpt><trkpt lat="44.4601387" lon="11.3664645"><ele>133.6</ele><time>2026-04-30T11:52:32.681Z</time></trkpt><trkpt lat="44.4600502" lon="11.366497"><ele>133.2</ele><time>2026-04-30T11:52:33.681Z</time></trkpt><trkpt lat="44.4599577" lon="11.3665271"><ele>132.79999999999998</ele><time>2026-04-30T11:52:34.686Z</time></trkpt><trkpt lat="44.4598655" lon="11.3665555"><ele>132.4</ele><time>2026-04-30T11:52:35.678Z</time></trkpt><trkpt lat="44.4597739" lon="11.3665852"><ele>132.0</ele><time>2026-04-30T11:52:36.683Z</time></trkpt><trkpt lat="44.4596812" lon="11.3666317"><ele>130.2</ele><time>2026-04-30T11:52:37.688Z</time></trkpt><trkpt lat="44.4595865" lon="11.3666899"><ele>128.39999999999998</ele><time>2026-04-30T11:52:38.7Z</time></trkpt><trkpt lat="44.4594882" lon="11.3667548"><ele>126.60000000000001</ele><time>2026-04-30T11:52:39.688Z</time></trkpt><trkpt lat="44.4593956" lon="11.3668276"><ele>124.80000000000001</ele><time>2026-04-30T11:52:40.687Z</time></trkpt><trkpt lat="44.4593037" lon="11.3669017"><ele>123.0</ele><time>2026-04-30T11:52:41.685Z</time></trkpt><trkpt lat="44.4592253" lon="11.3669902"><ele>123.0</ele><time>2026-04-30T11:52:42.679Z</time></trkpt><trkpt lat="44.4591539" lon="11.3670917"><ele>123.00000000000001</ele><time>2026-04-30T11:52:43.686Z</time></trkpt><trkpt lat="44.4590937" lon="11.3672064"><ele>123.00000000000001</ele><time>2026-04-30T11:52:44.688Z</time></trkpt><trkpt lat="44.4590347" lon="11.3673211"><ele>123.0</ele><time>2026-04-30T11:52:45.687Z</time></trkpt><trkpt lat="44.4589774" lon="11.3674362"><ele>123.0</ele><time>2026-04-30T11:52:46.68Z</time></trkpt><trkpt lat="44.4589218" lon="11.3675468"><ele>123.16666666666667</ele><time>2026-04-30T11:52:47.681Z</time></trkpt><trkpt lat="44.4588734" lon="11.367654"><ele>123.33333333333334</ele><time>2026-04-30T11:52:48.678Z</time></trkpt><trkpt lat="44.4588328" lon="11.3677543"><ele>123.5</ele><time>2026-04-30T11:52:49.684Z</time></trkpt><trkpt lat="44.4588052" lon="11.3678585"><ele>123.66666666666667</ele><time>2026-04-30T11:52:50.68Z</time></trkpt><trkpt lat="44.4587981" lon="11.3679737"><ele>123.83333333333334</ele><time>2026-04-30T11:52:51.684Z</time></trkpt><trkpt lat="44.4587915" lon="11.3680911"><ele>124.0</ele><time>2026-04-30T11:52:52.677Z</time></trkpt><trkpt lat="44.4588126" lon="11.3682132"><ele>122.6</ele><time>2026-04-30T11:52:53.687Z</time></trkpt><trkpt lat="44.4588252" lon="11.3683344"><ele>121.2</ele><time>2026-04-30T11:52:54.694Z</time></trkpt><trkpt lat="44.4588282" lon="11.3684579"><ele>119.79999999999998</ele><time>2026-04-30T11:52:55.688Z</time></trkpt><trkpt lat="44.4588189" lon="11.3685857"><ele>118.39999999999999</ele><time>2026-04-30T11:52:56.695Z</time></trkpt><trkpt lat="44.4588061" lon="11.3687155"><ele>117.0</ele><time>2026-04-30T11:52:57.691Z</time></trkpt><trkpt lat="44.4587905" lon="11.3688429"><ele>116.33333333333333</ele><time>2026-04-30T11:52:58.687Z</time></trkpt><trkpt lat="44.4587804" lon="11.3689639"><ele>115.66666666666666</ele><time>2026-04-30T11:52:59.683Z</time></trkpt><trkpt lat="44.458773" lon="11.3690796"><ele>115.0</ele><time>2026-04-30T11:53:00.694Z</time></trkpt><trkpt lat="44.4587801" lon="11.3691913"><ele>114.33333333333333</ele><time>2026-04-30T11:53:01.693Z</time></trkpt><trkpt lat="44.4587851" lon="11.3693031"><ele>113.66666666666666</ele><time>2026-04-30T11:53:02.678Z</time></trkpt><trkpt lat="44.458794" lon="11.3694177"><ele>113.0</ele><time>2026-04-30T11:53:03.673Z</time></trkpt><trkpt lat="44.458825" lon="11.3695271"><ele>112.99999999999999</ele><time>2026-04-30T11:53:04.681Z</time></trkpt><trkpt lat="44.4588742" lon="11.3696249"><ele>113.0</ele><time>2026-04-30T11:53:05.677Z</time></trkpt><trkpt lat="44.4589298" lon="11.3697116"><ele>113.0</ele><time>2026-04-30T11:53:06.68Z</time></trkpt><trkpt lat="44.4589874" lon="11.3697893"><ele>113.0</ele><time>2026-04-30T11:53:07.689Z</time></trkpt><trkpt lat="44.4590533" lon="11.369842"><ele>112.99999999999999</ele><time>2026-04-30T11:53:08.687Z</time></trkpt><trkpt lat="44.4591265" lon="11.3698733"><ele>113.0</ele><time>2026-04-30T11:53:09.685Z</time></trkpt><trkpt lat="44.4592002" lon="11.3698944"><ele>111.33333333333333</ele><time>2026-04-30T11:53:10.688Z</time></trkpt><trkpt lat="44.4592635" lon="11.3699143"><ele>109.66666666666666</ele><time>2026-04-30T11:53:11.679Z</time></trkpt><trkpt lat="44.459369" lon="11.3699519"><ele>108.0</ele><time>2026-04-30T11:53:13.69Z</time></trkpt><trkpt lat="44.4594447" lon="11.3699716"><ele>106.33333333333334</ele><time>2026-04-30T11:53:15.686Z</time></trkpt><trkpt lat="44.459521" lon="11.3700066"><ele>104.66666666666667</ele><time>2026-04-30T11:53:18.69Z</time></trkpt><trkpt lat="44.4595922" lon="11.3700156"><ele>103.0</ele><time>2026-04-30T11:54:03.689Z</time></trkpt><trkpt lat="44.4596706" lon="11.3700396"><ele>103.00000000000001</ele><time>2026-04-30T11:54:06.678Z</time></trkpt><trkpt lat="44.4596287" lon="11.370127"><ele>103.0</ele><time>2026-04-30T11:54:09.688Z</time></trkpt><trkpt lat="44.4595606" lon="11.3701056"><ele>103.0</ele><time>2026-04-30T11:54:11.673Z</time></trkpt><trkpt lat="44.459483" lon="11.3700911"><ele>103.0</ele><time>2026-04-30T11:54:13.682Z</time></trkpt><trkpt lat="44.4593999" lon="11.3700756"><ele>103.00000000000001</ele><time>2026-04-30T11:54:15.682Z</time></trkpt><trkpt lat="44.4593098" lon="11.3700616"><ele>103.0</ele><time>2026-04-30T11:54:17.683Z</time></trkpt><trkpt lat="44.4592148" lon="11.3700424"><ele>103.0</ele><time>2026-04-30T11:54:19.692Z</time></trkpt><trkpt lat="44.4591139" lon="11.3700227"><ele>103.0</ele><time>2026-04-30T11:54:21.684Z</time></trkpt><trkpt lat="44.4590082" lon="11.3700001"><ele>103.0</ele><time>2026-04-30T11:54:23.692Z</time></trkpt><trkpt lat="44.4588964" lon="11.3699778"><ele>103.0</ele><time>2026-04-30T11:54:25.675Z</time></trkpt><trkpt lat="44.4587786" lon="11.3699537"><ele>103.0</ele><time>2026-04-30T11:54:27.67Z</time></trkpt><trkpt lat="44.4586543" lon="11.3699286"><ele>102.99999999999999</ele><time>2026-04-30T11:54:29.686Z</time></trkpt><trkpt lat="44.4585909" lon="11.3699153"><ele>103.0</ele><time>2026-04-30T11:54:30.688Z</time></trkpt><trkpt lat="44.4585263" lon="11.3699025"><ele>103.0</ele><time>2026-04-30T11:54:31.689Z</time></trkpt><trkpt lat="44.4584614" lon="11.3698876"><ele>103.0</ele><time>2026-04-30T11:54:32.683Z</time></trkpt><trkpt lat="44.4583965" lon="11.3698731"><ele>103.0</ele><time>2026-04-30T11:54:33.687Z</time></trkpt><trkpt lat="44.4583319" lon="11.3698576"><ele>102.99999999999999</ele><time>2026-04-30T11:54:34.679Z</time></trkpt><trkpt lat="44.458267" lon="11.369843"><ele>103.0</ele><time>2026-04-30T11:54:35.68Z</time></trkpt><trkpt lat="44.4582014" lon="11.3698324"><ele>102.99999999999999</ele><time>2026-04-30T11:54:36.689Z</time></trkpt><trkpt lat="44.4581369" lon="11.3698176"><ele>103.0</ele><time>2026-04-30T11:54:37.689Z</time></trkpt><trkpt lat="44.458072" lon="11.369804"><ele>103.0</ele><time>2026-04-30T11:54:38.683Z</time></trkpt><trkpt lat="44.4580078" lon="11.3697903"><ele>103.0</ele><time>2026-04-30T11:54:39.686Z</time></trkpt><trkpt lat="44.4579434" lon="11.3697741"><ele>103.0</ele><time>2026-04-30T11:54:40.68Z</time></trkpt><trkpt lat="44.4578786" lon="11.3697563"><ele>102.99999999999999</ele><time>2026-04-30T11:54:41.688Z</time></trkpt><trkpt lat="44.4578117" lon="11.3697359"><ele>103.0</ele><time>2026-04-30T11:54:42.685Z</time></trkpt><trkpt lat="44.4577448" lon="11.3697142"><ele>102.85714285714285</ele><time>2026-04-30T11:54:43.691Z</time></trkpt><trkpt lat="44.457677" lon="11.3696927"><ele>102.71428571428571</ele><time>2026-04-30T11:54:44.687Z</time></trkpt><trkpt lat="44.4576084" lon="11.3696714"><ele>102.57142857142857</ele><time>2026-04-30T11:54:45.691Z</time></trkpt><trkpt lat="44.4575379" lon="11.3696475"><ele>102.42857142857142</ele><time>2026-04-30T11:54:46.69Z</time></trkpt><trkpt lat="44.4574668" lon="11.3696226"><ele>102.28571428571429</ele><time>2026-04-30T11:54:47.687Z</time></trkpt><trkpt lat="44.4573963" lon="11.3695964"><ele>102.14285714285714</ele><time>2026-04-30T11:54:48.694Z</time></trkpt><trkpt lat="44.4573265" lon="11.3695683"><ele>102.0</ele><time>2026-04-30T11:54:49.68Z</time></trkpt><trkpt lat="44.4572573" lon="11.3695369"><ele>102.0</ele><time>2026-04-30T11:54:50.68Z</time></trkpt><trkpt lat="44.4571895" lon="11.3695055"><ele>102.0</ele><time>2026-04-30T11:54:51.677Z</time></trkpt><trkpt lat="44.457122" lon="11.369475"><ele>102.0</ele><time>2026-04-30T11:54:52.682Z</time></trkpt><trkpt lat="44.4570552" lon="11.3694461"><ele>102.0</ele><time>2026-04-30T11:54:53.689Z</time></trkpt><trkpt lat="44.4569924" lon="11.369418"><ele>102.0</ele><time>2026-04-30T11:54:54.685Z</time></trkpt><trkpt lat="44.4569277" lon="11.3693881"><ele>102.0</ele><time>2026-04-30T11:54:55.68Z</time></trkpt><trkpt lat="44.4568646" lon="11.3693568"><ele>102.0</ele><time>2026-04-30T11:54:56.69Z</time></trkpt><trkpt lat="44.4568008" lon="11.3693253"><ele>101.71428571428572</ele><time>2026-04-30T11:54:57.684Z</time></trkpt><trkpt lat="44.4567361" lon="11.369296"><ele>101.42857142857143</ele><time>2026-04-30T11:54:58.689Z</time></trkpt><trkpt lat="44.45667" lon="11.3692651"><ele>101.14285714285714</ele><time>2026-04-30T11:54:59.692Z</time></trkpt><trkpt lat="44.456604" lon="11.3692335"><ele>100.85714285714286</ele><time>2026-04-30T11:55:00.684Z</time></trkpt><trkpt lat="44.4565361" lon="11.3691975"><ele>100.57142857142857</ele><time>2026-04-30T11:55:01.694Z</time></trkpt><trkpt lat="44.4564671" lon="11.3691615"><ele>100.28571428571429</ele><time>2026-04-30T11:55:02.682Z</time></trkpt><trkpt lat="44.456398" lon="11.3691239"><ele>100.0</ele><time>2026-04-30T11:55:03.68Z</time></trkpt><trkpt lat="44.4563275" lon="11.3690853"><ele>100.50000000000001</ele><time>2026-04-30T11:55:04.695Z</time></trkpt><trkpt lat="44.4562551" lon="11.3690489"><ele>101.0</ele><time>2026-04-30T11:55:05.689Z</time></trkpt><trkpt lat="44.4561823" lon="11.369013"><ele>101.5</ele><time>2026-04-30T11:55:06.685Z</time></trkpt><trkpt lat="44.4561095" lon="11.3689719"><ele>102.0</ele><time>2026-04-30T11:55:07.685Z</time></trkpt><trkpt lat="44.4560356" lon="11.368928"><ele>102.50000000000001</ele><time>2026-04-30T11:55:08.687Z</time></trkpt><trkpt lat="44.455962" lon="11.3688799"><ele>103.0</ele><time>2026-04-30T11:55:09.697Z</time></trkpt><trkpt lat="44.4558891" lon="11.368826"><ele>103.00000000000001</ele><time>2026-04-30T11:55:10.691Z</time></trkpt><trkpt lat="44.4558158" lon="11.368771"><ele>103.0</ele><time>2026-04-30T11:55:11.687Z</time></trkpt><trkpt lat="44.4557438" lon="11.3687139"><ele>103.0</ele><time>2026-04-30T11:55:12.691Z</time></trkpt><trkpt lat="44.4556754" lon="11.3686531"><ele>103.0</ele><time>2026-04-30T11:55:13.69Z</time></trkpt><trkpt lat="44.4556098" lon="11.3685897"><ele>103.00000000000001</ele><time>2026-04-30T11:55:14.688Z</time></trkpt><trkpt lat="44.4555462" lon="11.3685278"><ele>103.0</ele><time>2026-04-30T11:55:15.689Z</time></trkpt><trkpt lat="44.4554846" lon="11.3684656"><ele>101.66666666666667</ele><time>2026-04-30T11:55:16.695Z</time></trkpt><trkpt lat="44.4554234" lon="11.3684026"><ele>100.33333333333334</ele><time>2026-04-30T11:55:17.689Z</time></trkpt><trkpt lat="44.4553638" lon="11.3683366"><ele>99.0</ele><time>2026-04-30T11:55:18.685Z</time></trkpt><trkpt lat="44.4553055" lon="11.3682683"><ele>97.66666666666667</ele><time>2026-04-30T11:55:19.694Z</time></trkpt><trkpt lat="44.4552487" lon="11.3681975"><ele>96.33333333333334</ele><time>2026-04-30T11:55:20.677Z</time></trkpt><trkpt lat="44.455194" lon="11.3681254"><ele>95.0</ele><time>2026-04-30T11:55:21.671Z</time></trkpt><trkpt lat="44.4551401" lon="11.3680547"><ele>95.28571428571429</ele><time>2026-04-30T11:55:22.689Z</time></trkpt><trkpt lat="44.4550879" lon="11.3679827"><ele>95.57142857142858</ele><time>2026-04-30T11:55:23.683Z</time></trkpt><trkpt lat="44.4550368" lon="11.3679102"><ele>95.85714285714286</ele><time>2026-04-30T11:55:24.682Z</time></trkpt><trkpt lat="44.454985" lon="11.3678398"><ele>96.14285714285714</ele><time>2026-04-30T11:55:25.676Z</time></trkpt><trkpt lat="44.4549336" lon="11.3677701"><ele>96.42857142857143</ele><time>2026-04-30T11:55:26.679Z</time></trkpt><trkpt lat="44.4548785" lon="11.3677069"><ele>96.71428571428571</ele><time>2026-04-30T11:55:27.686Z</time></trkpt><trkpt lat="44.4548245" lon="11.3676464"><ele>97.0</ele><time>2026-04-30T11:55:28.691Z</time></trkpt><trkpt lat="44.4547708" lon="11.3675877"><ele>97.00000000000001</ele><time>2026-04-30T11:55:29.681Z</time></trkpt><trkpt lat="44.4547196" lon="11.3675262"><ele>97.0</ele><time>2026-04-30T11:55:30.683Z</time></trkpt><trkpt lat="44.454671" lon="11.3674622"><ele>97.0</ele><time>2026-04-30T11:55:31.69Z</time></trkpt><trkpt lat="44.4546211" lon="11.3673981"><ele>97.0</ele><time>2026-04-30T11:55:32.684Z</time></trkpt><trkpt lat="44.4545728" lon="11.3673329"><ele>97.00000000000001</ele><time>2026-04-30T11:55:33.692Z</time></trkpt><trkpt lat="44.4544886" lon="11.3672119"><ele>97.0</ele><time>2026-04-30T11:55:35.688Z</time></trkpt><trkpt lat="44.4544059" lon="11.3670929"><ele>96.0</ele><time>2026-04-30T11:55:37.685Z</time></trkpt><trkpt lat="44.4543272" lon="11.3669815"><ele>95.0</ele><time>2026-04-30T11:55:39.681Z</time></trkpt><trkpt lat="44.4542452" lon="11.3668938"><ele>94.0</ele><time>2026-04-30T11:55:41.682Z</time></trkpt><trkpt lat="44.4541355" lon="11.3668484"><ele>93.0</ele><time>2026-04-30T11:55:43.681Z</time></trkpt><trkpt lat="44.4540744" lon="11.3668718"><ele>92.0</ele><time>2026-04-30T11:55:44.69Z</time></trkpt><trkpt lat="44.4540196" lon="11.3669267"><ele>92.0</ele><time>2026-04-30T11:55:45.685Z</time></trkpt><trkpt lat="44.453972" lon="11.3669991"><ele>92.0</ele><time>2026-04-30T11:55:46.685Z</time></trkpt><trkpt lat="44.4539269" lon="11.3670806"><ele>92.0</ele><time>2026-04-30T11:55:47.689Z</time></trkpt><trkpt lat="44.4538801" lon="11.3671658"><ele>92.0</ele><time>2026-04-30T11:55:48.694Z</time></trkpt><trkpt lat="44.4538305" lon="11.3672557"><ele>92.0</ele><time>2026-04-30T11:55:49.681Z</time></trkpt><trkpt lat="44.4537778" lon="11.3673509"><ele>92.0</ele><time>2026-04-30T11:55:50.69Z</time></trkpt><trkpt lat="44.4537243" lon="11.3674494"><ele>91.33333333333334</ele><time>2026-04-30T11:55:51.682Z</time></trkpt><trkpt lat="44.4536714" lon="11.3675448"><ele>90.66666666666667</ele><time>2026-04-30T11:55:52.682Z</time></trkpt><trkpt lat="44.4536165" lon="11.3676406"><ele>90.0</ele><time>2026-04-30T11:55:53.698Z</time></trkpt><trkpt lat="44.4535629" lon="11.3677414"><ele>89.33333333333333</ele><time>2026-04-30T11:55:54.682Z</time></trkpt><trkpt lat="44.4535082" lon="11.3678425"><ele>88.66666666666666</ele><time>2026-04-30T11:55:55.685Z</time></trkpt><trkpt lat="44.4534491" lon="11.3679359"><ele>88.0</ele><time>2026-04-30T11:55:56.689Z</time></trkpt><trkpt lat="44.4533958" lon="11.3680323"><ele>88.0</ele><time>2026-04-30T11:55:57.673Z</time></trkpt><trkpt lat="44.4533436" lon="11.368129"><ele>88.0</ele><time>2026-04-30T11:55:58.683Z</time></trkpt><trkpt lat="44.4532969" lon="11.3682208"><ele>88.0</ele><time>2026-04-30T11:55:59.687Z</time></trkpt><trkpt lat="44.4532538" lon="11.3683123"><ele>88.0</ele><time>2026-04-30T11:56:00.68Z</time></trkpt><trkpt lat="44.4532153" lon="11.3683997"><ele>88.0</ele><time>2026-04-30T11:56:01.691Z</time></trkpt><trkpt lat="44.4531856" lon="11.3684823"><ele>88.0</ele><time>2026-04-30T11:56:02.685Z</time></trkpt><trkpt lat="44.4531585" lon="11.3685633"><ele>88.0</ele><time>2026-04-30T11:56:03.683Z</time></trkpt><trkpt lat="44.4531175" lon="11.3687244"><ele>87.4</ele><time>2026-04-30T11:56:05.696Z</time></trkpt><trkpt lat="44.4530934" lon="11.368886"><ele>86.80000000000001</ele><time>2026-04-30T11:56:07.683Z</time></trkpt><trkpt lat="44.4530814" lon="11.3690417"><ele>86.2</ele><time>2026-04-30T11:56:09.683Z</time></trkpt><trkpt lat="44.4530784" lon="11.3691924"><ele>85.6</ele><time>2026-04-30T11:56:11.684Z</time></trkpt><trkpt lat="44.4530796" lon="11.3693387"><ele>85.0</ele><time>2026-04-30T11:56:13.687Z</time></trkpt><trkpt lat="44.4530687" lon="11.3694838"><ele>85.0</ele><time>2026-04-30T11:56:15.685Z</time></trkpt><trkpt lat="44.4530138" lon="11.3696085"><ele>85.0</ele><time>2026-04-30T11:56:17.695Z</time></trkpt><trkpt lat="44.4529322" lon="11.3696915"><ele>85.0</ele><time>2026-04-30T11:56:19.691Z</time></trkpt><trkpt lat="44.4528565" lon="11.3697923"><ele>85.0</ele><time>2026-04-30T11:56:21.684Z</time></trkpt><trkpt lat="44.4528155" lon="11.3699376"><ele>85.0</ele><time>2026-04-30T11:56:23.691Z</time></trkpt><trkpt lat="44.4528288" lon="11.3700946"><ele>85.0</ele><time>2026-04-30T11:56:25.688Z</time></trkpt><trkpt lat="44.4529063" lon="11.3702072"><ele>85.0</ele><time>2026-04-30T11:56:27.686Z</time></trkpt><trkpt lat="44.4530139" lon="11.3702502"><ele>85.0</ele><time>2026-04-30T11:56:29.686Z</time></trkpt><trkpt lat="44.4531257" lon="11.3702912"><ele>85.0</ele><time>2026-04-30T11:56:31.676Z</time></trkpt><trkpt lat="44.4532194" lon="11.3703969"><ele>85.0</ele><time>2026-04-30T11:56:33.7Z</time></trkpt><trkpt lat="44.4533042" lon="11.3705185"><ele>85.0</ele><time>2026-04-30T11:56:35.684Z</time></trkpt><trkpt lat="44.4533868" lon="11.3706433"><ele>85.0</ele><time>2026-04-30T11:56:37.681Z</time></trkpt><trkpt lat="44.4534699" lon="11.3707722"><ele>85.0</ele><time>2026-04-30T11:56:39.689Z</time></trkpt><trkpt lat="44.4535563" lon="11.370901"><ele>85.0</ele><time>2026-04-30T11:56:41.689Z</time></trkpt><trkpt lat="44.4535997" lon="11.370966"><ele>85.0</ele><time>2026-04-30T11:56:42.691Z</time></trkpt><trkpt lat="44.4536849" lon="11.3710968"><ele>85.0</ele><time>2026-04-30T11:56:44.679Z</time></trkpt><trkpt lat="44.4537292" lon="11.3711606"><ele>85.0</ele><time>2026-04-30T11:56:45.687Z</time></trkpt><trkpt lat="44.4537727" lon="11.3712254"><ele>85.0</ele><time>2026-04-30T11:56:46.686Z</time></trkpt><trkpt lat="44.4538582" lon="11.3713513"><ele>85.0</ele><time>2026-04-30T11:56:48.696Z</time></trkpt><trkpt lat="44.4539437" lon="11.3714753"><ele>84.57142857142857</ele><time>2026-04-30T11:56:50.683Z</time></trkpt><trkpt lat="44.4540339" lon="11.3715925"><ele>84.14285714285714</ele><time>2026-04-30T11:56:52.696Z</time></trkpt><trkpt lat="44.4540813" lon="11.371652"><ele>83.71428571428571</ele><time>2026-04-30T11:56:53.69Z</time></trkpt><trkpt lat="44.4541291" lon="11.3717112"><ele>83.28571428571428</ele><time>2026-04-30T11:56:54.692Z</time></trkpt><trkpt lat="44.4541783" lon="11.3717688"><ele>82.85714285714286</ele><time>2026-04-30T11:56:55.691Z</time></trkpt><trkpt lat="44.454229" lon="11.3718264"><ele>82.42857142857142</ele><time>2026-04-30T11:56:56.692Z</time></trkpt><trkpt lat="44.4542818" lon="11.3718815"><ele>82.0</ele><time>2026-04-30T11:56:57.688Z</time></trkpt><trkpt lat="44.4543371" lon="11.3719335"><ele>81.99999999999999</ele><time>2026-04-30T11:56:58.69Z</time></trkpt><trkpt lat="44.4543928" lon="11.3719844"><ele>82.0</ele><time>2026-04-30T11:56:59.685Z</time></trkpt><trkpt lat="44.4544497" lon="11.3720347"><ele>82.0</ele><time>2026-04-30T11:57:00.687Z</time></trkpt><trkpt lat="44.4545084" lon="11.3720819"><ele>82.0</ele><time>2026-04-30T11:57:01.683Z</time></trkpt><trkpt lat="44.4545689" lon="11.3721284"><ele>82.0</ele><time>2026-04-30T11:57:02.677Z</time></trkpt><trkpt lat="44.4546297" lon="11.3721748"><ele>81.99999999999999</ele><time>2026-04-30T11:57:03.689Z</time></trkpt><trkpt lat="44.4546919" lon="11.3722196"><ele>82.0</ele><time>2026-04-30T11:57:04.684Z</time></trkpt><trkpt lat="44.4547561" lon="11.3722598"><ele>81.57142857142857</ele><time>2026-04-30T11:57:05.672Z</time></trkpt><trkpt lat="44.4548217" lon="11.3722992"><ele>81.14285714285714</ele><time>2026-04-30T11:57:06.688Z</time></trkpt><trkpt lat="44.4548884" lon="11.3723391"><ele>80.71428571428572</ele><time>2026-04-30T11:57:07.687Z</time></trkpt><trkpt lat="44.4549561" lon="11.3723779"><ele>80.28571428571428</ele><time>2026-04-30T11:57:08.681Z</time></trkpt><trkpt lat="44.4550249" lon="11.3724157"><ele>79.85714285714286</ele><time>2026-04-30T11:57:09.687Z</time></trkpt><trkpt lat="44.4550952" lon="11.3724532"><ele>79.42857142857143</ele><time>2026-04-30T11:57:10.682Z</time></trkpt><trkpt lat="44.4551656" lon="11.3724921"><ele>79.0</ele><time>2026-04-30T11:57:11.685Z</time></trkpt><trkpt lat="44.4552368" lon="11.372531"><ele>79.0</ele><time>2026-04-30T11:57:12.681Z</time></trkpt><trkpt lat="44.4553083" lon="11.3725707"><ele>79.0</ele><time>2026-04-30T11:57:13.693Z</time></trkpt><trkpt lat="44.4553789" lon="11.3726085"><ele>79.0</ele><time>2026-04-30T11:57:14.692Z</time></trkpt><trkpt lat="44.4554473" lon="11.3726441"><ele>79.0</ele><time>2026-04-30T11:57:15.692Z</time></trkpt><trkpt lat="44.4555181" lon="11.3726796"><ele>79.0</ele><time>2026-04-30T11:57:16.684Z</time></trkpt><trkpt lat="44.4555884" lon="11.3727191"><ele>79.0</ele><time>2026-04-30T11:57:17.691Z</time></trkpt><trkpt lat="44.4556577" lon="11.3727576"><ele>79.33333333333333</ele><time>2026-04-30T11:57:18.68Z</time></trkpt><trkpt lat="44.4557273" lon="11.3727936"><ele>79.66666666666666</ele><time>2026-04-30T11:57:19.69Z</time></trkpt><trkpt lat="44.455797" lon="11.372831"><ele>80.0</ele><time>2026-04-30T11:57:20.692Z</time></trkpt><trkpt lat="44.4558662" lon="11.3728701"><ele>80.33333333333333</ele><time>2026-04-30T11:57:21.691Z</time></trkpt><trkpt lat="44.4559373" lon="11.3729088"><ele>80.66666666666667</ele><time>2026-04-30T11:57:22.696Z</time></trkpt><trkpt lat="44.4560096" lon="11.3729462"><ele>81.0</ele><time>2026-04-30T11:57:23.686Z</time></trkpt><trkpt lat="44.4560818" lon="11.3729857"><ele>80.66666666666667</ele><time>2026-04-30T11:57:24.687Z</time></trkpt><trkpt lat="44.4561547" lon="11.3730265"><ele>80.33333333333333</ele><time>2026-04-30T11:57:25.688Z</time></trkpt><trkpt lat="44.4562268" lon="11.3730655"><ele>80.0</ele><time>2026-04-30T11:57:26.683Z</time></trkpt><trkpt lat="44.4562988" lon="11.3731024"><ele>79.66666666666666</ele><time>2026-04-30T11:57:27.695Z</time></trkpt><trkpt lat="44.4563709" lon="11.3731392"><ele>79.33333333333333</ele><time>2026-04-30T11:57:28.693Z</time></trkpt><trkpt lat="44.4564418" lon="11.3731737"><ele>79.0</ele><time>2026-04-30T11:57:29.685Z</time></trkpt><trkpt lat="44.4565122" lon="11.3732081"><ele>78.71428571428572</ele><time>2026-04-30T11:57:30.696Z</time></trkpt><trkpt lat="44.4565829" lon="11.3732408"><ele>78.42857142857143</ele><time>2026-04-30T11:57:31.683Z</time></trkpt><trkpt lat="44.4566543" lon="11.3732713"><ele>78.14285714285714</ele><time>2026-04-30T11:57:32.679Z</time></trkpt><trkpt lat="44.4567253" lon="11.3733009"><ele>77.85714285714286</ele><time>2026-04-30T11:57:33.7Z</time></trkpt><trkpt lat="44.4567964" lon="11.3733296"><ele>77.57142857142857</ele><time>2026-04-30T11:57:34.692Z</time></trkpt><trkpt lat="44.4568676" lon="11.373358"><ele>77.28571428571429</ele><time>2026-04-30T11:57:35.691Z</time></trkpt><trkpt lat="44.4569397" lon="11.3733834"><ele>77.0</ele><time>2026-04-30T11:57:36.685Z</time></trkpt><trkpt lat="44.457012" lon="11.3734067"><ele>77.0</ele><time>2026-04-30T11:57:37.679Z</time></trkpt><trkpt lat="44.4570846" lon="11.3734268"><ele>77.0</ele><time>2026-04-30T11:57:38.681Z</time></trkpt><trkpt lat="44.4571589" lon="11.3734448"><ele>77.0</ele><time>2026-04-30T11:57:39.684Z</time></trkpt><trkpt lat="44.4572331" lon="11.3734626"><ele>77.0</ele><time>2026-04-30T11:57:40.703Z</time></trkpt><trkpt lat="44.4573096" lon="11.3734805"><ele>77.0</ele><time>2026-04-30T11:57:41.687Z</time></trkpt><trkpt lat="44.4573863" lon="11.3734988"><ele>77.0</ele><time>2026-04-30T11:57:42.689Z</time></trkpt><trkpt lat="44.457463" lon="11.3735169"><ele>77.33333333333334</ele><time>2026-04-30T11:57:43.685Z</time></trkpt><trkpt lat="44.4575401" lon="11.3735345"><ele>77.66666666666667</ele><time>2026-04-30T11:57:44.682Z</time></trkpt><trkpt lat="44.4576169" lon="11.3735509"><ele>78.0</ele><time>2026-04-30T11:57:45.688Z</time></trkpt><trkpt lat="44.457694" lon="11.3735681"><ele>78.33333333333333</ele><time>2026-04-30T11:57:46.694Z</time></trkpt><trkpt lat="44.4577708" lon="11.3735832"><ele>78.66666666666666</ele><time>2026-04-30T11:57:47.696Z</time></trkpt><trkpt lat="44.4578472" lon="11.3735997"><ele>79.0</ele><time>2026-04-30T11:57:48.689Z</time></trkpt><trkpt lat="44.4579235" lon="11.3736158"><ele>79.33333333333333</ele><time>2026-04-30T11:57:49.692Z</time></trkpt><trkpt lat="44.4580002" lon="11.3736314"><ele>79.66666666666666</ele><time>2026-04-30T11:57:50.69Z</time></trkpt><trkpt lat="44.4580754" lon="11.3736482"><ele>80.0</ele><time>2026-04-30T11:57:51.685Z</time></trkpt><trkpt lat="44.4581493" lon="11.3736635"><ele>80.33333333333333</ele><time>2026-04-30T11:57:52.681Z</time></trkpt><trkpt lat="44.4582208" lon="11.373682"><ele>80.66666666666667</ele><time>2026-04-30T11:57:53.686Z</time></trkpt><trkpt lat="44.4582951" lon="11.3737005"><ele>81.0</ele><time>2026-04-30T11:57:54.68Z</time></trkpt><trkpt lat="44.4583687" lon="11.3737204"><ele>81.0</ele><time>2026-04-30T11:57:55.676Z</time></trkpt><trkpt lat="44.4584426" lon="11.3737436"><ele>81.0</ele><time>2026-04-30T11:57:56.695Z</time></trkpt><trkpt lat="44.4585159" lon="11.3737711"><ele>81.0</ele><time>2026-04-30T11:57:57.685Z</time></trkpt><trkpt lat="44.4585889" lon="11.3738017"><ele>81.0</ele><time>2026-04-30T11:57:58.699Z</time></trkpt><trkpt lat="44.458662" lon="11.3738358"><ele>81.0</ele><time>2026-04-30T11:57:59.682Z</time></trkpt><trkpt lat="44.4587341" lon="11.3738758"><ele>81.0</ele><time>2026-04-30T11:58:00.684Z</time></trkpt><trkpt lat="44.458806" lon="11.3739181"><ele>80.5</ele><time>2026-04-30T11:58:01.681Z</time></trkpt><trkpt lat="44.4588777" lon="11.3739658"><ele>80.0</ele><time>2026-04-30T11:58:02.69Z</time></trkpt><trkpt lat="44.4589467" lon="11.3740186"><ele>79.5</ele><time>2026-04-30T11:58:03.685Z</time></trkpt><trkpt lat="44.4590139" lon="11.3740742"><ele>79.0</ele><time>2026-04-30T11:58:04.681Z</time></trkpt><trkpt lat="44.4590798" lon="11.3741325"><ele>78.5</ele><time>2026-04-30T11:58:05.689Z</time></trkpt><trkpt lat="44.4591428" lon="11.3741943"><ele>78.0</ele><time>2026-04-30T11:58:06.681Z</time></trkpt><trkpt lat="44.4592025" lon="11.3742593"><ele>78.0</ele><time>2026-04-30T11:58:07.691Z</time></trkpt><trkpt lat="44.4592598" lon="11.3743265"><ele>78.0</ele><time>2026-04-30T11:58:08.678Z</time></trkpt><trkpt lat="44.4593146" lon="11.3743979"><ele>78.0</ele><time>2026-04-30T11:58:09.69Z</time></trkpt><trkpt lat="44.4593638" lon="11.3744727"><ele>78.0</ele><time>2026-04-30T11:58:10.686Z</time></trkpt><trkpt lat="44.4594068" lon="11.3745529"><ele>78.0</ele><time>2026-04-30T11:58:11.678Z</time></trkpt><trkpt lat="44.4594367" lon="11.3746444"><ele>78.0</ele><time>2026-04-30T11:58:12.696Z</time></trkpt><trkpt lat="44.4594482" lon="11.3747461"><ele>78.0</ele><time>2026-04-30T11:58:13.685Z</time></trkpt><trkpt lat="44.4594419" lon="11.3748496"><ele>77.71428571428572</ele><time>2026-04-30T11:58:14.685Z</time></trkpt><trkpt lat="44.4594309" lon="11.3749518"><ele>77.42857142857142</ele><time>2026-04-30T11:58:15.696Z</time></trkpt><trkpt lat="44.4594284" lon="11.3750544"><ele>77.14285714285714</ele><time>2026-04-30T11:58:16.677Z</time></trkpt><trkpt lat="44.4594422" lon="11.3751557"><ele>76.85714285714286</ele><time>2026-04-30T11:58:17.678Z</time></trkpt><trkpt lat="44.4594719" lon="11.3752509"><ele>76.57142857142858</ele><time>2026-04-30T11:58:18.698Z</time></trkpt><trkpt lat="44.4595134" lon="11.3753362"><ele>76.28571428571428</ele><time>2026-04-30T11:58:19.682Z</time></trkpt><trkpt lat="44.4595664" lon="11.3754091"><ele>76.0</ele><time>2026-04-30T11:58:20.68Z</time></trkpt><trkpt lat="44.4596266" lon="11.3754712"><ele>76.0</ele><time>2026-04-30T11:58:21.681Z</time></trkpt><trkpt lat="44.4596893" lon="11.3755309"><ele>76.0</ele><time>2026-04-30T11:58:22.682Z</time></trkpt><trkpt lat="44.4597493" lon="11.3755969"><ele>76.0</ele><time>2026-04-30T11:58:23.681Z</time></trkpt><trkpt lat="44.4598032" lon="11.3756747"><ele>76.0</ele><time>2026-04-30T11:58:24.686Z</time></trkpt><trkpt lat="44.4598477" lon="11.3757636"><ele>76.0</ele><time>2026-04-30T11:58:25.682Z</time></trkpt><trkpt lat="44.4598822" lon="11.375861"><ele>76.0</ele><time>2026-04-30T11:58:26.677Z</time></trkpt><trkpt lat="44.4599067" lon="11.3759631"><ele>76.0</ele><time>2026-04-30T11:58:27.688Z</time></trkpt><trkpt lat="44.4599312" lon="11.3760646"><ele>76.0</ele><time>2026-04-30T11:58:28.674Z</time></trkpt><trkpt lat="44.4599553" lon="11.376166"><ele>76.0</ele><time>2026-04-30T11:58:29.688Z</time></trkpt><trkpt lat="44.4599788" lon="11.3762683"><ele>76.0</ele><time>2026-04-30T11:58:30.685Z</time></trkpt><trkpt lat="44.4600025" lon="11.3763696"><ele>76.0</ele><time>2026-04-30T11:58:31.686Z</time></trkpt><trkpt lat="44.4600267" lon="11.376471"><ele>76.0</ele><time>2026-04-30T11:58:32.69Z</time></trkpt><trkpt lat="44.4600546" lon="11.3765713"><ele>75.33333333333333</ele><time>2026-04-30T11:58:33.679Z</time></trkpt><trkpt lat="44.4600851" lon="11.3766693"><ele>74.66666666666666</ele><time>2026-04-30T11:58:34.688Z</time></trkpt><trkpt lat="44.4601181" lon="11.3767661"><ele>74.0</ele><time>2026-04-30T11:58:35.685Z</time></trkpt><trkpt lat="44.4601542" lon="11.3768614"><ele>73.33333333333333</ele><time>2026-04-30T11:58:36.692Z</time></trkpt><trkpt lat="44.4601925" lon="11.3769545"><ele>72.66666666666667</ele><time>2026-04-30T11:58:37.695Z</time></trkpt><trkpt lat="44.460234" lon="11.3770452"><ele>72.0</ele><time>2026-04-30T11:58:38.696Z</time></trkpt><trkpt lat="44.4602791" lon="11.377133"><ele>71.83333333333333</ele><time>2026-04-30T11:58:39.683Z</time></trkpt><trkpt lat="44.460326" lon="11.3772175"><ele>71.66666666666667</ele><time>2026-04-30T11:58:40.687Z</time></trkpt><trkpt lat="44.460375" lon="11.3772984"><ele>71.5</ele><time>2026-04-30T11:58:41.686Z</time></trkpt><trkpt lat="44.4604253" lon="11.3773773"><ele>71.33333333333334</ele><time>2026-04-30T11:58:42.682Z</time></trkpt><trkpt lat="44.4604767" lon="11.3774539"><ele>71.16666666666667</ele><time>2026-04-30T11:58:43.682Z</time></trkpt><trkpt lat="44.4605288" lon="11.3775281"><ele>71.0</ele><time>2026-04-30T11:58:44.684Z</time></trkpt><trkpt lat="44.460581" lon="11.3776028"><ele>71.57142857142857</ele><time>2026-04-30T11:58:45.689Z</time></trkpt><trkpt lat="44.4606314" lon="11.377679"><ele>72.14285714285714</ele><time>2026-04-30T11:58:46.685Z</time></trkpt><trkpt lat="44.4606825" lon="11.3777554"><ele>72.71428571428571</ele><time>2026-04-30T11:58:47.686Z</time></trkpt><trkpt lat="44.4607328" lon="11.3778315"><ele>73.28571428571428</ele><time>2026-04-30T11:58:48.69Z</time></trkpt><trkpt lat="44.460785" lon="11.3779053"><ele>73.85714285714286</ele><time>2026-04-30T11:58:49.685Z</time></trkpt><trkpt lat="44.4608394" lon="11.3779772"><ele>74.42857142857142</ele><time>2026-04-30T11:58:50.682Z</time></trkpt><trkpt lat="44.4608943" lon="11.3780484"><ele>75.0</ele><time>2026-04-30T11:58:51.694Z</time></trkpt><trkpt lat="44.4609482" lon="11.3781181"><ele>74.99999999999999</ele><time>2026-04-30T11:58:52.7Z</time></trkpt><trkpt lat="44.4610017" lon="11.378186"><ele>75.0</ele><time>2026-04-30T11:58:53.69Z</time></trkpt><trkpt lat="44.4610523" lon="11.3782559"><ele>75.0</ele><time>2026-04-30T11:58:54.694Z</time></trkpt><trkpt lat="44.4611019" lon="11.3783224"><ele>75.0</ele><time>2026-04-30T11:58:55.67Z</time></trkpt><trkpt lat="44.4611505" lon="11.3783893"><ele>75.0</ele><time>2026-04-30T11:58:56.691Z</time></trkpt><trkpt lat="44.4611984" lon="11.3784551"><ele>74.99999999999999</ele><time>2026-04-30T11:58:57.689Z</time></trkpt><trkpt lat="44.4612447" lon="11.3785208"><ele>75.0</ele><time>2026-04-30T11:58:58.686Z</time></trkpt><trkpt lat="44.4612907" lon="11.3785871"><ele>75.28571428571428</ele><time>2026-04-30T11:58:59.677Z</time></trkpt><trkpt lat="44.4613347" lon="11.3786513"><ele>75.57142857142857</ele><time>2026-04-30T11:59:00.682Z</time></trkpt><trkpt lat="44.4613788" lon="11.3787166"><ele>75.85714285714286</ele><time>2026-04-30T11:59:01.686Z</time></trkpt><trkpt lat="44.4614224" lon="11.3787817"><ele>76.14285714285714</ele><time>2026-04-30T11:59:02.682Z</time></trkpt><trkpt lat="44.4614647" lon="11.3788516"><ele>76.42857142857143</ele><time>2026-04-30T11:59:03.676Z</time></trkpt><trkpt lat="44.4615091" lon="11.378919"><ele>76.71428571428571</ele><time>2026-04-30T11:59:04.687Z</time></trkpt><trkpt lat="44.4615749" lon="11.37907"><ele>77.0</ele><time>2026-04-30T11:59:06.684Z</time></trkpt><trkpt lat="44.4615945" lon="11.3792392"><ele>76.6</ele><time>2026-04-30T11:59:08.686Z</time></trkpt><trkpt lat="44.461559" lon="11.3793982"><ele>76.2</ele><time>2026-04-30T11:59:10.672Z</time></trkpt><trkpt lat="44.4614926" lon="11.3795398"><ele>75.8</ele><time>2026-04-30T11:59:12.685Z</time></trkpt><trkpt lat="44.4613749" lon="11.3796017"><ele>75.4</ele><time>2026-04-30T11:59:14.677Z</time></trkpt><trkpt lat="44.4613104" lon="11.3796096"><ele>75.0</ele><time>2026-04-30T11:59:15.67Z</time></trkpt><trkpt lat="44.4612443" lon="11.3796133"><ele>74.99999999999999</ele><time>2026-04-30T11:59:16.695Z</time></trkpt><trkpt lat="44.4611761" lon="11.3796163"><ele>75.0</ele><time>2026-04-30T11:59:17.685Z</time></trkpt><trkpt lat="44.4611084" lon="11.3796103"><ele>75.0</ele><time>2026-04-30T11:59:18.683Z</time></trkpt><trkpt lat="44.4610409" lon="11.3795946"><ele>75.0</ele><time>2026-04-30T11:59:19.683Z</time></trkpt><trkpt lat="44.4609744" lon="11.379566"><ele>75.0</ele><time>2026-04-30T11:59:20.683Z</time></trkpt><trkpt lat="44.4609113" lon="11.3795257"><ele>74.99999999999999</ele><time>2026-04-30T11:59:21.68Z</time></trkpt><trkpt lat="44.4608523" lon="11.3794729"><ele>75.0</ele><time>2026-04-30T11:59:22.689Z</time></trkpt><trkpt lat="44.4607979" lon="11.3794096"><ele>74.99999999999999</ele><time>2026-04-30T11:59:23.69Z</time></trkpt><trkpt lat="44.460747" lon="11.3793415"><ele>75.0</ele><time>2026-04-30T11:59:24.687Z</time></trkpt><trkpt lat="44.4606957" lon="11.3792729"><ele>75.0</ele><time>2026-04-30T11:59:25.686Z</time></trkpt><trkpt lat="44.4606447" lon="11.379204"><ele>75.0</ele><time>2026-04-30T11:59:26.678Z</time></trkpt><trkpt lat="44.4605932" lon="11.3791352"><ele>75.0</ele><time>2026-04-30T11:59:27.685Z</time></trkpt><trkpt lat="44.4605425" lon="11.3790663"><ele>74.99999999999999</ele><time>2026-04-30T11:59:28.688Z</time></trkpt><trkpt lat="44.4604923" lon="11.3789971"><ele>75.0</ele><time>2026-04-30T11:59:29.692Z</time></trkpt><trkpt lat="44.4604414" lon="11.3789278"><ele>74.66666666666667</ele><time>2026-04-30T11:59:30.687Z</time></trkpt><trkpt lat="44.4603948" lon="11.378856"><ele>74.33333333333333</ele><time>2026-04-30T11:59:31.682Z</time></trkpt><trkpt lat="44.4603495" lon="11.3787847"><ele>74.0</ele><time>2026-04-30T11:59:32.686Z</time></trkpt><trkpt lat="44.4603053" lon="11.3787151"><ele>73.66666666666666</ele><time>2026-04-30T11:59:33.68Z</time></trkpt><trkpt lat="44.4602618" lon="11.3786487"><ele>73.33333333333333</ele><time>2026-04-30T11:59:34.693Z</time></trkpt><trkpt lat="44.4602222" lon="11.3785793"><ele>73.0</ele><time>2026-04-30T11:59:35.678Z</time></trkpt><trkpt lat="44.4601528" lon="11.3784381"><ele>73.0</ele><time>2026-04-30T11:59:37.683Z</time></trkpt><trkpt lat="44.4600577" lon="11.3783438"><ele>73.0</ele><time>2026-04-30T11:59:39.685Z</time></trkpt><trkpt lat="44.4599399" lon="11.378357"><ele>73.0</ele><time>2026-04-30T11:59:41.684Z</time></trkpt><trkpt lat="44.4598221" lon="11.3784087"><ele>73.0</ele><time>2026-04-30T11:59:43.689Z</time></trkpt><trkpt lat="44.4597626" lon="11.3784376"><ele>73.0</ele><time>2026-04-30T11:59:44.685Z</time></trkpt><trkpt lat="44.4596468" lon="11.3784948"><ele>73.6</ele><time>2026-04-30T11:59:46.677Z</time></trkpt><trkpt lat="44.4595334" lon="11.3785587"><ele>74.19999999999999</ele><time>2026-04-30T11:59:48.687Z</time></trkpt><trkpt lat="44.4594261" lon="11.378623"><ele>74.8</ele><time>2026-04-30T11:59:50.681Z</time></trkpt><trkpt lat="44.4593325" lon="11.3786888"><ele>75.39999999999999</ele><time>2026-04-30T11:59:52.688Z</time></trkpt><trkpt lat="44.4592494" lon="11.3787543"><ele>76.0</ele><time>2026-04-30T11:59:54.674Z</time></trkpt><trkpt lat="44.4591782" lon="11.3788243"><ele>76.57142857142857</ele><time>2026-04-30T11:59:56.685Z</time></trkpt><trkpt lat="44.4591123" lon="11.3788822"><ele>77.14285714285715</ele><time>2026-04-30T11:59:58.677Z</time></trkpt><trkpt lat="44.4590523" lon="11.3789368"><ele>77.71428571428572</ele><time>2026-04-30T12:00:00.686Z</time></trkpt><trkpt lat="44.4589926" lon="11.3789869"><ele>78.28571428571428</ele><time>2026-04-30T12:00:02.695Z</time></trkpt><trkpt lat="44.4589318" lon="11.3790411"><ele>78.85714285714286</ele><time>2026-04-30T12:00:04.684Z</time></trkpt><trkpt lat="44.458868" lon="11.3791018"><ele>79.42857142857143</ele><time>2026-04-30T12:00:06.685Z</time></trkpt><trkpt lat="44.4588026" lon="11.3791637"><ele>80.0</ele><time>2026-04-30T12:00:08.685Z</time></trkpt><trkpt lat="44.4587354" lon="11.3792253"><ele>80.5</ele><time>2026-04-30T12:00:10.683Z</time></trkpt><trkpt lat="44.4586647" lon="11.3792891"><ele>81.0</ele><time>2026-04-30T12:00:12.681Z</time></trkpt><trkpt lat="44.4585982" lon="11.3793519"><ele>81.5</ele><time>2026-04-30T12:00:14.682Z</time></trkpt><trkpt lat="44.4585368" lon="11.3794061"><ele>82.0</ele><time>2026-04-30T12:00:16.685Z</time></trkpt><trkpt lat="44.4584749" lon="11.3794646"><ele>82.5</ele><time>2026-04-30T12:00:18.691Z</time></trkpt><trkpt lat="44.4584119" lon="11.3795194"><ele>83.0</ele><time>2026-04-30T12:00:20.685Z</time></trkpt><trkpt lat="44.4583588" lon="11.3795889"><ele>83.0</ele><time>2026-04-30T12:00:22.69Z</time></trkpt><trkpt lat="44.4583117" lon="11.3796683"><ele>83.0</ele><time>2026-04-30T12:00:24.688Z</time></trkpt><trkpt lat="44.4582693" lon="11.3797572"><ele>83.0</ele><time>2026-04-30T12:00:26.679Z</time></trkpt><trkpt lat="44.4582354" lon="11.3798579"><ele>83.0</ele><time>2026-04-30T12:00:28.686Z</time></trkpt><trkpt lat="44.4582129" lon="11.3799637"><ele>83.0</ele><time>2026-04-30T12:00:30.691Z</time></trkpt><trkpt lat="44.4581922" lon="11.3800699"><ele>83.0</ele><time>2026-04-30T12:00:32.688Z</time></trkpt><trkpt lat="44.4581769" lon="11.3801782"><ele>83.33333333333334</ele><time>2026-04-30T12:00:34.686Z</time></trkpt><trkpt lat="44.4581723" lon="11.3802869"><ele>83.66666666666667</ele><time>2026-04-30T12:00:36.689Z</time></trkpt><trkpt lat="44.4581671" lon="11.3803962"><ele>84.0</ele><time>2026-04-30T12:00:38.705Z</time></trkpt><trkpt lat="44.4581643" lon="11.3805063"><ele>84.33333333333333</ele><time>2026-04-30T12:00:40.686Z</time></trkpt><trkpt lat="44.4581709" lon="11.3806167"><ele>84.66666666666666</ele><time>2026-04-30T12:00:42.684Z</time></trkpt><trkpt lat="44.458179" lon="11.3807272"><ele>85.0</ele><time>2026-04-30T12:00:44.684Z</time></trkpt><trkpt lat="44.4581659" lon="11.3808338"><ele>85.14285714285715</ele><time>2026-04-30T12:00:46.691Z</time></trkpt><trkpt lat="44.4581753" lon="11.3809351"><ele>85.28571428571428</ele><time>2026-04-30T12:00:48.68Z</time></trkpt><trkpt lat="44.4581891" lon="11.3810352"><ele>85.42857142857143</ele><time>2026-04-30T12:00:50.674Z</time></trkpt><trkpt lat="44.4582021" lon="11.3811292"><ele>85.57142857142858</ele><time>2026-04-30T12:00:52.689Z</time></trkpt><trkpt lat="44.4582197" lon="11.3812397"><ele>85.71428571428572</ele><time>2026-04-30T12:00:55.685Z</time></trkpt><trkpt lat="44.4582342" lon="11.3813409"><ele>85.85714285714286</ele><time>2026-04-30T12:00:58.684Z</time></trkpt><trkpt lat="44.4582592" lon="11.3814365"><ele>86.0</ele><time>2026-04-30T12:01:57.689Z</time></trkpt><trkpt lat="44.4582954" lon="11.3815462"><ele>86.42857142857143</ele><time>2026-04-30T12:02:00.689Z</time></trkpt><trkpt lat="44.4583365" lon="11.3816581"><ele>86.85714285714286</ele><time>2026-04-30T12:02:03.674Z</time></trkpt><trkpt lat="44.4583985" lon="11.3817531"><ele>87.28571428571428</ele><time>2026-04-30T12:02:06.683Z</time></trkpt><trkpt lat="44.4584509" lon="11.3818049"><ele>87.71428571428572</ele><time>2026-04-30T12:02:08.687Z</time></trkpt><trkpt lat="44.4585098" lon="11.3818435"><ele>88.14285714285714</ele><time>2026-04-30T12:02:10.685Z</time></trkpt><trkpt lat="44.4585727" lon="11.3818772"><ele>88.57142857142857</ele><time>2026-04-30T12:02:12.684Z</time></trkpt><trkpt lat="44.458634" lon="11.3819145"><ele>89.0</ele><time>2026-04-30T12:02:14.685Z</time></trkpt><trkpt lat="44.4586973" lon="11.3819504"><ele>88.99999999999999</ele><time>2026-04-30T12:02:16.679Z</time></trkpt><trkpt lat="44.4587622" lon="11.3819885"><ele>89.0</ele><time>2026-04-30T12:02:18.681Z</time></trkpt><trkpt lat="44.4588273" lon="11.3820263"><ele>89.0</ele><time>2026-04-30T12:02:20.682Z</time></trkpt><trkpt lat="44.4588925" lon="11.3820612"><ele>89.0</ele><time>2026-04-30T12:02:22.686Z</time></trkpt><trkpt lat="44.4589574" lon="11.3821023"><ele>89.0</ele><time>2026-04-30T12:02:24.679Z</time></trkpt><trkpt lat="44.459023" lon="11.3821518"><ele>88.99999999999999</ele><time>2026-04-30T12:02:26.678Z</time></trkpt><trkpt lat="44.4590789" lon="11.3822162"><ele>89.0</ele><time>2026-04-30T12:02:28.7Z</time></trkpt><trkpt lat="44.4591287" lon="11.3822857"><ele>89.99999999999999</ele><time>2026-04-30T12:02:30.671Z</time></trkpt><trkpt lat="44.4591747" lon="11.3823512"><ele>91.0</ele><time>2026-04-30T12:02:32.684Z</time></trkpt><trkpt lat="44.4592346" lon="11.3824398"><ele>92.0</ele><time>2026-04-30T12:02:35.691Z</time></trkpt><trkpt lat="44.459243" lon="11.3825521"><ele>93.0</ele><time>2026-04-30T12:02:38.683Z</time></trkpt><trkpt lat="44.4591823" lon="11.382584"><ele>94.0</ele><time>2026-04-30T12:02:41.688Z</time></trkpt><trkpt lat="44.4591073" lon="11.3826129"><ele>94.99999999999999</ele><time>2026-04-30T12:02:45.681Z</time></trkpt><trkpt lat="44.459042" lon="11.3826127"><ele>96.0</ele><time>2026-04-30T12:02:48.682Z</time></trkpt><trkpt lat="44.4589785" lon="11.382618"><ele>96.0</ele><time>2026-04-30T12:02:51.682Z</time></trkpt><trkpt lat="44.4589082" lon="11.3826326"><ele>96.0</ele><time>2026-04-30T12:02:54.693Z</time></trkpt><trkpt lat="44.4588362" lon="11.3826638"><ele>96.0</ele><time>2026-04-30T12:02:57.692Z</time></trkpt><trkpt lat="44.4587706" lon="11.382711"><ele>96.0</ele><time>2026-04-30T12:03:00.682Z</time></trkpt><trkpt lat="44.4587165" lon="11.382792"><ele>96.0</ele><time>2026-04-30T12:03:03.676Z</time></trkpt><trkpt lat="44.4586753" lon="11.3828775"><ele>96.0</ele><time>2026-04-30T12:03:06.676Z</time></trkpt><trkpt lat="44.4586481" lon="11.3829824"><ele>96.5</ele><time>2026-04-30T12:03:09.671Z</time></trkpt><trkpt lat="44.4586274" lon="11.3830776"><ele>97.0</ele><time>2026-04-30T12:03:12.679Z</time></trkpt><trkpt lat="44.4586141" lon="11.3831764"><ele>97.5</ele><time>2026-04-30T12:03:15.687Z</time></trkpt><trkpt lat="44.4586118" lon="11.3832735"><ele>98.0</ele><time>2026-04-30T12:03:18.687Z</time></trkpt><trkpt lat="44.4585852" lon="11.3833879"><ele>98.5</ele><time>2026-04-30T12:03:21.692Z</time></trkpt><trkpt lat="44.4585466" lon="11.3834958"><ele>99.0</ele><time>2026-04-30T12:03:24.671Z</time></trkpt><trkpt lat="44.4585049" lon="11.3836095"><ele>99.0</ele><time>2026-04-30T12:03:27.684Z</time></trkpt><trkpt lat="44.4584663" lon="11.3837223"><ele>99.0</ele><time>2026-04-30T12:03:30.678Z</time></trkpt><trkpt lat="44.4584223" lon="11.3838287"><ele>99.0</ele><time>2026-04-30T12:03:33.683Z</time></trkpt><trkpt lat="44.4583833" lon="11.3839343"><ele>99.0</ele><time>2026-04-30T12:03:36.67Z</time></trkpt><trkpt lat="44.4583377" lon="11.3840267"><ele>99.0</ele><time>2026-04-30T12:03:39.678Z</time></trkpt><trkpt lat="44.4582945" lon="11.3841226"><ele>99.0</ele><time>2026-04-30T12:03:42.673Z</time></trkpt><trkpt lat="44.4582557" lon="11.384222"><ele>99.71428571428572</ele><time>2026-04-30T12:03:45.681Z</time></trkpt><trkpt lat="44.458226" lon="11.3843195"><ele>100.42857142857142</ele><time>2026-04-30T12:03:48.691Z</time></trkpt><trkpt lat="44.4581895" lon="11.384404"><ele>101.14285714285714</ele><time>2026-04-30T12:03:51.686Z</time></trkpt><trkpt lat="44.4581523" lon="11.3844893"><ele>101.85714285714286</ele><time>2026-04-30T12:03:54.678Z</time></trkpt><trkpt lat="44.4581217" lon="11.3845709"><ele>102.57142857142858</ele><time>2026-04-30T12:03:57.685Z</time></trkpt><trkpt lat="44.4580839" lon="11.384676"><ele>103.28571428571428</ele><time>2026-04-30T12:04:01.678Z</time></trkpt><trkpt lat="44.458052" lon="11.3847744"><ele>104.0</ele><time>2026-04-30T12:04:04.691Z</time></trkpt><trkpt lat="44.458012" lon="11.3848642"><ele>104.49999999999999</ele><time>2026-04-30T12:04:07.688Z</time></trkpt><trkpt lat="44.4579597" lon="11.3849339"><ele>105.0</ele><time>2026-04-30T12:04:10.673Z</time></trkpt><trkpt lat="44.4578944" lon="11.3849971"><ele>105.5</ele><time>2026-04-30T12:04:13.676Z</time></trkpt><trkpt lat="44.4578237" lon="11.3850493"><ele>106.0</ele><time>2026-04-30T12:04:16.681Z</time></trkpt><trkpt lat="44.4577491" lon="11.3850988"><ele>106.49999999999999</ele><time>2026-04-30T12:04:19.677Z</time></trkpt><trkpt lat="44.4576785" lon="11.3851512"><ele>107.0</ele><time>2026-04-30T12:04:22.683Z</time></trkpt><trkpt lat="44.4576058" lon="11.3851955"><ele>106.99999999999999</ele><time>2026-04-30T12:04:25.683Z</time></trkpt><trkpt lat="44.4575316" lon="11.3852395"><ele>107.0</ele><time>2026-04-30T12:04:28.678Z</time></trkpt><trkpt lat="44.4574519" lon="11.3852903"><ele>107.0</ele><time>2026-04-30T12:04:31.687Z</time></trkpt><trkpt lat="44.4573828" lon="11.3853534"><ele>107.0</ele><time>2026-04-30T12:04:34.689Z</time></trkpt><trkpt lat="44.4573379" lon="11.3854163"><ele>106.99999999999999</ele><time>2026-04-30T12:04:37.681Z</time></trkpt><trkpt lat="44.4572939" lon="11.3855177"><ele>107.0</ele><time>2026-04-30T12:04:41.679Z</time></trkpt><trkpt lat="44.457257" lon="11.3856141"><ele>108.33333333333333</ele><time>2026-04-30T12:04:45.697Z</time></trkpt><trkpt lat="44.457204" lon="11.385705"><ele>109.66666666666666</ele><time>2026-04-30T12:04:48.685Z</time></trkpt><trkpt lat="44.457138" lon="11.3857987"><ele>111.0</ele><time>2026-04-30T12:04:51.681Z</time></trkpt><trkpt lat="44.4570787" lon="11.3858891"><ele>112.33333333333334</ele><time>2026-04-30T12:04:54.68Z</time></trkpt><trkpt lat="44.4570216" lon="11.3859742"><ele>113.66666666666667</ele><time>2026-04-30T12:04:57.674Z</time></trkpt><trkpt lat="44.4569674" lon="11.3860568"><ele>115.0</ele><time>2026-04-30T12:05:00.683Z</time></trkpt><trkpt lat="44.4569183" lon="11.3861388"><ele>115.42857142857142</ele><time>2026-04-30T12:05:03.687Z</time></trkpt><trkpt lat="44.4568735" lon="11.3862268"><ele>115.85714285714286</ele><time>2026-04-30T12:05:06.681Z</time></trkpt><trkpt lat="44.4568309" lon="11.386303"><ele>116.28571428571428</ele><time>2026-04-30T12:05:09.687Z</time></trkpt><trkpt lat="44.4567778" lon="11.3863987"><ele>116.71428571428571</ele><time>2026-04-30T12:05:12.681Z</time></trkpt><trkpt lat="44.456733" lon="11.3864889"><ele>117.14285714285714</ele><time>2026-04-30T12:05:15.701Z</time></trkpt><trkpt lat="44.4566967" lon="11.3865783"><ele>117.57142857142857</ele><time>2026-04-30T12:05:18.692Z</time></trkpt><trkpt lat="44.4566816" lon="11.386665"><ele>118.0</ele><time>2026-04-30T12:05:21.688Z</time></trkpt><trkpt lat="44.456667" lon="11.3867674"><ele>119.33333333333334</ele><time>2026-04-30T12:05:25.682Z</time></trkpt><trkpt lat="44.4566472" lon="11.3868734"><ele>120.66666666666667</ele><time>2026-04-30T12:05:28.687Z</time></trkpt><trkpt lat="44.4566235" lon="11.3869873"><ele>122.0</ele><time>2026-04-30T12:05:31.683Z</time></trkpt><trkpt lat="44.4566269" lon="11.3871079"><ele>123.33333333333334</ele><time>2026-04-30T12:05:34.677Z</time></trkpt><trkpt lat="44.4566169" lon="11.3872247"><ele>124.66666666666667</ele><time>2026-04-30T12:05:37.681Z</time></trkpt><trkpt lat="44.4566143" lon="11.3873279"><ele>126.0</ele><time>2026-04-30T12:05:40.681Z</time></trkpt><trkpt lat="44.4566188" lon="11.3874271"><ele>126.85714285714286</ele><time>2026-04-30T12:05:43.681Z</time></trkpt><trkpt lat="44.4566206" lon="11.3875257"><ele>127.71428571428572</ele><time>2026-04-30T12:05:46.689Z</time></trkpt><trkpt lat="44.4566222" lon="11.3876196"><ele>128.57142857142856</ele><time>2026-04-30T12:05:49.683Z</time></trkpt><trkpt lat="44.4566239" lon="11.3877347"><ele>129.42857142857144</ele><time>2026-04-30T12:05:53.691Z</time></trkpt><trkpt lat="44.45662" lon="11.3878254"><ele>130.28571428571428</ele><time>2026-04-30T12:05:56.69Z</time></trkpt><trkpt lat="44.4565952" lon="11.3879272"><ele>131.14285714285714</ele><time>2026-04-30T12:06:00.692Z</time></trkpt><trkpt lat="44.4565418" lon="11.3879966"><ele>132.0</ele><time>2026-04-30T12:06:04.684Z</time></trkpt><trkpt lat="44.4564821" lon="11.3880631"><ele>133.0</ele><time>2026-04-30T12:06:08.681Z</time></trkpt><trkpt lat="44.4564106" lon="11.3881205"><ele>134.0</ele><time>2026-04-30T12:06:12.696Z</time></trkpt><trkpt lat="44.4563492" lon="11.3881448"><ele>135.0</ele><time>2026-04-30T12:06:15.682Z</time></trkpt><trkpt lat="44.4562736" lon="11.3881636"><ele>136.0</ele><time>2026-04-30T12:06:19.684Z</time></trkpt><trkpt lat="44.4561915" lon="11.3881735"><ele>137.0</ele><time>2026-04-30T12:06:23.678Z</time></trkpt><trkpt lat="44.4561101" lon="11.3881672"><ele>138.0</ele><time>2026-04-30T12:06:27.694Z</time></trkpt><trkpt lat="44.4560452" lon="11.3881672"><ele>139.28571428571428</ele><time>2026-04-30T12:06:30.678Z</time></trkpt><trkpt lat="44.4559796" lon="11.3881626"><ele>140.57142857142858</ele><time>2026-04-30T12:06:33.689Z</time></trkpt><trkpt lat="44.4559047" lon="11.3881606"><ele>141.85714285714286</ele><time>2026-04-30T12:06:37.697Z</time></trkpt><trkpt lat="44.4558312" lon="11.388153"><ele>143.14285714285714</ele><time>2026-04-30T12:06:40.687Z</time></trkpt><trkpt lat="44.4557659" lon="11.3881521"><ele>144.42857142857144</ele><time>2026-04-30T12:06:43.691Z</time></trkpt><trkpt lat="44.4556991" lon="11.3881474"><ele>145.71428571428572</ele><time>2026-04-30T12:06:46.684Z</time></trkpt><trkpt lat="44.4556352" lon="11.3881541"><ele>147.0</ele><time>2026-04-30T12:06:49.688Z</time></trkpt><trkpt lat="44.4555524" lon="11.388165"><ele>147.0</ele><time>2026-04-30T12:06:53.684Z</time></trkpt><trkpt lat="44.4554722" lon="11.388165"><ele>147.0</ele><time>2026-04-30T12:06:57.685Z</time></trkpt><trkpt lat="44.455394" lon="11.3881542"><ele>147.0</ele><time>2026-04-30T12:07:01.69Z</time></trkpt><trkpt lat="44.4553158" lon="11.3881495"><ele>147.0</ele><time>2026-04-30T12:07:05.691Z</time></trkpt><trkpt lat="44.4552523" lon="11.388147"><ele>147.0</ele><time>2026-04-30T12:07:08.684Z</time></trkpt><trkpt lat="44.4551734" lon="11.3881465"><ele>147.0</ele><time>2026-04-30T12:07:12.67Z</time></trkpt><trkpt lat="44.4550909" lon="11.3881467"><ele>148.14285714285714</ele><time>2026-04-30T12:07:16.679Z</time></trkpt><trkpt lat="44.4550128" lon="11.3881489"><ele>149.28571428571428</ele><time>2026-04-30T12:07:20.688Z</time></trkpt><trkpt lat="44.4549362" lon="11.3881504"><ele>150.42857142857144</ele><time>2026-04-30T12:07:24.696Z</time></trkpt><trkpt lat="44.4548567" lon="11.3881564"><ele>151.57142857142856</ele><time>2026-04-30T12:07:28.686Z</time></trkpt><trkpt lat="44.4547751" lon="11.3881543"><ele>152.71428571428572</ele><time>2026-04-30T12:07:32.687Z</time></trkpt><trkpt lat="44.4547111" lon="11.3881408"><ele>153.85714285714286</ele><time>2026-04-30T12:07:35.68Z</time></trkpt><trkpt lat="44.4546449" lon="11.3881387"><ele>155.0</ele><time>2026-04-30T12:07:38.684Z</time></trkpt><trkpt lat="44.4545743" lon="11.3881239"><ele>155.28571428571428</ele><time>2026-04-30T12:07:41.681Z</time></trkpt><trkpt lat="44.4545075" lon="11.3881063"><ele>155.57142857142856</ele><time>2026-04-30T12:07:44.678Z</time></trkpt><trkpt lat="44.4544459" lon="11.3880879"><ele>155.85714285714283</ele><time>2026-04-30T12:07:47.68Z</time></trkpt><trkpt lat="44.454365" lon="11.3880655"><ele>156.14285714285714</ele><time>2026-04-30T12:07:51.677Z</time></trkpt><trkpt lat="44.4542899" lon="11.3880372"><ele>156.42857142857142</ele><time>2026-04-30T12:07:54.68Z</time></trkpt><trkpt lat="44.454222" lon="11.3880199"><ele>156.7142857142857</ele><time>2026-04-30T12:07:57.696Z</time></trkpt><trkpt lat="44.4541487" lon="11.3880006"><ele>157.0</ele><time>2026-04-30T12:08:00.685Z</time></trkpt><trkpt lat="44.4540793" lon="11.3879902"><ele>157.0</ele><time>2026-04-30T12:08:03.688Z</time></trkpt><trkpt lat="44.4540112" lon="11.388007"><ele>157.0</ele><time>2026-04-30T12:08:06.68Z</time></trkpt><trkpt lat="44.4539442" lon="11.3880324"><ele>157.0</ele><time>2026-04-30T12:08:09.688Z</time></trkpt><trkpt lat="44.4538814" lon="11.3880642"><ele>157.0</ele><time>2026-04-30T12:08:12.677Z</time></trkpt><trkpt lat="44.4538076" lon="11.3880992"><ele>157.0</ele><time>2026-04-30T12:08:15.681Z</time></trkpt><trkpt lat="44.4537241" lon="11.3881416"><ele>157.0</ele><time>2026-04-30T12:08:18.68Z</time></trkpt><trkpt lat="44.4536467" lon="11.3881856"><ele>158.16666666666669</ele><time>2026-04-30T12:08:21.685Z</time></trkpt><trkpt lat="44.453576" lon="11.3882285"><ele>159.33333333333334</ele><time>2026-04-30T12:08:24.683Z</time></trkpt><trkpt lat="44.4535008" lon="11.3882721"><ele>160.5</ele><time>2026-04-30T12:08:28.68Z</time></trkpt><trkpt lat="44.4534235" lon="11.3883143"><ele>161.66666666666666</ele><time>2026-04-30T12:08:31.68Z</time></trkpt><trkpt lat="44.4533502" lon="11.388343"><ele>162.83333333333331</ele><time>2026-04-30T12:08:34.688Z</time></trkpt><trkpt lat="44.4532702" lon="11.3883892"><ele>164.0</ele><time>2026-04-30T12:08:37.682Z</time></trkpt><trkpt lat="44.4531898" lon="11.3884254"><ele>163.99999999999997</ele><time>2026-04-30T12:08:40.681Z</time></trkpt><trkpt lat="44.453128" lon="11.3884506"><ele>164.0</ele><time>2026-04-30T12:08:42.683Z</time></trkpt><trkpt lat="44.4530678" lon="11.3884768"><ele>164.0</ele><time>2026-04-30T12:08:44.685Z</time></trkpt><trkpt lat="44.4529859" lon="11.3885168"><ele>164.0</ele><time>2026-04-30T12:08:47.689Z</time></trkpt><trkpt lat="44.452896" lon="11.3885551"><ele>164.0</ele><time>2026-04-30T12:08:50.684Z</time></trkpt><trkpt lat="44.4528295" lon="11.3885835"><ele>163.99999999999997</ele><time>2026-04-30T12:08:52.686Z</time></trkpt><trkpt lat="44.4527615" lon="11.3886088"><ele>164.0</ele><time>2026-04-30T12:08:54.68Z</time></trkpt><trkpt lat="44.4526996" lon="11.3886296"><ele>164.33333333333331</ele><time>2026-04-30T12:08:56.681Z</time></trkpt><trkpt lat="44.4526099" lon="11.3886615"><ele>164.66666666666666</ele><time>2026-04-30T12:08:59.68Z</time></trkpt><trkpt lat="44.4525214" lon="11.3886918"><ele>165.0</ele><time>2026-04-30T12:09:02.68Z</time></trkpt><trkpt lat="44.4524412" lon="11.3887212"><ele>165.33333333333334</ele><time>2026-04-30T12:09:05.676Z</time></trkpt><trkpt lat="44.4523763" lon="11.3887496"><ele>165.66666666666669</ele><time>2026-04-30T12:09:08.681Z</time></trkpt><trkpt lat="44.4523363" lon="11.3888201"><ele>166.0</ele><time>2026-04-30T12:09:11.681Z</time></trkpt><trkpt lat="44.4523942" lon="11.3889229"><ele>166.20000000000002</ele><time>2026-04-30T12:09:14.69Z</time></trkpt><trkpt lat="44.4524768" lon="11.3889856"><ele>166.4</ele><time>2026-04-30T12:09:16.674Z</time></trkpt><trkpt lat="44.4525761" lon="11.3890667"><ele>166.6</ele><time>2026-04-30T12:09:18.687Z</time></trkpt><trkpt lat="44.4526887" lon="11.3891598"><ele>166.8</ele><time>2026-04-30T12:09:20.697Z</time></trkpt><trkpt lat="44.4527536" lon="11.3892181"><ele>167.0</ele><time>2026-04-30T12:09:21.675Z</time></trkpt><trkpt lat="44.4528224" lon="11.389278"><ele>167.0</ele><time>2026-04-30T12:09:22.687Z</time></trkpt><trkpt lat="44.452895" lon="11.3893438"><ele>167.0</ele><time>2026-04-30T12:09:23.694Z</time></trkpt><trkpt lat="44.4529692" lon="11.3894104"><ele>167.0</ele><time>2026-04-30T12:09:24.69Z</time></trkpt><trkpt lat="44.4530363" lon="11.3894684"><ele>167.0</ele><time>2026-04-30T12:09:25.682Z</time></trkpt><trkpt lat="44.4530949" lon="11.3895226"><ele>167.0</ele><time>2026-04-30T12:09:26.685Z</time></trkpt><trkpt lat="44.4531529" lon="11.3895749"><ele>167.0</ele><time>2026-04-30T12:09:27.677Z</time></trkpt><trkpt lat="44.4532107" lon="11.3896252"><ele>166.0</ele><time>2026-04-30T12:09:28.687Z</time></trkpt><trkpt lat="44.4532685" lon="11.3896769"><ele>165.0</ele><time>2026-04-30T12:09:29.689Z</time></trkpt><trkpt lat="44.453332" lon="11.3897347"><ele>164.0</ele><time>2026-04-30T12:09:30.682Z</time></trkpt><trkpt lat="44.4533966" lon="11.3897905"><ele>163.0</ele><time>2026-04-30T12:09:31.682Z</time></trkpt><trkpt lat="44.4534607" lon="11.3898475"><ele>162.0</ele><time>2026-04-30T12:09:32.678Z</time></trkpt><trkpt lat="44.4535228" lon="11.3899025"><ele>161.0</ele><time>2026-04-30T12:09:33.679Z</time></trkpt><trkpt lat="44.4535859" lon="11.3899565"><ele>160.0</ele><time>2026-04-30T12:09:34.677Z</time></trkpt><trkpt lat="44.4536496" lon="11.3900152"><ele>160.0</ele><time>2026-04-30T12:09:35.687Z</time></trkpt><trkpt lat="44.4537171" lon="11.390078"><ele>160.0</ele><time>2026-04-30T12:09:36.68Z</time></trkpt><trkpt lat="44.4537869" lon="11.3901414"><ele>160.0</ele><time>2026-04-30T12:09:37.677Z</time></trkpt><trkpt lat="44.453858" lon="11.3902061"><ele>160.0</ele><time>2026-04-30T12:09:38.684Z</time></trkpt><trkpt lat="44.4539283" lon="11.3902663"><ele>160.0</ele><time>2026-04-30T12:09:39.681Z</time></trkpt><trkpt lat="44.4539986" lon="11.39033"><ele>160.0</ele><time>2026-04-30T12:09:40.688Z</time></trkpt><trkpt lat="44.4540703" lon="11.3903978"><ele>159.0</ele><time>2026-04-30T12:09:41.679Z</time></trkpt><trkpt lat="44.4541387" lon="11.390476"><ele>158.0</ele><time>2026-04-30T12:09:42.686Z</time></trkpt><trkpt lat="44.4542078" lon="11.3905549"><ele>157.0</ele><time>2026-04-30T12:09:43.675Z</time></trkpt><trkpt lat="44.4542729" lon="11.3906502"><ele>156.0</ele><time>2026-04-30T12:09:44.687Z</time></trkpt><trkpt lat="44.4543389" lon="11.3907466"><ele>155.0</ele><time>2026-04-30T12:09:45.686Z</time></trkpt><trkpt lat="44.454399" lon="11.3908387"><ele>155.0</ele><time>2026-04-30T12:09:46.687Z</time></trkpt><trkpt lat="44.4544557" lon="11.3909281"><ele>155.0</ele><time>2026-04-30T12:09:47.677Z</time></trkpt><trkpt lat="44.4545068" lon="11.3910239"><ele>155.0</ele><time>2026-04-30T12:09:48.684Z</time></trkpt><trkpt lat="44.4545271" lon="11.3911377"><ele>155.0</ele><time>2026-04-30T12:09:49.682Z</time></trkpt><trkpt lat="44.4545449" lon="11.3912496"><ele>155.0</ele><time>2026-04-30T12:09:50.692Z</time></trkpt><trkpt lat="44.4545195" lon="11.3913641"><ele>155.0</ele><time>2026-04-30T12:09:51.692Z</time></trkpt><trkpt lat="44.4544939" lon="11.39148"><ele>153.83333333333331</ele><time>2026-04-30T12:09:52.683Z</time></trkpt><trkpt lat="44.4544693" lon="11.3915985"><ele>152.66666666666666</ele><time>2026-04-30T12:09:53.682Z</time></trkpt><trkpt lat="44.4544643" lon="11.3917219"><ele>151.5</ele><time>2026-04-30T12:09:54.689Z</time></trkpt><trkpt lat="44.4544566" lon="11.391842"><ele>150.33333333333334</ele><time>2026-04-30T12:09:55.681Z</time></trkpt><trkpt lat="44.4545022" lon="11.3919575"><ele>149.16666666666669</ele><time>2026-04-30T12:09:56.685Z</time></trkpt><trkpt lat="44.454545" lon="11.3920677"><ele>148.0</ele><time>2026-04-30T12:09:57.678Z</time></trkpt><trkpt lat="44.454595" lon="11.3921803"><ele>145.4</ele><time>2026-04-30T12:09:58.677Z</time></trkpt><trkpt lat="44.4546493" lon="11.3922936"><ele>142.8</ele><time>2026-04-30T12:09:59.69Z</time></trkpt><trkpt lat="44.4547023" lon="11.3924087"><ele>140.2</ele><time>2026-04-30T12:10:00.688Z</time></trkpt><trkpt lat="44.4547613" lon="11.3925257"><ele>137.6</ele><time>2026-04-30T12:10:01.691Z</time></trkpt><trkpt lat="44.4548192" lon="11.3926404"><ele>135.0</ele><time>2026-04-30T12:10:02.689Z</time></trkpt><trkpt lat="44.4548769" lon="11.392761"><ele>135.0</ele><time>2026-04-30T12:10:03.686Z</time></trkpt><trkpt lat="44.4549361" lon="11.3928848"><ele>135.0</ele><time>2026-04-30T12:10:04.685Z</time></trkpt><trkpt lat="44.4550013" lon="11.3930117"><ele>135.0</ele><time>2026-04-30T12:10:05.674Z</time></trkpt><trkpt lat="44.4550733" lon="11.3931295"><ele>135.0</ele><time>2026-04-30T12:10:06.693Z</time></trkpt><trkpt lat="44.4551615" lon="11.3932261"><ele>135.0</ele><time>2026-04-30T12:10:07.685Z</time></trkpt><trkpt lat="44.455262" lon="11.3933059"><ele>133.25</ele><time>2026-04-30T12:10:08.682Z</time></trkpt><trkpt lat="44.4553699" lon="11.3933721"><ele>131.5</ele><time>2026-04-30T12:10:09.692Z</time></trkpt><trkpt lat="44.4554845" lon="11.3934337"><ele>129.75</ele><time>2026-04-30T12:10:10.685Z</time></trkpt><trkpt lat="44.4556004" lon="11.393494"><ele>128.0</ele><time>2026-04-30T12:10:11.688Z</time></trkpt><trkpt lat="44.4557174" lon="11.3935547"><ele>127.0</ele><time>2026-04-30T12:10:12.694Z</time></trkpt><trkpt lat="44.4558367" lon="11.3936148"><ele>126.0</ele><time>2026-04-30T12:10:13.68Z</time></trkpt><trkpt lat="44.4559581" lon="11.3936767"><ele>125.0</ele><time>2026-04-30T12:10:14.68Z</time></trkpt><trkpt lat="44.4560804" lon="11.3937406"><ele>124.0</ele><time>2026-04-30T12:10:15.686Z</time></trkpt><trkpt lat="44.456202" lon="11.3938085"><ele>121.5</ele><time>2026-04-30T12:10:16.69Z</time></trkpt><trkpt lat="44.4563226" lon="11.3938782"><ele>119.0</ele><time>2026-04-30T12:10:17.69Z</time></trkpt><trkpt lat="44.4564408" lon="11.3939471"><ele>116.5</ele><time>2026-04-30T12:10:18.684Z</time></trkpt><trkpt lat="44.4565586" lon="11.3940271"><ele>114.0</ele><time>2026-04-30T12:10:19.687Z</time></trkpt><trkpt lat="44.4566726" lon="11.3941138"><ele>114.0</ele><time>2026-04-30T12:10:20.682Z</time></trkpt><trkpt lat="44.4567884" lon="11.3942072"><ele>114.0</ele><time>2026-04-30T12:10:21.694Z</time></trkpt><trkpt lat="44.4569017" lon="11.3943002"><ele>114.0</ele><time>2026-04-30T12:10:22.684Z</time></trkpt><trkpt lat="44.4570157" lon="11.394394"><ele>114.0</ele><time>2026-04-30T12:10:23.691Z</time></trkpt><trkpt lat="44.4571279" lon="11.3944852"><ele>113.75</ele><time>2026-04-30T12:10:24.686Z</time></trkpt><trkpt lat="44.4572393" lon="11.394575"><ele>113.5</ele><time>2026-04-30T12:10:25.676Z</time></trkpt><trkpt lat="44.4573499" lon="11.3946614"><ele>113.25</ele><time>2026-04-30T12:10:26.682Z</time></trkpt><trkpt lat="44.4574608" lon="11.3947385"><ele>113.0</ele><time>2026-04-30T12:10:27.689Z</time></trkpt><trkpt lat="44.4575747" lon="11.3947994"><ele>113.0</ele><time>2026-04-30T12:10:28.684Z</time></trkpt><trkpt lat="44.4576975" lon="11.3948528"><ele>113.0</ele><time>2026-04-30T12:10:29.682Z</time></trkpt><trkpt lat="44.4578276" lon="11.3948573"><ele>113.0</ele><time>2026-04-30T12:10:30.675Z</time></trkpt><trkpt lat="44.4579571" lon="11.3948579"><ele>113.0</ele><time>2026-04-30T12:10:31.679Z</time></trkpt><trkpt lat="44.4580787" lon="11.3948062"><ele>112.25</ele><time>2026-04-30T12:10:32.674Z</time></trkpt><trkpt lat="44.4581982" lon="11.3947558"><ele>111.5</ele><time>2026-04-30T12:10:33.697Z</time></trkpt><trkpt lat="44.4583041" lon="11.3946748"><ele>110.75</ele><time>2026-04-30T12:10:34.691Z</time></trkpt><trkpt lat="44.4584108" lon="11.3945922"><ele>110.0</ele><time>2026-04-30T12:10:35.692Z</time></trkpt><trkpt lat="44.4585103" lon="11.3944994"><ele>109.0</ele><time>2026-04-30T12:10:36.688Z</time></trkpt><trkpt lat="44.4586078" lon="11.394419"><ele>108.0</ele><time>2026-04-30T12:10:37.695Z</time></trkpt><trkpt lat="44.4587003" lon="11.3943633"><ele>107.0</ele><time>2026-04-30T12:10:38.685Z</time></trkpt><trkpt lat="44.4588015" lon="11.3943518"><ele>106.0</ele><time>2026-04-30T12:10:39.687Z</time></trkpt><trkpt lat="44.4588962" lon="11.3943922"><ele>105.0</ele><time>2026-04-30T12:10:40.68Z</time></trkpt><trkpt lat="44.4589837" lon="11.3944575"><ele>104.8</ele><time>2026-04-30T12:10:41.685Z</time></trkpt><trkpt lat="44.4590696" lon="11.3945213"><ele>104.6</ele><time>2026-04-30T12:10:42.681Z</time></trkpt><trkpt lat="44.4591542" lon="11.3945831"><ele>104.4</ele><time>2026-04-30T12:10:43.678Z</time></trkpt><trkpt lat="44.4592388" lon="11.3946447"><ele>104.2</ele><time>2026-04-30T12:10:44.684Z</time></trkpt><trkpt lat="44.4593233" lon="11.394704"><ele>104.0</ele><time>2026-04-30T12:10:45.685Z</time></trkpt><trkpt lat="44.4594098" lon="11.3947618"><ele>103.99999999999999</ele><time>2026-04-30T12:10:46.685Z</time></trkpt><trkpt lat="44.4594909" lon="11.394818"><ele>104.0</ele><time>2026-04-30T12:10:47.679Z</time></trkpt><trkpt lat="44.4595717" lon="11.3948751"><ele>104.0</ele><time>2026-04-30T12:10:48.682Z</time></trkpt><trkpt lat="44.4596522" lon="11.3949326"><ele>104.0</ele><time>2026-04-30T12:10:49.685Z</time></trkpt><trkpt lat="44.4597296" lon="11.3949897"><ele>103.99999999999999</ele><time>2026-04-30T12:10:50.674Z</time></trkpt><trkpt lat="44.4598074" lon="11.3950442"><ele>104.0</ele><time>2026-04-30T12:10:51.672Z</time></trkpt><trkpt lat="44.4598853" lon="11.3950946"><ele>103.16666666666666</ele><time>2026-04-30T12:10:52.686Z</time></trkpt><trkpt lat="44.4599635" lon="11.3951499"><ele>102.33333333333333</ele><time>2026-04-30T12:10:53.683Z</time></trkpt><trkpt lat="44.4600412" lon="11.3952069"><ele>101.5</ele><time>2026-04-30T12:10:54.681Z</time></trkpt><trkpt lat="44.4601187" lon="11.3952633"><ele>100.66666666666666</ele><time>2026-04-30T12:10:55.689Z</time></trkpt><trkpt lat="44.4601947" lon="11.3953202"><ele>99.83333333333333</ele><time>2026-04-30T12:10:56.69Z</time></trkpt><trkpt lat="44.4602701" lon="11.3953802"><ele>99.0</ele><time>2026-04-30T12:10:57.698Z</time></trkpt><trkpt lat="44.4603443" lon="11.3954425"><ele>99.0</ele><time>2026-04-30T12:10:58.683Z</time></trkpt><trkpt lat="44.4604186" lon="11.395503"><ele>99.0</ele><time>2026-04-30T12:10:59.685Z</time></trkpt><trkpt lat="44.4604903" lon="11.3955618"><ele>99.0</ele><time>2026-04-30T12:11:00.69Z</time></trkpt><trkpt lat="44.460561" lon="11.3956196"><ele>99.0</ele><time>2026-04-30T12:11:01.688Z</time></trkpt><trkpt lat="44.4606321" lon="11.3956757"><ele>99.0</ele><time>2026-04-30T12:11:02.689Z</time></trkpt><trkpt lat="44.4607008" lon="11.3957399"><ele>99.0</ele><time>2026-04-30T12:11:03.688Z</time></trkpt><trkpt lat="44.4607658" lon="11.395806"><ele>99.16666666666667</ele><time>2026-04-30T12:11:04.691Z</time></trkpt><trkpt lat="44.4608291" lon="11.395871"><ele>99.33333333333334</ele><time>2026-04-30T12:11:05.694Z</time></trkpt><trkpt lat="44.4608925" lon="11.3959381"><ele>99.5</ele><time>2026-04-30T12:11:06.683Z</time></trkpt><trkpt lat="44.4609481" lon="11.3960088"><ele>99.66666666666667</ele><time>2026-04-30T12:11:07.678Z</time></trkpt><trkpt lat="44.461002" lon="11.3960921"><ele>99.83333333333334</ele><time>2026-04-30T12:11:08.673Z</time></trkpt><trkpt lat="44.4610558" lon="11.3961716"><ele>100.0</ele><time>2026-04-30T12:11:09.68Z</time></trkpt><trkpt lat="44.4611079" lon="11.3962558"><ele>100.00000000000001</ele><time>2026-04-30T12:11:10.671Z</time></trkpt><trkpt lat="44.4611577" lon="11.3963385"><ele>100.0</ele><time>2026-04-30T12:11:11.683Z</time></trkpt><trkpt lat="44.4612087" lon="11.3964139"><ele>100.0</ele><time>2026-04-30T12:11:12.672Z</time></trkpt><trkpt lat="44.4612593" lon="11.3964893"><ele>100.0</ele><time>2026-04-30T12:11:13.685Z</time></trkpt><trkpt lat="44.4613119" lon="11.3965738"><ele>100.00000000000001</ele><time>2026-04-30T12:11:14.687Z</time></trkpt><trkpt lat="44.4613699" lon="11.3966627"><ele>100.0</ele><time>2026-04-30T12:11:15.685Z</time></trkpt><trkpt lat="44.4614302" lon="11.3967538"><ele>98.8</ele><time>2026-04-30T12:11:16.683Z</time></trkpt><trkpt lat="44.4614846" lon="11.3968486"><ele>97.6</ele><time>2026-04-30T12:11:17.691Z</time></trkpt><trkpt lat="44.4615461" lon="11.3969396"><ele>96.4</ele><time>2026-04-30T12:11:18.685Z</time></trkpt><trkpt lat="44.4616061" lon="11.3970333"><ele>95.2</ele><time>2026-04-30T12:11:19.69Z</time></trkpt><trkpt lat="44.461665" lon="11.397132"><ele>94.0</ele><time>2026-04-30T12:11:20.686Z</time></trkpt><trkpt lat="44.461727" lon="11.3972328"><ele>93.2</ele><time>2026-04-30T12:11:21.685Z</time></trkpt><trkpt lat="44.4617907" lon="11.3973337"><ele>92.4</ele><time>2026-04-30T12:11:22.693Z</time></trkpt><trkpt lat="44.4618556" lon="11.3974348"><ele>91.6</ele><time>2026-04-30T12:11:23.677Z</time></trkpt><trkpt lat="44.461922" lon="11.3975387"><ele>90.8</ele><time>2026-04-30T12:11:24.687Z</time></trkpt><trkpt lat="44.4619891" lon="11.3976438"><ele>90.0</ele><time>2026-04-30T12:11:25.683Z</time></trkpt><trkpt lat="44.4620582" lon="11.3977458"><ele>89.4</ele><time>2026-04-30T12:11:26.687Z</time></trkpt><trkpt lat="44.4621302" lon="11.3978485"><ele>88.8</ele><time>2026-04-30T12:11:27.682Z</time></trkpt><trkpt lat="44.4622048" lon="11.3979457"><ele>88.19999999999999</ele><time>2026-04-30T12:11:28.682Z</time></trkpt><trkpt lat="44.4622801" lon="11.3980459"><ele>87.6</ele><time>2026-04-30T12:11:29.681Z</time></trkpt><trkpt lat="44.4623564" lon="11.3981449"><ele>87.0</ele><time>2026-04-30T12:11:30.683Z</time></trkpt><trkpt lat="44.4624312" lon="11.3982407"><ele>86.8</ele><time>2026-04-30T12:11:31.677Z</time></trkpt><trkpt lat="44.4625092" lon="11.398334"><ele>86.6</ele><time>2026-04-30T12:11:32.698Z</time></trkpt><trkpt lat="44.4625898" lon="11.3984278"><ele>86.39999999999999</ele><time>2026-04-30T12:11:33.699Z</time></trkpt><trkpt lat="44.4626713" lon="11.398517"><ele>86.19999999999999</ele><time>2026-04-30T12:11:34.686Z</time></trkpt><trkpt lat="44.4627508" lon="11.3986058"><ele>86.0</ele><time>2026-04-30T12:11:35.691Z</time></trkpt><trkpt lat="44.4628299" lon="11.3986944"><ele>86.0</ele><time>2026-04-30T12:11:36.69Z</time></trkpt><trkpt lat="44.4629085" lon="11.3987817"><ele>86.0</ele><time>2026-04-30T12:11:37.678Z</time></trkpt><trkpt lat="44.4629871" lon="11.3988692"><ele>86.0</ele><time>2026-04-30T12:11:38.693Z</time></trkpt><trkpt lat="44.4630655" lon="11.398956"><ele>86.0</ele><time>2026-04-30T12:11:39.692Z</time></trkpt><trkpt lat="44.4631434" lon="11.3990413"><ele>86.0</ele><time>2026-04-30T12:11:40.68Z</time></trkpt><trkpt lat="44.4632213" lon="11.3991279"><ele>85.8</ele><time>2026-04-30T12:11:41.687Z</time></trkpt><trkpt lat="44.463298" lon="11.3992139"><ele>85.6</ele><time>2026-04-30T12:11:42.682Z</time></trkpt><trkpt lat="44.4633753" lon="11.3992999"><ele>85.4</ele><time>2026-04-30T12:11:43.683Z</time></trkpt><trkpt lat="44.4634509" lon="11.3993829"><ele>85.2</ele><time>2026-04-30T12:11:44.69Z</time></trkpt><trkpt lat="44.4635253" lon="11.399466"><ele>85.0</ele><time>2026-04-30T12:11:45.686Z</time></trkpt><trkpt lat="44.4635976" lon="11.3995477"><ele>85.0</ele><time>2026-04-30T12:11:46.686Z</time></trkpt><trkpt lat="44.4636697" lon="11.399627"><ele>85.0</ele><time>2026-04-30T12:11:47.69Z</time></trkpt><trkpt lat="44.4637362" lon="11.3996999"><ele>85.0</ele><time>2026-04-30T12:11:48.694Z</time></trkpt><trkpt lat="44.4637952" lon="11.3997661"><ele>85.0</ele><time>2026-04-30T12:11:49.685Z</time></trkpt><trkpt lat="44.4638465" lon="11.3998204"><ele>85.0</ele><time>2026-04-30T12:11:50.687Z</time></trkpt><trkpt lat="44.4639414" lon="11.3999056"><ele>85.0</ele><time>2026-04-30T12:11:52.686Z</time></trkpt><trkpt lat="44.4640304" lon="11.3999808"><ele>84.16666666666666</ele><time>2026-04-30T12:11:54.686Z</time></trkpt><trkpt lat="44.4641131" lon="11.4000626"><ele>83.33333333333333</ele><time>2026-04-30T12:11:56.687Z</time></trkpt><trkpt lat="44.4641811" lon="11.400137"><ele>82.5</ele><time>2026-04-30T12:11:58.69Z</time></trkpt><trkpt lat="44.4642161" lon="11.400225"><ele>81.66666666666667</ele><time>2026-04-30T12:12:00.692Z</time></trkpt><trkpt lat="44.4642388" lon="11.4003227"><ele>80.83333333333334</ele><time>2026-04-30T12:12:02.682Z</time></trkpt><trkpt lat="44.4642159" lon="11.4004233"><ele>80.0</ele><time>2026-04-30T12:12:04.687Z</time></trkpt><trkpt lat="44.4641562" lon="11.4005269"><ele>80.0</ele><time>2026-04-30T12:12:06.689Z</time></trkpt><trkpt lat="44.464087" lon="11.4006352"><ele>80.0</ele><time>2026-04-30T12:12:08.686Z</time></trkpt><trkpt lat="44.4640049" lon="11.4007492"><ele>80.0</ele><time>2026-04-30T12:12:10.68Z</time></trkpt><trkpt lat="44.4639168" lon="11.4008633"><ele>80.0</ele><time>2026-04-30T12:12:12.689Z</time></trkpt><trkpt lat="44.4638225" lon="11.4009811"><ele>80.125</ele><time>2026-04-30T12:12:14.69Z</time></trkpt><trkpt lat="44.4637749" lon="11.4010424"><ele>80.25</ele><time>2026-04-30T12:12:15.687Z</time></trkpt><trkpt lat="44.4637299" lon="11.4011051"><ele>80.375</ele><time>2026-04-30T12:12:16.682Z</time></trkpt><trkpt lat="44.4636825" lon="11.4011657"><ele>80.5</ele><time>2026-04-30T12:12:17.69Z</time></trkpt><trkpt lat="44.4636343" lon="11.4012292"><ele>80.625</ele><time>2026-04-30T12:12:18.683Z</time></trkpt><trkpt lat="44.4635886" lon="11.4012904"><ele>80.75</ele><time>2026-04-30T12:12:19.683Z</time></trkpt><trkpt lat="44.4635459" lon="11.4013557"><ele>80.875</ele><time>2026-04-30T12:12:20.693Z</time></trkpt><trkpt lat="44.4635026" lon="11.4014218"><ele>81.0</ele><time>2026-04-30T12:12:21.702Z</time></trkpt><trkpt lat="44.4634266" lon="11.4015519"><ele>80.25</ele><time>2026-04-30T12:12:23.684Z</time></trkpt><trkpt lat="44.4633548" lon="11.401686"><ele>79.5</ele><time>2026-04-30T12:12:25.681Z</time></trkpt><trkpt lat="44.463288" lon="11.4018249"><ele>78.75</ele><time>2026-04-30T12:12:27.682Z</time></trkpt><trkpt lat="44.4632217" lon="11.4019633"><ele>78.0</ele><time>2026-04-30T12:12:29.684Z</time></trkpt><trkpt lat="44.4631689" lon="11.4020886"><ele>78.0</ele><time>2026-04-30T12:12:31.687Z</time></trkpt><trkpt lat="44.4631264" lon="11.4022085"><ele>78.0</ele><time>2026-04-30T12:12:33.686Z</time></trkpt><trkpt lat="44.4630662" lon="11.4023045"><ele>78.0</ele><time>2026-04-30T12:12:35.683Z</time></trkpt><trkpt lat="44.4630086" lon="11.4024023"><ele>78.0</ele><time>2026-04-30T12:12:37.682Z</time></trkpt><trkpt lat="44.4629586" lon="11.40251"><ele>78.0</ele><time>2026-04-30T12:12:39.679Z</time></trkpt><trkpt lat="44.4629105" lon="11.4026212"><ele>78.0</ele><time>2026-04-30T12:12:41.683Z</time></trkpt><trkpt lat="44.4628582" lon="11.4027353"><ele>78.0</ele><time>2026-04-30T12:12:43.68Z</time></trkpt><trkpt lat="44.4628008" lon="11.4028542"><ele>78.0</ele><time>2026-04-30T12:12:45.683Z</time></trkpt><trkpt lat="44.4627432" lon="11.4029741"><ele>78.0</ele><time>2026-04-30T12:12:47.686Z</time></trkpt><trkpt lat="44.4626935" lon="11.4030926"><ele>78.0</ele><time>2026-04-30T12:12:49.69Z</time></trkpt><trkpt lat="44.4626452" lon="11.4032083"><ele>78.16666666666667</ele><time>2026-04-30T12:12:51.694Z</time></trkpt><trkpt lat="44.4625932" lon="11.4033053"><ele>78.33333333333333</ele><time>2026-04-30T12:12:53.68Z</time></trkpt><trkpt lat="44.4625345" lon="11.4033943"><ele>78.5</ele><time>2026-04-30T12:12:55.697Z</time></trkpt><trkpt lat="44.4624671" lon="11.4034718"><ele>78.66666666666666</ele><time>2026-04-30T12:12:57.68Z</time></trkpt><trkpt lat="44.4623978" lon="11.4035424"><ele>78.83333333333333</ele><time>2026-04-30T12:12:59.69Z</time></trkpt><trkpt lat="44.4623241" lon="11.4036096"><ele>79.0</ele><time>2026-04-30T12:13:01.684Z</time></trkpt><trkpt lat="44.4622435" lon="11.4036652"><ele>79.0</ele><time>2026-04-30T12:13:03.677Z</time></trkpt><trkpt lat="44.4621622" lon="11.4037137"><ele>79.0</ele><time>2026-04-30T12:13:05.679Z</time></trkpt><trkpt lat="44.4620788" lon="11.403754"><ele>79.0</ele><time>2026-04-30T12:13:07.686Z</time></trkpt><trkpt lat="44.4619949" lon="11.4037922"><ele>79.0</ele><time>2026-04-30T12:13:09.672Z</time></trkpt><trkpt lat="44.46191" lon="11.4038332"><ele>79.0</ele><time>2026-04-30T12:13:11.689Z</time></trkpt><trkpt lat="44.4618281" lon="11.4038737"><ele>79.0</ele><time>2026-04-30T12:13:13.685Z</time></trkpt><trkpt lat="44.4617442" lon="11.403912"><ele>80.2</ele><time>2026-04-30T12:13:15.692Z</time></trkpt><trkpt lat="44.461654" lon="11.4039494"><ele>81.4</ele><time>2026-04-30T12:13:17.687Z</time></trkpt><trkpt lat="44.4615666" lon="11.403991"><ele>82.6</ele><time>2026-04-30T12:13:19.691Z</time></trkpt><trkpt lat="44.461478" lon="11.4040332"><ele>83.8</ele><time>2026-04-30T12:13:21.679Z</time></trkpt><trkpt lat="44.4613885" lon="11.4040709"><ele>85.0</ele><time>2026-04-30T12:13:23.692Z</time></trkpt><trkpt lat="44.4613014" lon="11.4041098"><ele>85.0</ele><time>2026-04-30T12:13:25.682Z</time></trkpt><trkpt lat="44.4612086" lon="11.4041553"><ele>85.0</ele><time>2026-04-30T12:13:27.688Z</time></trkpt><trkpt lat="44.461116" lon="11.4041989"><ele>85.0</ele><time>2026-04-30T12:13:29.684Z</time></trkpt><trkpt lat="44.4610309" lon="11.4042359"><ele>85.0</ele><time>2026-04-30T12:13:31.688Z</time></trkpt><trkpt lat="44.4609513" lon="11.4042775"><ele>85.0</ele><time>2026-04-30T12:13:33.697Z</time></trkpt><trkpt lat="44.460874" lon="11.4043236"><ele>85.0</ele><time>2026-04-30T12:13:35.69Z</time></trkpt><trkpt lat="44.4607939" lon="11.4043727"><ele>85.0</ele><time>2026-04-30T12:13:37.684Z</time></trkpt><trkpt lat="44.4607111" lon="11.4044248"><ele>85.0</ele><time>2026-04-30T12:13:39.682Z</time></trkpt><trkpt lat="44.460629" lon="11.4044815"><ele>85.0</ele><time>2026-04-30T12:13:41.694Z</time></trkpt><trkpt lat="44.4605483" lon="11.4045417"><ele>85.0</ele><time>2026-04-30T12:13:43.694Z</time></trkpt><trkpt lat="44.4604655" lon="11.404603"><ele>85.4</ele><time>2026-04-30T12:13:45.692Z</time></trkpt><trkpt lat="44.4603807" lon="11.4046676"><ele>85.8</ele><time>2026-04-30T12:13:47.678Z</time></trkpt><trkpt lat="44.4602995" lon="11.4047376"><ele>86.19999999999999</ele><time>2026-04-30T12:13:49.673Z</time></trkpt><trkpt lat="44.4602193" lon="11.404812"><ele>86.6</ele><time>2026-04-30T12:13:51.686Z</time></trkpt><trkpt lat="44.4601393" lon="11.4048796"><ele>87.0</ele><time>2026-04-30T12:13:53.688Z</time></trkpt><trkpt lat="44.4600587" lon="11.4049458"><ele>87.0</ele><time>2026-04-30T12:13:55.685Z</time></trkpt><trkpt lat="44.4599753" lon="11.4050106"><ele>87.0</ele><time>2026-04-30T12:13:57.69Z</time></trkpt><trkpt lat="44.4598864" lon="11.4050703"><ele>87.0</ele><time>2026-04-30T12:13:59.691Z</time></trkpt><trkpt lat="44.4597971" lon="11.4051285"><ele>87.0</ele><time>2026-04-30T12:14:01.682Z</time></trkpt><trkpt lat="44.4597025" lon="11.405182"><ele>87.0</ele><time>2026-04-30T12:14:03.687Z</time></trkpt><trkpt lat="44.4596033" lon="11.4052334"><ele>87.75</ele><time>2026-04-30T12:14:05.687Z</time></trkpt><trkpt lat="44.4594939" lon="11.4052747"><ele>88.5</ele><time>2026-04-30T12:14:07.684Z</time></trkpt><trkpt lat="44.4593783" lon="11.4053066"><ele>89.25</ele><time>2026-04-30T12:14:09.691Z</time></trkpt><trkpt lat="44.4592564" lon="11.40533"><ele>90.0</ele><time>2026-04-30T12:14:11.681Z</time></trkpt><trkpt lat="44.459132" lon="11.4053557"><ele>90.0</ele><time>2026-04-30T12:14:13.687Z</time></trkpt><trkpt lat="44.4590691" lon="11.4053687"><ele>90.0</ele><time>2026-04-30T12:14:14.687Z</time></trkpt><trkpt lat="44.4590053" lon="11.4053842"><ele>90.0</ele><time>2026-04-30T12:14:15.691Z</time></trkpt><trkpt lat="44.4589409" lon="11.4053994"><ele>90.0</ele><time>2026-04-30T12:14:16.677Z</time></trkpt><trkpt lat="44.4588752" lon="11.4054146"><ele>90.0</ele><time>2026-04-30T12:14:17.681Z</time></trkpt><trkpt lat="44.4588076" lon="11.4054326"><ele>90.0</ele><time>2026-04-30T12:14:18.69Z</time></trkpt><trkpt lat="44.4587401" lon="11.4054503"><ele>90.0</ele><time>2026-04-30T12:14:19.693Z</time></trkpt><trkpt lat="44.4586727" lon="11.4054653"><ele>90.0</ele><time>2026-04-30T12:14:20.69Z</time></trkpt><trkpt lat="44.4586073" lon="11.4054785"><ele>90.0</ele><time>2026-04-30T12:14:21.678Z</time></trkpt><trkpt lat="44.458542" lon="11.4054946"><ele>90.0</ele><time>2026-04-30T12:14:22.696Z</time></trkpt><trkpt lat="44.4584759" lon="11.4055119"><ele>90.0</ele><time>2026-04-30T12:14:23.688Z</time></trkpt><trkpt lat="44.4584104" lon="11.4055262"><ele>90.0</ele><time>2026-04-30T12:14:24.681Z</time></trkpt><trkpt lat="44.458345" lon="11.40554"><ele>90.0</ele><time>2026-04-30T12:14:25.686Z</time></trkpt><trkpt lat="44.4582815" lon="11.4055523"><ele>90.0</ele><time>2026-04-30T12:14:26.688Z</time></trkpt><trkpt lat="44.4582171" lon="11.4055675"><ele>89.71428571428571</ele><time>2026-04-30T12:14:27.687Z</time></trkpt><trkpt lat="44.4581539" lon="11.4055848"><ele>89.42857142857143</ele><time>2026-04-30T12:14:28.679Z</time></trkpt><trkpt lat="44.4580905" lon="11.4056026"><ele>89.14285714285714</ele><time>2026-04-30T12:14:29.687Z</time></trkpt><trkpt lat="44.4580271" lon="11.405624"><ele>88.85714285714286</ele><time>2026-04-30T12:14:30.691Z</time></trkpt><trkpt lat="44.4579657" lon="11.4056533"><ele>88.57142857142857</ele><time>2026-04-30T12:14:31.686Z</time></trkpt><trkpt lat="44.4579048" lon="11.4056838"><ele>88.28571428571429</ele><time>2026-04-30T12:14:32.677Z</time></trkpt><trkpt lat="44.4578452" lon="11.4057155"><ele>88.0</ele><time>2026-04-30T12:14:33.687Z</time></trkpt><trkpt lat="44.4577497" lon="11.4057564"><ele>88.0</ele><time>2026-04-30T12:14:35.693Z</time></trkpt><trkpt lat="44.4576683" lon="11.4057795"><ele>88.0</ele><time>2026-04-30T12:14:37.679Z</time></trkpt><trkpt lat="44.4575945" lon="11.405841"><ele>88.0</ele><time>2026-04-30T12:14:39.692Z</time></trkpt><trkpt lat="44.457544" lon="11.4059532"><ele>88.0</ele><time>2026-04-30T12:14:41.678Z</time></trkpt><trkpt lat="44.4575743" lon="11.4060897"><ele>88.0</ele><time>2026-04-30T12:14:43.686Z</time></trkpt><trkpt lat="44.4576488" lon="11.4062135"><ele>86.33333333333333</ele><time>2026-04-30T12:14:45.692Z</time></trkpt><trkpt lat="44.4577232" lon="11.4063511"><ele>84.66666666666666</ele><time>2026-04-30T12:14:47.68Z</time></trkpt><trkpt lat="44.4577524" lon="11.4064308"><ele>83.0</ele><time>2026-04-30T12:14:48.686Z</time></trkpt><trkpt lat="44.4577789" lon="11.4065129"><ele>81.33333333333333</ele><time>2026-04-30T12:14:49.681Z</time></trkpt><trkpt lat="44.4578019" lon="11.4066"><ele>79.66666666666667</ele><time>2026-04-30T12:14:50.686Z</time></trkpt><trkpt lat="44.457821" lon="11.40669"><ele>78.0</ele><time>2026-04-30T12:14:51.686Z</time></trkpt><trkpt lat="44.4578476" lon="11.4068586"><ele>78.0</ele><time>2026-04-30T12:14:53.699Z</time></trkpt><trkpt lat="44.4578553" lon="11.4069471"><ele>78.0</ele><time>2026-04-30T12:14:54.701Z</time></trkpt><trkpt lat="44.457864" lon="11.4070371"><ele>78.0</ele><time>2026-04-30T12:14:55.688Z</time></trkpt><trkpt lat="44.4578757" lon="11.4071328"><ele>78.0</ele><time>2026-04-30T12:14:56.686Z</time></trkpt><trkpt lat="44.457887" lon="11.4072307"><ele>78.0</ele><time>2026-04-30T12:14:57.693Z</time></trkpt><trkpt lat="44.4578983" lon="11.407327"><ele>78.0</ele><time>2026-04-30T12:14:58.689Z</time></trkpt><trkpt lat="44.457909" lon="11.4074219"><ele>78.0</ele><time>2026-04-30T12:14:59.68Z</time></trkpt><trkpt lat="44.4579203" lon="11.4075186"><ele>77.85714285714286</ele><time>2026-04-30T12:15:00.687Z</time></trkpt><trkpt lat="44.4579303" lon="11.4076167"><ele>77.71428571428571</ele><time>2026-04-30T12:15:01.69Z</time></trkpt><trkpt lat="44.4579418" lon="11.4077158"><ele>77.57142857142857</ele><time>2026-04-30T12:15:02.683Z</time></trkpt><trkpt lat="44.4579527" lon="11.4078154"><ele>77.42857142857143</ele><time>2026-04-30T12:15:03.688Z</time></trkpt><trkpt lat="44.4579651" lon="11.4079155"><ele>77.28571428571428</ele><time>2026-04-30T12:15:04.687Z</time></trkpt><trkpt lat="44.4579769" lon="11.4080173"><ele>77.14285714285714</ele><time>2026-04-30T12:15:05.684Z</time></trkpt><trkpt lat="44.4579891" lon="11.4081191"><ele>77.0</ele><time>2026-04-30T12:15:06.688Z</time></trkpt><trkpt lat="44.4580022" lon="11.4082217"><ele>76.83333333333334</ele><time>2026-04-30T12:15:07.686Z</time></trkpt><trkpt lat="44.4580178" lon="11.4083243"><ele>76.66666666666667</ele><time>2026-04-30T12:15:08.679Z</time></trkpt><trkpt lat="44.4580355" lon="11.4084257"><ele>76.5</ele><time>2026-04-30T12:15:09.7Z</time></trkpt><trkpt lat="44.4580564" lon="11.4085262"><ele>76.33333333333333</ele><time>2026-04-30T12:15:10.697Z</time></trkpt><trkpt lat="44.4580812" lon="11.4086263"><ele>76.16666666666666</ele><time>2026-04-30T12:15:11.688Z</time></trkpt><trkpt lat="44.4581082" lon="11.408725"><ele>76.0</ele><time>2026-04-30T12:15:12.696Z</time></trkpt><trkpt lat="44.4581382" lon="11.4088223"><ele>76.16666666666666</ele><time>2026-04-30T12:15:13.685Z</time></trkpt><trkpt lat="44.4581721" lon="11.4089198"><ele>76.33333333333333</ele><time>2026-04-30T12:15:14.685Z</time></trkpt><trkpt lat="44.4582087" lon="11.4090156"><ele>76.5</ele><time>2026-04-30T12:15:15.682Z</time></trkpt><trkpt lat="44.4582479" lon="11.4091105"><ele>76.66666666666667</ele><time>2026-04-30T12:15:16.675Z</time></trkpt><trkpt lat="44.4582886" lon="11.4092037"><ele>76.83333333333334</ele><time>2026-04-30T12:15:17.662Z</time></trkpt><trkpt lat="44.458332" lon="11.4092953"><ele>77.0</ele><time>2026-04-30T12:15:18.679Z</time></trkpt><trkpt lat="44.4583801" lon="11.4093849"><ele>77.0</ele><time>2026-04-30T12:15:19.665Z</time></trkpt><trkpt lat="44.4584309" lon="11.4094702"><ele>77.0</ele><time>2026-04-30T12:15:20.682Z</time></trkpt><trkpt lat="44.4584832" lon="11.4095526"><ele>77.0</ele><time>2026-04-30T12:15:21.675Z</time></trkpt><trkpt lat="44.4585383" lon="11.4096319"><ele>77.0</ele><time>2026-04-30T12:15:22.677Z</time></trkpt><trkpt lat="44.4585957" lon="11.4097088"><ele>77.0</ele><time>2026-04-30T12:15:23.673Z</time></trkpt><trkpt lat="44.4586555" lon="11.409781"><ele>77.0</ele><time>2026-04-30T12:15:24.684Z</time></trkpt><trkpt lat="44.4587162" lon="11.4098514"><ele>76.83333333333334</ele><time>2026-04-30T12:15:25.681Z</time></trkpt><trkpt lat="44.4587786" lon="11.4099208"><ele>76.66666666666667</ele><time>2026-04-30T12:15:26.69Z</time></trkpt><trkpt lat="44.4588427" lon="11.4099878"><ele>76.5</ele><time>2026-04-30T12:15:27.676Z</time></trkpt><trkpt lat="44.4589069" lon="11.4100565"><ele>76.33333333333333</ele><time>2026-04-30T12:15:28.689Z</time></trkpt><trkpt lat="44.4589719" lon="11.4101253"><ele>76.16666666666666</ele><time>2026-04-30T12:15:29.681Z</time></trkpt><trkpt lat="44.4590375" lon="11.4101938"><ele>76.0</ele><time>2026-04-30T12:15:30.687Z</time></trkpt><trkpt lat="44.4591029" lon="11.4102631"><ele>76.0</ele><time>2026-04-30T12:15:31.669Z</time></trkpt><trkpt lat="44.4591685" lon="11.4103328"><ele>76.0</ele><time>2026-04-30T12:15:32.687Z</time></trkpt><trkpt lat="44.4592324" lon="11.4104007"><ele>76.0</ele><time>2026-04-30T12:15:33.678Z</time></trkpt><trkpt lat="44.4592955" lon="11.4104669"><ele>76.0</ele><time>2026-04-30T12:15:34.684Z</time></trkpt><trkpt lat="44.4593567" lon="11.4105317"><ele>76.0</ele><time>2026-04-30T12:15:35.68Z</time></trkpt><trkpt lat="44.4594174" lon="11.4105956"><ele>76.0</ele><time>2026-04-30T12:15:36.681Z</time></trkpt><trkpt lat="44.4594774" lon="11.4106587"><ele>76.0</ele><time>2026-04-30T12:15:37.685Z</time></trkpt><trkpt lat="44.4595361" lon="11.4107194"><ele>76.0</ele><time>2026-04-30T12:15:38.683Z</time></trkpt><trkpt lat="44.4595945" lon="11.4107791"><ele>76.0</ele><time>2026-04-30T12:15:39.689Z</time></trkpt><trkpt lat="44.4596529" lon="11.410838"><ele>76.0</ele><time>2026-04-30T12:15:40.681Z</time></trkpt><trkpt lat="44.4597122" lon="11.4108987"><ele>76.0</ele><time>2026-04-30T12:15:41.68Z</time></trkpt><trkpt lat="44.4597707" lon="11.4109613"><ele>76.0</ele><time>2026-04-30T12:15:42.692Z</time></trkpt><trkpt lat="44.4598304" lon="11.4110238"><ele>76.0</ele><time>2026-04-30T12:15:43.678Z</time></trkpt><trkpt lat="44.4598897" lon="11.4110874"><ele>76.0</ele><time>2026-04-30T12:15:44.675Z</time></trkpt><trkpt lat="44.4599482" lon="11.4111509"><ele>76.0</ele><time>2026-04-30T12:15:45.685Z</time></trkpt><trkpt lat="44.4600084" lon="11.4112133"><ele>76.0</ele><time>2026-04-30T12:15:46.686Z</time></trkpt><trkpt lat="44.4600682" lon="11.4112757"><ele>76.0</ele><time>2026-04-30T12:15:47.686Z</time></trkpt><trkpt lat="44.4601282" lon="11.4113382"><ele>76.0</ele><time>2026-04-30T12:15:48.68Z</time></trkpt><trkpt lat="44.4601877" lon="11.4114002"><ele>76.0</ele><time>2026-04-30T12:15:49.687Z</time></trkpt><trkpt lat="44.4602472" lon="11.4114632"><ele>76.0</ele><time>2026-04-30T12:15:50.685Z</time></trkpt><trkpt lat="44.4603061" lon="11.4115267"><ele>75.83333333333333</ele><time>2026-04-30T12:15:51.68Z</time></trkpt><trkpt lat="44.4603638" lon="11.4115873"><ele>75.66666666666666</ele><time>2026-04-30T12:15:52.695Z</time></trkpt><trkpt lat="44.4604238" lon="11.4116503"><ele>75.5</ele><time>2026-04-30T12:15:53.69Z</time></trkpt><trkpt lat="44.4604835" lon="11.4117136"><ele>75.33333333333333</ele><time>2026-04-30T12:15:54.687Z</time></trkpt><trkpt lat="44.460544" lon="11.4117768"><ele>75.16666666666667</ele><time>2026-04-30T12:15:55.689Z</time></trkpt><trkpt lat="44.4606054" lon="11.4118418"><ele>75.0</ele><time>2026-04-30T12:15:56.689Z</time></trkpt><trkpt lat="44.4606668" lon="11.4119067"><ele>74.16666666666667</ele><time>2026-04-30T12:15:57.683Z</time></trkpt><trkpt lat="44.4607298" lon="11.4119716"><ele>73.33333333333333</ele><time>2026-04-30T12:15:58.687Z</time></trkpt><trkpt lat="44.4607931" lon="11.4120373"><ele>72.5</ele><time>2026-04-30T12:15:59.69Z</time></trkpt><trkpt lat="44.4608576" lon="11.4121038"><ele>71.66666666666666</ele><time>2026-04-30T12:16:00.679Z</time></trkpt><trkpt lat="44.4609211" lon="11.4121709"><ele>70.83333333333333</ele><time>2026-04-30T12:16:01.682Z</time></trkpt><trkpt lat="44.460985" lon="11.4122378"><ele>70.0</ele><time>2026-04-30T12:16:02.686Z</time></trkpt><trkpt lat="44.4610489" lon="11.4123049"><ele>69.83333333333333</ele><time>2026-04-30T12:16:03.694Z</time></trkpt><trkpt lat="44.461112" lon="11.4123718"><ele>69.66666666666666</ele><time>2026-04-30T12:16:04.697Z</time></trkpt><trkpt lat="44.4611761" lon="11.4124378"><ele>69.5</ele><time>2026-04-30T12:16:05.682Z</time></trkpt><trkpt lat="44.4612404" lon="11.4125042"><ele>69.33333333333333</ele><time>2026-04-30T12:16:06.685Z</time></trkpt><trkpt lat="44.4613047" lon="11.412572"><ele>69.16666666666667</ele><time>2026-04-30T12:16:07.686Z</time></trkpt><trkpt lat="44.4613684" lon="11.4126397"><ele>69.0</ele><time>2026-04-30T12:16:08.688Z</time></trkpt><trkpt lat="44.461431" lon="11.4127064"><ele>68.85714285714286</ele><time>2026-04-30T12:16:09.692Z</time></trkpt><trkpt lat="44.4614928" lon="11.4127722"><ele>68.71428571428572</ele><time>2026-04-30T12:16:10.677Z</time></trkpt><trkpt lat="44.4615546" lon="11.412835"><ele>68.57142857142857</ele><time>2026-04-30T12:16:11.685Z</time></trkpt><trkpt lat="44.4616154" lon="11.4128965"><ele>68.42857142857143</ele><time>2026-04-30T12:16:12.682Z</time></trkpt><trkpt lat="44.4616743" lon="11.4129577"><ele>68.28571428571428</ele><time>2026-04-30T12:16:13.684Z</time></trkpt><trkpt lat="44.4617319" lon="11.4130182"><ele>68.14285714285714</ele><time>2026-04-30T12:16:14.685Z</time></trkpt><trkpt lat="44.4617876" lon="11.4130784"><ele>68.0</ele><time>2026-04-30T12:16:15.686Z</time></trkpt><trkpt lat="44.461843" lon="11.4131383"><ele>67.99999999999999</ele><time>2026-04-30T12:16:16.686Z</time></trkpt><trkpt lat="44.4618984" lon="11.4131986"><ele>68.0</ele><time>2026-04-30T12:16:17.681Z</time></trkpt><trkpt lat="44.4619553" lon="11.413258"><ele>68.0</ele><time>2026-04-30T12:16:18.688Z</time></trkpt><trkpt lat="44.4620122" lon="11.4133182"><ele>68.0</ele><time>2026-04-30T12:16:19.682Z</time></trkpt><trkpt lat="44.4620694" lon="11.4133775"><ele>68.0</ele><time>2026-04-30T12:16:20.688Z</time></trkpt><trkpt lat="44.4621262" lon="11.4134371"><ele>67.99999999999999</ele><time>2026-04-30T12:16:21.686Z</time></trkpt><trkpt lat="44.4621826" lon="11.4134968"><ele>68.0</ele><time>2026-04-30T12:16:22.692Z</time></trkpt><trkpt lat="44.4622386" lon="11.4135558"><ele>67.99999999999999</ele><time>2026-04-30T12:16:23.688Z</time></trkpt><trkpt lat="44.462295" lon="11.4136159"><ele>68.0</ele><time>2026-04-30T12:16:24.68Z</time></trkpt><trkpt lat="44.4623527" lon="11.413675"><ele>68.0</ele><time>2026-04-30T12:16:25.693Z</time></trkpt><trkpt lat="44.4624103" lon="11.4137347"><ele>68.0</ele><time>2026-04-30T12:16:26.684Z</time></trkpt><trkpt lat="44.4624668" lon="11.4137924"><ele>68.0</ele><time>2026-04-30T12:16:27.678Z</time></trkpt><trkpt lat="44.4625219" lon="11.4138503"><ele>67.99999999999999</ele><time>2026-04-30T12:16:28.695Z</time></trkpt><trkpt lat="44.462576" lon="11.4139062"><ele>68.0</ele><time>2026-04-30T12:16:29.685Z</time></trkpt><trkpt lat="44.4626277" lon="11.4139605"><ele>67.8</ele><time>2026-04-30T12:16:30.692Z</time></trkpt><trkpt lat="44.4627286" lon="11.4140638"><ele>67.6</ele><time>2026-04-30T12:16:32.683Z</time></trkpt><trkpt lat="44.4628122" lon="11.4141833"><ele>67.4</ele><time>2026-04-30T12:16:34.69Z</time></trkpt><trkpt lat="44.4628733" lon="11.4143116"><ele>67.2</ele><time>2026-04-30T12:16:36.692Z</time></trkpt><trkpt lat="44.4629386" lon="11.4143814"><ele>67.0</ele><time>2026-04-30T12:16:38.676Z</time></trkpt><trkpt lat="44.4630231" lon="11.4143922"><ele>67.0</ele><time>2026-04-30T12:16:40.691Z</time></trkpt><trkpt lat="44.4631221" lon="11.4143324"><ele>67.0</ele><time>2026-04-30T12:16:42.689Z</time></trkpt><trkpt lat="44.4632177" lon="11.4142406"><ele>67.0</ele><time>2026-04-30T12:16:44.687Z</time></trkpt><trkpt lat="44.463306" lon="11.4141321"><ele>67.0</ele><time>2026-04-30T12:16:46.691Z</time></trkpt><trkpt lat="44.4633927" lon="11.4140079"><ele>67.0</ele><time>2026-04-30T12:16:48.69Z</time></trkpt><trkpt lat="44.4634589" lon="11.4138595"><ele>67.0</ele><time>2026-04-30T12:16:50.682Z</time></trkpt><trkpt lat="44.4634909" lon="11.4137831"><ele>67.0</ele><time>2026-04-30T12:16:51.692Z</time></trkpt><trkpt lat="44.4635513" lon="11.4136268"><ele>67.0</ele><time>2026-04-30T12:16:53.683Z</time></trkpt><trkpt lat="44.4635822" lon="11.4135486"><ele>67.0</ele><time>2026-04-30T12:16:54.684Z</time></trkpt><trkpt lat="44.4636126" lon="11.4134686"><ele>67.0</ele><time>2026-04-30T12:16:55.684Z</time></trkpt><trkpt lat="44.463642" lon="11.4133865"><ele>67.0</ele><time>2026-04-30T12:16:56.678Z</time></trkpt><trkpt lat="44.4636746" lon="11.4133055"><ele>67.0</ele><time>2026-04-30T12:16:57.68Z</time></trkpt><trkpt lat="44.463705" lon="11.4132237"><ele>67.0</ele><time>2026-04-30T12:16:58.675Z</time></trkpt><trkpt lat="44.4637361" lon="11.4131434"><ele>67.0</ele><time>2026-04-30T12:16:59.672Z</time></trkpt><trkpt lat="44.4637666" lon="11.413062"><ele>67.0</ele><time>2026-04-30T12:17:00.682Z</time></trkpt><trkpt lat="44.4637972" lon="11.4129813"><ele>67.0</ele><time>2026-04-30T12:17:01.68Z</time></trkpt><trkpt lat="44.463828" lon="11.4128995"><ele>67.0</ele><time>2026-04-30T12:17:02.686Z</time></trkpt><trkpt lat="44.4638573" lon="11.412817"><ele>67.14285714285714</ele><time>2026-04-30T12:17:03.676Z</time></trkpt><trkpt lat="44.4638899" lon="11.4127363"><ele>67.28571428571428</ele><time>2026-04-30T12:17:04.684Z</time></trkpt><trkpt lat="44.4639206" lon="11.4126554"><ele>67.42857142857142</ele><time>2026-04-30T12:17:05.679Z</time></trkpt><trkpt lat="44.4639517" lon="11.4125743"><ele>67.57142857142857</ele><time>2026-04-30T12:17:06.679Z</time></trkpt><trkpt lat="44.4639823" lon="11.4124938"><ele>67.71428571428571</ele><time>2026-04-30T12:17:07.677Z</time></trkpt><trkpt lat="44.4640147" lon="11.4124125"><ele>67.85714285714285</ele><time>2026-04-30T12:17:08.681Z</time></trkpt><trkpt lat="44.464047" lon="11.412331"><ele>68.0</ele><time>2026-04-30T12:17:09.68Z</time></trkpt><trkpt lat="44.4640783" lon="11.412251"><ele>67.99999999999999</ele><time>2026-04-30T12:17:10.692Z</time></trkpt><trkpt lat="44.4641097" lon="11.4121723"><ele>68.0</ele><time>2026-04-30T12:17:11.681Z</time></trkpt><trkpt lat="44.4641402" lon="11.4120921"><ele>68.0</ele><time>2026-04-30T12:17:12.68Z</time></trkpt><trkpt lat="44.4641713" lon="11.4120131"><ele>68.0</ele><time>2026-04-30T12:17:13.685Z</time></trkpt><trkpt lat="44.4642035" lon="11.4119354"><ele>68.0</ele><time>2026-04-30T12:17:14.69Z</time></trkpt><trkpt lat="44.4642343" lon="11.4118569"><ele>67.99999999999999</ele><time>2026-04-30T12:17:15.687Z</time></trkpt><trkpt lat="44.4642644" lon="11.4117788"><ele>68.0</ele><time>2026-04-30T12:17:16.689Z</time></trkpt><trkpt lat="44.4643181" lon="11.4116204"><ele>67.8</ele><time>2026-04-30T12:17:18.679Z</time></trkpt><trkpt lat="44.4643739" lon="11.4114634"><ele>67.6</ele><time>2026-04-30T12:17:20.68Z</time></trkpt><trkpt lat="44.4644147" lon="11.4113271"><ele>67.4</ele><time>2026-04-30T12:17:22.681Z</time></trkpt><trkpt lat="44.4644422" lon="11.4112177"><ele>67.2</ele><time>2026-04-30T12:17:24.692Z</time></trkpt><trkpt lat="44.4644751" lon="11.4111242"><ele>67.0</ele><time>2026-04-30T12:17:26.675Z</time></trkpt><trkpt lat="44.4644994" lon="11.4110358"><ele>66.83333333333333</ele><time>2026-04-30T12:17:30.688Z</time></trkpt><trkpt lat="44.4645493" lon="11.4109668"><ele>66.66666666666666</ele><time>2026-04-30T12:18:20.677Z</time></trkpt><trkpt lat="44.4645786" lon="11.4108687"><ele>66.5</ele><time>2026-04-30T12:18:22.692Z</time></trkpt><trkpt lat="44.4645997" lon="11.4107412"><ele>66.33333333333333</ele><time>2026-04-30T12:18:24.681Z</time></trkpt><trkpt lat="44.4646004" lon="11.4106034"><ele>66.16666666666667</ele><time>2026-04-30T12:18:26.681Z</time></trkpt><trkpt lat="44.4645556" lon="11.4105106"><ele>66.0</ele><time>2026-04-30T12:18:28.688Z</time></trkpt><trkpt lat="44.4644958" lon="11.4104678"><ele>66.0</ele><time>2026-04-30T12:18:30.683Z</time></trkpt><trkpt lat="44.4644345" lon="11.4104314"><ele>66.0</ele><time>2026-04-30T12:18:33.673Z</time></trkpt><trkpt lat="44.4643765" lon="11.4103857"><ele>66.0</ele><time>2026-04-30T12:19:05.673Z</time></trkpt><trkpt lat="44.4643259" lon="11.4103188"><ele>66.0</ele><time>2026-04-30T12:19:07.686Z</time></trkpt><trkpt lat="44.4642567" lon="11.4102451"><ele>66.0</ele><time>2026-04-30T12:19:09.689Z</time></trkpt><trkpt lat="44.4641767" lon="11.4101682"><ele>66.0</ele><time>2026-04-30T12:19:11.682Z</time></trkpt><trkpt lat="44.4640925" lon="11.4101006"><ele>66.0</ele><time>2026-04-30T12:19:13.685Z</time></trkpt><trkpt lat="44.4640099" lon="11.4100354"><ele>66.0</ele><time>2026-04-30T12:19:15.679Z</time></trkpt><trkpt lat="44.4639312" lon="11.4099553"><ele>66.0</ele><time>2026-04-30T12:19:17.681Z</time></trkpt><trkpt lat="44.4638514" lon="11.4098717"><ele>66.0</ele><time>2026-04-30T12:19:19.681Z</time></trkpt><trkpt lat="44.4637678" lon="11.4097928"><ele>66.0</ele><time>2026-04-30T12:19:21.688Z</time></trkpt><trkpt lat="44.4636832" lon="11.4097151"><ele>66.6</ele><time>2026-04-30T12:19:23.688Z</time></trkpt><trkpt lat="44.4635954" lon="11.4096378"><ele>67.19999999999999</ele><time>2026-04-30T12:19:25.687Z</time></trkpt><trkpt lat="44.4635103" lon="11.4095559"><ele>67.80000000000001</ele><time>2026-04-30T12:19:27.681Z</time></trkpt><trkpt lat="44.4634228" lon="11.4094783"><ele>68.4</ele><time>2026-04-30T12:19:29.684Z</time></trkpt><trkpt lat="44.4633385" lon="11.4093989"><ele>69.0</ele><time>2026-04-30T12:19:31.693Z</time></trkpt><trkpt lat="44.4632547" lon="11.4093205"><ele>69.0</ele><time>2026-04-30T12:19:33.692Z</time></trkpt><trkpt lat="44.4631685" lon="11.4092454"><ele>69.0</ele><time>2026-04-30T12:19:35.683Z</time></trkpt><trkpt lat="44.4630868" lon="11.409173"><ele>69.0</ele><time>2026-04-30T12:19:37.684Z</time></trkpt><trkpt lat="44.4630082" lon="11.4090994"><ele>69.0</ele><time>2026-04-30T12:19:39.682Z</time></trkpt><trkpt lat="44.4629705" lon="11.4089907"><ele>69.0</ele><time>2026-04-30T12:19:41.678Z</time></trkpt><trkpt lat="44.4630072" lon="11.4088785"><ele>69.2</ele><time>2026-04-30T12:19:43.672Z</time></trkpt><trkpt lat="44.4630583" lon="11.4087737"><ele>69.4</ele><time>2026-04-30T12:19:45.679Z</time></trkpt><trkpt lat="44.4631037" lon="11.4086616"><ele>69.6</ele><time>2026-04-30T12:19:47.68Z</time></trkpt><trkpt lat="44.4631494" lon="11.4085471"><ele>69.8</ele><time>2026-04-30T12:19:49.683Z</time></trkpt><trkpt lat="44.4631974" lon="11.4084311"><ele>70.0</ele><time>2026-04-30T12:19:51.683Z</time></trkpt><trkpt lat="44.4632459" lon="11.4083142"><ele>70.0</ele><time>2026-04-30T12:19:53.683Z</time></trkpt><trkpt lat="44.4632979" lon="11.4081939"><ele>70.0</ele><time>2026-04-30T12:19:55.681Z</time></trkpt><trkpt lat="44.4633486" lon="11.4080818"><ele>70.0</ele><time>2026-04-30T12:19:57.679Z</time></trkpt><trkpt lat="44.4634034" lon="11.407976"><ele>70.0</ele><time>2026-04-30T12:19:59.691Z</time></trkpt><trkpt lat="44.4634518" lon="11.4078646"><ele>70.0</ele><time>2026-04-30T12:20:01.69Z</time></trkpt><trkpt lat="44.4634931" lon="11.407755"><ele>70.6</ele><time>2026-04-30T12:20:03.685Z</time></trkpt><trkpt lat="44.463531" lon="11.4076478"><ele>71.2</ele><time>2026-04-30T12:20:05.687Z</time></trkpt><trkpt lat="44.4635646" lon="11.4075411"><ele>71.8</ele><time>2026-04-30T12:20:07.686Z</time></trkpt><trkpt lat="44.4636117" lon="11.407427"><ele>72.4</ele><time>2026-04-30T12:20:09.685Z</time></trkpt><trkpt lat="44.4636669" lon="11.4073112"><ele>73.0</ele><time>2026-04-30T12:20:11.684Z</time></trkpt><trkpt lat="44.4637204" lon="11.4071943"><ele>73.2</ele><time>2026-04-30T12:20:13.673Z</time></trkpt><trkpt lat="44.4637724" lon="11.4070766"><ele>73.4</ele><time>2026-04-30T12:20:15.689Z</time></trkpt><trkpt lat="44.4638261" lon="11.4069624"><ele>73.60000000000001</ele><time>2026-04-30T12:20:17.674Z</time></trkpt><trkpt lat="44.4638795" lon="11.4068457"><ele>73.8</ele><time>2026-04-30T12:20:19.675Z</time></trkpt><trkpt lat="44.463935" lon="11.406731"><ele>74.0</ele><time>2026-04-30T12:20:21.685Z</time></trkpt><trkpt lat="44.4639857" lon="11.406613"><ele>74.0</ele><time>2026-04-30T12:20:23.673Z</time></trkpt><trkpt lat="44.4640342" lon="11.4064999"><ele>74.0</ele><time>2026-04-30T12:20:25.681Z</time></trkpt><trkpt lat="44.4640792" lon="11.4063947"><ele>74.0</ele><time>2026-04-30T12:20:27.691Z</time></trkpt><trkpt lat="44.464122" lon="11.4063091"><ele>74.0</ele><time>2026-04-30T12:20:29.67Z</time></trkpt><trkpt lat="44.4641793" lon="11.4062334"><ele>74.0</ele><time>2026-04-30T12:20:32.672Z</time></trkpt><trkpt lat="44.4642397" lon="11.4062701"><ele>74.0</ele><time>2026-04-30T12:20:34.684Z</time></trkpt><trkpt lat="44.4643058" lon="11.4063398"><ele>74.0</ele><time>2026-04-30T12:20:36.678Z</time></trkpt><trkpt lat="44.4643836" lon="11.4064072"><ele>74.0</ele><time>2026-04-30T12:20:38.679Z</time></trkpt><trkpt lat="44.4644639" lon="11.4064847"><ele>74.0</ele><time>2026-04-30T12:20:40.678Z</time></trkpt><trkpt lat="44.4645498" lon="11.4065619"><ele>74.0</ele><time>2026-04-30T12:20:42.682Z</time></trkpt><trkpt lat="44.4646385" lon="11.406641"><ele>74.0</ele><time>2026-04-30T12:20:44.676Z</time></trkpt><trkpt lat="44.4647292" lon="11.4067237"><ele>73.25</ele><time>2026-04-30T12:20:46.681Z</time></trkpt><trkpt lat="44.4648236" lon="11.4068075"><ele>72.5</ele><time>2026-04-30T12:20:48.685Z</time></trkpt><trkpt lat="44.4649172" lon="11.406895"><ele>71.75</ele><time>2026-04-30T12:20:50.683Z</time></trkpt><trkpt lat="44.4650147" lon="11.4069867"><ele>71.0</ele><time>2026-04-30T12:20:52.687Z</time></trkpt><trkpt lat="44.4651163" lon="11.4070835"><ele>71.0</ele><time>2026-04-30T12:20:54.679Z</time></trkpt><trkpt lat="44.4652201" lon="11.4071801"><ele>71.0</ele><time>2026-04-30T12:20:56.674Z</time></trkpt><trkpt lat="44.4653228" lon="11.4072717"><ele>71.0</ele><time>2026-04-30T12:20:58.675Z</time></trkpt><trkpt lat="44.4654234" lon="11.4073633"><ele>71.0</ele><time>2026-04-30T12:21:00.677Z</time></trkpt><trkpt lat="44.4655199" lon="11.4074552"><ele>70.2</ele><time>2026-04-30T12:21:02.685Z</time></trkpt><trkpt lat="44.465609" lon="11.4075535"><ele>69.39999999999999</ele><time>2026-04-30T12:21:04.677Z</time></trkpt><trkpt lat="44.4656966" lon="11.4076487"><ele>68.6</ele><time>2026-04-30T12:21:06.678Z</time></trkpt><trkpt lat="44.4657792" lon="11.407745"><ele>67.8</ele><time>2026-04-30T12:21:08.678Z</time></trkpt><trkpt lat="44.4658573" lon="11.4078404"><ele>67.0</ele><time>2026-04-30T12:21:10.683Z</time></trkpt><trkpt lat="44.4659198" lon="11.4079339"><ele>67.0</ele><time>2026-04-30T12:21:12.691Z</time></trkpt><trkpt lat="44.4659703" lon="11.4080119"><ele>67.0</ele><time>2026-04-30T12:21:14.669Z</time></trkpt><trkpt lat="44.4659894" lon="11.4081095"><ele>67.0</ele><time>2026-04-30T12:21:17.692Z</time></trkpt><trkpt lat="44.4660169" lon="11.4081909"><ele>67.0</ele><time>2026-04-30T12:21:21.686Z</time></trkpt><trkpt lat="44.4660858" lon="11.4081477"><ele>67.0</ele><time>2026-04-30T12:21:24.681Z</time></trkpt><trkpt lat="44.4661137" lon="11.408032"><ele>67.0</ele><time>2026-04-30T12:21:28.682Z</time></trkpt><trkpt lat="44.4661406" lon="11.4079406"><ele>67.0</ele><time>2026-04-30T12:21:30.679Z</time></trkpt><trkpt lat="44.466185" lon="11.4078418"><ele>67.0</ele><time>2026-04-30T12:21:32.671Z</time></trkpt><trkpt lat="44.4662292" lon="11.4077396"><ele>67.0</ele><time>2026-04-30T12:21:34.68Z</time></trkpt><trkpt lat="44.4662745" lon="11.4076254"><ele>67.0</ele><time>2026-04-30T12:21:36.68Z</time></trkpt><trkpt lat="44.4663223" lon="11.4075128"><ele>67.0</ele><time>2026-04-30T12:21:38.688Z</time></trkpt><trkpt lat="44.466378" lon="11.4074033"><ele>67.0</ele><time>2026-04-30T12:21:40.692Z</time></trkpt><trkpt lat="44.4664333" lon="11.4072891"><ele>67.8</ele><time>2026-04-30T12:21:42.68Z</time></trkpt><trkpt lat="44.4664876" lon="11.4071735"><ele>68.6</ele><time>2026-04-30T12:21:44.688Z</time></trkpt><trkpt lat="44.4665463" lon="11.4070585"><ele>69.39999999999999</ele><time>2026-04-30T12:21:46.687Z</time></trkpt><trkpt lat="44.4666011" lon="11.4069386"><ele>70.2</ele><time>2026-04-30T12:21:48.687Z</time></trkpt><trkpt lat="44.4666581" lon="11.406817"><ele>71.0</ele><time>2026-04-30T12:21:50.677Z</time></trkpt><trkpt lat="44.4667119" lon="11.4066967"><ele>71.0</ele><time>2026-04-30T12:21:52.679Z</time></trkpt><trkpt lat="44.4667699" lon="11.4065721"><ele>71.0</ele><time>2026-04-30T12:21:54.689Z</time></trkpt><trkpt lat="44.4668215" lon="11.406443"><ele>71.0</ele><time>2026-04-30T12:21:56.683Z</time></trkpt><trkpt lat="44.4668736" lon="11.4063217"><ele>71.0</ele><time>2026-04-30T12:21:58.68Z</time></trkpt><trkpt lat="44.4669269" lon="11.4062037"><ele>71.0</ele><time>2026-04-30T12:22:00.676Z</time></trkpt><trkpt lat="44.4669751" lon="11.4060901"><ele>71.0</ele><time>2026-04-30T12:22:02.681Z</time></trkpt><trkpt lat="44.4670049" lon="11.4059806"><ele>71.0</ele><time>2026-04-30T12:22:04.68Z</time></trkpt><trkpt lat="44.4670141" lon="11.4058873"><ele>71.0</ele><time>2026-04-30T12:22:06.678Z</time></trkpt><trkpt lat="44.4670531" lon="11.4058049"><ele>71.0</ele><time>2026-04-30T12:22:08.681Z</time></trkpt><trkpt lat="44.4671048" lon="11.4057242"><ele>71.0</ele><time>2026-04-30T12:22:10.687Z</time></trkpt><trkpt lat="44.4671475" lon="11.4056365"><ele>71.0</ele><time>2026-04-30T12:22:12.685Z</time></trkpt><trkpt lat="44.4671946" lon="11.4055303"><ele>71.0</ele><time>2026-04-30T12:22:14.679Z</time></trkpt><trkpt lat="44.4672584" lon="11.4054111"><ele>71.0</ele><time>2026-04-30T12:22:16.678Z</time></trkpt><trkpt lat="44.4673089" lon="11.4053057"><ele>71.0</ele><time>2026-04-30T12:22:18.68Z</time></trkpt><trkpt lat="44.4673614" lon="11.4051974"><ele>71.0</ele><time>2026-04-30T12:22:20.673Z</time></trkpt><trkpt lat="44.4674082" lon="11.4050922"><ele>71.0</ele><time>2026-04-30T12:22:22.684Z</time></trkpt><trkpt lat="44.4674568" lon="11.4049715"><ele>71.0</ele><time>2026-04-30T12:22:24.682Z</time></trkpt><trkpt lat="44.4674877" lon="11.4048451"><ele>71.0</ele><time>2026-04-30T12:22:26.687Z</time></trkpt><trkpt lat="44.467491" lon="11.4047239"><ele>71.0</ele><time>2026-04-30T12:22:28.688Z</time></trkpt><trkpt lat="44.4674665" lon="11.4046023"><ele>71.0</ele><time>2026-04-30T12:22:30.692Z</time></trkpt><trkpt lat="44.4674266" lon="11.4044884"><ele>71.0</ele><time>2026-04-30T12:22:32.68Z</time></trkpt><trkpt lat="44.4673756" lon="11.4043836"><ele>70.6</ele><time>2026-04-30T12:22:34.68Z</time></trkpt><trkpt lat="44.4673318" lon="11.4042735"><ele>70.19999999999999</ele><time>2026-04-30T12:22:36.689Z</time></trkpt><trkpt lat="44.4673163" lon="11.4041477"><ele>69.80000000000001</ele><time>2026-04-30T12:22:38.692Z</time></trkpt><trkpt lat="44.467343" lon="11.4040168"><ele>69.4</ele><time>2026-04-30T12:22:40.68Z</time></trkpt><trkpt lat="44.4673702" lon="11.4038869"><ele>69.0</ele><time>2026-04-30T12:22:42.681Z</time></trkpt><trkpt lat="44.4674066" lon="11.4037452"><ele>69.0</ele><time>2026-04-30T12:22:44.677Z</time></trkpt><trkpt lat="44.4674469" lon="11.4036089"><ele>69.0</ele><time>2026-04-30T12:22:46.69Z</time></trkpt><trkpt lat="44.4675043" lon="11.403502"><ele>69.0</ele><time>2026-04-30T12:22:48.696Z</time></trkpt><trkpt lat="44.4675854" lon="11.4034089"><ele>69.0</ele><time>2026-04-30T12:22:50.688Z</time></trkpt><trkpt lat="44.4676605" lon="11.4033035"><ele>69.0</ele><time>2026-04-30T12:22:52.686Z</time></trkpt><trkpt lat="44.4677372" lon="11.4031925"><ele>69.0</ele><time>2026-04-30T12:22:54.679Z</time></trkpt><trkpt lat="44.467816" lon="11.403083"><ele>69.0</ele><time>2026-04-30T12:22:56.68Z</time></trkpt><trkpt lat="44.4678994" lon="11.4029654"><ele>69.0</ele><time>2026-04-30T12:22:58.685Z</time></trkpt><trkpt lat="44.4679498" lon="11.4029113"><ele>69.0</ele><time>2026-04-30T12:22:59.684Z</time></trkpt><trkpt lat="44.4680027" lon="11.4028632"><ele>69.0</ele><time>2026-04-30T12:23:00.683Z</time></trkpt><trkpt lat="44.4680591" lon="11.4028182"><ele>69.0</ele><time>2026-04-30T12:23:01.68Z</time></trkpt><trkpt lat="44.4681173" lon="11.4027753"><ele>69.0</ele><time>2026-04-30T12:23:02.682Z</time></trkpt><trkpt lat="44.4682233" lon="11.4026816"><ele>69.0</ele><time>2026-04-30T12:23:04.687Z</time></trkpt><trkpt lat="44.4683121" lon="11.4025764"><ele>69.0</ele><time>2026-04-30T12:23:06.684Z</time></trkpt><trkpt lat="44.4683864" lon="11.4024715"><ele>69.0</ele><time>2026-04-30T12:23:08.692Z</time></trkpt><trkpt lat="44.4684569" lon="11.4023661"><ele>69.0</ele><time>2026-04-30T12:23:10.68Z</time></trkpt><trkpt lat="44.4685333" lon="11.4022723"><ele>69.0</ele><time>2026-04-30T12:23:12.684Z</time></trkpt><trkpt lat="44.4686292" lon="11.4022253"><ele>69.0</ele><time>2026-04-30T12:23:14.686Z</time></trkpt><trkpt lat="44.4687156" lon="11.4021847"><ele>69.0</ele><time>2026-04-30T12:23:16.68Z</time></trkpt><trkpt lat="44.4688076" lon="11.4021464"><ele>69.0</ele><time>2026-04-30T12:23:18.694Z</time></trkpt><trkpt lat="44.4688915" lon="11.4021163"><ele>69.0</ele><time>2026-04-30T12:23:20.695Z</time></trkpt><trkpt lat="44.4689776" lon="11.4020885"><ele>69.0</ele><time>2026-04-30T12:23:22.697Z</time></trkpt><trkpt lat="44.4690467" lon="11.402059"><ele>69.0</ele><time>2026-04-30T12:23:24.674Z</time></trkpt><trkpt lat="44.4691254" lon="11.4020291"><ele>69.0</ele><time>2026-04-30T12:23:26.693Z</time></trkpt><trkpt lat="44.4692026" lon="11.401984"><ele>69.0</ele><time>2026-04-30T12:23:28.69Z</time></trkpt><trkpt lat="44.4692851" lon="11.4019161"><ele>69.0</ele><time>2026-04-30T12:23:30.681Z</time></trkpt><trkpt lat="44.4693616" lon="11.4018404"><ele>69.0</ele><time>2026-04-30T12:23:32.681Z</time></trkpt><trkpt lat="44.4694362" lon="11.4017577"><ele>69.0</ele><time>2026-04-30T12:23:34.687Z</time></trkpt><trkpt lat="44.4695019" lon="11.401671"><ele>69.0</ele><time>2026-04-30T12:23:36.681Z</time></trkpt><trkpt lat="44.4695662" lon="11.4015946"><ele>69.0</ele><time>2026-04-30T12:23:38.676Z</time></trkpt><trkpt lat="44.4696248" lon="11.4015336"><ele>69.0</ele><time>2026-04-30T12:23:40.684Z</time></trkpt><trkpt lat="44.4696807" lon="11.4014493"><ele>69.0</ele><time>2026-04-30T12:23:42.678Z</time></trkpt><trkpt lat="44.469729" lon="11.4013387"><ele>68.60000000000001</ele><time>2026-04-30T12:23:44.688Z</time></trkpt><trkpt lat="44.4697754" lon="11.4012181"><ele>68.2</ele><time>2026-04-30T12:23:46.688Z</time></trkpt><trkpt lat="44.4698283" lon="11.4011053"><ele>67.80000000000001</ele><time>2026-04-30T12:23:48.688Z</time></trkpt><trkpt lat="44.4698765" lon="11.4010042"><ele>67.4</ele><time>2026-04-30T12:23:50.68Z</time></trkpt><trkpt lat="44.4699329" lon="11.4008992"><ele>67.0</ele><time>2026-04-30T12:23:52.683Z</time></trkpt><trkpt lat="44.4699842" lon="11.4007854"><ele>67.0</ele><time>2026-04-30T12:23:54.681Z</time></trkpt><trkpt lat="44.4700311" lon="11.40067"><ele>67.0</ele><time>2026-04-30T12:23:56.675Z</time></trkpt><trkpt lat="44.4700742" lon="11.400567"><ele>67.0</ele><time>2026-04-30T12:23:58.677Z</time></trkpt><trkpt lat="44.4701129" lon="11.4004658"><ele>67.0</ele><time>2026-04-30T12:24:00.683Z</time></trkpt><trkpt lat="44.4701308" lon="11.4003703"><ele>67.0</ele><time>2026-04-30T12:24:03.688Z</time></trkpt><trkpt lat="44.4700484" lon="11.4003139"><ele>67.0</ele><time>2026-04-30T12:24:07.684Z</time></trkpt><trkpt lat="44.4699781" lon="11.4002785"><ele>67.0</ele><time>2026-04-30T12:24:09.69Z</time></trkpt><trkpt lat="44.4699032" lon="11.4002359"><ele>67.0</ele><time>2026-04-30T12:24:11.681Z</time></trkpt><trkpt lat="44.4698309" lon="11.4001967"><ele>67.0</ele><time>2026-04-30T12:24:13.679Z</time></trkpt><trkpt lat="44.4697434" lon="11.4001391"><ele>67.0</ele><time>2026-04-30T12:24:16.68Z</time></trkpt><trkpt lat="44.4696732" lon="11.4001009"><ele>67.0</ele><time>2026-04-30T12:24:18.672Z</time></trkpt><trkpt lat="44.4695984" lon="11.4000625"><ele>67.0</ele><time>2026-04-30T12:24:20.681Z</time></trkpt><trkpt lat="44.4695257" lon="11.4000237"><ele>67.0</ele><time>2026-04-30T12:24:22.682Z</time></trkpt><trkpt lat="44.469451" lon="11.3999761"><ele>67.0</ele><time>2026-04-30T12:24:24.676Z</time></trkpt><trkpt lat="44.4693914" lon="11.399936"><ele>67.0</ele><time>2026-04-30T12:24:26.672Z</time></trkpt><trkpt lat="44.4693169" lon="11.3999035"><ele>67.0</ele><time>2026-04-30T12:24:30.684Z</time></trkpt><trkpt lat="44.4692514" lon="11.3998481"><ele>67.0</ele><time>2026-04-30T12:24:33.689Z</time></trkpt><trkpt lat="44.4691798" lon="11.3997662"><ele>67.0</ele><time>2026-04-30T12:24:36.68Z</time></trkpt><trkpt lat="44.4691212" lon="11.3997135"><ele>67.16666666666666</ele><time>2026-04-30T12:24:38.68Z</time></trkpt><trkpt lat="44.4690647" lon="11.3996534"><ele>67.33333333333333</ele><time>2026-04-30T12:24:40.676Z</time></trkpt><trkpt lat="44.4690076" lon="11.399604"><ele>67.5</ele><time>2026-04-30T12:24:42.681Z</time></trkpt><trkpt lat="44.4689381" lon="11.3995071"><ele>67.66666666666667</ele><time>2026-04-30T12:24:44.686Z</time></trkpt><trkpt lat="44.4688792" lon="11.3994253"><ele>67.83333333333334</ele><time>2026-04-30T12:24:46.683Z</time></trkpt><trkpt lat="44.4688207" lon="11.3993465"><ele>68.0</ele><time>2026-04-30T12:24:48.685Z</time></trkpt><trkpt lat="44.468759" lon="11.3992743"><ele>68.83333333333334</ele><time>2026-04-30T12:24:50.676Z</time></trkpt><trkpt lat="44.468699" lon="11.3992019"><ele>69.66666666666667</ele><time>2026-04-30T12:24:52.68Z</time></trkpt><trkpt lat="44.4686355" lon="11.3991173"><ele>70.5</ele><time>2026-04-30T12:24:54.682Z</time></trkpt><trkpt lat="44.4685744" lon="11.3990394"><ele>71.33333333333333</ele><time>2026-04-30T12:24:56.684Z</time></trkpt><trkpt lat="44.4685187" lon="11.3989643"><ele>72.16666666666666</ele><time>2026-04-30T12:24:58.679Z</time></trkpt><trkpt lat="44.4684693" lon="11.398904"><ele>73.0</ele><time>2026-04-30T12:25:00.675Z</time></trkpt><trkpt lat="44.4684043" lon="11.3988247"><ele>73.28571428571428</ele><time>2026-04-30T12:25:03.685Z</time></trkpt><trkpt lat="44.468341" lon="11.3987502"><ele>73.57142857142857</ele><time>2026-04-30T12:25:06.68Z</time></trkpt><trkpt lat="44.4682925" lon="11.398688"><ele>73.85714285714286</ele><time>2026-04-30T12:25:08.682Z</time></trkpt><trkpt lat="44.4682397" lon="11.3986206"><ele>74.14285714285714</ele><time>2026-04-30T12:25:10.681Z</time></trkpt><trkpt lat="44.4681828" lon="11.3985498"><ele>74.42857142857143</ele><time>2026-04-30T12:25:12.682Z</time></trkpt><trkpt lat="44.4681267" lon="11.3984773"><ele>74.71428571428571</ele><time>2026-04-30T12:25:14.689Z</time></trkpt><trkpt lat="44.4680755" lon="11.3984039"><ele>75.0</ele><time>2026-04-30T12:25:16.679Z</time></trkpt><trkpt lat="44.4680256" lon="11.3983172"><ele>75.0</ele><time>2026-04-30T12:25:18.68Z</time></trkpt><trkpt lat="44.4679772" lon="11.3982373"><ele>75.0</ele><time>2026-04-30T12:25:20.683Z</time></trkpt><trkpt lat="44.4679382" lon="11.3981634"><ele>75.0</ele><time>2026-04-30T12:25:22.679Z</time></trkpt><trkpt lat="44.4678995" lon="11.3980915"><ele>75.0</ele><time>2026-04-30T12:25:24.678Z</time></trkpt><trkpt lat="44.4678558" lon="11.3980103"><ele>75.0</ele><time>2026-04-30T12:25:27.681Z</time></trkpt><trkpt lat="44.4678063" lon="11.3979045"><ele>75.0</ele><time>2026-04-30T12:25:30.685Z</time></trkpt><trkpt lat="44.4677497" lon="11.3977835"><ele>75.42857142857142</ele><time>2026-04-30T12:25:33.689Z</time></trkpt><trkpt lat="44.4677037" lon="11.3977021"><ele>75.85714285714286</ele><time>2026-04-30T12:25:35.681Z</time></trkpt><trkpt lat="44.4676635" lon="11.3976211"><ele>76.28571428571428</ele><time>2026-04-30T12:25:37.676Z</time></trkpt><trkpt lat="44.4676232" lon="11.3975459"><ele>76.71428571428571</ele><time>2026-04-30T12:25:39.687Z</time></trkpt><trkpt lat="44.4675735" lon="11.3974551"><ele>77.14285714285714</ele><time>2026-04-30T12:25:41.681Z</time></trkpt><trkpt lat="44.4675308" lon="11.3973724"><ele>77.57142857142857</ele><time>2026-04-30T12:25:43.688Z</time></trkpt><trkpt lat="44.4674943" lon="11.3972981"><ele>78.0</ele><time>2026-04-30T12:25:45.686Z</time></trkpt><trkpt lat="44.4674355" lon="11.3971995"><ele>77.83333333333333</ele><time>2026-04-30T12:25:48.674Z</time></trkpt><trkpt lat="44.4673968" lon="11.3971287"><ele>77.66666666666667</ele><time>2026-04-30T12:25:51.671Z</time></trkpt><trkpt lat="44.4673819" lon="11.397037"><ele>77.5</ele><time>2026-04-30T12:26:02.684Z</time></trkpt><trkpt lat="44.4673508" lon="11.396934"><ele>77.33333333333334</ele><time>2026-04-30T12:26:06.682Z</time></trkpt><trkpt lat="44.4672991" lon="11.3968626"><ele>77.16666666666667</ele><time>2026-04-30T12:26:08.676Z</time></trkpt><trkpt lat="44.4672299" lon="11.3967737"><ele>77.0</ele><time>2026-04-30T12:26:10.679Z</time></trkpt><trkpt lat="44.4671586" lon="11.3966769"><ele>76.33333333333334</ele><time>2026-04-30T12:26:12.676Z</time></trkpt><trkpt lat="44.4670965" lon="11.3965832"><ele>75.66666666666667</ele><time>2026-04-30T12:26:14.696Z</time></trkpt><trkpt lat="44.4670622" lon="11.3964902"><ele>75.0</ele><time>2026-04-30T12:27:27.679Z</time></trkpt><trkpt lat="44.4669901" lon="11.396452"><ele>74.33333333333333</ele><time>2026-04-30T12:27:31.69Z</time></trkpt><trkpt lat="44.4669039" lon="11.3964976"><ele>73.66666666666666</ele><time>2026-04-30T12:27:34.673Z</time></trkpt><trkpt lat="44.4668336" lon="11.396549"><ele>73.0</ele><time>2026-04-30T12:27:36.684Z</time></trkpt><trkpt lat="44.4667576" lon="11.3966109"><ele>73.0</ele><time>2026-04-30T12:27:38.685Z</time></trkpt><trkpt lat="44.4666765" lon="11.3966789"><ele>73.0</ele><time>2026-04-30T12:27:40.687Z</time></trkpt><trkpt lat="44.4665907" lon="11.3967491"><ele>73.0</ele><time>2026-04-30T12:27:42.683Z</time></trkpt><trkpt lat="44.4665075" lon="11.3968274"><ele>73.0</ele><time>2026-04-30T12:27:44.678Z</time></trkpt><trkpt lat="44.4664251" lon="11.3969027"><ele>73.0</ele><time>2026-04-30T12:27:46.68Z</time></trkpt><trkpt lat="44.4663482" lon="11.3969757"><ele>73.0</ele><time>2026-04-30T12:27:48.691Z</time></trkpt><trkpt lat="44.4662848" lon="11.3970406"><ele>73.0</ele><time>2026-04-30T12:27:50.685Z</time></trkpt><trkpt lat="44.46624" lon="11.39712"><ele>73.0</ele><time>2026-04-30T12:27:52.693Z</time></trkpt><trkpt lat="44.4661984" lon="11.3972344"><ele>73.0</ele><time>2026-04-30T12:27:54.677Z</time></trkpt><trkpt lat="44.4661398" lon="11.39734"><ele>73.0</ele><time>2026-04-30T12:27:56.682Z</time></trkpt><trkpt lat="44.4660846" lon="11.397441"><ele>73.0</ele><time>2026-04-30T12:27:58.696Z</time></trkpt><trkpt lat="44.466031" lon="11.397534"><ele>73.8</ele><time>2026-04-30T12:28:00.68Z</time></trkpt><trkpt lat="44.4659704" lon="11.3976191"><ele>74.6</ele><time>2026-04-30T12:28:02.685Z</time></trkpt><trkpt lat="44.4659017" lon="11.3977288"><ele>75.4</ele><time>2026-04-30T12:28:04.693Z</time></trkpt><trkpt lat="44.4658357" lon="11.3978394"><ele>76.2</ele><time>2026-04-30T12:28:06.694Z</time></trkpt><trkpt lat="44.4657672" lon="11.3979413"><ele>77.0</ele><time>2026-04-30T12:28:08.686Z</time></trkpt><trkpt lat="44.4657064" lon="11.398038"><ele>77.14285714285714</ele><time>2026-04-30T12:28:10.69Z</time></trkpt><trkpt lat="44.4656531" lon="11.3981174"><ele>77.28571428571428</ele><time>2026-04-30T12:28:12.662Z</time></trkpt><trkpt lat="44.4656005" lon="11.3981987"><ele>77.42857142857143</ele><time>2026-04-30T12:28:14.694Z</time></trkpt><trkpt lat="44.4655479" lon="11.3982771"><ele>77.57142857142857</ele><time>2026-04-30T12:28:16.693Z</time></trkpt><trkpt lat="44.4655023" lon="11.3983502"><ele>77.71428571428571</ele><time>2026-04-30T12:28:18.68Z</time></trkpt><trkpt lat="44.4654684" lon="11.3984295"><ele>77.85714285714286</ele><time>2026-04-30T12:28:21.685Z</time></trkpt><trkpt lat="44.4655318" lon="11.3984858"><ele>78.0</ele><time>2026-04-30T12:28:24.689Z</time></trkpt><trkpt lat="44.465609" lon="11.3985537"><ele>78.0</ele><time>2026-04-30T12:28:27.69Z</time></trkpt><trkpt lat="44.4656634" lon="11.3986139"><ele>78.0</ele><time>2026-04-30T12:28:29.681Z</time></trkpt><trkpt lat="44.4657235" lon="11.3986856"><ele>78.0</ele><time>2026-04-30T12:28:31.691Z</time></trkpt><trkpt lat="44.4657852" lon="11.3987647"><ele>78.0</ele><time>2026-04-30T12:28:33.689Z</time></trkpt><trkpt lat="44.4658493" lon="11.3988392"><ele>78.0</ele><time>2026-04-30T12:28:35.679Z</time></trkpt><trkpt lat="44.4659148" lon="11.3989112"><ele>78.0</ele><time>2026-04-30T12:28:37.683Z</time></trkpt><trkpt lat="44.4659822" lon="11.3989776"><ele>78.66666666666667</ele><time>2026-04-30T12:28:39.682Z</time></trkpt><trkpt lat="44.4660315" lon="11.3990546"><ele>79.33333333333333</ele><time>2026-04-30T12:28:41.687Z</time></trkpt><trkpt lat="44.466" lon="11.3991693"><ele>80.0</ele><time>2026-04-30T12:28:44.684Z</time></trkpt><trkpt lat="44.4659492" lon="11.3992618"><ele>80.66666666666666</ele><time>2026-04-30T12:28:48.685Z</time></trkpt><trkpt lat="44.465911" lon="11.3993576"><ele>81.33333333333333</ele><time>2026-04-30T12:28:51.68Z</time></trkpt><trkpt lat="44.4658609" lon="11.3994676"><ele>82.0</ele><time>2026-04-30T12:28:54.685Z</time></trkpt><trkpt lat="44.4658221" lon="11.3995426"><ele>82.0</ele><time>2026-04-30T12:28:56.685Z</time></trkpt><trkpt lat="44.4657687" lon="11.3996277"><ele>82.0</ele><time>2026-04-30T12:28:58.686Z</time></trkpt><trkpt lat="44.4657178" lon="11.3997082"><ele>82.0</ele><time>2026-04-30T12:29:00.692Z</time></trkpt><trkpt lat="44.4656694" lon="11.3997877"><ele>82.0</ele><time>2026-04-30T12:29:02.674Z</time></trkpt><trkpt lat="44.4656074" lon="11.3998562"><ele>82.0</ele><time>2026-04-30T12:29:05.684Z</time></trkpt><trkpt lat="44.4655163" lon="11.3998105"><ele>82.0</ele><time>2026-04-30T12:29:08.694Z</time></trkpt><trkpt lat="44.4654463" lon="11.3997676"><ele>81.0</ele><time>2026-04-30T12:29:10.682Z</time></trkpt><trkpt lat="44.4653982" lon="11.3997033"><ele>79.0</ele><time>2026-04-30T12:29:12.689Z</time></trkpt><trkpt lat="44.4654323" lon="11.3995864"><ele>77.0</ele><time>2026-04-30T12:29:15.685Z</time></trkpt><trkpt lat="44.4654914" lon="11.3994843"><ele>82.0</ele><time>2026-04-30T12:29:18.685Z</time></trkpt><trkpt lat="44.4655207" lon="11.3994055"><ele>82.0</ele><time>2026-04-30T12:29:21.685Z</time></trkpt></trkseg></trk></gpx>